<?xml version="1.0" encoding="UTF-8" standalone="no" ?>
<gpx xmlns="http://www.topografix.com/GPX/1/1" xmlns:xsi="http://www.w3.org/2001/XMLSchema-instance" xsi:schemaLocation="http://www.topografix.com/GPX/1/1 http://www.topografix.com/GPX/1/1/gpx.xsd" version="1.1" creator="VisuGPX - https://www.visugpx.com">
  <metadata>
    <name>Annemasse, col du feu, col des Arces, col de Ludran, les Voirons Juffly Milly Lucinges, Annemase </name>
    <desc><![CDATA[File with points/tracks from Locus Map/3.32.2]]></desc>
  </metadata>
  <trk>
    <name><![CDATA[2018-09-15 10:52:15]]></name>
    <trkseg>
      <trkpt lat="46.19304" lon="6.25026">
        <ele>450.65</ele>
        <time>2018-09-15T08:59:59.000Z</time>
      </trkpt>
      <trkpt lat="46.19296" lon="6.25018">
        <ele>454.73</ele>
        <time>2018-09-15T09:00:04.000Z</time>
      </trkpt>
      <trkpt lat="46.19291" lon="6.25031">
        <ele>459.15</ele>
        <time>2018-09-15T09:04:00.000Z</time>
      </trkpt>
      <trkpt lat="46.19287" lon="6.25047">
        <ele>460.95</ele>
        <time>2018-09-15T09:04:05.000Z</time>
      </trkpt>
      <trkpt lat="46.19283" lon="6.25063">
        <ele>463.2</ele>
        <time>2018-09-15T09:04:10.000Z</time>
      </trkpt>
      <trkpt lat="46.19282" lon="6.25083">
        <ele>464.18</ele>
        <time>2018-09-15T09:04:15.000Z</time>
      </trkpt>
      <trkpt lat="46.1928" lon="6.25096">
        <ele>461.5</ele>
        <time>2018-09-15T09:04:29.000Z</time>
      </trkpt>
      <trkpt lat="46.19289" lon="6.25104">
        <ele>458.23</ele>
        <time>2018-09-15T09:05:12.000Z</time>
      </trkpt>
      <trkpt lat="46.19301" lon="6.25109">
        <ele>458.22</ele>
        <time>2018-09-15T09:05:17.000Z</time>
      </trkpt>
      <trkpt lat="46.19326" lon="6.25106">
        <ele>455.47</ele>
        <time>2018-09-15T09:05:22.000Z</time>
      </trkpt>
      <trkpt lat="46.19357" lon="6.25103">
        <ele>453.28</ele>
        <time>2018-09-15T09:05:27.000Z</time>
      </trkpt>
      <trkpt lat="46.19393" lon="6.25101">
        <ele>452.23</ele>
        <time>2018-09-15T09:05:32.000Z</time>
      </trkpt>
      <trkpt lat="46.19428" lon="6.25113">
        <ele>451.21</ele>
        <time>2018-09-15T09:05:37.000Z</time>
      </trkpt>
      <trkpt lat="46.19457" lon="6.2513">
        <ele>451.41</ele>
        <time>2018-09-15T09:05:42.000Z</time>
      </trkpt>
      <trkpt lat="46.19489" lon="6.25132">
        <ele>450.22</ele>
        <time>2018-09-15T09:05:47.000Z</time>
      </trkpt>
      <trkpt lat="46.19523" lon="6.25142">
        <ele>450.23</ele>
        <time>2018-09-15T09:05:52.000Z</time>
      </trkpt>
      <trkpt lat="46.19558" lon="6.25154">
        <ele>449.51</ele>
        <time>2018-09-15T09:05:57.000Z</time>
      </trkpt>
      <trkpt lat="46.19594" lon="6.25174">
        <ele>449.21</ele>
        <time>2018-09-15T09:06:02.000Z</time>
      </trkpt>
      <trkpt lat="46.19633" lon="6.25196">
        <ele>449.21</ele>
        <time>2018-09-15T09:06:07.000Z</time>
      </trkpt>
      <trkpt lat="46.19664" lon="6.2521">
        <ele>450.95</ele>
        <time>2018-09-15T09:06:12.000Z</time>
      </trkpt>
      <trkpt lat="46.19691" lon="6.25216">
        <ele>449.97</ele>
        <time>2018-09-15T09:06:17.000Z</time>
      </trkpt>
      <trkpt lat="46.19709" lon="6.25218">
        <ele>451.95</ele>
        <time>2018-09-15T09:06:22.000Z</time>
      </trkpt>
      <trkpt lat="46.19733" lon="6.25221">
        <ele>454.25</ele>
        <time>2018-09-15T09:06:27.000Z</time>
      </trkpt>
      <trkpt lat="46.19763" lon="6.25224">
        <ele>454.21</ele>
        <time>2018-09-15T09:06:32.000Z</time>
      </trkpt>
      <trkpt lat="46.19794" lon="6.25227">
        <ele>455.95</ele>
        <time>2018-09-15T09:06:37.000Z</time>
      </trkpt>
      <trkpt lat="46.19828" lon="6.25222">
        <ele>455.23</ele>
        <time>2018-09-15T09:06:42.000Z</time>
      </trkpt>
      <trkpt lat="46.19865" lon="6.25211">
        <ele>452.22</ele>
        <time>2018-09-15T09:06:47.000Z</time>
      </trkpt>
      <trkpt lat="46.19904" lon="6.25199">
        <ele>452.21</ele>
        <time>2018-09-15T09:06:52.000Z</time>
      </trkpt>
      <trkpt lat="46.19944" lon="6.25182">
        <ele>451.69</ele>
        <time>2018-09-15T09:06:57.000Z</time>
      </trkpt>
      <trkpt lat="46.19974" lon="6.25164">
        <ele>452.15</ele>
        <time>2018-09-15T09:07:02.000Z</time>
      </trkpt>
      <trkpt lat="46.19993" lon="6.2516">
        <ele>453.2</ele>
        <time>2018-09-15T09:07:07.000Z</time>
      </trkpt>
      <trkpt lat="46.20022" lon="6.25161">
        <ele>452.46</ele>
        <time>2018-09-15T09:07:12.000Z</time>
      </trkpt>
      <trkpt lat="46.20054" lon="6.25164">
        <ele>452.21</ele>
        <time>2018-09-15T09:07:17.000Z</time>
      </trkpt>
      <trkpt lat="46.20088" lon="6.25167">
        <ele>451.46</ele>
        <time>2018-09-15T09:07:22.000Z</time>
      </trkpt>
      <trkpt lat="46.20125" lon="6.25169">
        <ele>451.2</ele>
        <time>2018-09-15T09:07:27.000Z</time>
      </trkpt>
      <trkpt lat="46.20163" lon="6.25179">
        <ele>453.19</ele>
        <time>2018-09-15T09:07:32.000Z</time>
      </trkpt>
      <trkpt lat="46.20199" lon="6.25191">
        <ele>452.2</ele>
        <time>2018-09-15T09:07:37.000Z</time>
      </trkpt>
      <trkpt lat="46.20226" lon="6.25202">
        <ele>453.16</ele>
        <time>2018-09-15T09:07:42.000Z</time>
      </trkpt>
      <trkpt lat="46.2025" lon="6.25214">
        <ele>451.21</ele>
        <time>2018-09-15T09:07:47.000Z</time>
      </trkpt>
      <trkpt lat="46.2026" lon="6.25217">
        <ele>449.46</ele>
        <time>2018-09-15T09:08:30.000Z</time>
      </trkpt>
      <trkpt lat="46.20279" lon="6.25223">
        <ele>449.15</ele>
        <time>2018-09-15T09:08:35.000Z</time>
      </trkpt>
      <trkpt lat="46.20313" lon="6.25225">
        <ele>449.21</ele>
        <time>2018-09-15T09:08:40.000Z</time>
      </trkpt>
      <trkpt lat="46.20342" lon="6.25184">
        <ele>446.53</ele>
        <time>2018-09-15T09:08:45.000Z</time>
      </trkpt>
      <trkpt lat="46.20347" lon="6.25118">
        <ele>443.53</ele>
        <time>2018-09-15T09:08:50.000Z</time>
      </trkpt>
      <trkpt lat="46.20344" lon="6.25057">
        <ele>441.23</ele>
        <time>2018-09-15T09:08:55.000Z</time>
      </trkpt>
      <trkpt lat="46.20338" lon="6.25007">
        <ele>441.21</ele>
        <time>2018-09-15T09:09:00.000Z</time>
      </trkpt>
      <trkpt lat="46.20357" lon="6.24988">
        <ele>442.14</ele>
        <time>2018-09-15T09:09:05.000Z</time>
      </trkpt>
      <trkpt lat="46.2038" lon="6.24981">
        <ele>442.19</ele>
        <time>2018-09-15T09:09:10.000Z</time>
      </trkpt>
      <trkpt lat="46.204" lon="6.24972">
        <ele>442.02</ele>
        <time>2018-09-15T09:09:15.000Z</time>
      </trkpt>
      <trkpt lat="46.20412" lon="6.24963">
        <ele>442.2</ele>
        <time>2018-09-15T09:09:20.000Z</time>
      </trkpt>
      <trkpt lat="46.20423" lon="6.24959">
        <ele>439.27</ele>
        <time>2018-09-15T09:09:59.000Z</time>
      </trkpt>
      <trkpt lat="46.20444" lon="6.24955">
        <ele>438.22</ele>
        <time>2018-09-15T09:10:04.000Z</time>
      </trkpt>
      <trkpt lat="46.20475" lon="6.24957">
        <ele>439.14</ele>
        <time>2018-09-15T09:10:09.000Z</time>
      </trkpt>
      <trkpt lat="46.20505" lon="6.24966">
        <ele>441.13</ele>
        <time>2018-09-15T09:10:14.000Z</time>
      </trkpt>
      <trkpt lat="46.2053" lon="6.24972">
        <ele>443.13</ele>
        <time>2018-09-15T09:10:19.000Z</time>
      </trkpt>
      <trkpt lat="46.20552" lon="6.24959">
        <ele>443.25</ele>
        <time>2018-09-15T09:10:24.000Z</time>
      </trkpt>
      <trkpt lat="46.20576" lon="6.24939">
        <ele>443.97</ele>
        <time>2018-09-15T09:10:29.000Z</time>
      </trkpt>
      <trkpt lat="46.206" lon="6.24951">
        <ele>441.25</ele>
        <time>2018-09-15T09:10:34.000Z</time>
      </trkpt>
      <trkpt lat="46.2062" lon="6.2498">
        <ele>444.89</ele>
        <time>2018-09-15T09:10:39.000Z</time>
      </trkpt>
      <trkpt lat="46.20637" lon="6.25011">
        <ele>447.87</ele>
        <time>2018-09-15T09:10:44.000Z</time>
      </trkpt>
      <trkpt lat="46.20653" lon="6.25043">
        <ele>448.22</ele>
        <time>2018-09-15T09:10:49.000Z</time>
      </trkpt>
      <trkpt lat="46.20668" lon="6.25077">
        <ele>446.22</ele>
        <time>2018-09-15T09:10:54.000Z</time>
      </trkpt>
      <trkpt lat="46.20683" lon="6.25109">
        <ele>447.43</ele>
        <time>2018-09-15T09:10:59.000Z</time>
      </trkpt>
      <trkpt lat="46.207" lon="6.25138">
        <ele>445.28</ele>
        <time>2018-09-15T09:11:04.000Z</time>
      </trkpt>
      <trkpt lat="46.20719" lon="6.25169">
        <ele>445.2</ele>
        <time>2018-09-15T09:11:09.000Z</time>
      </trkpt>
      <trkpt lat="46.2074" lon="6.252">
        <ele>444.2</ele>
        <time>2018-09-15T09:11:14.000Z</time>
      </trkpt>
      <trkpt lat="46.20761" lon="6.25228">
        <ele>444.2</ele>
        <time>2018-09-15T09:11:19.000Z</time>
      </trkpt>
      <trkpt lat="46.20782" lon="6.2525">
        <ele>444.14</ele>
        <time>2018-09-15T09:11:24.000Z</time>
      </trkpt>
      <trkpt lat="46.20801" lon="6.25272">
        <ele>445.2</ele>
        <time>2018-09-15T09:11:29.000Z</time>
      </trkpt>
      <trkpt lat="46.20818" lon="6.25291">
        <ele>447.12</ele>
        <time>2018-09-15T09:11:34.000Z</time>
      </trkpt>
      <trkpt lat="46.20835" lon="6.25306">
        <ele>449.14</ele>
        <time>2018-09-15T09:11:39.000Z</time>
      </trkpt>
      <trkpt lat="46.20849" lon="6.25323">
        <ele>450.95</ele>
        <time>2018-09-15T09:11:44.000Z</time>
      </trkpt>
      <trkpt lat="46.20862" lon="6.2534">
        <ele>454.06</ele>
        <time>2018-09-15T09:11:49.000Z</time>
      </trkpt>
      <trkpt lat="46.20875" lon="6.25359">
        <ele>452.4</ele>
        <time>2018-09-15T09:11:54.000Z</time>
      </trkpt>
      <trkpt lat="46.20889" lon="6.25377">
        <ele>454.88</ele>
        <time>2018-09-15T09:11:59.000Z</time>
      </trkpt>
      <trkpt lat="46.20904" lon="6.25395">
        <ele>458.12</ele>
        <time>2018-09-15T09:12:04.000Z</time>
      </trkpt>
      <trkpt lat="46.20919" lon="6.25413">
        <ele>455.03</ele>
        <time>2018-09-15T09:12:09.000Z</time>
      </trkpt>
      <trkpt lat="46.20915" lon="6.2544">
        <ele>455.39</ele>
        <time>2018-09-15T09:12:14.000Z</time>
      </trkpt>
      <trkpt lat="46.20915" lon="6.25471">
        <ele>455.18</ele>
        <time>2018-09-15T09:12:19.000Z</time>
      </trkpt>
      <trkpt lat="46.20929" lon="6.25494">
        <ele>456.95</ele>
        <time>2018-09-15T09:12:24.000Z</time>
      </trkpt>
      <trkpt lat="46.20948" lon="6.25519">
        <ele>457.39</ele>
        <time>2018-09-15T09:12:29.000Z</time>
      </trkpt>
      <trkpt lat="46.20966" lon="6.25544">
        <ele>458.14</ele>
        <time>2018-09-15T09:12:34.000Z</time>
      </trkpt>
      <trkpt lat="46.20984" lon="6.25569">
        <ele>458.63</ele>
        <time>2018-09-15T09:12:39.000Z</time>
      </trkpt>
      <trkpt lat="46.20996" lon="6.25593">
        <ele>461.13</ele>
        <time>2018-09-15T09:12:44.000Z</time>
      </trkpt>
      <trkpt lat="46.21006" lon="6.25622">
        <ele>461.2</ele>
        <time>2018-09-15T09:12:49.000Z</time>
      </trkpt>
      <trkpt lat="46.21014" lon="6.25652">
        <ele>463.13</ele>
        <time>2018-09-15T09:12:54.000Z</time>
      </trkpt>
      <trkpt lat="46.21021" lon="6.25682">
        <ele>464.13</ele>
        <time>2018-09-15T09:12:59.000Z</time>
      </trkpt>
      <trkpt lat="46.21028" lon="6.25716">
        <ele>465.18</ele>
        <time>2018-09-15T09:13:04.000Z</time>
      </trkpt>
      <trkpt lat="46.21036" lon="6.25752">
        <ele>467.13</ele>
        <time>2018-09-15T09:13:09.000Z</time>
      </trkpt>
      <trkpt lat="46.21046" lon="6.25786">
        <ele>467.2</ele>
        <time>2018-09-15T09:13:14.000Z</time>
      </trkpt>
      <trkpt lat="46.21056" lon="6.25818">
        <ele>467.95</ele>
        <time>2018-09-15T09:13:19.000Z</time>
      </trkpt>
      <trkpt lat="46.21066" lon="6.2585">
        <ele>469.13</ele>
        <time>2018-09-15T09:13:24.000Z</time>
      </trkpt>
      <trkpt lat="46.21076" lon="6.25877">
        <ele>468.95</ele>
        <time>2018-09-15T09:13:29.000Z</time>
      </trkpt>
      <trkpt lat="46.21085" lon="6.25905">
        <ele>470.18</ele>
        <time>2018-09-15T09:13:34.000Z</time>
      </trkpt>
      <trkpt lat="46.21093" lon="6.2593">
        <ele>471.94</ele>
        <time>2018-09-15T09:13:39.000Z</time>
      </trkpt>
      <trkpt lat="46.21102" lon="6.25954">
        <ele>472.2</ele>
        <time>2018-09-15T09:13:44.000Z</time>
      </trkpt>
      <trkpt lat="46.2111" lon="6.25979">
        <ele>473.94</ele>
        <time>2018-09-15T09:13:49.000Z</time>
      </trkpt>
      <trkpt lat="46.21119" lon="6.26002">
        <ele>475.14</ele>
        <time>2018-09-15T09:13:54.000Z</time>
      </trkpt>
      <trkpt lat="46.2113" lon="6.26027">
        <ele>475.2</ele>
        <time>2018-09-15T09:13:59.000Z</time>
      </trkpt>
      <trkpt lat="46.2114" lon="6.26049">
        <ele>477.13</ele>
        <time>2018-09-15T09:14:04.000Z</time>
      </trkpt>
      <trkpt lat="46.21149" lon="6.26073">
        <ele>477.38</ele>
        <time>2018-09-15T09:14:09.000Z</time>
      </trkpt>
      <trkpt lat="46.21159" lon="6.26096">
        <ele>476.21</ele>
        <time>2018-09-15T09:14:14.000Z</time>
      </trkpt>
      <trkpt lat="46.21167" lon="6.2612">
        <ele>477.19</ele>
        <time>2018-09-15T09:14:19.000Z</time>
      </trkpt>
      <trkpt lat="46.21178" lon="6.26146">
        <ele>477.94</ele>
        <time>2018-09-15T09:14:24.000Z</time>
      </trkpt>
      <trkpt lat="46.21188" lon="6.26178">
        <ele>479.13</ele>
        <time>2018-09-15T09:14:29.000Z</time>
      </trkpt>
      <trkpt lat="46.21201" lon="6.26218">
        <ele>478.96</ele>
        <time>2018-09-15T09:14:34.000Z</time>
      </trkpt>
      <trkpt lat="46.21215" lon="6.26267">
        <ele>477.45</ele>
        <time>2018-09-15T09:14:39.000Z</time>
      </trkpt>
      <trkpt lat="46.21231" lon="6.26328">
        <ele>474.46</ele>
        <time>2018-09-15T09:14:44.000Z</time>
      </trkpt>
      <trkpt lat="46.21245" lon="6.26398">
        <ele>470.53</ele>
        <time>2018-09-15T09:14:49.000Z</time>
      </trkpt>
      <trkpt lat="46.2126" lon="6.26471">
        <ele>467.27</ele>
        <time>2018-09-15T09:14:54.000Z</time>
      </trkpt>
      <trkpt lat="46.21276" lon="6.26544">
        <ele>466.2</ele>
        <time>2018-09-15T09:14:59.000Z</time>
      </trkpt>
      <trkpt lat="46.21289" lon="6.2661">
        <ele>465.24</ele>
        <time>2018-09-15T09:15:04.000Z</time>
      </trkpt>
      <trkpt lat="46.21304" lon="6.26679">
        <ele>464.44</ele>
        <time>2018-09-15T09:15:09.000Z</time>
      </trkpt>
      <trkpt lat="46.21317" lon="6.2674">
        <ele>464.95</ele>
        <time>2018-09-15T09:15:14.000Z</time>
      </trkpt>
      <trkpt lat="46.21329" lon="6.26791">
        <ele>465.13</ele>
        <time>2018-09-15T09:15:19.000Z</time>
      </trkpt>
      <trkpt lat="46.21339" lon="6.26832">
        <ele>466.94</ele>
        <time>2018-09-15T09:15:24.000Z</time>
      </trkpt>
      <trkpt lat="46.21345" lon="6.26869">
        <ele>466.44</ele>
        <time>2018-09-15T09:15:29.000Z</time>
      </trkpt>
      <trkpt lat="46.21353" lon="6.26901">
        <ele>467.88</ele>
        <time>2018-09-15T09:15:34.000Z</time>
      </trkpt>
      <trkpt lat="46.21362" lon="6.26929">
        <ele>469.19</ele>
        <time>2018-09-15T09:15:39.000Z</time>
      </trkpt>
      <trkpt lat="46.21373" lon="6.26957">
        <ele>470.94</ele>
        <time>2018-09-15T09:15:44.000Z</time>
      </trkpt>
      <trkpt lat="46.21386" lon="6.26983">
        <ele>473.36</ele>
        <time>2018-09-15T09:15:49.000Z</time>
      </trkpt>
      <trkpt lat="46.21397" lon="6.2701">
        <ele>475.13</ele>
        <time>2018-09-15T09:15:54.000Z</time>
      </trkpt>
      <trkpt lat="46.21407" lon="6.27034">
        <ele>476</ele>
        <time>2018-09-15T09:15:59.000Z</time>
      </trkpt>
      <trkpt lat="46.21416" lon="6.27058">
        <ele>477.13</ele>
        <time>2018-09-15T09:16:04.000Z</time>
      </trkpt>
      <trkpt lat="46.21423" lon="6.27084">
        <ele>477.94</ele>
        <time>2018-09-15T09:16:09.000Z</time>
      </trkpt>
      <trkpt lat="46.21428" lon="6.2711">
        <ele>479.13</ele>
        <time>2018-09-15T09:16:14.000Z</time>
      </trkpt>
      <trkpt lat="46.21433" lon="6.27137">
        <ele>480.14</ele>
        <time>2018-09-15T09:16:19.000Z</time>
      </trkpt>
      <trkpt lat="46.21438" lon="6.27163">
        <ele>481.19</ele>
        <time>2018-09-15T09:16:24.000Z</time>
      </trkpt>
      <trkpt lat="46.21442" lon="6.2719">
        <ele>481</ele>
        <time>2018-09-15T09:16:29.000Z</time>
      </trkpt>
      <trkpt lat="46.21448" lon="6.27216">
        <ele>480.96</ele>
        <time>2018-09-15T09:16:34.000Z</time>
      </trkpt>
      <trkpt lat="46.21453" lon="6.27243">
        <ele>482.13</ele>
        <time>2018-09-15T09:16:39.000Z</time>
      </trkpt>
      <trkpt lat="46.21458" lon="6.27269">
        <ele>484.92</ele>
        <time>2018-09-15T09:16:44.000Z</time>
      </trkpt>
      <trkpt lat="46.21464" lon="6.27295">
        <ele>486.93</ele>
        <time>2018-09-15T09:16:49.000Z</time>
      </trkpt>
      <trkpt lat="46.21469" lon="6.2732">
        <ele>488.17</ele>
        <time>2018-09-15T09:16:54.000Z</time>
      </trkpt>
      <trkpt lat="46.21474" lon="6.27346">
        <ele>489.19</ele>
        <time>2018-09-15T09:16:59.000Z</time>
      </trkpt>
      <trkpt lat="46.21478" lon="6.27376">
        <ele>488.21</ele>
        <time>2018-09-15T09:17:04.000Z</time>
      </trkpt>
      <trkpt lat="46.21483" lon="6.27408">
        <ele>489.13</ele>
        <time>2018-09-15T09:17:09.000Z</time>
      </trkpt>
      <trkpt lat="46.21487" lon="6.27439">
        <ele>488.19</ele>
        <time>2018-09-15T09:17:14.000Z</time>
      </trkpt>
      <trkpt lat="46.21493" lon="6.27472">
        <ele>488.42</ele>
        <time>2018-09-15T09:17:19.000Z</time>
      </trkpt>
      <trkpt lat="46.215" lon="6.27504">
        <ele>489.19</ele>
        <time>2018-09-15T09:17:24.000Z</time>
      </trkpt>
      <trkpt lat="46.21507" lon="6.27537">
        <ele>490.19</ele>
        <time>2018-09-15T09:17:29.000Z</time>
      </trkpt>
      <trkpt lat="46.21516" lon="6.27575">
        <ele>489.44</ele>
        <time>2018-09-15T09:17:34.000Z</time>
      </trkpt>
      <trkpt lat="46.21525" lon="6.27616">
        <ele>489.19</ele>
        <time>2018-09-15T09:17:39.000Z</time>
      </trkpt>
      <trkpt lat="46.21536" lon="6.27659">
        <ele>489.14</ele>
        <time>2018-09-15T09:17:44.000Z</time>
      </trkpt>
      <trkpt lat="46.21549" lon="6.277">
        <ele>488.44</ele>
        <time>2018-09-15T09:17:49.000Z</time>
      </trkpt>
      <trkpt lat="46.2157" lon="6.27734">
        <ele>488.2</ele>
        <time>2018-09-15T09:17:54.000Z</time>
      </trkpt>
      <trkpt lat="46.21593" lon="6.27767">
        <ele>488.19</ele>
        <time>2018-09-15T09:17:59.000Z</time>
      </trkpt>
      <trkpt lat="46.21615" lon="6.278">
        <ele>487.86</ele>
        <time>2018-09-15T09:18:04.000Z</time>
      </trkpt>
      <trkpt lat="46.21635" lon="6.27832">
        <ele>488.94</ele>
        <time>2018-09-15T09:18:09.000Z</time>
      </trkpt>
      <trkpt lat="46.21628" lon="6.2787">
        <ele>489.19</ele>
        <time>2018-09-15T09:18:14.000Z</time>
      </trkpt>
      <trkpt lat="46.21601" lon="6.27915">
        <ele>487.25</ele>
        <time>2018-09-15T09:18:19.000Z</time>
      </trkpt>
      <trkpt lat="46.2158" lon="6.27975">
        <ele>485.26</ele>
        <time>2018-09-15T09:18:24.000Z</time>
      </trkpt>
      <trkpt lat="46.21566" lon="6.2803">
        <ele>484.25</ele>
        <time>2018-09-15T09:18:29.000Z</time>
      </trkpt>
      <trkpt lat="46.21567" lon="6.28062">
        <ele>484.19</ele>
        <time>2018-09-15T09:18:34.000Z</time>
      </trkpt>
      <trkpt lat="46.21586" lon="6.28085">
        <ele>483.95</ele>
        <time>2018-09-15T09:18:39.000Z</time>
      </trkpt>
      <trkpt lat="46.21608" lon="6.28107">
        <ele>484.12</ele>
        <time>2018-09-15T09:18:44.000Z</time>
      </trkpt>
      <trkpt lat="46.21627" lon="6.28126">
        <ele>484.95</ele>
        <time>2018-09-15T09:18:49.000Z</time>
      </trkpt>
      <trkpt lat="46.21645" lon="6.28144">
        <ele>487.17</ele>
        <time>2018-09-15T09:18:54.000Z</time>
      </trkpt>
      <trkpt lat="46.21659" lon="6.2817">
        <ele>486.19</ele>
        <time>2018-09-15T09:18:59.000Z</time>
      </trkpt>
      <trkpt lat="46.21673" lon="6.28204">
        <ele>486.13</ele>
        <time>2018-09-15T09:19:04.000Z</time>
      </trkpt>
      <trkpt lat="46.21686" lon="6.28236">
        <ele>487.18</ele>
        <time>2018-09-15T09:19:09.000Z</time>
      </trkpt>
      <trkpt lat="46.21701" lon="6.28265">
        <ele>488.13</ele>
        <time>2018-09-15T09:19:14.000Z</time>
      </trkpt>
      <trkpt lat="46.21716" lon="6.28286">
        <ele>489.37</ele>
        <time>2018-09-15T09:19:19.000Z</time>
      </trkpt>
      <trkpt lat="46.21732" lon="6.28302">
        <ele>490.94</ele>
        <time>2018-09-15T09:19:24.000Z</time>
      </trkpt>
      <trkpt lat="46.21748" lon="6.28319">
        <ele>492.18</ele>
        <time>2018-09-15T09:19:29.000Z</time>
      </trkpt>
      <trkpt lat="46.21762" lon="6.28339">
        <ele>493.17</ele>
        <time>2018-09-15T09:19:34.000Z</time>
      </trkpt>
      <trkpt lat="46.21776" lon="6.28362">
        <ele>493.19</ele>
        <time>2018-09-15T09:19:39.000Z</time>
      </trkpt>
      <trkpt lat="46.21786" lon="6.28394">
        <ele>492.25</ele>
        <time>2018-09-15T09:19:44.000Z</time>
      </trkpt>
      <trkpt lat="46.21796" lon="6.28432">
        <ele>490.25</ele>
        <time>2018-09-15T09:19:49.000Z</time>
      </trkpt>
      <trkpt lat="46.21808" lon="6.28478">
        <ele>489.19</ele>
        <time>2018-09-15T09:19:54.000Z</time>
      </trkpt>
      <trkpt lat="46.2182" lon="6.28525">
        <ele>488.19</ele>
        <time>2018-09-15T09:19:59.000Z</time>
      </trkpt>
      <trkpt lat="46.21829" lon="6.28568">
        <ele>488.94</ele>
        <time>2018-09-15T09:20:04.000Z</time>
      </trkpt>
      <trkpt lat="46.21839" lon="6.28611">
        <ele>488.25</ele>
        <time>2018-09-15T09:20:09.000Z</time>
      </trkpt>
      <trkpt lat="46.21849" lon="6.28652">
        <ele>490.12</ele>
        <time>2018-09-15T09:20:14.000Z</time>
      </trkpt>
      <trkpt lat="46.21857" lon="6.28691">
        <ele>489.19</ele>
        <time>2018-09-15T09:20:19.000Z</time>
      </trkpt>
      <trkpt lat="46.21867" lon="6.28728">
        <ele>488.25</ele>
        <time>2018-09-15T09:20:24.000Z</time>
      </trkpt>
      <trkpt lat="46.21879" lon="6.28767">
        <ele>488.19</ele>
        <time>2018-09-15T09:20:29.000Z</time>
      </trkpt>
      <trkpt lat="46.21892" lon="6.28803">
        <ele>488.17</ele>
        <time>2018-09-15T09:20:34.000Z</time>
      </trkpt>
      <trkpt lat="46.21907" lon="6.28842">
        <ele>488.19</ele>
        <time>2018-09-15T09:20:39.000Z</time>
      </trkpt>
      <trkpt lat="46.21925" lon="6.28884">
        <ele>488.94</ele>
        <time>2018-09-15T09:20:44.000Z</time>
      </trkpt>
      <trkpt lat="46.2194" lon="6.28922">
        <ele>489.19</ele>
        <time>2018-09-15T09:20:49.000Z</time>
      </trkpt>
      <trkpt lat="46.21953" lon="6.28959">
        <ele>490.92</ele>
        <time>2018-09-15T09:20:54.000Z</time>
      </trkpt>
      <trkpt lat="46.21966" lon="6.28992">
        <ele>494.06</ele>
        <time>2018-09-15T09:20:59.000Z</time>
      </trkpt>
      <trkpt lat="46.21978" lon="6.29018">
        <ele>495.13</ele>
        <time>2018-09-15T09:21:04.000Z</time>
      </trkpt>
      <trkpt lat="46.21987" lon="6.29045">
        <ele>497.18</ele>
        <time>2018-09-15T09:21:09.000Z</time>
      </trkpt>
      <trkpt lat="46.21991" lon="6.29074">
        <ele>498.37</ele>
        <time>2018-09-15T09:21:14.000Z</time>
      </trkpt>
      <trkpt lat="46.21989" lon="6.29111">
        <ele>498.18</ele>
        <time>2018-09-15T09:21:19.000Z</time>
      </trkpt>
      <trkpt lat="46.21983" lon="6.29147">
        <ele>498.18</ele>
        <time>2018-09-15T09:21:24.000Z</time>
      </trkpt>
      <trkpt lat="46.21975" lon="6.29179">
        <ele>498.95</ele>
        <time>2018-09-15T09:21:29.000Z</time>
      </trkpt>
      <trkpt lat="46.21965" lon="6.29207">
        <ele>499.18</ele>
        <time>2018-09-15T09:21:34.000Z</time>
      </trkpt>
      <trkpt lat="46.21966" lon="6.29238">
        <ele>501.17</ele>
        <time>2018-09-15T09:21:39.000Z</time>
      </trkpt>
      <trkpt lat="46.2198" lon="6.29263">
        <ele>501.18</ele>
        <time>2018-09-15T09:21:44.000Z</time>
      </trkpt>
      <trkpt lat="46.21997" lon="6.29288">
        <ele>500.11</ele>
        <time>2018-09-15T09:21:49.000Z</time>
      </trkpt>
      <trkpt lat="46.22015" lon="6.29316">
        <ele>501</ele>
        <time>2018-09-15T09:21:54.000Z</time>
      </trkpt>
      <trkpt lat="46.22038" lon="6.29339">
        <ele>501.12</ele>
        <time>2018-09-15T09:21:59.000Z</time>
      </trkpt>
      <trkpt lat="46.22062" lon="6.29363">
        <ele>501.93</ele>
        <time>2018-09-15T09:22:04.000Z</time>
      </trkpt>
      <trkpt lat="46.22086" lon="6.29383">
        <ele>501.25</ele>
        <time>2018-09-15T09:22:09.000Z</time>
      </trkpt>
      <trkpt lat="46.22113" lon="6.2941">
        <ele>499.43</ele>
        <time>2018-09-15T09:22:14.000Z</time>
      </trkpt>
      <trkpt lat="46.22144" lon="6.29424">
        <ele>498.19</ele>
        <time>2018-09-15T09:22:19.000Z</time>
      </trkpt>
      <trkpt lat="46.22167" lon="6.29433">
        <ele>497.19</ele>
        <time>2018-09-15T09:22:24.000Z</time>
      </trkpt>
      <trkpt lat="46.22188" lon="6.2945">
        <ele>498.93</ele>
        <time>2018-09-15T09:22:29.000Z</time>
      </trkpt>
      <trkpt lat="46.22205" lon="6.29466">
        <ele>500.12</ele>
        <time>2018-09-15T09:22:34.000Z</time>
      </trkpt>
      <trkpt lat="46.22222" lon="6.29472">
        <ele>501.18</ele>
        <time>2018-09-15T09:22:39.000Z</time>
      </trkpt>
      <trkpt lat="46.2224" lon="6.29477">
        <ele>501.43</ele>
        <time>2018-09-15T09:22:44.000Z</time>
      </trkpt>
      <trkpt lat="46.22261" lon="6.29481">
        <ele>502.93</ele>
        <time>2018-09-15T09:22:49.000Z</time>
      </trkpt>
      <trkpt lat="46.22284" lon="6.29485">
        <ele>503.13</ele>
        <time>2018-09-15T09:22:54.000Z</time>
      </trkpt>
      <trkpt lat="46.22307" lon="6.29494">
        <ele>503.23</ele>
        <time>2018-09-15T09:22:59.000Z</time>
      </trkpt>
      <trkpt lat="46.22329" lon="6.29508">
        <ele>504.13</ele>
        <time>2018-09-15T09:23:04.000Z</time>
      </trkpt>
      <trkpt lat="46.22348" lon="6.29523">
        <ele>505.18</ele>
        <time>2018-09-15T09:23:09.000Z</time>
      </trkpt>
      <trkpt lat="46.2237" lon="6.29538">
        <ele>505.18</ele>
        <time>2018-09-15T09:23:14.000Z</time>
      </trkpt>
      <trkpt lat="46.22392" lon="6.29555">
        <ele>505.99</ele>
        <time>2018-09-15T09:23:19.000Z</time>
      </trkpt>
      <trkpt lat="46.22415" lon="6.29575">
        <ele>506.12</ele>
        <time>2018-09-15T09:23:24.000Z</time>
      </trkpt>
      <trkpt lat="46.22434" lon="6.29596">
        <ele>506.92</ele>
        <time>2018-09-15T09:23:29.000Z</time>
      </trkpt>
      <trkpt lat="46.22449" lon="6.29616">
        <ele>506.2</ele>
        <time>2018-09-15T09:23:34.000Z</time>
      </trkpt>
      <trkpt lat="46.22464" lon="6.2964">
        <ele>506.99</ele>
        <time>2018-09-15T09:23:39.000Z</time>
      </trkpt>
      <trkpt lat="46.22479" lon="6.2967">
        <ele>507.93</ele>
        <time>2018-09-15T09:23:44.000Z</time>
      </trkpt>
      <trkpt lat="46.22495" lon="6.29697">
        <ele>510.11</ele>
        <time>2018-09-15T09:23:49.000Z</time>
      </trkpt>
      <trkpt lat="46.2251" lon="6.29727">
        <ele>509.2</ele>
        <time>2018-09-15T09:23:54.000Z</time>
      </trkpt>
      <trkpt lat="46.22525" lon="6.29758">
        <ele>509.17</ele>
        <time>2018-09-15T09:23:59.000Z</time>
      </trkpt>
      <trkpt lat="46.2254" lon="6.29789">
        <ele>508.93</ele>
        <time>2018-09-15T09:24:04.000Z</time>
      </trkpt>
      <trkpt lat="46.22555" lon="6.29825">
        <ele>509.13</ele>
        <time>2018-09-15T09:24:09.000Z</time>
      </trkpt>
      <trkpt lat="46.2257" lon="6.2986">
        <ele>509.12</ele>
        <time>2018-09-15T09:24:14.000Z</time>
      </trkpt>
      <trkpt lat="46.22584" lon="6.29897">
        <ele>510.16</ele>
        <time>2018-09-15T09:24:19.000Z</time>
      </trkpt>
      <trkpt lat="46.22599" lon="6.29933">
        <ele>509.42</ele>
        <time>2018-09-15T09:24:24.000Z</time>
      </trkpt>
      <trkpt lat="46.22613" lon="6.29969">
        <ele>509.18</ele>
        <time>2018-09-15T09:24:29.000Z</time>
      </trkpt>
      <trkpt lat="46.22627" lon="6.30004">
        <ele>509.93</ele>
        <time>2018-09-15T09:24:34.000Z</time>
      </trkpt>
      <trkpt lat="46.2264" lon="6.30039">
        <ele>509.18</ele>
        <time>2018-09-15T09:24:39.000Z</time>
      </trkpt>
      <trkpt lat="46.22653" lon="6.30074">
        <ele>510.18</ele>
        <time>2018-09-15T09:24:44.000Z</time>
      </trkpt>
      <trkpt lat="46.22668" lon="6.30107">
        <ele>510.12</ele>
        <time>2018-09-15T09:24:49.000Z</time>
      </trkpt>
      <trkpt lat="46.22689" lon="6.3013">
        <ele>511.16</ele>
        <time>2018-09-15T09:24:54.000Z</time>
      </trkpt>
      <trkpt lat="46.22716" lon="6.30144">
        <ele>510.23</ele>
        <time>2018-09-15T09:24:59.000Z</time>
      </trkpt>
      <trkpt lat="46.22743" lon="6.30149">
        <ele>511.91</ele>
        <time>2018-09-15T09:25:04.000Z</time>
      </trkpt>
      <trkpt lat="46.2277" lon="6.30151">
        <ele>511.24</ele>
        <time>2018-09-15T09:25:09.000Z</time>
      </trkpt>
      <trkpt lat="46.22798" lon="6.30157">
        <ele>512.11</ele>
        <time>2018-09-15T09:25:14.000Z</time>
      </trkpt>
      <trkpt lat="46.22827" lon="6.30155">
        <ele>512.18</ele>
        <time>2018-09-15T09:25:19.000Z</time>
      </trkpt>
      <trkpt lat="46.22854" lon="6.30155">
        <ele>512.18</ele>
        <time>2018-09-15T09:25:24.000Z</time>
      </trkpt>
      <trkpt lat="46.22882" lon="6.30156">
        <ele>511.93</ele>
        <time>2018-09-15T09:25:29.000Z</time>
      </trkpt>
      <trkpt lat="46.22912" lon="6.30161">
        <ele>513.11</ele>
        <time>2018-09-15T09:25:34.000Z</time>
      </trkpt>
      <trkpt lat="46.22943" lon="6.30173">
        <ele>513.43</ele>
        <time>2018-09-15T09:25:39.000Z</time>
      </trkpt>
      <trkpt lat="46.22971" lon="6.30192">
        <ele>513.12</ele>
        <time>2018-09-15T09:25:44.000Z</time>
      </trkpt>
      <trkpt lat="46.23001" lon="6.30215">
        <ele>512.99</ele>
        <time>2018-09-15T09:25:49.000Z</time>
      </trkpt>
      <trkpt lat="46.23031" lon="6.30244">
        <ele>512.18</ele>
        <time>2018-09-15T09:25:54.000Z</time>
      </trkpt>
      <trkpt lat="46.2306" lon="6.30267">
        <ele>511.19</ele>
        <time>2018-09-15T09:25:59.000Z</time>
      </trkpt>
      <trkpt lat="46.23088" lon="6.3029">
        <ele>511.17</ele>
        <time>2018-09-15T09:26:04.000Z</time>
      </trkpt>
      <trkpt lat="46.23117" lon="6.30308">
        <ele>511.42</ele>
        <time>2018-09-15T09:26:09.000Z</time>
      </trkpt>
      <trkpt lat="46.23144" lon="6.30325">
        <ele>512.16</ele>
        <time>2018-09-15T09:26:14.000Z</time>
      </trkpt>
      <trkpt lat="46.2317" lon="6.30343">
        <ele>512.17</ele>
        <time>2018-09-15T09:26:19.000Z</time>
      </trkpt>
      <trkpt lat="46.23193" lon="6.30357">
        <ele>514.16</ele>
        <time>2018-09-15T09:26:24.000Z</time>
      </trkpt>
      <trkpt lat="46.23213" lon="6.30372">
        <ele>514.16</ele>
        <time>2018-09-15T09:26:29.000Z</time>
      </trkpt>
      <trkpt lat="46.23231" lon="6.30387">
        <ele>515.17</ele>
        <time>2018-09-15T09:26:34.000Z</time>
      </trkpt>
      <trkpt lat="46.23248" lon="6.30406">
        <ele>516.11</ele>
        <time>2018-09-15T09:26:39.000Z</time>
      </trkpt>
      <trkpt lat="46.23264" lon="6.30428">
        <ele>516.36</ele>
        <time>2018-09-15T09:26:44.000Z</time>
      </trkpt>
      <trkpt lat="46.2328" lon="6.30451">
        <ele>516.22</ele>
        <time>2018-09-15T09:26:49.000Z</time>
      </trkpt>
      <trkpt lat="46.23295" lon="6.30473">
        <ele>517.17</ele>
        <time>2018-09-15T09:26:54.000Z</time>
      </trkpt>
      <trkpt lat="46.23306" lon="6.30499">
        <ele>518.11</ele>
        <time>2018-09-15T09:26:59.000Z</time>
      </trkpt>
      <trkpt lat="46.23302" lon="6.30527">
        <ele>520.15</ele>
        <time>2018-09-15T09:27:04.000Z</time>
      </trkpt>
      <trkpt lat="46.23311" lon="6.30555">
        <ele>520.18</ele>
        <time>2018-09-15T09:27:09.000Z</time>
      </trkpt>
      <trkpt lat="46.23331" lon="6.30574">
        <ele>519.19</ele>
        <time>2018-09-15T09:27:14.000Z</time>
      </trkpt>
      <trkpt lat="46.2335" lon="6.30595">
        <ele>520.17</ele>
        <time>2018-09-15T09:27:19.000Z</time>
      </trkpt>
      <trkpt lat="46.23369" lon="6.30611">
        <ele>519.24</ele>
        <time>2018-09-15T09:27:24.000Z</time>
      </trkpt>
      <trkpt lat="46.23392" lon="6.30626">
        <ele>520.17</ele>
        <time>2018-09-15T09:27:29.000Z</time>
      </trkpt>
      <trkpt lat="46.23417" lon="6.30638">
        <ele>520.16</ele>
        <time>2018-09-15T09:27:34.000Z</time>
      </trkpt>
      <trkpt lat="46.23443" lon="6.30652">
        <ele>519.17</ele>
        <time>2018-09-15T09:27:39.000Z</time>
      </trkpt>
      <trkpt lat="46.2347" lon="6.30675">
        <ele>517.42</ele>
        <time>2018-09-15T09:27:44.000Z</time>
      </trkpt>
      <trkpt lat="46.23497" lon="6.30703">
        <ele>516.19</ele>
        <time>2018-09-15T09:27:49.000Z</time>
      </trkpt>
      <trkpt lat="46.23528" lon="6.30726">
        <ele>516.23</ele>
        <time>2018-09-15T09:27:54.000Z</time>
      </trkpt>
      <trkpt lat="46.23561" lon="6.30739">
        <ele>516.17</ele>
        <time>2018-09-15T09:27:59.000Z</time>
      </trkpt>
      <trkpt lat="46.23592" lon="6.30751">
        <ele>517.17</ele>
        <time>2018-09-15T09:28:04.000Z</time>
      </trkpt>
      <trkpt lat="46.23619" lon="6.30766">
        <ele>517.17</ele>
        <time>2018-09-15T09:28:09.000Z</time>
      </trkpt>
      <trkpt lat="46.23647" lon="6.30776">
        <ele>517.92</ele>
        <time>2018-09-15T09:28:14.000Z</time>
      </trkpt>
      <trkpt lat="46.23676" lon="6.3078">
        <ele>519.11</ele>
        <time>2018-09-15T09:28:19.000Z</time>
      </trkpt>
      <trkpt lat="46.23702" lon="6.30799">
        <ele>519.17</ele>
        <time>2018-09-15T09:28:24.000Z</time>
      </trkpt>
      <trkpt lat="46.23727" lon="6.30815">
        <ele>519.42</ele>
        <time>2018-09-15T09:28:29.000Z</time>
      </trkpt>
      <trkpt lat="46.23754" lon="6.30823">
        <ele>518.19</ele>
        <time>2018-09-15T09:28:34.000Z</time>
      </trkpt>
      <trkpt lat="46.23783" lon="6.30831">
        <ele>518.17</ele>
        <time>2018-09-15T09:28:39.000Z</time>
      </trkpt>
      <trkpt lat="46.23811" lon="6.30849">
        <ele>518.12</ele>
        <time>2018-09-15T09:28:44.000Z</time>
      </trkpt>
      <trkpt lat="46.23835" lon="6.30869">
        <ele>517.18</ele>
        <time>2018-09-15T09:28:49.000Z</time>
      </trkpt>
      <trkpt lat="46.23861" lon="6.3089">
        <ele>516.23</ele>
        <time>2018-09-15T09:28:54.000Z</time>
      </trkpt>
      <trkpt lat="46.23889" lon="6.3091">
        <ele>518.11</ele>
        <time>2018-09-15T09:28:59.000Z</time>
      </trkpt>
      <trkpt lat="46.23909" lon="6.30922">
        <ele>517.17</ele>
        <time>2018-09-15T09:29:04.000Z</time>
      </trkpt>
      <trkpt lat="46.23921" lon="6.30899">
        <ele>519.1</ele>
        <time>2018-09-15T09:29:09.000Z</time>
      </trkpt>
      <trkpt lat="46.23929" lon="6.30862">
        <ele>518.98</ele>
        <time>2018-09-15T09:29:14.000Z</time>
      </trkpt>
      <trkpt lat="46.2394" lon="6.30821">
        <ele>518.17</ele>
        <time>2018-09-15T09:29:19.000Z</time>
      </trkpt>
      <trkpt lat="46.2395" lon="6.30777">
        <ele>516.18</ele>
        <time>2018-09-15T09:29:24.000Z</time>
      </trkpt>
      <trkpt lat="46.23963" lon="6.30732">
        <ele>515.22</ele>
        <time>2018-09-15T09:29:29.000Z</time>
      </trkpt>
      <trkpt lat="46.23993" lon="6.30724">
        <ele>513.98</ele>
        <time>2018-09-15T09:29:34.000Z</time>
      </trkpt>
      <trkpt lat="46.24024" lon="6.3075">
        <ele>513.36</ele>
        <time>2018-09-15T09:29:39.000Z</time>
      </trkpt>
      <trkpt lat="46.24052" lon="6.30773">
        <ele>514.15</ele>
        <time>2018-09-15T09:29:44.000Z</time>
      </trkpt>
      <trkpt lat="46.24079" lon="6.30795">
        <ele>514.17</ele>
        <time>2018-09-15T09:29:49.000Z</time>
      </trkpt>
      <trkpt lat="46.24106" lon="6.30815">
        <ele>514.92</ele>
        <time>2018-09-15T09:29:54.000Z</time>
      </trkpt>
      <trkpt lat="46.24132" lon="6.30834">
        <ele>515.87</ele>
        <time>2018-09-15T09:29:59.000Z</time>
      </trkpt>
      <trkpt lat="46.24158" lon="6.30853">
        <ele>517.15</ele>
        <time>2018-09-15T09:30:04.000Z</time>
      </trkpt>
      <trkpt lat="46.24184" lon="6.30874">
        <ele>517.17</ele>
        <time>2018-09-15T09:30:09.000Z</time>
      </trkpt>
      <trkpt lat="46.24211" lon="6.30896">
        <ele>517.17</ele>
        <time>2018-09-15T09:30:14.000Z</time>
      </trkpt>
      <trkpt lat="46.2424" lon="6.30921">
        <ele>515.23</ele>
        <time>2018-09-15T09:30:19.000Z</time>
      </trkpt>
      <trkpt lat="46.24267" lon="6.30946">
        <ele>514.17</ele>
        <time>2018-09-15T09:30:24.000Z</time>
      </trkpt>
      <trkpt lat="46.24286" lon="6.30962">
        <ele>512.2</ele>
        <time>2018-09-15T09:30:29.000Z</time>
      </trkpt>
      <trkpt lat="46.24313" lon="6.30981">
        <ele>512.23</ele>
        <time>2018-09-15T09:30:34.000Z</time>
      </trkpt>
      <trkpt lat="46.24343" lon="6.30999">
        <ele>512.17</ele>
        <time>2018-09-15T09:30:39.000Z</time>
      </trkpt>
      <trkpt lat="46.24374" lon="6.31023">
        <ele>512.16</ele>
        <time>2018-09-15T09:30:44.000Z</time>
      </trkpt>
      <trkpt lat="46.24398" lon="6.31056">
        <ele>513.1</ele>
        <time>2018-09-15T09:30:49.000Z</time>
      </trkpt>
      <trkpt lat="46.24417" lon="6.31091">
        <ele>513.16</ele>
        <time>2018-09-15T09:30:54.000Z</time>
      </trkpt>
      <trkpt lat="46.24437" lon="6.31119">
        <ele>513.18</ele>
        <time>2018-09-15T09:30:59.000Z</time>
      </trkpt>
      <trkpt lat="46.24453" lon="6.3115">
        <ele>513.16</ele>
        <time>2018-09-15T09:31:04.000Z</time>
      </trkpt>
      <trkpt lat="46.24472" lon="6.31181">
        <ele>514.16</ele>
        <time>2018-09-15T09:31:09.000Z</time>
      </trkpt>
      <trkpt lat="46.2449" lon="6.3121">
        <ele>515.16</ele>
        <time>2018-09-15T09:31:14.000Z</time>
      </trkpt>
      <trkpt lat="46.24506" lon="6.31236">
        <ele>515.16</ele>
        <time>2018-09-15T09:31:19.000Z</time>
      </trkpt>
      <trkpt lat="46.24527" lon="6.31256">
        <ele>518.08</ele>
        <time>2018-09-15T09:31:24.000Z</time>
      </trkpt>
      <trkpt lat="46.2455" lon="6.31272">
        <ele>518.16</ele>
        <time>2018-09-15T09:31:29.000Z</time>
      </trkpt>
      <trkpt lat="46.24574" lon="6.31289">
        <ele>518.22</ele>
        <time>2018-09-15T09:31:34.000Z</time>
      </trkpt>
      <trkpt lat="46.24597" lon="6.3131">
        <ele>518.16</ele>
        <time>2018-09-15T09:31:39.000Z</time>
      </trkpt>
      <trkpt lat="46.24618" lon="6.3134">
        <ele>516.41</ele>
        <time>2018-09-15T09:31:44.000Z</time>
      </trkpt>
      <trkpt lat="46.24638" lon="6.31371">
        <ele>516.18</ele>
        <time>2018-09-15T09:31:49.000Z</time>
      </trkpt>
      <trkpt lat="46.24658" lon="6.31403">
        <ele>516.91</ele>
        <time>2018-09-15T09:31:54.000Z</time>
      </trkpt>
      <trkpt lat="46.24677" lon="6.31436">
        <ele>516.16</ele>
        <time>2018-09-15T09:31:59.000Z</time>
      </trkpt>
      <trkpt lat="46.24696" lon="6.31466">
        <ele>517.96</ele>
        <time>2018-09-15T09:32:04.000Z</time>
      </trkpt>
      <trkpt lat="46.24716" lon="6.31497">
        <ele>517.17</ele>
        <time>2018-09-15T09:32:09.000Z</time>
      </trkpt>
      <trkpt lat="46.24735" lon="6.31526">
        <ele>517.1</ele>
        <time>2018-09-15T09:32:14.000Z</time>
      </trkpt>
      <trkpt lat="46.24752" lon="6.31557">
        <ele>517.1</ele>
        <time>2018-09-15T09:32:19.000Z</time>
      </trkpt>
      <trkpt lat="46.24763" lon="6.31588">
        <ele>518.15</ele>
        <time>2018-09-15T09:32:24.000Z</time>
      </trkpt>
      <trkpt lat="46.24774" lon="6.31618">
        <ele>520.1</ele>
        <time>2018-09-15T09:32:29.000Z</time>
      </trkpt>
      <trkpt lat="46.24783" lon="6.31644">
        <ele>522.15</ele>
        <time>2018-09-15T09:32:34.000Z</time>
      </trkpt>
      <trkpt lat="46.24791" lon="6.31667">
        <ele>523.16</ele>
        <time>2018-09-15T09:32:39.000Z</time>
      </trkpt>
      <trkpt lat="46.24799" lon="6.31692">
        <ele>523.91</ele>
        <time>2018-09-15T09:32:44.000Z</time>
      </trkpt>
      <trkpt lat="46.24807" lon="6.31717">
        <ele>523.16</ele>
        <time>2018-09-15T09:32:49.000Z</time>
      </trkpt>
      <trkpt lat="46.24816" lon="6.3174">
        <ele>525.14</ele>
        <time>2018-09-15T09:32:54.000Z</time>
      </trkpt>
      <trkpt lat="46.24825" lon="6.31764">
        <ele>526.16</ele>
        <time>2018-09-15T09:32:59.000Z</time>
      </trkpt>
      <trkpt lat="46.24834" lon="6.31789">
        <ele>528.04</ele>
        <time>2018-09-15T09:33:04.000Z</time>
      </trkpt>
      <trkpt lat="46.24842" lon="6.31813">
        <ele>528.16</ele>
        <time>2018-09-15T09:33:09.000Z</time>
      </trkpt>
      <trkpt lat="46.24852" lon="6.31839">
        <ele>529.16</ele>
        <time>2018-09-15T09:33:14.000Z</time>
      </trkpt>
      <trkpt lat="46.24861" lon="6.31868">
        <ele>530.11</ele>
        <time>2018-09-15T09:33:19.000Z</time>
      </trkpt>
      <trkpt lat="46.24869" lon="6.31895">
        <ele>531.1</ele>
        <time>2018-09-15T09:33:24.000Z</time>
      </trkpt>
      <trkpt lat="46.24877" lon="6.31924">
        <ele>531.93</ele>
        <time>2018-09-15T09:33:29.000Z</time>
      </trkpt>
      <trkpt lat="46.24886" lon="6.31955">
        <ele>531.16</ele>
        <time>2018-09-15T09:33:34.000Z</time>
      </trkpt>
      <trkpt lat="46.24895" lon="6.31989">
        <ele>531.16</ele>
        <time>2018-09-15T09:33:39.000Z</time>
      </trkpt>
      <trkpt lat="46.24904" lon="6.32025">
        <ele>530.17</ele>
        <time>2018-09-15T09:33:44.000Z</time>
      </trkpt>
      <trkpt lat="46.24914" lon="6.32062">
        <ele>529.41</ele>
        <time>2018-09-15T09:33:49.000Z</time>
      </trkpt>
      <trkpt lat="46.24919" lon="6.32101">
        <ele>530.91</ele>
        <time>2018-09-15T09:33:54.000Z</time>
      </trkpt>
      <trkpt lat="46.24919" lon="6.32141">
        <ele>531.16</ele>
        <time>2018-09-15T09:33:59.000Z</time>
      </trkpt>
      <trkpt lat="46.24921" lon="6.32183">
        <ele>530.41</ele>
        <time>2018-09-15T09:34:04.000Z</time>
      </trkpt>
      <trkpt lat="46.24922" lon="6.32226">
        <ele>530.16</ele>
        <time>2018-09-15T09:34:09.000Z</time>
      </trkpt>
      <trkpt lat="46.24925" lon="6.32263">
        <ele>531.16</ele>
        <time>2018-09-15T09:34:14.000Z</time>
      </trkpt>
      <trkpt lat="46.24934" lon="6.32292">
        <ele>531.21</ele>
        <time>2018-09-15T09:34:19.000Z</time>
      </trkpt>
      <trkpt lat="46.24944" lon="6.3232">
        <ele>532.15</ele>
        <time>2018-09-15T09:34:24.000Z</time>
      </trkpt>
      <trkpt lat="46.24954" lon="6.32347">
        <ele>531.97</ele>
        <time>2018-09-15T09:34:29.000Z</time>
      </trkpt>
      <trkpt lat="46.24965" lon="6.32378">
        <ele>532.16</ele>
        <time>2018-09-15T09:34:34.000Z</time>
      </trkpt>
      <trkpt lat="46.24974" lon="6.32409">
        <ele>531.16</ele>
        <time>2018-09-15T09:34:39.000Z</time>
      </trkpt>
      <trkpt lat="46.24987" lon="6.32451">
        <ele>530.93</ele>
        <time>2018-09-15T09:34:44.000Z</time>
      </trkpt>
      <trkpt lat="46.24991" lon="6.32513">
        <ele>528.18</ele>
        <time>2018-09-15T09:34:49.000Z</time>
      </trkpt>
      <trkpt lat="46.24974" lon="6.32585">
        <ele>526.41</ele>
        <time>2018-09-15T09:34:54.000Z</time>
      </trkpt>
      <trkpt lat="46.24974" lon="6.32651">
        <ele>525.24</ele>
        <time>2018-09-15T09:34:59.000Z</time>
      </trkpt>
      <trkpt lat="46.24993" lon="6.32698">
        <ele>524.93</ele>
        <time>2018-09-15T09:35:04.000Z</time>
      </trkpt>
      <trkpt lat="46.2502" lon="6.32728">
        <ele>525.16</ele>
        <time>2018-09-15T09:35:09.000Z</time>
      </trkpt>
      <trkpt lat="46.25053" lon="6.3275">
        <ele>524.16</ele>
        <time>2018-09-15T09:35:14.000Z</time>
      </trkpt>
      <trkpt lat="46.25084" lon="6.3277">
        <ele>524.16</ele>
        <time>2018-09-15T09:35:19.000Z</time>
      </trkpt>
      <trkpt lat="46.25116" lon="6.32782">
        <ele>525.9</ele>
        <time>2018-09-15T09:35:24.000Z</time>
      </trkpt>
      <trkpt lat="46.25141" lon="6.32787">
        <ele>526.36</ele>
        <time>2018-09-15T09:35:29.000Z</time>
      </trkpt>
      <trkpt lat="46.25151" lon="6.32786">
        <ele>525.18</ele>
        <time>2018-09-15T09:35:41.000Z</time>
      </trkpt>
      <trkpt lat="46.25168" lon="6.32774">
        <ele>525.39</ele>
        <time>2018-09-15T09:35:46.000Z</time>
      </trkpt>
      <trkpt lat="46.25191" lon="6.32766">
        <ele>525.9</ele>
        <time>2018-09-15T09:35:51.000Z</time>
      </trkpt>
      <trkpt lat="46.25214" lon="6.32756">
        <ele>526.91</ele>
        <time>2018-09-15T09:35:56.000Z</time>
      </trkpt>
      <trkpt lat="46.25235" lon="6.32741">
        <ele>527.91</ele>
        <time>2018-09-15T09:36:01.000Z</time>
      </trkpt>
      <trkpt lat="46.25255" lon="6.32719">
        <ele>528.16</ele>
        <time>2018-09-15T09:36:06.000Z</time>
      </trkpt>
      <trkpt lat="46.25277" lon="6.327">
        <ele>529.1</ele>
        <time>2018-09-15T09:36:11.000Z</time>
      </trkpt>
      <trkpt lat="46.25297" lon="6.32683">
        <ele>530.15</ele>
        <time>2018-09-15T09:36:16.000Z</time>
      </trkpt>
      <trkpt lat="46.25319" lon="6.32667">
        <ele>530.91</ele>
        <time>2018-09-15T09:36:21.000Z</time>
      </trkpt>
      <trkpt lat="46.2534" lon="6.32654">
        <ele>532.15</ele>
        <time>2018-09-15T09:36:26.000Z</time>
      </trkpt>
      <trkpt lat="46.25362" lon="6.32639">
        <ele>535.08</ele>
        <time>2018-09-15T09:36:31.000Z</time>
      </trkpt>
      <trkpt lat="46.25382" lon="6.32618">
        <ele>536.16</ele>
        <time>2018-09-15T09:36:36.000Z</time>
      </trkpt>
      <trkpt lat="46.25397" lon="6.32591">
        <ele>537.16</ele>
        <time>2018-09-15T09:36:41.000Z</time>
      </trkpt>
      <trkpt lat="46.25408" lon="6.3256">
        <ele>538.09</ele>
        <time>2018-09-15T09:36:46.000Z</time>
      </trkpt>
      <trkpt lat="46.25418" lon="6.3253">
        <ele>538.17</ele>
        <time>2018-09-15T09:36:51.000Z</time>
      </trkpt>
      <trkpt lat="46.2543" lon="6.32502">
        <ele>538.91</ele>
        <time>2018-09-15T09:36:56.000Z</time>
      </trkpt>
      <trkpt lat="46.25453" lon="6.32491">
        <ele>538.16</ele>
        <time>2018-09-15T09:37:01.000Z</time>
      </trkpt>
      <trkpt lat="46.25476" lon="6.32485">
        <ele>539.15</ele>
        <time>2018-09-15T09:37:06.000Z</time>
      </trkpt>
      <trkpt lat="46.25502" lon="6.32477">
        <ele>539.16</ele>
        <time>2018-09-15T09:37:11.000Z</time>
      </trkpt>
      <trkpt lat="46.25527" lon="6.32465">
        <ele>539.16</ele>
        <time>2018-09-15T09:37:16.000Z</time>
      </trkpt>
      <trkpt lat="46.25552" lon="6.32454">
        <ele>539.91</ele>
        <time>2018-09-15T09:37:21.000Z</time>
      </trkpt>
      <trkpt lat="46.25579" lon="6.32451">
        <ele>540.15</ele>
        <time>2018-09-15T09:37:26.000Z</time>
      </trkpt>
      <trkpt lat="46.25603" lon="6.32452">
        <ele>540.39</ele>
        <time>2018-09-15T09:37:31.000Z</time>
      </trkpt>
      <trkpt lat="46.25629" lon="6.32455">
        <ele>539.92</ele>
        <time>2018-09-15T09:37:36.000Z</time>
      </trkpt>
      <trkpt lat="46.25656" lon="6.32465">
        <ele>540.9</ele>
        <time>2018-09-15T09:37:41.000Z</time>
      </trkpt>
      <trkpt lat="46.2568" lon="6.32482">
        <ele>541.85</ele>
        <time>2018-09-15T09:37:46.000Z</time>
      </trkpt>
      <trkpt lat="46.25699" lon="6.32502">
        <ele>543.14</ele>
        <time>2018-09-15T09:37:51.000Z</time>
      </trkpt>
      <trkpt lat="46.25717" lon="6.32522">
        <ele>543.9</ele>
        <time>2018-09-15T09:37:56.000Z</time>
      </trkpt>
      <trkpt lat="46.25732" lon="6.32543">
        <ele>544.89</ele>
        <time>2018-09-15T09:38:01.000Z</time>
      </trkpt>
      <trkpt lat="46.25748" lon="6.32566">
        <ele>545.89</ele>
        <time>2018-09-15T09:38:06.000Z</time>
      </trkpt>
      <trkpt lat="46.25756" lon="6.32589">
        <ele>546.15</ele>
        <time>2018-09-15T09:38:11.000Z</time>
      </trkpt>
      <trkpt lat="46.25769" lon="6.3261">
        <ele>546.4</ele>
        <time>2018-09-15T09:38:16.000Z</time>
      </trkpt>
      <trkpt lat="46.25786" lon="6.32627">
        <ele>547.15</ele>
        <time>2018-09-15T09:38:21.000Z</time>
      </trkpt>
      <trkpt lat="46.25802" lon="6.32645">
        <ele>548.15</ele>
        <time>2018-09-15T09:38:26.000Z</time>
      </trkpt>
      <trkpt lat="46.2582" lon="6.3266">
        <ele>549.09</ele>
        <time>2018-09-15T09:38:31.000Z</time>
      </trkpt>
      <trkpt lat="46.2584" lon="6.32674">
        <ele>549.39</ele>
        <time>2018-09-15T09:38:36.000Z</time>
      </trkpt>
      <trkpt lat="46.25858" lon="6.32688">
        <ele>550.15</ele>
        <time>2018-09-15T09:38:41.000Z</time>
      </trkpt>
      <trkpt lat="46.25876" lon="6.32702">
        <ele>550.09</ele>
        <time>2018-09-15T09:38:46.000Z</time>
      </trkpt>
      <trkpt lat="46.25896" lon="6.32715">
        <ele>551.9</ele>
        <time>2018-09-15T09:38:51.000Z</time>
      </trkpt>
      <trkpt lat="46.25915" lon="6.3273">
        <ele>551.4</ele>
        <time>2018-09-15T09:38:56.000Z</time>
      </trkpt>
      <trkpt lat="46.25933" lon="6.32745">
        <ele>553.09</ele>
        <time>2018-09-15T09:39:01.000Z</time>
      </trkpt>
      <trkpt lat="46.2595" lon="6.32764">
        <ele>553.21</ele>
        <time>2018-09-15T09:39:06.000Z</time>
      </trkpt>
      <trkpt lat="46.25952" lon="6.32794">
        <ele>555.09</ele>
        <time>2018-09-15T09:39:11.000Z</time>
      </trkpt>
      <trkpt lat="46.25961" lon="6.32823">
        <ele>554.92</ele>
        <time>2018-09-15T09:39:16.000Z</time>
      </trkpt>
      <trkpt lat="46.25973" lon="6.32846">
        <ele>555.15</ele>
        <time>2018-09-15T09:39:21.000Z</time>
      </trkpt>
      <trkpt lat="46.25987" lon="6.32868">
        <ele>555.15</ele>
        <time>2018-09-15T09:39:26.000Z</time>
      </trkpt>
      <trkpt lat="46.26003" lon="6.32887">
        <ele>556.13</ele>
        <time>2018-09-15T09:39:31.000Z</time>
      </trkpt>
      <trkpt lat="46.26018" lon="6.32908">
        <ele>556.15</ele>
        <time>2018-09-15T09:39:36.000Z</time>
      </trkpt>
      <trkpt lat="46.26034" lon="6.32924">
        <ele>557.15</ele>
        <time>2018-09-15T09:39:41.000Z</time>
      </trkpt>
      <trkpt lat="46.26052" lon="6.32939">
        <ele>558.9</ele>
        <time>2018-09-15T09:39:46.000Z</time>
      </trkpt>
      <trkpt lat="46.26068" lon="6.32954">
        <ele>560.09</ele>
        <time>2018-09-15T09:39:51.000Z</time>
      </trkpt>
      <trkpt lat="46.26087" lon="6.32968">
        <ele>561.09</ele>
        <time>2018-09-15T09:39:56.000Z</time>
      </trkpt>
      <trkpt lat="46.26108" lon="6.32979">
        <ele>562.9</ele>
        <time>2018-09-15T09:40:01.000Z</time>
      </trkpt>
      <trkpt lat="46.26129" lon="6.3299">
        <ele>562.82</ele>
        <time>2018-09-15T09:40:06.000Z</time>
      </trkpt>
      <trkpt lat="46.26149" lon="6.33">
        <ele>564.14</ele>
        <time>2018-09-15T09:40:11.000Z</time>
      </trkpt>
      <trkpt lat="46.26169" lon="6.3301">
        <ele>565.14</ele>
        <time>2018-09-15T09:40:16.000Z</time>
      </trkpt>
      <trkpt lat="46.26189" lon="6.33018">
        <ele>565.9</ele>
        <time>2018-09-15T09:40:21.000Z</time>
      </trkpt>
      <trkpt lat="46.26207" lon="6.33027">
        <ele>566.9</ele>
        <time>2018-09-15T09:40:26.000Z</time>
      </trkpt>
      <trkpt lat="46.26225" lon="6.33035">
        <ele>568.09</ele>
        <time>2018-09-15T09:40:31.000Z</time>
      </trkpt>
      <trkpt lat="46.26242" lon="6.33044">
        <ele>568.9</ele>
        <time>2018-09-15T09:40:36.000Z</time>
      </trkpt>
      <trkpt lat="46.26259" lon="6.33054">
        <ele>569.15</ele>
        <time>2018-09-15T09:40:41.000Z</time>
      </trkpt>
      <trkpt lat="46.26274" lon="6.33066">
        <ele>569.15</ele>
        <time>2018-09-15T09:40:46.000Z</time>
      </trkpt>
      <trkpt lat="46.26289" lon="6.33082">
        <ele>569.9</ele>
        <time>2018-09-15T09:40:51.000Z</time>
      </trkpt>
      <trkpt lat="46.26304" lon="6.331">
        <ele>570.15</ele>
        <time>2018-09-15T09:40:56.000Z</time>
      </trkpt>
      <trkpt lat="46.2632" lon="6.3312">
        <ele>570.15</ele>
        <time>2018-09-15T09:41:01.000Z</time>
      </trkpt>
      <trkpt lat="46.26335" lon="6.33139">
        <ele>570.15</ele>
        <time>2018-09-15T09:41:06.000Z</time>
      </trkpt>
      <trkpt lat="46.26351" lon="6.3316">
        <ele>570.9</ele>
        <time>2018-09-15T09:41:11.000Z</time>
      </trkpt>
      <trkpt lat="46.26366" lon="6.33181">
        <ele>571.15</ele>
        <time>2018-09-15T09:41:16.000Z</time>
      </trkpt>
      <trkpt lat="46.26381" lon="6.33202">
        <ele>571.15</ele>
        <time>2018-09-15T09:41:21.000Z</time>
      </trkpt>
      <trkpt lat="46.26397" lon="6.33224">
        <ele>571.15</ele>
        <time>2018-09-15T09:41:26.000Z</time>
      </trkpt>
      <trkpt lat="46.26413" lon="6.33248">
        <ele>572.14</ele>
        <time>2018-09-15T09:41:31.000Z</time>
      </trkpt>
      <trkpt lat="46.26429" lon="6.33272">
        <ele>572.15</ele>
        <time>2018-09-15T09:41:36.000Z</time>
      </trkpt>
      <trkpt lat="46.26442" lon="6.33303">
        <ele>573.14</ele>
        <time>2018-09-15T09:41:41.000Z</time>
      </trkpt>
      <trkpt lat="46.26453" lon="6.33336">
        <ele>574.88</ele>
        <time>2018-09-15T09:41:46.000Z</time>
      </trkpt>
      <trkpt lat="46.26464" lon="6.33367">
        <ele>575.15</ele>
        <time>2018-09-15T09:41:51.000Z</time>
      </trkpt>
      <trkpt lat="46.26467" lon="6.33397">
        <ele>576.65</ele>
        <time>2018-09-15T09:41:56.000Z</time>
      </trkpt>
      <trkpt lat="46.26459" lon="6.33432">
        <ele>576.15</ele>
        <time>2018-09-15T09:42:01.000Z</time>
      </trkpt>
      <trkpt lat="46.26453" lon="6.33467">
        <ele>575.2</ele>
        <time>2018-09-15T09:42:06.000Z</time>
      </trkpt>
      <trkpt lat="46.26448" lon="6.33503">
        <ele>574.4</ele>
        <time>2018-09-15T09:42:11.000Z</time>
      </trkpt>
      <trkpt lat="46.26442" lon="6.33536">
        <ele>574.15</ele>
        <time>2018-09-15T09:42:16.000Z</time>
      </trkpt>
      <trkpt lat="46.26435" lon="6.33574">
        <ele>574.2</ele>
        <time>2018-09-15T09:42:21.000Z</time>
      </trkpt>
      <trkpt lat="46.26429" lon="6.33611">
        <ele>573.96</ele>
        <time>2018-09-15T09:42:26.000Z</time>
      </trkpt>
      <trkpt lat="46.26423" lon="6.3365">
        <ele>574.15</ele>
        <time>2018-09-15T09:42:31.000Z</time>
      </trkpt>
      <trkpt lat="46.26417" lon="6.33688">
        <ele>574.15</ele>
        <time>2018-09-15T09:42:36.000Z</time>
      </trkpt>
      <trkpt lat="46.2641" lon="6.33726">
        <ele>575.1</ele>
        <time>2018-09-15T09:42:41.000Z</time>
      </trkpt>
      <trkpt lat="46.26404" lon="6.33766">
        <ele>574.15</ele>
        <time>2018-09-15T09:42:46.000Z</time>
      </trkpt>
      <trkpt lat="46.26397" lon="6.33807">
        <ele>574.15</ele>
        <time>2018-09-15T09:42:51.000Z</time>
      </trkpt>
      <trkpt lat="46.2639" lon="6.33849">
        <ele>575.89</ele>
        <time>2018-09-15T09:42:56.000Z</time>
      </trkpt>
      <trkpt lat="46.26383" lon="6.33891">
        <ele>576.15</ele>
        <time>2018-09-15T09:43:01.000Z</time>
      </trkpt>
      <trkpt lat="46.2638" lon="6.33933">
        <ele>576.15</ele>
        <time>2018-09-15T09:43:06.000Z</time>
      </trkpt>
      <trkpt lat="46.26389" lon="6.33971">
        <ele>575.4</ele>
        <time>2018-09-15T09:43:11.000Z</time>
      </trkpt>
      <trkpt lat="46.26406" lon="6.34">
        <ele>574.22</ele>
        <time>2018-09-15T09:43:16.000Z</time>
      </trkpt>
      <trkpt lat="46.26426" lon="6.34028">
        <ele>574.15</ele>
        <time>2018-09-15T09:43:21.000Z</time>
      </trkpt>
      <trkpt lat="46.26444" lon="6.34056">
        <ele>574.15</ele>
        <time>2018-09-15T09:43:26.000Z</time>
      </trkpt>
      <trkpt lat="46.26463" lon="6.34083">
        <ele>574.15</ele>
        <time>2018-09-15T09:43:31.000Z</time>
      </trkpt>
      <trkpt lat="46.26481" lon="6.34111">
        <ele>573.16</ele>
        <time>2018-09-15T09:43:36.000Z</time>
      </trkpt>
      <trkpt lat="46.26496" lon="6.34146">
        <ele>574.26</ele>
        <time>2018-09-15T09:43:41.000Z</time>
      </trkpt>
      <trkpt lat="46.26514" lon="6.3418">
        <ele>572.15</ele>
        <time>2018-09-15T09:43:46.000Z</time>
      </trkpt>
      <trkpt lat="46.26528" lon="6.34219">
        <ele>572.15</ele>
        <time>2018-09-15T09:43:51.000Z</time>
      </trkpt>
      <trkpt lat="46.26537" lon="6.34262">
        <ele>573.15</ele>
        <time>2018-09-15T09:43:56.000Z</time>
      </trkpt>
      <trkpt lat="46.26553" lon="6.34303">
        <ele>572.16</ele>
        <time>2018-09-15T09:44:01.000Z</time>
      </trkpt>
      <trkpt lat="46.26577" lon="6.34337">
        <ele>572.14</ele>
        <time>2018-09-15T09:44:06.000Z</time>
      </trkpt>
      <trkpt lat="46.26602" lon="6.34367">
        <ele>573.13</ele>
        <time>2018-09-15T09:44:11.000Z</time>
      </trkpt>
      <trkpt lat="46.26626" lon="6.34404">
        <ele>572.15</ele>
        <time>2018-09-15T09:44:16.000Z</time>
      </trkpt>
      <trkpt lat="46.26648" lon="6.34457">
        <ele>569.23</ele>
        <time>2018-09-15T09:44:21.000Z</time>
      </trkpt>
      <trkpt lat="46.26675" lon="6.34512">
        <ele>565.43</ele>
        <time>2018-09-15T09:44:26.000Z</time>
      </trkpt>
      <trkpt lat="46.2672" lon="6.34523">
        <ele>565.19</ele>
        <time>2018-09-15T09:44:31.000Z</time>
      </trkpt>
      <trkpt lat="46.26762" lon="6.34552">
        <ele>561.52</ele>
        <time>2018-09-15T09:44:36.000Z</time>
      </trkpt>
      <trkpt lat="46.26788" lon="6.34606">
        <ele>559.21</ele>
        <time>2018-09-15T09:44:41.000Z</time>
      </trkpt>
      <trkpt lat="46.2676" lon="6.34663">
        <ele>558.15</ele>
        <time>2018-09-15T09:44:46.000Z</time>
      </trkpt>
      <trkpt lat="46.26722" lon="6.34712">
        <ele>555.46</ele>
        <time>2018-09-15T09:44:51.000Z</time>
      </trkpt>
      <trkpt lat="46.26675" lon="6.34715">
        <ele>552.46</ele>
        <time>2018-09-15T09:44:56.000Z</time>
      </trkpt>
      <trkpt lat="46.26629" lon="6.34695">
        <ele>551.21</ele>
        <time>2018-09-15T09:45:01.000Z</time>
      </trkpt>
      <trkpt lat="46.26584" lon="6.34713">
        <ele>547.52</ele>
        <time>2018-09-15T09:45:06.000Z</time>
      </trkpt>
      <trkpt lat="46.2656" lon="6.34777">
        <ele>545.41</ele>
        <time>2018-09-15T09:45:11.000Z</time>
      </trkpt>
      <trkpt lat="46.26556" lon="6.34847">
        <ele>544.15</ele>
        <time>2018-09-15T09:45:16.000Z</time>
      </trkpt>
      <trkpt lat="46.26547" lon="6.34906">
        <ele>543.16</ele>
        <time>2018-09-15T09:45:21.000Z</time>
      </trkpt>
      <trkpt lat="46.26532" lon="6.34954">
        <ele>544.09</ele>
        <time>2018-09-15T09:45:26.000Z</time>
      </trkpt>
      <trkpt lat="46.26518" lon="6.34998">
        <ele>545.09</ele>
        <time>2018-09-15T09:45:31.000Z</time>
      </trkpt>
      <trkpt lat="46.26507" lon="6.35037">
        <ele>546.88</ele>
        <time>2018-09-15T09:45:36.000Z</time>
      </trkpt>
      <trkpt lat="46.26496" lon="6.35072">
        <ele>547.9</ele>
        <time>2018-09-15T09:45:41.000Z</time>
      </trkpt>
      <trkpt lat="46.26486" lon="6.35103">
        <ele>549.07</ele>
        <time>2018-09-15T09:45:46.000Z</time>
      </trkpt>
      <trkpt lat="46.26475" lon="6.35135">
        <ele>548.92</ele>
        <time>2018-09-15T09:45:51.000Z</time>
      </trkpt>
      <trkpt lat="46.26461" lon="6.35162">
        <ele>549.15</ele>
        <time>2018-09-15T09:45:56.000Z</time>
      </trkpt>
      <trkpt lat="46.26447" lon="6.3518">
        <ele>550.15</ele>
        <time>2018-09-15T09:46:01.000Z</time>
      </trkpt>
      <trkpt lat="46.26431" lon="6.35193">
        <ele>552.13</ele>
        <time>2018-09-15T09:46:06.000Z</time>
      </trkpt>
      <trkpt lat="46.26416" lon="6.35206">
        <ele>551.96</ele>
        <time>2018-09-15T09:46:11.000Z</time>
      </trkpt>
      <trkpt lat="46.26402" lon="6.35216">
        <ele>551.16</ele>
        <time>2018-09-15T09:46:16.000Z</time>
      </trkpt>
      <trkpt lat="46.26387" lon="6.3523">
        <ele>553.13</ele>
        <time>2018-09-15T09:46:21.000Z</time>
      </trkpt>
      <trkpt lat="46.26373" lon="6.35244">
        <ele>554.9</ele>
        <time>2018-09-15T09:46:26.000Z</time>
      </trkpt>
      <trkpt lat="46.2636" lon="6.35257">
        <ele>556.9</ele>
        <time>2018-09-15T09:46:31.000Z</time>
      </trkpt>
      <trkpt lat="46.26347" lon="6.35271">
        <ele>557.15</ele>
        <time>2018-09-15T09:46:36.000Z</time>
      </trkpt>
      <trkpt lat="46.26335" lon="6.35286">
        <ele>557.89</ele>
        <time>2018-09-15T09:46:41.000Z</time>
      </trkpt>
      <trkpt lat="46.26323" lon="6.35302">
        <ele>558.15</ele>
        <time>2018-09-15T09:46:46.000Z</time>
      </trkpt>
      <trkpt lat="46.26311" lon="6.35318">
        <ele>559.09</ele>
        <time>2018-09-15T09:46:51.000Z</time>
      </trkpt>
      <trkpt lat="46.263" lon="6.35333">
        <ele>559.9</ele>
        <time>2018-09-15T09:46:56.000Z</time>
      </trkpt>
      <trkpt lat="46.26289" lon="6.35349">
        <ele>561.9</ele>
        <time>2018-09-15T09:47:01.000Z</time>
      </trkpt>
      <trkpt lat="46.26278" lon="6.35365">
        <ele>562.15</ele>
        <time>2018-09-15T09:47:06.000Z</time>
      </trkpt>
      <trkpt lat="46.26267" lon="6.35382">
        <ele>563.9</ele>
        <time>2018-09-15T09:47:11.000Z</time>
      </trkpt>
      <trkpt lat="46.26259" lon="6.354">
        <ele>565.09</ele>
        <time>2018-09-15T09:47:16.000Z</time>
      </trkpt>
      <trkpt lat="46.26253" lon="6.35422">
        <ele>565.9</ele>
        <time>2018-09-15T09:47:21.000Z</time>
      </trkpt>
      <trkpt lat="46.26247" lon="6.35444">
        <ele>566.15</ele>
        <time>2018-09-15T09:47:26.000Z</time>
      </trkpt>
      <trkpt lat="46.2624" lon="6.35465">
        <ele>566.15</ele>
        <time>2018-09-15T09:47:31.000Z</time>
      </trkpt>
      <trkpt lat="46.26234" lon="6.35486">
        <ele>569.09</ele>
        <time>2018-09-15T09:47:36.000Z</time>
      </trkpt>
      <trkpt lat="46.26228" lon="6.3551">
        <ele>570.9</ele>
        <time>2018-09-15T09:47:41.000Z</time>
      </trkpt>
      <trkpt lat="46.2622" lon="6.35532">
        <ele>572.14</ele>
        <time>2018-09-15T09:47:46.000Z</time>
      </trkpt>
      <trkpt lat="46.26213" lon="6.35556">
        <ele>572.9</ele>
        <time>2018-09-15T09:47:51.000Z</time>
      </trkpt>
      <trkpt lat="46.26206" lon="6.35581">
        <ele>574.15</ele>
        <time>2018-09-15T09:47:56.000Z</time>
      </trkpt>
      <trkpt lat="46.26199" lon="6.35607">
        <ele>575.15</ele>
        <time>2018-09-15T09:48:01.000Z</time>
      </trkpt>
      <trkpt lat="46.26193" lon="6.3563">
        <ele>576.09</ele>
        <time>2018-09-15T09:48:06.000Z</time>
      </trkpt>
      <trkpt lat="46.26186" lon="6.35652">
        <ele>578.14</ele>
        <time>2018-09-15T09:48:11.000Z</time>
      </trkpt>
      <trkpt lat="46.2618" lon="6.35671">
        <ele>578.21</ele>
        <time>2018-09-15T09:48:16.000Z</time>
      </trkpt>
      <trkpt lat="46.26175" lon="6.35698">
        <ele>578.15</ele>
        <time>2018-09-15T09:48:21.000Z</time>
      </trkpt>
      <trkpt lat="46.2616" lon="6.35719">
        <ele>577.34</ele>
        <time>2018-09-15T09:48:26.000Z</time>
      </trkpt>
      <trkpt lat="46.26144" lon="6.35735">
        <ele>578.14</ele>
        <time>2018-09-15T09:48:31.000Z</time>
      </trkpt>
      <trkpt lat="46.26129" lon="6.35748">
        <ele>578.9</ele>
        <time>2018-09-15T09:48:36.000Z</time>
      </trkpt>
      <trkpt lat="46.26115" lon="6.35761">
        <ele>580.09</ele>
        <time>2018-09-15T09:48:41.000Z</time>
      </trkpt>
      <trkpt lat="46.261" lon="6.35772">
        <ele>581.15</ele>
        <time>2018-09-15T09:48:46.000Z</time>
      </trkpt>
      <trkpt lat="46.26086" lon="6.35786">
        <ele>581.16</ele>
        <time>2018-09-15T09:48:51.000Z</time>
      </trkpt>
      <trkpt lat="46.26074" lon="6.35803">
        <ele>582.1</ele>
        <time>2018-09-15T09:48:56.000Z</time>
      </trkpt>
      <trkpt lat="46.26063" lon="6.35819">
        <ele>584.09</ele>
        <time>2018-09-15T09:49:01.000Z</time>
      </trkpt>
      <trkpt lat="46.2605" lon="6.35832">
        <ele>584.16</ele>
        <time>2018-09-15T09:49:06.000Z</time>
      </trkpt>
      <trkpt lat="46.26035" lon="6.35842">
        <ele>585.15</ele>
        <time>2018-09-15T09:49:11.000Z</time>
      </trkpt>
      <trkpt lat="46.2602" lon="6.35852">
        <ele>586.15</ele>
        <time>2018-09-15T09:49:16.000Z</time>
      </trkpt>
      <trkpt lat="46.26007" lon="6.35862">
        <ele>587.16</ele>
        <time>2018-09-15T09:49:21.000Z</time>
      </trkpt>
      <trkpt lat="46.25994" lon="6.35872">
        <ele>588.15</ele>
        <time>2018-09-15T09:49:26.000Z</time>
      </trkpt>
      <trkpt lat="46.2598" lon="6.35882">
        <ele>589.09</ele>
        <time>2018-09-15T09:49:31.000Z</time>
      </trkpt>
      <trkpt lat="46.25967" lon="6.3589">
        <ele>590.14</ele>
        <time>2018-09-15T09:49:36.000Z</time>
      </trkpt>
      <trkpt lat="46.25954" lon="6.35891">
        <ele>591.16</ele>
        <time>2018-09-15T09:49:41.000Z</time>
      </trkpt>
      <trkpt lat="46.2594" lon="6.35885">
        <ele>592.9</ele>
        <time>2018-09-15T09:49:46.000Z</time>
      </trkpt>
      <trkpt lat="46.25926" lon="6.35879">
        <ele>593.97</ele>
        <time>2018-09-15T09:49:51.000Z</time>
      </trkpt>
      <trkpt lat="46.25915" lon="6.3587">
        <ele>595.14</ele>
        <time>2018-09-15T09:49:56.000Z</time>
      </trkpt>
      <trkpt lat="46.25902" lon="6.35863">
        <ele>595.92</ele>
        <time>2018-09-15T09:50:01.000Z</time>
      </trkpt>
      <trkpt lat="46.25892" lon="6.35853">
        <ele>596.16</ele>
        <time>2018-09-15T09:50:06.000Z</time>
      </trkpt>
      <trkpt lat="46.25881" lon="6.35841">
        <ele>597.14</ele>
        <time>2018-09-15T09:50:11.000Z</time>
      </trkpt>
      <trkpt lat="46.25869" lon="6.3583">
        <ele>596.16</ele>
        <time>2018-09-15T09:50:16.000Z</time>
      </trkpt>
      <trkpt lat="46.25857" lon="6.35822">
        <ele>597.9</ele>
        <time>2018-09-15T09:50:21.000Z</time>
      </trkpt>
      <trkpt lat="46.25846" lon="6.35813">
        <ele>600.08</ele>
        <time>2018-09-15T09:50:26.000Z</time>
      </trkpt>
      <trkpt lat="46.25834" lon="6.35803">
        <ele>602.14</ele>
        <time>2018-09-15T09:50:31.000Z</time>
      </trkpt>
      <trkpt lat="46.25823" lon="6.35792">
        <ele>603.14</ele>
        <time>2018-09-15T09:50:36.000Z</time>
      </trkpt>
      <trkpt lat="46.25814" lon="6.35782">
        <ele>604.1</ele>
        <time>2018-09-15T09:50:41.000Z</time>
      </trkpt>
      <trkpt lat="46.25805" lon="6.35767">
        <ele>603.16</ele>
        <time>2018-09-15T09:50:46.000Z</time>
      </trkpt>
      <trkpt lat="46.25795" lon="6.35743">
        <ele>603.16</ele>
        <time>2018-09-15T09:50:51.000Z</time>
      </trkpt>
      <trkpt lat="46.25786" lon="6.3572">
        <ele>604.9</ele>
        <time>2018-09-15T09:50:56.000Z</time>
      </trkpt>
      <trkpt lat="46.25779" lon="6.357">
        <ele>605.1</ele>
        <time>2018-09-15T09:51:01.000Z</time>
      </trkpt>
      <trkpt lat="46.25774" lon="6.35682">
        <ele>605.16</ele>
        <time>2018-09-15T09:51:06.000Z</time>
      </trkpt>
      <trkpt lat="46.25767" lon="6.3567">
        <ele>606.16</ele>
        <time>2018-09-15T09:51:11.000Z</time>
      </trkpt>
      <trkpt lat="46.2576" lon="6.35684">
        <ele>606.16</ele>
        <time>2018-09-15T09:51:16.000Z</time>
      </trkpt>
      <trkpt lat="46.25755" lon="6.35705">
        <ele>608.14</ele>
        <time>2018-09-15T09:51:21.000Z</time>
      </trkpt>
      <trkpt lat="46.25754" lon="6.35728">
        <ele>608.16</ele>
        <time>2018-09-15T09:51:26.000Z</time>
      </trkpt>
      <trkpt lat="46.25753" lon="6.35753">
        <ele>609.15</ele>
        <time>2018-09-15T09:51:31.000Z</time>
      </trkpt>
      <trkpt lat="46.25751" lon="6.35778">
        <ele>610.9</ele>
        <time>2018-09-15T09:51:36.000Z</time>
      </trkpt>
      <trkpt lat="46.25749" lon="6.35803">
        <ele>611.16</ele>
        <time>2018-09-15T09:51:41.000Z</time>
      </trkpt>
      <trkpt lat="46.25747" lon="6.35827">
        <ele>613.09</ele>
        <time>2018-09-15T09:51:46.000Z</time>
      </trkpt>
      <trkpt lat="46.25746" lon="6.3585">
        <ele>613.41</ele>
        <time>2018-09-15T09:51:51.000Z</time>
      </trkpt>
      <trkpt lat="46.25753" lon="6.35874">
        <ele>614.16</ele>
        <time>2018-09-15T09:51:56.000Z</time>
      </trkpt>
      <trkpt lat="46.25761" lon="6.35903">
        <ele>614.16</ele>
        <time>2018-09-15T09:52:01.000Z</time>
      </trkpt>
      <trkpt lat="46.25773" lon="6.35931">
        <ele>614.16</ele>
        <time>2018-09-15T09:52:06.000Z</time>
      </trkpt>
      <trkpt lat="46.25782" lon="6.3596">
        <ele>615.1</ele>
        <time>2018-09-15T09:52:11.000Z</time>
      </trkpt>
      <trkpt lat="46.25787" lon="6.35987">
        <ele>615.91</ele>
        <time>2018-09-15T09:52:16.000Z</time>
      </trkpt>
      <trkpt lat="46.25792" lon="6.36011">
        <ele>618.14</ele>
        <time>2018-09-15T09:52:21.000Z</time>
      </trkpt>
      <trkpt lat="46.25797" lon="6.36036">
        <ele>619.14</ele>
        <time>2018-09-15T09:52:26.000Z</time>
      </trkpt>
      <trkpt lat="46.25802" lon="6.36061">
        <ele>621.1</ele>
        <time>2018-09-15T09:52:31.000Z</time>
      </trkpt>
      <trkpt lat="46.25807" lon="6.36085">
        <ele>622.15</ele>
        <time>2018-09-15T09:52:36.000Z</time>
      </trkpt>
      <trkpt lat="46.25813" lon="6.36109">
        <ele>621.97</ele>
        <time>2018-09-15T09:52:41.000Z</time>
      </trkpt>
      <trkpt lat="46.25817" lon="6.36132">
        <ele>622.16</ele>
        <time>2018-09-15T09:52:46.000Z</time>
      </trkpt>
      <trkpt lat="46.25821" lon="6.36157">
        <ele>623.14</ele>
        <time>2018-09-15T09:52:51.000Z</time>
      </trkpt>
      <trkpt lat="46.25825" lon="6.36179">
        <ele>624.9</ele>
        <time>2018-09-15T09:52:56.000Z</time>
      </trkpt>
      <trkpt lat="46.2582" lon="6.36202">
        <ele>626.89</ele>
        <time>2018-09-15T09:53:01.000Z</time>
      </trkpt>
      <trkpt lat="46.25814" lon="6.36224">
        <ele>628.1</ele>
        <time>2018-09-15T09:53:06.000Z</time>
      </trkpt>
      <trkpt lat="46.25817" lon="6.36248">
        <ele>628.16</ele>
        <time>2018-09-15T09:53:11.000Z</time>
      </trkpt>
      <trkpt lat="46.25821" lon="6.36271">
        <ele>628.16</ele>
        <time>2018-09-15T09:53:16.000Z</time>
      </trkpt>
      <trkpt lat="46.25825" lon="6.36294">
        <ele>629.1</ele>
        <time>2018-09-15T09:53:21.000Z</time>
      </trkpt>
      <trkpt lat="46.25828" lon="6.36318">
        <ele>629.16</ele>
        <time>2018-09-15T09:53:26.000Z</time>
      </trkpt>
      <trkpt lat="46.25828" lon="6.36342">
        <ele>630.16</ele>
        <time>2018-09-15T09:53:31.000Z</time>
      </trkpt>
      <trkpt lat="46.25829" lon="6.36366">
        <ele>631.16</ele>
        <time>2018-09-15T09:53:36.000Z</time>
      </trkpt>
      <trkpt lat="46.25828" lon="6.36388">
        <ele>632.16</ele>
        <time>2018-09-15T09:53:41.000Z</time>
      </trkpt>
      <trkpt lat="46.25829" lon="6.3641">
        <ele>633.1</ele>
        <time>2018-09-15T09:53:46.000Z</time>
      </trkpt>
      <trkpt lat="46.25829" lon="6.36431">
        <ele>634.91</ele>
        <time>2018-09-15T09:53:51.000Z</time>
      </trkpt>
      <trkpt lat="46.25829" lon="6.36454">
        <ele>636.1</ele>
        <time>2018-09-15T09:53:56.000Z</time>
      </trkpt>
      <trkpt lat="46.25826" lon="6.36477">
        <ele>637.16</ele>
        <time>2018-09-15T09:54:01.000Z</time>
      </trkpt>
      <trkpt lat="46.25821" lon="6.36498">
        <ele>639.08</ele>
        <time>2018-09-15T09:54:06.000Z</time>
      </trkpt>
      <trkpt lat="46.25816" lon="6.36518">
        <ele>640.1</ele>
        <time>2018-09-15T09:54:11.000Z</time>
      </trkpt>
      <trkpt lat="46.2581" lon="6.3654">
        <ele>639.41</ele>
        <time>2018-09-15T09:54:16.000Z</time>
      </trkpt>
      <trkpt lat="46.25801" lon="6.36556">
        <ele>640.16</ele>
        <time>2018-09-15T09:54:21.000Z</time>
      </trkpt>
      <trkpt lat="46.25792" lon="6.36573">
        <ele>641.35</ele>
        <time>2018-09-15T09:54:26.000Z</time>
      </trkpt>
      <trkpt lat="46.25782" lon="6.36591">
        <ele>641.16</ele>
        <time>2018-09-15T09:54:31.000Z</time>
      </trkpt>
      <trkpt lat="46.25781" lon="6.36612">
        <ele>640.41</ele>
        <time>2018-09-15T09:54:36.000Z</time>
      </trkpt>
      <trkpt lat="46.25782" lon="6.36638">
        <ele>640.16</ele>
        <time>2018-09-15T09:54:41.000Z</time>
      </trkpt>
      <trkpt lat="46.25777" lon="6.36662">
        <ele>642.14</ele>
        <time>2018-09-15T09:54:46.000Z</time>
      </trkpt>
      <trkpt lat="46.25769" lon="6.36685">
        <ele>642.22</ele>
        <time>2018-09-15T09:54:51.000Z</time>
      </trkpt>
      <trkpt lat="46.25762" lon="6.36708">
        <ele>644.09</ele>
        <time>2018-09-15T09:54:56.000Z</time>
      </trkpt>
      <trkpt lat="46.25754" lon="6.3673">
        <ele>644.15</ele>
        <time>2018-09-15T09:55:01.000Z</time>
      </trkpt>
      <trkpt lat="46.25741" lon="6.36749">
        <ele>645.15</ele>
        <time>2018-09-15T09:55:06.000Z</time>
      </trkpt>
      <trkpt lat="46.25726" lon="6.36752">
        <ele>645.35</ele>
        <time>2018-09-15T09:55:11.000Z</time>
      </trkpt>
      <trkpt lat="46.25714" lon="6.36738">
        <ele>646.16</ele>
        <time>2018-09-15T09:55:16.000Z</time>
      </trkpt>
      <trkpt lat="46.25713" lon="6.36715">
        <ele>646.91</ele>
        <time>2018-09-15T09:55:21.000Z</time>
      </trkpt>
      <trkpt lat="46.25721" lon="6.36695">
        <ele>647.16</ele>
        <time>2018-09-15T09:55:26.000Z</time>
      </trkpt>
      <trkpt lat="46.25728" lon="6.36675">
        <ele>648.16</ele>
        <time>2018-09-15T09:55:31.000Z</time>
      </trkpt>
      <trkpt lat="46.25729" lon="6.36653">
        <ele>650.1</ele>
        <time>2018-09-15T09:55:36.000Z</time>
      </trkpt>
      <trkpt lat="46.25723" lon="6.36633">
        <ele>650.17</ele>
        <time>2018-09-15T09:55:41.000Z</time>
      </trkpt>
      <trkpt lat="46.25715" lon="6.36614">
        <ele>650.15</ele>
        <time>2018-09-15T09:55:46.000Z</time>
      </trkpt>
      <trkpt lat="46.25706" lon="6.36594">
        <ele>650.16</ele>
        <time>2018-09-15T09:55:51.000Z</time>
      </trkpt>
      <trkpt lat="46.25697" lon="6.36574">
        <ele>651.15</ele>
        <time>2018-09-15T09:55:56.000Z</time>
      </trkpt>
      <trkpt lat="46.25687" lon="6.36554">
        <ele>652.16</ele>
        <time>2018-09-15T09:56:01.000Z</time>
      </trkpt>
      <trkpt lat="46.25678" lon="6.36533">
        <ele>653.91</ele>
        <time>2018-09-15T09:56:06.000Z</time>
      </trkpt>
      <trkpt lat="46.25672" lon="6.36512">
        <ele>654.16</ele>
        <time>2018-09-15T09:56:11.000Z</time>
      </trkpt>
      <trkpt lat="46.25666" lon="6.36489">
        <ele>655.16</ele>
        <time>2018-09-15T09:56:16.000Z</time>
      </trkpt>
      <trkpt lat="46.25661" lon="6.36465">
        <ele>657.14</ele>
        <time>2018-09-15T09:56:21.000Z</time>
      </trkpt>
      <trkpt lat="46.25657" lon="6.36443">
        <ele>657.16</ele>
        <time>2018-09-15T09:56:26.000Z</time>
      </trkpt>
      <trkpt lat="46.25654" lon="6.36419">
        <ele>657.17</ele>
        <time>2018-09-15T09:56:31.000Z</time>
      </trkpt>
      <trkpt lat="46.25649" lon="6.36396">
        <ele>658.39</ele>
        <time>2018-09-15T09:56:36.000Z</time>
      </trkpt>
      <trkpt lat="46.25645" lon="6.36371">
        <ele>659.1</ele>
        <time>2018-09-15T09:56:41.000Z</time>
      </trkpt>
      <trkpt lat="46.25641" lon="6.36347">
        <ele>659.91</ele>
        <time>2018-09-15T09:56:46.000Z</time>
      </trkpt>
      <trkpt lat="46.25634" lon="6.36326">
        <ele>662.09</ele>
        <time>2018-09-15T09:56:51.000Z</time>
      </trkpt>
      <trkpt lat="46.25624" lon="6.36316">
        <ele>664.89</ele>
        <time>2018-09-15T09:56:56.000Z</time>
      </trkpt>
      <trkpt lat="46.25614" lon="6.36315">
        <ele>666.16</ele>
        <time>2018-09-15T09:57:01.000Z</time>
      </trkpt>
      <trkpt lat="46.25604" lon="6.36318">
        <ele>667.15</ele>
        <time>2018-09-15T09:57:06.000Z</time>
      </trkpt>
      <trkpt lat="46.25596" lon="6.36332">
        <ele>669.1</ele>
        <time>2018-09-15T09:57:11.000Z</time>
      </trkpt>
      <trkpt lat="46.25591" lon="6.36349">
        <ele>669.16</ele>
        <time>2018-09-15T09:57:16.000Z</time>
      </trkpt>
      <trkpt lat="46.25585" lon="6.36368">
        <ele>669.16</ele>
        <time>2018-09-15T09:57:21.000Z</time>
      </trkpt>
      <trkpt lat="46.25579" lon="6.36388">
        <ele>670.9</ele>
        <time>2018-09-15T09:57:26.000Z</time>
      </trkpt>
      <trkpt lat="46.25571" lon="6.36407">
        <ele>672.1</ele>
        <time>2018-09-15T09:57:31.000Z</time>
      </trkpt>
      <trkpt lat="46.25565" lon="6.36427">
        <ele>672.16</ele>
        <time>2018-09-15T09:57:36.000Z</time>
      </trkpt>
      <trkpt lat="46.25557" lon="6.36448">
        <ele>672.16</ele>
        <time>2018-09-15T09:57:41.000Z</time>
      </trkpt>
      <trkpt lat="46.2555" lon="6.36471">
        <ele>673.16</ele>
        <time>2018-09-15T09:57:46.000Z</time>
      </trkpt>
      <trkpt lat="46.25542" lon="6.36494">
        <ele>675.08</ele>
        <time>2018-09-15T09:57:51.000Z</time>
      </trkpt>
      <trkpt lat="46.25534" lon="6.36517">
        <ele>675.91</ele>
        <time>2018-09-15T09:57:56.000Z</time>
      </trkpt>
      <trkpt lat="46.25526" lon="6.3654">
        <ele>677.16</ele>
        <time>2018-09-15T09:58:01.000Z</time>
      </trkpt>
      <trkpt lat="46.2552" lon="6.36564">
        <ele>676.98</ele>
        <time>2018-09-15T09:58:06.000Z</time>
      </trkpt>
      <trkpt lat="46.25513" lon="6.36588">
        <ele>677.16</ele>
        <time>2018-09-15T09:58:11.000Z</time>
      </trkpt>
      <trkpt lat="46.25505" lon="6.36611">
        <ele>678.1</ele>
        <time>2018-09-15T09:58:16.000Z</time>
      </trkpt>
      <trkpt lat="46.25497" lon="6.36632">
        <ele>678.91</ele>
        <time>2018-09-15T09:58:21.000Z</time>
      </trkpt>
      <trkpt lat="46.25489" lon="6.36651">
        <ele>678.41</ele>
        <time>2018-09-15T09:58:26.000Z</time>
      </trkpt>
      <trkpt lat="46.25482" lon="6.36674">
        <ele>678.16</ele>
        <time>2018-09-15T09:58:31.000Z</time>
      </trkpt>
      <trkpt lat="46.25474" lon="6.36695">
        <ele>678.21</ele>
        <time>2018-09-15T09:58:36.000Z</time>
      </trkpt>
      <trkpt lat="46.25467" lon="6.36714">
        <ele>679.4</ele>
        <time>2018-09-15T09:58:41.000Z</time>
      </trkpt>
      <trkpt lat="46.25459" lon="6.36734">
        <ele>680.16</ele>
        <time>2018-09-15T09:58:46.000Z</time>
      </trkpt>
      <trkpt lat="46.25452" lon="6.36753">
        <ele>681.15</ele>
        <time>2018-09-15T09:58:51.000Z</time>
      </trkpt>
      <trkpt lat="46.25448" lon="6.36774">
        <ele>680.36</ele>
        <time>2018-09-15T09:58:56.000Z</time>
      </trkpt>
      <trkpt lat="46.25444" lon="6.36799">
        <ele>681.21</ele>
        <time>2018-09-15T09:59:01.000Z</time>
      </trkpt>
      <trkpt lat="46.25441" lon="6.36826">
        <ele>679.18</ele>
        <time>2018-09-15T09:59:06.000Z</time>
      </trkpt>
      <trkpt lat="46.25437" lon="6.3685">
        <ele>681.1</ele>
        <time>2018-09-15T09:59:11.000Z</time>
      </trkpt>
      <trkpt lat="46.25433" lon="6.36874">
        <ele>683.16</ele>
        <time>2018-09-15T09:59:16.000Z</time>
      </trkpt>
      <trkpt lat="46.2543" lon="6.36898">
        <ele>683.91</ele>
        <time>2018-09-15T09:59:21.000Z</time>
      </trkpt>
      <trkpt lat="46.25426" lon="6.36922">
        <ele>685.15</ele>
        <time>2018-09-15T09:59:26.000Z</time>
      </trkpt>
      <trkpt lat="46.25422" lon="6.36945">
        <ele>687.15</ele>
        <time>2018-09-15T09:59:31.000Z</time>
      </trkpt>
      <trkpt lat="46.25418" lon="6.36968">
        <ele>688.15</ele>
        <time>2018-09-15T09:59:36.000Z</time>
      </trkpt>
      <trkpt lat="46.25414" lon="6.36991">
        <ele>690.85</ele>
        <time>2018-09-15T09:59:41.000Z</time>
      </trkpt>
      <trkpt lat="46.25411" lon="6.37014">
        <ele>691.16</ele>
        <time>2018-09-15T09:59:46.000Z</time>
      </trkpt>
      <trkpt lat="46.2541" lon="6.37035">
        <ele>690.18</ele>
        <time>2018-09-15T09:59:51.000Z</time>
      </trkpt>
      <trkpt lat="46.25407" lon="6.3706">
        <ele>690.11</ele>
        <time>2018-09-15T09:59:56.000Z</time>
      </trkpt>
      <trkpt lat="46.25404" lon="6.37082">
        <ele>691.15</ele>
        <time>2018-09-15T10:00:01.000Z</time>
      </trkpt>
      <trkpt lat="46.25401" lon="6.37103">
        <ele>692.1</ele>
        <time>2018-09-15T10:00:06.000Z</time>
      </trkpt>
      <trkpt lat="46.25393" lon="6.37124">
        <ele>693.9</ele>
        <time>2018-09-15T10:00:11.000Z</time>
      </trkpt>
      <trkpt lat="46.25381" lon="6.37143">
        <ele>695.1</ele>
        <time>2018-09-15T10:00:16.000Z</time>
      </trkpt>
      <trkpt lat="46.25365" lon="6.37165">
        <ele>696.1</ele>
        <time>2018-09-15T10:00:21.000Z</time>
      </trkpt>
      <trkpt lat="46.25349" lon="6.37185">
        <ele>698.1</ele>
        <time>2018-09-15T10:00:26.000Z</time>
      </trkpt>
      <trkpt lat="46.25332" lon="6.37208">
        <ele>699.16</ele>
        <time>2018-09-15T10:00:31.000Z</time>
      </trkpt>
      <trkpt lat="46.25318" lon="6.37226">
        <ele>700.15</ele>
        <time>2018-09-15T10:00:36.000Z</time>
      </trkpt>
      <trkpt lat="46.25306" lon="6.37245">
        <ele>702.1</ele>
        <time>2018-09-15T10:00:41.000Z</time>
      </trkpt>
      <trkpt lat="46.25293" lon="6.37262">
        <ele>703.92</ele>
        <time>2018-09-15T10:00:46.000Z</time>
      </trkpt>
      <trkpt lat="46.2528" lon="6.37279">
        <ele>705.1</ele>
        <time>2018-09-15T10:00:51.000Z</time>
      </trkpt>
      <trkpt lat="46.25268" lon="6.37295">
        <ele>706.1</ele>
        <time>2018-09-15T10:00:56.000Z</time>
      </trkpt>
      <trkpt lat="46.25256" lon="6.37313">
        <ele>707.17</ele>
        <time>2018-09-15T10:01:01.000Z</time>
      </trkpt>
      <trkpt lat="46.25242" lon="6.37331">
        <ele>708.17</ele>
        <time>2018-09-15T10:01:06.000Z</time>
      </trkpt>
      <trkpt lat="46.25228" lon="6.37352">
        <ele>708.96</ele>
        <time>2018-09-15T10:01:11.000Z</time>
      </trkpt>
      <trkpt lat="46.25212" lon="6.37374">
        <ele>708.17</ele>
        <time>2018-09-15T10:01:16.000Z</time>
      </trkpt>
      <trkpt lat="46.25197" lon="6.37396">
        <ele>708.17</ele>
        <time>2018-09-15T10:01:21.000Z</time>
      </trkpt>
      <trkpt lat="46.25184" lon="6.3742">
        <ele>708.36</ele>
        <time>2018-09-15T10:01:26.000Z</time>
      </trkpt>
      <trkpt lat="46.25173" lon="6.37445">
        <ele>709.16</ele>
        <time>2018-09-15T10:01:31.000Z</time>
      </trkpt>
      <trkpt lat="46.2516" lon="6.37462">
        <ele>710.92</ele>
        <time>2018-09-15T10:01:36.000Z</time>
      </trkpt>
      <trkpt lat="46.25148" lon="6.37466">
        <ele>711.97</ele>
        <time>2018-09-15T10:01:41.000Z</time>
      </trkpt>
      <trkpt lat="46.25138" lon="6.3747">
        <ele>713.15</ele>
        <time>2018-09-15T10:01:54.000Z</time>
      </trkpt>
      <trkpt lat="46.25131" lon="6.37488">
        <ele>712.23</ele>
        <time>2018-09-15T10:01:59.000Z</time>
      </trkpt>
      <trkpt lat="46.2513" lon="6.37517">
        <ele>712.17</ele>
        <time>2018-09-15T10:02:04.000Z</time>
      </trkpt>
      <trkpt lat="46.25133" lon="6.37559">
        <ele>710.67</ele>
        <time>2018-09-15T10:02:09.000Z</time>
      </trkpt>
      <trkpt lat="46.25136" lon="6.37607">
        <ele>708</ele>
        <time>2018-09-15T10:02:14.000Z</time>
      </trkpt>
      <trkpt lat="46.25141" lon="6.37661">
        <ele>704.49</ele>
        <time>2018-09-15T10:02:19.000Z</time>
      </trkpt>
      <trkpt lat="46.25145" lon="6.37718">
        <ele>701.5</ele>
        <time>2018-09-15T10:02:24.000Z</time>
      </trkpt>
      <trkpt lat="46.25153" lon="6.37778">
        <ele>698.44</ele>
        <time>2018-09-15T10:02:29.000Z</time>
      </trkpt>
      <trkpt lat="46.25172" lon="6.37833">
        <ele>697</ele>
        <time>2018-09-15T10:02:34.000Z</time>
      </trkpt>
      <trkpt lat="46.2519" lon="6.3789">
        <ele>693.2</ele>
        <time>2018-09-15T10:02:39.000Z</time>
      </trkpt>
      <trkpt lat="46.2521" lon="6.37953">
        <ele>692.18</ele>
        <time>2018-09-15T10:02:44.000Z</time>
      </trkpt>
      <trkpt lat="46.25231" lon="6.38017">
        <ele>689.44</ele>
        <time>2018-09-15T10:02:49.000Z</time>
      </trkpt>
      <trkpt lat="46.25243" lon="6.38089">
        <ele>688.17</ele>
        <time>2018-09-15T10:02:54.000Z</time>
      </trkpt>
      <trkpt lat="46.25245" lon="6.38158">
        <ele>686.48</ele>
        <time>2018-09-15T10:02:59.000Z</time>
      </trkpt>
      <trkpt lat="46.2528" lon="6.38209">
        <ele>685.23</ele>
        <time>2018-09-15T10:03:04.000Z</time>
      </trkpt>
      <trkpt lat="46.25327" lon="6.38247">
        <ele>682.72</ele>
        <time>2018-09-15T10:03:09.000Z</time>
      </trkpt>
      <trkpt lat="46.25357" lon="6.38311">
        <ele>678.44</ele>
        <time>2018-09-15T10:03:14.000Z</time>
      </trkpt>
      <trkpt lat="46.25383" lon="6.38378">
        <ele>678.4</ele>
        <time>2018-09-15T10:03:19.000Z</time>
      </trkpt>
      <trkpt lat="46.25414" lon="6.38437">
        <ele>675.12</ele>
        <time>2018-09-15T10:03:24.000Z</time>
      </trkpt>
      <trkpt lat="46.2544" lon="6.38497">
        <ele>670.36</ele>
        <time>2018-09-15T10:03:29.000Z</time>
      </trkpt>
      <trkpt lat="46.25466" lon="6.38566">
        <ele>666.99</ele>
        <time>2018-09-15T10:03:34.000Z</time>
      </trkpt>
      <trkpt lat="46.25491" lon="6.38623">
        <ele>664.25</ele>
        <time>2018-09-15T10:03:39.000Z</time>
      </trkpt>
      <trkpt lat="46.25525" lon="6.38634">
        <ele>665.96</ele>
        <time>2018-09-15T10:03:44.000Z</time>
      </trkpt>
      <trkpt lat="46.2556" lon="6.38673">
        <ele>662</ele>
        <time>2018-09-15T10:03:49.000Z</time>
      </trkpt>
      <trkpt lat="46.25603" lon="6.38717">
        <ele>656.19</ele>
        <time>2018-09-15T10:03:54.000Z</time>
      </trkpt>
      <trkpt lat="46.25651" lon="6.38722">
        <ele>653.24</ele>
        <time>2018-09-15T10:03:59.000Z</time>
      </trkpt>
      <trkpt lat="46.257" lon="6.3869">
        <ele>645.75</ele>
        <time>2018-09-15T10:04:04.000Z</time>
      </trkpt>
      <trkpt lat="46.2576" lon="6.38697">
        <ele>638.76</ele>
        <time>2018-09-15T10:04:09.000Z</time>
      </trkpt>
      <trkpt lat="46.25823" lon="6.38706">
        <ele>633.54</ele>
        <time>2018-09-15T10:04:14.000Z</time>
      </trkpt>
      <trkpt lat="46.25884" lon="6.387">
        <ele>627.31</ele>
        <time>2018-09-15T10:04:19.000Z</time>
      </trkpt>
      <trkpt lat="46.25941" lon="6.38702">
        <ele>622.5</ele>
        <time>2018-09-15T10:04:24.000Z</time>
      </trkpt>
      <trkpt lat="46.25991" lon="6.38748">
        <ele>620.18</ele>
        <time>2018-09-15T10:04:29.000Z</time>
      </trkpt>
      <trkpt lat="46.26044" lon="6.38762">
        <ele>616.44</ele>
        <time>2018-09-15T10:04:34.000Z</time>
      </trkpt>
      <trkpt lat="46.26075" lon="6.38812">
        <ele>611.8</ele>
        <time>2018-09-15T10:04:39.000Z</time>
      </trkpt>
      <trkpt lat="46.26096" lon="6.38884">
        <ele>605.56</ele>
        <time>2018-09-15T10:04:44.000Z</time>
      </trkpt>
      <trkpt lat="46.26131" lon="6.38905">
        <ele>602.43</ele>
        <time>2018-09-15T10:04:49.000Z</time>
      </trkpt>
      <trkpt lat="46.26166" lon="6.38864">
        <ele>599.24</ele>
        <time>2018-09-15T10:04:54.000Z</time>
      </trkpt>
      <trkpt lat="46.26197" lon="6.38846">
        <ele>595.48</ele>
        <time>2018-09-15T10:04:59.000Z</time>
      </trkpt>
      <trkpt lat="46.26227" lon="6.38868">
        <ele>595.16</ele>
        <time>2018-09-15T10:05:04.000Z</time>
      </trkpt>
      <trkpt lat="46.26263" lon="6.38861">
        <ele>592.48</ele>
        <time>2018-09-15T10:05:09.000Z</time>
      </trkpt>
      <trkpt lat="46.26295" lon="6.38892">
        <ele>590.23</ele>
        <time>2018-09-15T10:05:14.000Z</time>
      </trkpt>
      <trkpt lat="46.26321" lon="6.38934">
        <ele>589.16</ele>
        <time>2018-09-15T10:05:19.000Z</time>
      </trkpt>
      <trkpt lat="46.26349" lon="6.38972">
        <ele>587.41</ele>
        <time>2018-09-15T10:05:24.000Z</time>
      </trkpt>
      <trkpt lat="46.26359" lon="6.39024">
        <ele>585.66</ele>
        <time>2018-09-15T10:05:29.000Z</time>
      </trkpt>
      <trkpt lat="46.26368" lon="6.39068">
        <ele>582.23</ele>
        <time>2018-09-15T10:05:34.000Z</time>
      </trkpt>
      <trkpt lat="46.26385" lon="6.39102">
        <ele>583.15</ele>
        <time>2018-09-15T10:05:39.000Z</time>
      </trkpt>
      <trkpt lat="46.26407" lon="6.39117">
        <ele>586.08</ele>
        <time>2018-09-15T10:05:44.000Z</time>
      </trkpt>
      <trkpt lat="46.26429" lon="6.39092">
        <ele>586.91</ele>
        <time>2018-09-15T10:05:49.000Z</time>
      </trkpt>
      <trkpt lat="46.26455" lon="6.39054">
        <ele>585.41</ele>
        <time>2018-09-15T10:05:54.000Z</time>
      </trkpt>
      <trkpt lat="46.26482" lon="6.39026">
        <ele>582.47</ele>
        <time>2018-09-15T10:05:59.000Z</time>
      </trkpt>
      <trkpt lat="46.26505" lon="6.39046">
        <ele>582.16</ele>
        <time>2018-09-15T10:06:04.000Z</time>
      </trkpt>
      <trkpt lat="46.26527" lon="6.3907">
        <ele>582.16</ele>
        <time>2018-09-15T10:06:09.000Z</time>
      </trkpt>
      <trkpt lat="46.26554" lon="6.39075">
        <ele>581.47</ele>
        <time>2018-09-15T10:06:14.000Z</time>
      </trkpt>
      <trkpt lat="46.2658" lon="6.39067">
        <ele>581.39</ele>
        <time>2018-09-15T10:06:19.000Z</time>
      </trkpt>
      <trkpt lat="46.26599" lon="6.39094">
        <ele>583.9</ele>
        <time>2018-09-15T10:06:24.000Z</time>
      </trkpt>
      <trkpt lat="46.26618" lon="6.39119">
        <ele>584.39</ele>
        <time>2018-09-15T10:06:29.000Z</time>
      </trkpt>
      <trkpt lat="46.26636" lon="6.39147">
        <ele>584.92</ele>
        <time>2018-09-15T10:06:34.000Z</time>
      </trkpt>
      <trkpt lat="46.26655" lon="6.39174">
        <ele>584.22</ele>
        <time>2018-09-15T10:06:39.000Z</time>
      </trkpt>
      <trkpt lat="46.26672" lon="6.39204">
        <ele>583.17</ele>
        <time>2018-09-15T10:06:44.000Z</time>
      </trkpt>
      <trkpt lat="46.26685" lon="6.39239">
        <ele>583.16</ele>
        <time>2018-09-15T10:06:49.000Z</time>
      </trkpt>
      <trkpt lat="46.26699" lon="6.39279">
        <ele>581.42</ele>
        <time>2018-09-15T10:06:54.000Z</time>
      </trkpt>
      <trkpt lat="46.26714" lon="6.39324">
        <ele>581.09</ele>
        <time>2018-09-15T10:06:59.000Z</time>
      </trkpt>
      <trkpt lat="46.26729" lon="6.3937">
        <ele>580.17</ele>
        <time>2018-09-15T10:07:04.000Z</time>
      </trkpt>
      <trkpt lat="46.26747" lon="6.39416">
        <ele>579.41</ele>
        <time>2018-09-15T10:07:09.000Z</time>
      </trkpt>
      <trkpt lat="46.26766" lon="6.39459">
        <ele>579.91</ele>
        <time>2018-09-15T10:07:14.000Z</time>
      </trkpt>
      <trkpt lat="46.26777" lon="6.39502">
        <ele>579.41</ele>
        <time>2018-09-15T10:07:19.000Z</time>
      </trkpt>
      <trkpt lat="46.26785" lon="6.39547">
        <ele>580.08</ele>
        <time>2018-09-15T10:07:24.000Z</time>
      </trkpt>
      <trkpt lat="46.26794" lon="6.39588">
        <ele>579.4</ele>
        <time>2018-09-15T10:07:29.000Z</time>
      </trkpt>
      <trkpt lat="46.26807" lon="6.3963">
        <ele>579.16</ele>
        <time>2018-09-15T10:07:34.000Z</time>
      </trkpt>
      <trkpt lat="46.26822" lon="6.39673">
        <ele>579.22</ele>
        <time>2018-09-15T10:07:39.000Z</time>
      </trkpt>
      <trkpt lat="46.26838" lon="6.39715">
        <ele>578.17</ele>
        <time>2018-09-15T10:07:44.000Z</time>
      </trkpt>
      <trkpt lat="46.26853" lon="6.39752">
        <ele>578.97</ele>
        <time>2018-09-15T10:07:49.000Z</time>
      </trkpt>
      <trkpt lat="46.26868" lon="6.39786">
        <ele>579.15</ele>
        <time>2018-09-15T10:07:54.000Z</time>
      </trkpt>
      <trkpt lat="46.26889" lon="6.39816">
        <ele>579.91</ele>
        <time>2018-09-15T10:07:59.000Z</time>
      </trkpt>
      <trkpt lat="46.26918" lon="6.39836">
        <ele>580.15</ele>
        <time>2018-09-15T10:08:04.000Z</time>
      </trkpt>
      <trkpt lat="46.26948" lon="6.3986">
        <ele>580.4</ele>
        <time>2018-09-15T10:08:09.000Z</time>
      </trkpt>
      <trkpt lat="46.26969" lon="6.39896">
        <ele>579.97</ele>
        <time>2018-09-15T10:08:14.000Z</time>
      </trkpt>
      <trkpt lat="46.26985" lon="6.39938">
        <ele>580.15</ele>
        <time>2018-09-15T10:08:19.000Z</time>
      </trkpt>
      <trkpt lat="46.27001" lon="6.39979">
        <ele>579.34</ele>
        <time>2018-09-15T10:08:24.000Z</time>
      </trkpt>
      <trkpt lat="46.27017" lon="6.40016">
        <ele>579.17</ele>
        <time>2018-09-15T10:08:29.000Z</time>
      </trkpt>
      <trkpt lat="46.27032" lon="6.40058">
        <ele>578.16</ele>
        <time>2018-09-15T10:08:34.000Z</time>
      </trkpt>
      <trkpt lat="46.27048" lon="6.40099">
        <ele>579.14</ele>
        <time>2018-09-15T10:08:39.000Z</time>
      </trkpt>
      <trkpt lat="46.27064" lon="6.40139">
        <ele>579.15</ele>
        <time>2018-09-15T10:08:44.000Z</time>
      </trkpt>
      <trkpt lat="46.27079" lon="6.40177">
        <ele>579.15</ele>
        <time>2018-09-15T10:08:49.000Z</time>
      </trkpt>
      <trkpt lat="46.27093" lon="6.40213">
        <ele>579.15</ele>
        <time>2018-09-15T10:08:54.000Z</time>
      </trkpt>
      <trkpt lat="46.27107" lon="6.40247">
        <ele>580.15</ele>
        <time>2018-09-15T10:08:59.000Z</time>
      </trkpt>
      <trkpt lat="46.27121" lon="6.40281">
        <ele>580.9</ele>
        <time>2018-09-15T10:09:04.000Z</time>
      </trkpt>
      <trkpt lat="46.27135" lon="6.40315">
        <ele>581.2</ele>
        <time>2018-09-15T10:09:09.000Z</time>
      </trkpt>
      <trkpt lat="46.27151" lon="6.40351">
        <ele>579.47</ele>
        <time>2018-09-15T10:09:14.000Z</time>
      </trkpt>
      <trkpt lat="46.27167" lon="6.40389">
        <ele>578.17</ele>
        <time>2018-09-15T10:09:19.000Z</time>
      </trkpt>
      <trkpt lat="46.27191" lon="6.40429">
        <ele>577.36</ele>
        <time>2018-09-15T10:09:24.000Z</time>
      </trkpt>
      <trkpt lat="46.27213" lon="6.4047">
        <ele>576.92</ele>
        <time>2018-09-15T10:09:29.000Z</time>
      </trkpt>
      <trkpt lat="46.2723" lon="6.40515">
        <ele>577.15</ele>
        <time>2018-09-15T10:09:34.000Z</time>
      </trkpt>
      <trkpt lat="46.27247" lon="6.40557">
        <ele>578.15</ele>
        <time>2018-09-15T10:09:39.000Z</time>
      </trkpt>
      <trkpt lat="46.27264" lon="6.40593">
        <ele>578.11</ele>
        <time>2018-09-15T10:09:44.000Z</time>
      </trkpt>
      <trkpt lat="46.27283" lon="6.40625">
        <ele>578.15</ele>
        <time>2018-09-15T10:09:49.000Z</time>
      </trkpt>
      <trkpt lat="46.273" lon="6.40658">
        <ele>579.89</ele>
        <time>2018-09-15T10:09:54.000Z</time>
      </trkpt>
      <trkpt lat="46.27316" lon="6.40688">
        <ele>580.15</ele>
        <time>2018-09-15T10:09:59.000Z</time>
      </trkpt>
      <trkpt lat="46.27325" lon="6.40721">
        <ele>582.09</ele>
        <time>2018-09-15T10:10:04.000Z</time>
      </trkpt>
      <trkpt lat="46.27332" lon="6.40754">
        <ele>582.15</ele>
        <time>2018-09-15T10:10:09.000Z</time>
      </trkpt>
      <trkpt lat="46.27339" lon="6.40789">
        <ele>583.15</ele>
        <time>2018-09-15T10:10:14.000Z</time>
      </trkpt>
      <trkpt lat="46.2735" lon="6.40823">
        <ele>582.36</ele>
        <time>2018-09-15T10:10:19.000Z</time>
      </trkpt>
      <trkpt lat="46.27363" lon="6.40853">
        <ele>582.34</ele>
        <time>2018-09-15T10:10:24.000Z</time>
      </trkpt>
      <trkpt lat="46.27375" lon="6.40884">
        <ele>582.4</ele>
        <time>2018-09-15T10:10:29.000Z</time>
      </trkpt>
      <trkpt lat="46.27385" lon="6.40914">
        <ele>581.4</ele>
        <time>2018-09-15T10:10:34.000Z</time>
      </trkpt>
      <trkpt lat="46.27397" lon="6.40944">
        <ele>581.15</ele>
        <time>2018-09-15T10:10:39.000Z</time>
      </trkpt>
      <trkpt lat="46.2741" lon="6.40973">
        <ele>580.97</ele>
        <time>2018-09-15T10:10:44.000Z</time>
      </trkpt>
      <trkpt lat="46.27421" lon="6.41005">
        <ele>581.09</ele>
        <time>2018-09-15T10:10:49.000Z</time>
      </trkpt>
      <trkpt lat="46.27434" lon="6.41038">
        <ele>580.15</ele>
        <time>2018-09-15T10:10:54.000Z</time>
      </trkpt>
      <trkpt lat="46.27447" lon="6.41072">
        <ele>578.41</ele>
        <time>2018-09-15T10:10:59.000Z</time>
      </trkpt>
      <trkpt lat="46.27461" lon="6.41111">
        <ele>578.15</ele>
        <time>2018-09-15T10:11:04.000Z</time>
      </trkpt>
      <trkpt lat="46.27476" lon="6.41142">
        <ele>579.09</ele>
        <time>2018-09-15T10:11:09.000Z</time>
      </trkpt>
      <trkpt lat="46.27501" lon="6.41134">
        <ele>581.09</ele>
        <time>2018-09-15T10:11:14.000Z</time>
      </trkpt>
      <trkpt lat="46.27529" lon="6.41125">
        <ele>582.9</ele>
        <time>2018-09-15T10:11:19.000Z</time>
      </trkpt>
      <trkpt lat="46.27548" lon="6.41145">
        <ele>583.15</ele>
        <time>2018-09-15T10:11:24.000Z</time>
      </trkpt>
      <trkpt lat="46.27566" lon="6.41173">
        <ele>582.4</ele>
        <time>2018-09-15T10:11:29.000Z</time>
      </trkpt>
      <trkpt lat="46.27584" lon="6.41205">
        <ele>578.48</ele>
        <time>2018-09-15T10:11:34.000Z</time>
      </trkpt>
      <trkpt lat="46.27599" lon="6.41236">
        <ele>578.15</ele>
        <time>2018-09-15T10:11:39.000Z</time>
      </trkpt>
      <trkpt lat="46.27611" lon="6.41261">
        <ele>579.15</ele>
        <time>2018-09-15T10:11:44.000Z</time>
      </trkpt>
      <trkpt lat="46.27621" lon="6.41287">
        <ele>580.1</ele>
        <time>2018-09-15T10:11:49.000Z</time>
      </trkpt>
      <trkpt lat="46.27625" lon="6.41323">
        <ele>578.45</ele>
        <time>2018-09-15T10:11:54.000Z</time>
      </trkpt>
      <trkpt lat="46.27631" lon="6.41365">
        <ele>577.4</ele>
        <time>2018-09-15T10:11:59.000Z</time>
      </trkpt>
      <trkpt lat="46.27649" lon="6.41392">
        <ele>576.96</ele>
        <time>2018-09-15T10:12:04.000Z</time>
      </trkpt>
      <trkpt lat="46.27675" lon="6.41397">
        <ele>574.23</ele>
        <time>2018-09-15T10:12:09.000Z</time>
      </trkpt>
      <trkpt lat="46.27699" lon="6.41399">
        <ele>573.17</ele>
        <time>2018-09-15T10:12:14.000Z</time>
      </trkpt>
      <trkpt lat="46.2772" lon="6.41405">
        <ele>571.96</ele>
        <time>2018-09-15T10:12:19.000Z</time>
      </trkpt>
      <trkpt lat="46.27739" lon="6.41428">
        <ele>572.09</ele>
        <time>2018-09-15T10:12:24.000Z</time>
      </trkpt>
      <trkpt lat="46.27749" lon="6.4146">
        <ele>574.84</ele>
        <time>2018-09-15T10:12:29.000Z</time>
      </trkpt>
      <trkpt lat="46.27756" lon="6.41487">
        <ele>575.91</ele>
        <time>2018-09-15T10:12:34.000Z</time>
      </trkpt>
      <trkpt lat="46.27759" lon="6.41509">
        <ele>576.09</ele>
        <time>2018-09-15T10:12:39.000Z</time>
      </trkpt>
      <trkpt lat="46.27766" lon="6.4153">
        <ele>576.15</ele>
        <time>2018-09-15T10:12:44.000Z</time>
      </trkpt>
      <trkpt lat="46.27775" lon="6.41551">
        <ele>577.88</ele>
        <time>2018-09-15T10:12:49.000Z</time>
      </trkpt>
      <trkpt lat="46.27787" lon="6.41569">
        <ele>579.15</ele>
        <time>2018-09-15T10:12:54.000Z</time>
      </trkpt>
      <trkpt lat="46.27801" lon="6.4159">
        <ele>579.15</ele>
        <time>2018-09-15T10:12:59.000Z</time>
      </trkpt>
      <trkpt lat="46.27815" lon="6.41613">
        <ele>579.15</ele>
        <time>2018-09-15T10:13:04.000Z</time>
      </trkpt>
      <trkpt lat="46.2783" lon="6.41636">
        <ele>580.13</ele>
        <time>2018-09-15T10:13:09.000Z</time>
      </trkpt>
      <trkpt lat="46.27845" lon="6.41661">
        <ele>580.15</ele>
        <time>2018-09-15T10:13:14.000Z</time>
      </trkpt>
      <trkpt lat="46.27851" lon="6.41694">
        <ele>580.15</ele>
        <time>2018-09-15T10:13:19.000Z</time>
      </trkpt>
      <trkpt lat="46.27845" lon="6.41732">
        <ele>579.15</ele>
        <time>2018-09-15T10:13:24.000Z</time>
      </trkpt>
      <trkpt lat="46.27833" lon="6.4177">
        <ele>578.4</ele>
        <time>2018-09-15T10:13:29.000Z</time>
      </trkpt>
      <trkpt lat="46.27819" lon="6.41813">
        <ele>577.15</ele>
        <time>2018-09-15T10:13:34.000Z</time>
      </trkpt>
      <trkpt lat="46.27807" lon="6.41853">
        <ele>578.14</ele>
        <time>2018-09-15T10:13:39.000Z</time>
      </trkpt>
      <trkpt lat="46.27794" lon="6.41891">
        <ele>579.15</ele>
        <time>2018-09-15T10:13:44.000Z</time>
      </trkpt>
      <trkpt lat="46.2778" lon="6.41932">
        <ele>577.4</ele>
        <time>2018-09-15T10:13:49.000Z</time>
      </trkpt>
      <trkpt lat="46.27768" lon="6.41973">
        <ele>577.15</ele>
        <time>2018-09-15T10:13:54.000Z</time>
      </trkpt>
      <trkpt lat="46.27764" lon="6.42019">
        <ele>577.46</ele>
        <time>2018-09-15T10:13:59.000Z</time>
      </trkpt>
      <trkpt lat="46.27765" lon="6.42062">
        <ele>577.39</ele>
        <time>2018-09-15T10:14:04.000Z</time>
      </trkpt>
      <trkpt lat="46.27767" lon="6.42105">
        <ele>577.4</ele>
        <time>2018-09-15T10:14:09.000Z</time>
      </trkpt>
      <trkpt lat="46.27767" lon="6.42142">
        <ele>576.17</ele>
        <time>2018-09-15T10:14:14.000Z</time>
      </trkpt>
      <trkpt lat="46.27775" lon="6.42175">
        <ele>577.14</ele>
        <time>2018-09-15T10:14:19.000Z</time>
      </trkpt>
      <trkpt lat="46.27786" lon="6.42206">
        <ele>576.21</ele>
        <time>2018-09-15T10:14:24.000Z</time>
      </trkpt>
      <trkpt lat="46.27797" lon="6.42237">
        <ele>577.15</ele>
        <time>2018-09-15T10:14:29.000Z</time>
      </trkpt>
      <trkpt lat="46.27809" lon="6.4226">
        <ele>579.15</ele>
        <time>2018-09-15T10:14:34.000Z</time>
      </trkpt>
      <trkpt lat="46.2782" lon="6.42282">
        <ele>580.88</ele>
        <time>2018-09-15T10:14:39.000Z</time>
      </trkpt>
      <trkpt lat="46.27829" lon="6.42306">
        <ele>582.14</ele>
        <time>2018-09-15T10:14:44.000Z</time>
      </trkpt>
      <trkpt lat="46.27841" lon="6.42329">
        <ele>583.14</ele>
        <time>2018-09-15T10:14:49.000Z</time>
      </trkpt>
      <trkpt lat="46.27851" lon="6.4235">
        <ele>584.89</ele>
        <time>2018-09-15T10:14:54.000Z</time>
      </trkpt>
      <trkpt lat="46.2786" lon="6.42372">
        <ele>585.89</ele>
        <time>2018-09-15T10:14:59.000Z</time>
      </trkpt>
      <trkpt lat="46.27869" lon="6.42394">
        <ele>587.15</ele>
        <time>2018-09-15T10:15:04.000Z</time>
      </trkpt>
      <trkpt lat="46.27876" lon="6.42418">
        <ele>588.09</ele>
        <time>2018-09-15T10:15:09.000Z</time>
      </trkpt>
      <trkpt lat="46.27881" lon="6.42441">
        <ele>589.9</ele>
        <time>2018-09-15T10:15:14.000Z</time>
      </trkpt>
      <trkpt lat="46.27885" lon="6.42467">
        <ele>591.09</ele>
        <time>2018-09-15T10:15:19.000Z</time>
      </trkpt>
      <trkpt lat="46.27889" lon="6.42492">
        <ele>592.09</ele>
        <time>2018-09-15T10:15:24.000Z</time>
      </trkpt>
      <trkpt lat="46.27893" lon="6.42516">
        <ele>592.15</ele>
        <time>2018-09-15T10:15:29.000Z</time>
      </trkpt>
      <trkpt lat="46.27897" lon="6.4254">
        <ele>592.15</ele>
        <time>2018-09-15T10:15:34.000Z</time>
      </trkpt>
      <trkpt lat="46.27902" lon="6.42564">
        <ele>593.9</ele>
        <time>2018-09-15T10:15:39.000Z</time>
      </trkpt>
      <trkpt lat="46.27907" lon="6.42584">
        <ele>594.9</ele>
        <time>2018-09-15T10:15:44.000Z</time>
      </trkpt>
      <trkpt lat="46.27914" lon="6.42604">
        <ele>595.15</ele>
        <time>2018-09-15T10:15:49.000Z</time>
      </trkpt>
      <trkpt lat="46.27923" lon="6.42625">
        <ele>596.15</ele>
        <time>2018-09-15T10:15:54.000Z</time>
      </trkpt>
      <trkpt lat="46.27929" lon="6.42646">
        <ele>597.09</ele>
        <time>2018-09-15T10:15:59.000Z</time>
      </trkpt>
      <trkpt lat="46.27936" lon="6.42666">
        <ele>598.14</ele>
        <time>2018-09-15T10:16:04.000Z</time>
      </trkpt>
      <trkpt lat="46.27944" lon="6.42685">
        <ele>599.09</ele>
        <time>2018-09-15T10:16:09.000Z</time>
      </trkpt>
      <trkpt lat="46.27951" lon="6.42703">
        <ele>600.14</ele>
        <time>2018-09-15T10:16:14.000Z</time>
      </trkpt>
      <trkpt lat="46.27957" lon="6.42723">
        <ele>600.15</ele>
        <time>2018-09-15T10:16:19.000Z</time>
      </trkpt>
      <trkpt lat="46.27963" lon="6.42742">
        <ele>601.9</ele>
        <time>2018-09-15T10:16:24.000Z</time>
      </trkpt>
      <trkpt lat="46.2797" lon="6.4276">
        <ele>603.14</ele>
        <time>2018-09-15T10:16:29.000Z</time>
      </trkpt>
      <trkpt lat="46.2798" lon="6.42777">
        <ele>604.14</ele>
        <time>2018-09-15T10:16:34.000Z</time>
      </trkpt>
      <trkpt lat="46.27992" lon="6.42791">
        <ele>606.09</ele>
        <time>2018-09-15T10:16:39.000Z</time>
      </trkpt>
      <trkpt lat="46.28005" lon="6.42801">
        <ele>607.9</ele>
        <time>2018-09-15T10:16:44.000Z</time>
      </trkpt>
      <trkpt lat="46.28019" lon="6.42811">
        <ele>608.15</ele>
        <time>2018-09-15T10:16:49.000Z</time>
      </trkpt>
      <trkpt lat="46.28034" lon="6.42822">
        <ele>607.64</ele>
        <time>2018-09-15T10:16:54.000Z</time>
      </trkpt>
      <trkpt lat="46.28052" lon="6.42839">
        <ele>607.15</ele>
        <time>2018-09-15T10:16:59.000Z</time>
      </trkpt>
      <trkpt lat="46.28071" lon="6.42857">
        <ele>607.15</ele>
        <time>2018-09-15T10:17:04.000Z</time>
      </trkpt>
      <trkpt lat="46.28085" lon="6.42885">
        <ele>605.4</ele>
        <time>2018-09-15T10:17:09.000Z</time>
      </trkpt>
      <trkpt lat="46.28098" lon="6.42915">
        <ele>605.15</ele>
        <time>2018-09-15T10:17:14.000Z</time>
      </trkpt>
      <trkpt lat="46.28112" lon="6.42944">
        <ele>606.89</ele>
        <time>2018-09-15T10:17:19.000Z</time>
      </trkpt>
      <trkpt lat="46.28125" lon="6.42973">
        <ele>609.03</ele>
        <time>2018-09-15T10:17:24.000Z</time>
      </trkpt>
      <trkpt lat="46.28138" lon="6.43003">
        <ele>610.15</ele>
        <time>2018-09-15T10:17:29.000Z</time>
      </trkpt>
      <trkpt lat="46.28152" lon="6.43036">
        <ele>608.28</ele>
        <time>2018-09-15T10:17:34.000Z</time>
      </trkpt>
      <trkpt lat="46.28172" lon="6.4307">
        <ele>607.4</ele>
        <time>2018-09-15T10:17:39.000Z</time>
      </trkpt>
      <trkpt lat="46.28195" lon="6.43108">
        <ele>605.22</ele>
        <time>2018-09-15T10:17:44.000Z</time>
      </trkpt>
      <trkpt lat="46.28217" lon="6.43151">
        <ele>605.4</ele>
        <time>2018-09-15T10:17:49.000Z</time>
      </trkpt>
      <trkpt lat="46.28238" lon="6.43196">
        <ele>606.13</ele>
        <time>2018-09-15T10:17:54.000Z</time>
      </trkpt>
      <trkpt lat="46.28257" lon="6.4324">
        <ele>606.15</ele>
        <time>2018-09-15T10:17:59.000Z</time>
      </trkpt>
      <trkpt lat="46.28268" lon="6.43283">
        <ele>605.2</ele>
        <time>2018-09-15T10:18:04.000Z</time>
      </trkpt>
      <trkpt lat="46.28274" lon="6.43325">
        <ele>605.09</ele>
        <time>2018-09-15T10:18:09.000Z</time>
      </trkpt>
      <trkpt lat="46.28277" lon="6.43365">
        <ele>606.13</ele>
        <time>2018-09-15T10:18:14.000Z</time>
      </trkpt>
      <trkpt lat="46.2828" lon="6.43406">
        <ele>607.15</ele>
        <time>2018-09-15T10:18:19.000Z</time>
      </trkpt>
      <trkpt lat="46.2829" lon="6.43442">
        <ele>608.09</ele>
        <time>2018-09-15T10:18:24.000Z</time>
      </trkpt>
      <trkpt lat="46.28301" lon="6.43477">
        <ele>608.16</ele>
        <time>2018-09-15T10:18:29.000Z</time>
      </trkpt>
      <trkpt lat="46.2831" lon="6.43512">
        <ele>608.16</ele>
        <time>2018-09-15T10:18:34.000Z</time>
      </trkpt>
      <trkpt lat="46.28321" lon="6.43548">
        <ele>609.15</ele>
        <time>2018-09-15T10:18:39.000Z</time>
      </trkpt>
      <trkpt lat="46.28329" lon="6.43589">
        <ele>609.15</ele>
        <time>2018-09-15T10:18:44.000Z</time>
      </trkpt>
      <trkpt lat="46.28337" lon="6.43632">
        <ele>609.2</ele>
        <time>2018-09-15T10:18:49.000Z</time>
      </trkpt>
      <trkpt lat="46.2835" lon="6.43677">
        <ele>608.22</ele>
        <time>2018-09-15T10:18:54.000Z</time>
      </trkpt>
      <trkpt lat="46.28363" lon="6.4372">
        <ele>607.96</ele>
        <time>2018-09-15T10:18:59.000Z</time>
      </trkpt>
      <trkpt lat="46.28375" lon="6.43759">
        <ele>608.15</ele>
        <time>2018-09-15T10:19:04.000Z</time>
      </trkpt>
      <trkpt lat="46.28384" lon="6.43791">
        <ele>610.08</ele>
        <time>2018-09-15T10:19:09.000Z</time>
      </trkpt>
      <trkpt lat="46.28395" lon="6.4382">
        <ele>612.82</ele>
        <time>2018-09-15T10:19:14.000Z</time>
      </trkpt>
      <trkpt lat="46.28405" lon="6.4385">
        <ele>614.15</ele>
        <time>2018-09-15T10:19:19.000Z</time>
      </trkpt>
      <trkpt lat="46.28418" lon="6.43883">
        <ele>613.22</ele>
        <time>2018-09-15T10:19:24.000Z</time>
      </trkpt>
      <trkpt lat="46.2843" lon="6.43915">
        <ele>613.15</ele>
        <time>2018-09-15T10:19:29.000Z</time>
      </trkpt>
      <trkpt lat="46.28441" lon="6.43949">
        <ele>613.15</ele>
        <time>2018-09-15T10:19:34.000Z</time>
      </trkpt>
      <trkpt lat="46.28451" lon="6.43979">
        <ele>614.1</ele>
        <time>2018-09-15T10:19:39.000Z</time>
      </trkpt>
      <trkpt lat="46.28468" lon="6.44004">
        <ele>614.15</ele>
        <time>2018-09-15T10:19:44.000Z</time>
      </trkpt>
      <trkpt lat="46.28479" lon="6.44035">
        <ele>614.1</ele>
        <time>2018-09-15T10:19:49.000Z</time>
      </trkpt>
      <trkpt lat="46.28491" lon="6.44067">
        <ele>612.45</ele>
        <time>2018-09-15T10:19:54.000Z</time>
      </trkpt>
      <trkpt lat="46.28501" lon="6.44101">
        <ele>612.39</ele>
        <time>2018-09-15T10:19:59.000Z</time>
      </trkpt>
      <trkpt lat="46.28504" lon="6.44142">
        <ele>613.15</ele>
        <time>2018-09-15T10:20:04.000Z</time>
      </trkpt>
      <trkpt lat="46.28504" lon="6.44182">
        <ele>612.97</ele>
        <time>2018-09-15T10:20:09.000Z</time>
      </trkpt>
      <trkpt lat="46.28512" lon="6.44223">
        <ele>612.15</ele>
        <time>2018-09-15T10:20:14.000Z</time>
      </trkpt>
      <trkpt lat="46.28521" lon="6.44259">
        <ele>611.15</ele>
        <time>2018-09-15T10:20:19.000Z</time>
      </trkpt>
      <trkpt lat="46.28533" lon="6.44301">
        <ele>611.39</ele>
        <time>2018-09-15T10:20:24.000Z</time>
      </trkpt>
      <trkpt lat="46.28545" lon="6.44337">
        <ele>612.09</ele>
        <time>2018-09-15T10:20:29.000Z</time>
      </trkpt>
      <trkpt lat="46.28558" lon="6.4437">
        <ele>610.36</ele>
        <time>2018-09-15T10:20:34.000Z</time>
      </trkpt>
      <trkpt lat="46.28565" lon="6.44386">
        <ele>611.34</ele>
        <time>2018-09-15T10:20:39.000Z</time>
      </trkpt>
      <trkpt lat="46.28574" lon="6.44396">
        <ele>610.22</ele>
        <time>2018-09-15T10:21:02.000Z</time>
      </trkpt>
      <trkpt lat="46.28582" lon="6.44411">
        <ele>611.14</ele>
        <time>2018-09-15T10:21:07.000Z</time>
      </trkpt>
      <trkpt lat="46.28592" lon="6.44429">
        <ele>611.2</ele>
        <time>2018-09-15T10:21:12.000Z</time>
      </trkpt>
      <trkpt lat="46.28604" lon="6.4445">
        <ele>610.21</ele>
        <time>2018-09-15T10:21:17.000Z</time>
      </trkpt>
      <trkpt lat="46.28616" lon="6.44472">
        <ele>610.9</ele>
        <time>2018-09-15T10:21:22.000Z</time>
      </trkpt>
      <trkpt lat="46.2863" lon="6.44493">
        <ele>611.15</ele>
        <time>2018-09-15T10:21:27.000Z</time>
      </trkpt>
      <trkpt lat="46.28643" lon="6.44516">
        <ele>611.15</ele>
        <time>2018-09-15T10:21:32.000Z</time>
      </trkpt>
      <trkpt lat="46.28656" lon="6.4454">
        <ele>610.9</ele>
        <time>2018-09-15T10:21:37.000Z</time>
      </trkpt>
      <trkpt lat="46.28671" lon="6.44565">
        <ele>610.9</ele>
        <time>2018-09-15T10:21:42.000Z</time>
      </trkpt>
      <trkpt lat="46.28688" lon="6.44594">
        <ele>610.15</ele>
        <time>2018-09-15T10:21:47.000Z</time>
      </trkpt>
      <trkpt lat="46.28706" lon="6.44624">
        <ele>610.15</ele>
        <time>2018-09-15T10:21:52.000Z</time>
      </trkpt>
      <trkpt lat="46.28725" lon="6.44652">
        <ele>608.4</ele>
        <time>2018-09-15T10:21:57.000Z</time>
      </trkpt>
      <trkpt lat="46.2875" lon="6.4467">
        <ele>604.47</ele>
        <time>2018-09-15T10:22:02.000Z</time>
      </trkpt>
      <trkpt lat="46.28771" lon="6.44683">
        <ele>602.59</ele>
        <time>2018-09-15T10:22:07.000Z</time>
      </trkpt>
      <trkpt lat="46.28795" lon="6.44698">
        <ele>600.16</ele>
        <time>2018-09-15T10:22:12.000Z</time>
      </trkpt>
      <trkpt lat="46.28819" lon="6.44708">
        <ele>603.54</ele>
        <time>2018-09-15T10:22:17.000Z</time>
      </trkpt>
      <trkpt lat="46.28841" lon="6.44718">
        <ele>606.87</ele>
        <time>2018-09-15T10:22:22.000Z</time>
      </trkpt>
      <trkpt lat="46.28858" lon="6.44727">
        <ele>606.15</ele>
        <time>2018-09-15T10:22:27.000Z</time>
      </trkpt>
      <trkpt lat="46.28875" lon="6.44738">
        <ele>608.84</ele>
        <time>2018-09-15T10:22:32.000Z</time>
      </trkpt>
      <trkpt lat="46.2889" lon="6.4475">
        <ele>610.14</ele>
        <time>2018-09-15T10:22:37.000Z</time>
      </trkpt>
      <trkpt lat="46.28902" lon="6.4476">
        <ele>610.9</ele>
        <time>2018-09-15T10:22:42.000Z</time>
      </trkpt>
      <trkpt lat="46.28914" lon="6.44771">
        <ele>610.4</ele>
        <time>2018-09-15T10:22:47.000Z</time>
      </trkpt>
      <trkpt lat="46.28922" lon="6.4478">
        <ele>613.08</ele>
        <time>2018-09-15T10:22:52.000Z</time>
      </trkpt>
      <trkpt lat="46.28934" lon="6.44793">
        <ele>613.1</ele>
        <time>2018-09-15T10:22:57.000Z</time>
      </trkpt>
      <trkpt lat="46.28946" lon="6.44807">
        <ele>613.9</ele>
        <time>2018-09-15T10:23:02.000Z</time>
      </trkpt>
      <trkpt lat="46.28955" lon="6.44821">
        <ele>615.09</ele>
        <time>2018-09-15T10:23:07.000Z</time>
      </trkpt>
      <trkpt lat="46.28964" lon="6.4484">
        <ele>616.15</ele>
        <time>2018-09-15T10:23:12.000Z</time>
      </trkpt>
      <trkpt lat="46.28973" lon="6.44859">
        <ele>618.14</ele>
        <time>2018-09-15T10:23:17.000Z</time>
      </trkpt>
      <trkpt lat="46.28984" lon="6.44877">
        <ele>616.27</ele>
        <time>2018-09-15T10:23:22.000Z</time>
      </trkpt>
      <trkpt lat="46.28995" lon="6.44898">
        <ele>616.21</ele>
        <time>2018-09-15T10:23:27.000Z</time>
      </trkpt>
      <trkpt lat="46.28992" lon="6.44925">
        <ele>616.15</ele>
        <time>2018-09-15T10:23:32.000Z</time>
      </trkpt>
      <trkpt lat="46.28978" lon="6.44948">
        <ele>615.15</ele>
        <time>2018-09-15T10:23:37.000Z</time>
      </trkpt>
      <trkpt lat="46.2896" lon="6.44974">
        <ele>615.21</ele>
        <time>2018-09-15T10:23:42.000Z</time>
      </trkpt>
      <trkpt lat="46.28949" lon="6.45006">
        <ele>617.88</ele>
        <time>2018-09-15T10:23:47.000Z</time>
      </trkpt>
      <trkpt lat="46.28959" lon="6.45034">
        <ele>617.15</ele>
        <time>2018-09-15T10:23:52.000Z</time>
      </trkpt>
      <trkpt lat="46.28978" lon="6.45047">
        <ele>616.15</ele>
        <time>2018-09-15T10:23:57.000Z</time>
      </trkpt>
      <trkpt lat="46.29001" lon="6.45057">
        <ele>616.15</ele>
        <time>2018-09-15T10:24:02.000Z</time>
      </trkpt>
      <trkpt lat="46.2902" lon="6.45071">
        <ele>617.13</ele>
        <time>2018-09-15T10:24:07.000Z</time>
      </trkpt>
      <trkpt lat="46.29036" lon="6.45095">
        <ele>618.84</ele>
        <time>2018-09-15T10:24:12.000Z</time>
      </trkpt>
      <trkpt lat="46.2905" lon="6.45121">
        <ele>618.4</ele>
        <time>2018-09-15T10:24:17.000Z</time>
      </trkpt>
      <trkpt lat="46.29062" lon="6.45146">
        <ele>619.14</ele>
        <time>2018-09-15T10:24:22.000Z</time>
      </trkpt>
      <trkpt lat="46.29074" lon="6.45171">
        <ele>621.13</ele>
        <time>2018-09-15T10:24:27.000Z</time>
      </trkpt>
      <trkpt lat="46.29088" lon="6.45197">
        <ele>621.15</ele>
        <time>2018-09-15T10:24:32.000Z</time>
      </trkpt>
      <trkpt lat="46.29102" lon="6.45221">
        <ele>621.08</ele>
        <time>2018-09-15T10:24:37.000Z</time>
      </trkpt>
      <trkpt lat="46.2912" lon="6.45244">
        <ele>621.88</ele>
        <time>2018-09-15T10:24:42.000Z</time>
      </trkpt>
      <trkpt lat="46.29135" lon="6.45269">
        <ele>623.85</ele>
        <time>2018-09-15T10:24:47.000Z</time>
      </trkpt>
      <trkpt lat="46.29147" lon="6.45292">
        <ele>624.9</ele>
        <time>2018-09-15T10:24:52.000Z</time>
      </trkpt>
      <trkpt lat="46.29159" lon="6.45317">
        <ele>625.15</ele>
        <time>2018-09-15T10:24:57.000Z</time>
      </trkpt>
      <trkpt lat="46.29169" lon="6.45341">
        <ele>626.88</ele>
        <time>2018-09-15T10:25:02.000Z</time>
      </trkpt>
      <trkpt lat="46.29175" lon="6.45362">
        <ele>628.88</ele>
        <time>2018-09-15T10:25:07.000Z</time>
      </trkpt>
      <trkpt lat="46.29179" lon="6.45386">
        <ele>632.82</ele>
        <time>2018-09-15T10:25:12.000Z</time>
      </trkpt>
      <trkpt lat="46.29181" lon="6.45412">
        <ele>633.15</ele>
        <time>2018-09-15T10:25:17.000Z</time>
      </trkpt>
      <trkpt lat="46.29175" lon="6.4544">
        <ele>633.15</ele>
        <time>2018-09-15T10:25:22.000Z</time>
      </trkpt>
      <trkpt lat="46.29162" lon="6.45465">
        <ele>635.14</ele>
        <time>2018-09-15T10:25:27.000Z</time>
      </trkpt>
      <trkpt lat="46.29152" lon="6.45492">
        <ele>633.96</ele>
        <time>2018-09-15T10:25:32.000Z</time>
      </trkpt>
      <trkpt lat="46.29153" lon="6.45525">
        <ele>634.91</ele>
        <time>2018-09-15T10:25:37.000Z</time>
      </trkpt>
      <trkpt lat="46.2917" lon="6.45547">
        <ele>634.16</ele>
        <time>2018-09-15T10:25:42.000Z</time>
      </trkpt>
      <trkpt lat="46.29194" lon="6.4556">
        <ele>632.4</ele>
        <time>2018-09-15T10:25:47.000Z</time>
      </trkpt>
      <trkpt lat="46.29218" lon="6.45572">
        <ele>631.15</ele>
        <time>2018-09-15T10:25:52.000Z</time>
      </trkpt>
      <trkpt lat="46.29242" lon="6.45587">
        <ele>631.15</ele>
        <time>2018-09-15T10:25:57.000Z</time>
      </trkpt>
      <trkpt lat="46.29264" lon="6.45611">
        <ele>630.16</ele>
        <time>2018-09-15T10:26:02.000Z</time>
      </trkpt>
      <trkpt lat="46.29287" lon="6.45629">
        <ele>631.15</ele>
        <time>2018-09-15T10:26:07.000Z</time>
      </trkpt>
      <trkpt lat="46.29312" lon="6.45641">
        <ele>630.91</ele>
        <time>2018-09-15T10:26:12.000Z</time>
      </trkpt>
      <trkpt lat="46.29336" lon="6.45652">
        <ele>631.15</ele>
        <time>2018-09-15T10:26:17.000Z</time>
      </trkpt>
      <trkpt lat="46.29356" lon="6.45667">
        <ele>632.09</ele>
        <time>2018-09-15T10:26:22.000Z</time>
      </trkpt>
      <trkpt lat="46.29375" lon="6.45682">
        <ele>632.35</ele>
        <time>2018-09-15T10:26:27.000Z</time>
      </trkpt>
      <trkpt lat="46.29391" lon="6.45696">
        <ele>632.88</ele>
        <time>2018-09-15T10:26:32.000Z</time>
      </trkpt>
      <trkpt lat="46.29405" lon="6.4571">
        <ele>632.9</ele>
        <time>2018-09-15T10:26:37.000Z</time>
      </trkpt>
      <trkpt lat="46.29421" lon="6.45723">
        <ele>632.1</ele>
        <time>2018-09-15T10:26:42.000Z</time>
      </trkpt>
      <trkpt lat="46.29438" lon="6.45735">
        <ele>633.15</ele>
        <time>2018-09-15T10:26:47.000Z</time>
      </trkpt>
      <trkpt lat="46.29454" lon="6.45742">
        <ele>633.15</ele>
        <time>2018-09-15T10:26:52.000Z</time>
      </trkpt>
      <trkpt lat="46.29469" lon="6.45723">
        <ele>634.88</ele>
        <time>2018-09-15T10:26:57.000Z</time>
      </trkpt>
      <trkpt lat="46.29486" lon="6.45694">
        <ele>633.21</ele>
        <time>2018-09-15T10:27:02.000Z</time>
      </trkpt>
      <trkpt lat="46.29501" lon="6.45663">
        <ele>633.88</ele>
        <time>2018-09-15T10:27:07.000Z</time>
      </trkpt>
      <trkpt lat="46.29514" lon="6.45631">
        <ele>633.21</ele>
        <time>2018-09-15T10:27:12.000Z</time>
      </trkpt>
      <trkpt lat="46.29531" lon="6.456">
        <ele>632.16</ele>
        <time>2018-09-15T10:27:17.000Z</time>
      </trkpt>
      <trkpt lat="46.29547" lon="6.4559">
        <ele>631.21</ele>
        <time>2018-09-15T10:27:22.000Z</time>
      </trkpt>
      <trkpt lat="46.29567" lon="6.4561">
        <ele>629.26</ele>
        <time>2018-09-15T10:27:27.000Z</time>
      </trkpt>
      <trkpt lat="46.29592" lon="6.45634">
        <ele>625.41</ele>
        <time>2018-09-15T10:27:32.000Z</time>
      </trkpt>
      <trkpt lat="46.2962" lon="6.4566">
        <ele>623.21</ele>
        <time>2018-09-15T10:27:37.000Z</time>
      </trkpt>
      <trkpt lat="46.29641" lon="6.45684">
        <ele>625.88</ele>
        <time>2018-09-15T10:27:42.000Z</time>
      </trkpt>
      <trkpt lat="46.29662" lon="6.45677">
        <ele>625.33</ele>
        <time>2018-09-15T10:27:47.000Z</time>
      </trkpt>
      <trkpt lat="46.29682" lon="6.45663">
        <ele>627.33</ele>
        <time>2018-09-15T10:27:52.000Z</time>
      </trkpt>
      <trkpt lat="46.29693" lon="6.4563">
        <ele>625.22</ele>
        <time>2018-09-15T10:27:57.000Z</time>
      </trkpt>
      <trkpt lat="46.29703" lon="6.45586">
        <ele>623.4</ele>
        <time>2018-09-15T10:28:02.000Z</time>
      </trkpt>
      <trkpt lat="46.29722" lon="6.45542">
        <ele>622.39</ele>
        <time>2018-09-15T10:28:07.000Z</time>
      </trkpt>
      <trkpt lat="46.29754" lon="6.45505">
        <ele>620.16</ele>
        <time>2018-09-15T10:28:12.000Z</time>
      </trkpt>
      <trkpt lat="46.29786" lon="6.45475">
        <ele>619.16</ele>
        <time>2018-09-15T10:28:17.000Z</time>
      </trkpt>
      <trkpt lat="46.29811" lon="6.45495">
        <ele>618.21</ele>
        <time>2018-09-15T10:28:22.000Z</time>
      </trkpt>
      <trkpt lat="46.29828" lon="6.45523">
        <ele>619.14</ele>
        <time>2018-09-15T10:28:27.000Z</time>
      </trkpt>
      <trkpt lat="46.29846" lon="6.45551">
        <ele>620.14</ele>
        <time>2018-09-15T10:28:32.000Z</time>
      </trkpt>
      <trkpt lat="46.29875" lon="6.45555">
        <ele>617.46</ele>
        <time>2018-09-15T10:28:37.000Z</time>
      </trkpt>
      <trkpt lat="46.29905" lon="6.45569">
        <ele>615.35</ele>
        <time>2018-09-15T10:28:42.000Z</time>
      </trkpt>
      <trkpt lat="46.29928" lon="6.45587">
        <ele>616.88</ele>
        <time>2018-09-15T10:28:47.000Z</time>
      </trkpt>
      <trkpt lat="46.29948" lon="6.45604">
        <ele>618.13</ele>
        <time>2018-09-15T10:28:52.000Z</time>
      </trkpt>
      <trkpt lat="46.29969" lon="6.4562">
        <ele>620.08</ele>
        <time>2018-09-15T10:28:57.000Z</time>
      </trkpt>
      <trkpt lat="46.29989" lon="6.45638">
        <ele>620.09</ele>
        <time>2018-09-15T10:29:02.000Z</time>
      </trkpt>
      <trkpt lat="46.30008" lon="6.45655">
        <ele>621.09</ele>
        <time>2018-09-15T10:29:07.000Z</time>
      </trkpt>
      <trkpt lat="46.30023" lon="6.45672">
        <ele>621.14</ele>
        <time>2018-09-15T10:29:12.000Z</time>
      </trkpt>
      <trkpt lat="46.30041" lon="6.4569">
        <ele>622.89</ele>
        <time>2018-09-15T10:29:17.000Z</time>
      </trkpt>
      <trkpt lat="46.3006" lon="6.45704">
        <ele>625.08</ele>
        <time>2018-09-15T10:29:22.000Z</time>
      </trkpt>
      <trkpt lat="46.30079" lon="6.45714">
        <ele>624.89</ele>
        <time>2018-09-15T10:29:27.000Z</time>
      </trkpt>
      <trkpt lat="46.30098" lon="6.45724">
        <ele>625.89</ele>
        <time>2018-09-15T10:29:32.000Z</time>
      </trkpt>
      <trkpt lat="46.30117" lon="6.45728">
        <ele>626.89</ele>
        <time>2018-09-15T10:29:37.000Z</time>
      </trkpt>
      <trkpt lat="46.30128" lon="6.45728">
        <ele>628.14</ele>
        <time>2018-09-15T10:29:42.000Z</time>
      </trkpt>
      <trkpt lat="46.30145" lon="6.45729">
        <ele>629.14</ele>
        <time>2018-09-15T10:29:47.000Z</time>
      </trkpt>
      <trkpt lat="46.30164" lon="6.4573">
        <ele>630.08</ele>
        <time>2018-09-15T10:29:52.000Z</time>
      </trkpt>
      <trkpt lat="46.30184" lon="6.45731">
        <ele>630.89</ele>
        <time>2018-09-15T10:29:57.000Z</time>
      </trkpt>
      <trkpt lat="46.30204" lon="6.45734">
        <ele>631.14</ele>
        <time>2018-09-15T10:30:02.000Z</time>
      </trkpt>
      <trkpt lat="46.30222" lon="6.45736">
        <ele>632.13</ele>
        <time>2018-09-15T10:30:07.000Z</time>
      </trkpt>
      <trkpt lat="46.30241" lon="6.4574">
        <ele>632.14</ele>
        <time>2018-09-15T10:30:12.000Z</time>
      </trkpt>
      <trkpt lat="46.30261" lon="6.45741">
        <ele>632.89</ele>
        <time>2018-09-15T10:30:17.000Z</time>
      </trkpt>
      <trkpt lat="46.30281" lon="6.45744">
        <ele>633.94</ele>
        <time>2018-09-15T10:30:22.000Z</time>
      </trkpt>
      <trkpt lat="46.30304" lon="6.45748">
        <ele>633.91</ele>
        <time>2018-09-15T10:30:27.000Z</time>
      </trkpt>
      <trkpt lat="46.30329" lon="6.45758">
        <ele>634.09</ele>
        <time>2018-09-15T10:30:32.000Z</time>
      </trkpt>
      <trkpt lat="46.3036" lon="6.45771">
        <ele>632.45</ele>
        <time>2018-09-15T10:30:37.000Z</time>
      </trkpt>
      <trkpt lat="46.30394" lon="6.45783">
        <ele>630.45</ele>
        <time>2018-09-15T10:30:42.000Z</time>
      </trkpt>
      <trkpt lat="46.30435" lon="6.45797">
        <ele>627.39</ele>
        <time>2018-09-15T10:30:47.000Z</time>
      </trkpt>
      <trkpt lat="46.3047" lon="6.4583">
        <ele>626.16</ele>
        <time>2018-09-15T10:30:52.000Z</time>
      </trkpt>
      <trkpt lat="46.30495" lon="6.45871">
        <ele>625.89</ele>
        <time>2018-09-15T10:30:57.000Z</time>
      </trkpt>
      <trkpt lat="46.30514" lon="6.45909">
        <ele>627.13</ele>
        <time>2018-09-15T10:31:02.000Z</time>
      </trkpt>
      <trkpt lat="46.30529" lon="6.45939">
        <ele>627.14</ele>
        <time>2018-09-15T10:31:07.000Z</time>
      </trkpt>
      <trkpt lat="46.30546" lon="6.45966">
        <ele>629.81</ele>
        <time>2018-09-15T10:31:12.000Z</time>
      </trkpt>
      <trkpt lat="46.30559" lon="6.45993">
        <ele>631.12</ele>
        <time>2018-09-15T10:31:17.000Z</time>
      </trkpt>
      <trkpt lat="46.3057" lon="6.46018">
        <ele>630.19</ele>
        <time>2018-09-15T10:31:22.000Z</time>
      </trkpt>
      <trkpt lat="46.30576" lon="6.46048">
        <ele>631.9</ele>
        <time>2018-09-15T10:31:27.000Z</time>
      </trkpt>
      <trkpt lat="46.3058" lon="6.46081">
        <ele>632.38</ele>
        <time>2018-09-15T10:31:32.000Z</time>
      </trkpt>
      <trkpt lat="46.30579" lon="6.4611">
        <ele>633.14</ele>
        <time>2018-09-15T10:31:37.000Z</time>
      </trkpt>
      <trkpt lat="46.30578" lon="6.46139">
        <ele>634.14</ele>
        <time>2018-09-15T10:31:42.000Z</time>
      </trkpt>
      <trkpt lat="46.30577" lon="6.46168">
        <ele>634.94</ele>
        <time>2018-09-15T10:31:47.000Z</time>
      </trkpt>
      <trkpt lat="46.30577" lon="6.46195">
        <ele>636.89</ele>
        <time>2018-09-15T10:31:52.000Z</time>
      </trkpt>
      <trkpt lat="46.30579" lon="6.46224">
        <ele>637.83</ele>
        <time>2018-09-15T10:31:57.000Z</time>
      </trkpt>
      <trkpt lat="46.30581" lon="6.46251">
        <ele>638.14</ele>
        <time>2018-09-15T10:32:02.000Z</time>
      </trkpt>
      <trkpt lat="46.30583" lon="6.46276">
        <ele>639.12</ele>
        <time>2018-09-15T10:32:07.000Z</time>
      </trkpt>
      <trkpt lat="46.30584" lon="6.46301">
        <ele>639.94</ele>
        <time>2018-09-15T10:32:12.000Z</time>
      </trkpt>
      <trkpt lat="46.30587" lon="6.46324">
        <ele>641.12</ele>
        <time>2018-09-15T10:32:17.000Z</time>
      </trkpt>
      <trkpt lat="46.30589" lon="6.46347">
        <ele>642.14</ele>
        <time>2018-09-15T10:32:22.000Z</time>
      </trkpt>
      <trkpt lat="46.30592" lon="6.46371">
        <ele>643.08</ele>
        <time>2018-09-15T10:32:27.000Z</time>
      </trkpt>
      <trkpt lat="46.30594" lon="6.46395">
        <ele>643.14</ele>
        <time>2018-09-15T10:32:32.000Z</time>
      </trkpt>
      <trkpt lat="46.30598" lon="6.46418">
        <ele>644.14</ele>
        <time>2018-09-15T10:32:37.000Z</time>
      </trkpt>
      <trkpt lat="46.30603" lon="6.46444">
        <ele>644.15</ele>
        <time>2018-09-15T10:32:42.000Z</time>
      </trkpt>
      <trkpt lat="46.30606" lon="6.4647">
        <ele>645.14</ele>
        <time>2018-09-15T10:32:47.000Z</time>
      </trkpt>
      <trkpt lat="46.30609" lon="6.46498">
        <ele>645.14</ele>
        <time>2018-09-15T10:32:52.000Z</time>
      </trkpt>
      <trkpt lat="46.30612" lon="6.46527">
        <ele>646.12</ele>
        <time>2018-09-15T10:32:57.000Z</time>
      </trkpt>
      <trkpt lat="46.30615" lon="6.46556">
        <ele>647.14</ele>
        <time>2018-09-15T10:33:02.000Z</time>
      </trkpt>
      <trkpt lat="46.30619" lon="6.46586">
        <ele>647.09</ele>
        <time>2018-09-15T10:33:07.000Z</time>
      </trkpt>
      <trkpt lat="46.30626" lon="6.46618">
        <ele>645.45</ele>
        <time>2018-09-15T10:33:12.000Z</time>
      </trkpt>
      <trkpt lat="46.30633" lon="6.46651">
        <ele>646.14</ele>
        <time>2018-09-15T10:33:17.000Z</time>
      </trkpt>
      <trkpt lat="46.30639" lon="6.46687">
        <ele>645.16</ele>
        <time>2018-09-15T10:33:22.000Z</time>
      </trkpt>
      <trkpt lat="46.30643" lon="6.46729">
        <ele>644.14</ele>
        <time>2018-09-15T10:33:27.000Z</time>
      </trkpt>
      <trkpt lat="46.30645" lon="6.46773">
        <ele>645.13</ele>
        <time>2018-09-15T10:33:32.000Z</time>
      </trkpt>
      <trkpt lat="46.30649" lon="6.46817">
        <ele>645.14</ele>
        <time>2018-09-15T10:33:37.000Z</time>
      </trkpt>
      <trkpt lat="46.30655" lon="6.46862">
        <ele>645.14</ele>
        <time>2018-09-15T10:33:42.000Z</time>
      </trkpt>
      <trkpt lat="46.30665" lon="6.46906">
        <ele>644.34</ele>
        <time>2018-09-15T10:33:47.000Z</time>
      </trkpt>
      <trkpt lat="46.30672" lon="6.46953">
        <ele>644.14</ele>
        <time>2018-09-15T10:33:52.000Z</time>
      </trkpt>
      <trkpt lat="46.30677" lon="6.46999">
        <ele>644.08</ele>
        <time>2018-09-15T10:33:57.000Z</time>
      </trkpt>
      <trkpt lat="46.30683" lon="6.47045">
        <ele>643.19</ele>
        <time>2018-09-15T10:34:02.000Z</time>
      </trkpt>
      <trkpt lat="46.30699" lon="6.47085">
        <ele>643.14</ele>
        <time>2018-09-15T10:34:07.000Z</time>
      </trkpt>
      <trkpt lat="46.30721" lon="6.47121">
        <ele>641.96</ele>
        <time>2018-09-15T10:34:12.000Z</time>
      </trkpt>
      <trkpt lat="46.30741" lon="6.47161">
        <ele>641.2</ele>
        <time>2018-09-15T10:34:17.000Z</time>
      </trkpt>
      <trkpt lat="46.30746" lon="6.47206">
        <ele>640.15</ele>
        <time>2018-09-15T10:34:22.000Z</time>
      </trkpt>
      <trkpt lat="46.3074" lon="6.47247">
        <ele>639.1</ele>
        <time>2018-09-15T10:34:27.000Z</time>
      </trkpt>
      <trkpt lat="46.30734" lon="6.4727">
        <ele>639.94</ele>
        <time>2018-09-15T10:34:32.000Z</time>
      </trkpt>
      <trkpt lat="46.30733" lon="6.47299">
        <ele>640.14</ele>
        <time>2018-09-15T10:34:37.000Z</time>
      </trkpt>
      <trkpt lat="46.30737" lon="6.47333">
        <ele>639.9</ele>
        <time>2018-09-15T10:34:42.000Z</time>
      </trkpt>
      <trkpt lat="46.30741" lon="6.47365">
        <ele>641.09</ele>
        <time>2018-09-15T10:34:47.000Z</time>
      </trkpt>
      <trkpt lat="46.30744" lon="6.47397">
        <ele>642.88</ele>
        <time>2018-09-15T10:34:52.000Z</time>
      </trkpt>
      <trkpt lat="46.30742" lon="6.47431">
        <ele>643.12</ele>
        <time>2018-09-15T10:34:57.000Z</time>
      </trkpt>
      <trkpt lat="46.30736" lon="6.47461">
        <ele>643.39</ele>
        <time>2018-09-15T10:35:02.000Z</time>
      </trkpt>
      <trkpt lat="46.30734" lon="6.47494">
        <ele>644.14</ele>
        <time>2018-09-15T10:35:07.000Z</time>
      </trkpt>
      <trkpt lat="46.30736" lon="6.47527">
        <ele>645.14</ele>
        <time>2018-09-15T10:35:12.000Z</time>
      </trkpt>
      <trkpt lat="46.30743" lon="6.47559">
        <ele>645.89</ele>
        <time>2018-09-15T10:35:17.000Z</time>
      </trkpt>
      <trkpt lat="46.30751" lon="6.47589">
        <ele>645.14</ele>
        <time>2018-09-15T10:35:22.000Z</time>
      </trkpt>
      <trkpt lat="46.30761" lon="6.47618">
        <ele>645.14</ele>
        <time>2018-09-15T10:35:27.000Z</time>
      </trkpt>
      <trkpt lat="46.30772" lon="6.47648">
        <ele>645.94</ele>
        <time>2018-09-15T10:35:32.000Z</time>
      </trkpt>
      <trkpt lat="46.30783" lon="6.47677">
        <ele>645.89</ele>
        <time>2018-09-15T10:35:37.000Z</time>
      </trkpt>
      <trkpt lat="46.30784" lon="6.4769">
        <ele>646.14</ele>
        <time>2018-09-15T10:35:52.000Z</time>
      </trkpt>
      <trkpt lat="46.30791" lon="6.47702">
        <ele>649.14</ele>
        <time>2018-09-15T10:36:40.000Z</time>
      </trkpt>
      <trkpt lat="46.30801" lon="6.47725">
        <ele>648.96</ele>
        <time>2018-09-15T10:36:45.000Z</time>
      </trkpt>
      <trkpt lat="46.30811" lon="6.47752">
        <ele>647.21</ele>
        <time>2018-09-15T10:36:50.000Z</time>
      </trkpt>
      <trkpt lat="46.30821" lon="6.47781">
        <ele>646.39</ele>
        <time>2018-09-15T10:36:55.000Z</time>
      </trkpt>
      <trkpt lat="46.30826" lon="6.47819">
        <ele>647.08</ele>
        <time>2018-09-15T10:37:00.000Z</time>
      </trkpt>
      <trkpt lat="46.3083" lon="6.47856">
        <ele>646.96</ele>
        <time>2018-09-15T10:37:05.000Z</time>
      </trkpt>
      <trkpt lat="46.30835" lon="6.47892">
        <ele>647.14</ele>
        <time>2018-09-15T10:37:10.000Z</time>
      </trkpt>
      <trkpt lat="46.30842" lon="6.47928">
        <ele>646.14</ele>
        <time>2018-09-15T10:37:15.000Z</time>
      </trkpt>
      <trkpt lat="46.30849" lon="6.47962">
        <ele>645.39</ele>
        <time>2018-09-15T10:37:20.000Z</time>
      </trkpt>
      <trkpt lat="46.3086" lon="6.47987">
        <ele>645.94</ele>
        <time>2018-09-15T10:37:25.000Z</time>
      </trkpt>
      <trkpt lat="46.30871" lon="6.47993">
        <ele>644.91</ele>
        <time>2018-09-15T10:37:30.000Z</time>
      </trkpt>
      <trkpt lat="46.30898" lon="6.47989">
        <ele>642.66</ele>
        <time>2018-09-15T10:37:35.000Z</time>
      </trkpt>
      <trkpt lat="46.3093" lon="6.47982">
        <ele>638.41</ele>
        <time>2018-09-15T10:37:40.000Z</time>
      </trkpt>
      <trkpt lat="46.30968" lon="6.4797">
        <ele>636.22</ele>
        <time>2018-09-15T10:37:45.000Z</time>
      </trkpt>
      <trkpt lat="46.31008" lon="6.47968">
        <ele>634.15</ele>
        <time>2018-09-15T10:37:50.000Z</time>
      </trkpt>
      <trkpt lat="46.31049" lon="6.47975">
        <ele>632.15</ele>
        <time>2018-09-15T10:37:55.000Z</time>
      </trkpt>
      <trkpt lat="46.31066" lon="6.48005">
        <ele>631.89</ele>
        <time>2018-09-15T10:38:00.000Z</time>
      </trkpt>
      <trkpt lat="46.3107" lon="6.48045">
        <ele>634.08</ele>
        <time>2018-09-15T10:38:05.000Z</time>
      </trkpt>
      <trkpt lat="46.31076" lon="6.48089">
        <ele>634.33</ele>
        <time>2018-09-15T10:38:10.000Z</time>
      </trkpt>
      <trkpt lat="46.31075" lon="6.48132">
        <ele>634.14</ele>
        <time>2018-09-15T10:38:15.000Z</time>
      </trkpt>
      <trkpt lat="46.31072" lon="6.48176">
        <ele>635.14</ele>
        <time>2018-09-15T10:38:20.000Z</time>
      </trkpt>
      <trkpt lat="46.31068" lon="6.48218">
        <ele>635.14</ele>
        <time>2018-09-15T10:38:25.000Z</time>
      </trkpt>
      <trkpt lat="46.31064" lon="6.48258">
        <ele>633.41</ele>
        <time>2018-09-15T10:38:30.000Z</time>
      </trkpt>
      <trkpt lat="46.31065" lon="6.48298">
        <ele>632.45</ele>
        <time>2018-09-15T10:38:35.000Z</time>
      </trkpt>
      <trkpt lat="46.31064" lon="6.48334">
        <ele>631.21</ele>
        <time>2018-09-15T10:38:40.000Z</time>
      </trkpt>
      <trkpt lat="46.31071" lon="6.48369">
        <ele>633.08</ele>
        <time>2018-09-15T10:38:45.000Z</time>
      </trkpt>
      <trkpt lat="46.31085" lon="6.48401">
        <ele>633.94</ele>
        <time>2018-09-15T10:38:50.000Z</time>
      </trkpt>
      <trkpt lat="46.31098" lon="6.48433">
        <ele>635.13</ele>
        <time>2018-09-15T10:38:55.000Z</time>
      </trkpt>
      <trkpt lat="46.31111" lon="6.48464">
        <ele>636.13</ele>
        <time>2018-09-15T10:39:00.000Z</time>
      </trkpt>
      <trkpt lat="46.31123" lon="6.48496">
        <ele>637.14</ele>
        <time>2018-09-15T10:39:05.000Z</time>
      </trkpt>
      <trkpt lat="46.31129" lon="6.48531">
        <ele>639.08</ele>
        <time>2018-09-15T10:39:10.000Z</time>
      </trkpt>
      <trkpt lat="46.31134" lon="6.48564">
        <ele>639.14</ele>
        <time>2018-09-15T10:39:15.000Z</time>
      </trkpt>
      <trkpt lat="46.3114" lon="6.486">
        <ele>640.13</ele>
        <time>2018-09-15T10:39:20.000Z</time>
      </trkpt>
      <trkpt lat="46.31147" lon="6.48634">
        <ele>640.14</ele>
        <time>2018-09-15T10:39:25.000Z</time>
      </trkpt>
      <trkpt lat="46.31158" lon="6.48668">
        <ele>642.08</ele>
        <time>2018-09-15T10:39:30.000Z</time>
      </trkpt>
      <trkpt lat="46.31167" lon="6.48704">
        <ele>641.91</ele>
        <time>2018-09-15T10:39:35.000Z</time>
      </trkpt>
      <trkpt lat="46.31173" lon="6.48741">
        <ele>643.13</ele>
        <time>2018-09-15T10:39:40.000Z</time>
      </trkpt>
      <trkpt lat="46.31181" lon="6.48776">
        <ele>643.16</ele>
        <time>2018-09-15T10:39:45.000Z</time>
      </trkpt>
      <trkpt lat="46.31187" lon="6.48808">
        <ele>644.08</ele>
        <time>2018-09-15T10:39:50.000Z</time>
      </trkpt>
      <trkpt lat="46.3119" lon="6.48836">
        <ele>643.1</ele>
        <time>2018-09-15T10:39:55.000Z</time>
      </trkpt>
      <trkpt lat="46.31194" lon="6.48865">
        <ele>643.89</ele>
        <time>2018-09-15T10:40:00.000Z</time>
      </trkpt>
      <trkpt lat="46.31197" lon="6.48888">
        <ele>644.14</ele>
        <time>2018-09-15T10:40:05.000Z</time>
      </trkpt>
      <trkpt lat="46.31203" lon="6.48911">
        <ele>644.89</ele>
        <time>2018-09-15T10:40:10.000Z</time>
      </trkpt>
      <trkpt lat="46.31213" lon="6.4893">
        <ele>646.13</ele>
        <time>2018-09-15T10:40:15.000Z</time>
      </trkpt>
      <trkpt lat="46.31224" lon="6.48949">
        <ele>646.09</ele>
        <time>2018-09-15T10:40:20.000Z</time>
      </trkpt>
      <trkpt lat="46.31235" lon="6.48968">
        <ele>646.89</ele>
        <time>2018-09-15T10:40:25.000Z</time>
      </trkpt>
      <trkpt lat="46.31244" lon="6.48989">
        <ele>648.13</ele>
        <time>2018-09-15T10:40:30.000Z</time>
      </trkpt>
      <trkpt lat="46.31251" lon="6.49014">
        <ele>650.88</ele>
        <time>2018-09-15T10:40:35.000Z</time>
      </trkpt>
      <trkpt lat="46.31258" lon="6.49038">
        <ele>651.14</ele>
        <time>2018-09-15T10:40:40.000Z</time>
      </trkpt>
      <trkpt lat="46.31263" lon="6.49061">
        <ele>652.89</ele>
        <time>2018-09-15T10:40:45.000Z</time>
      </trkpt>
      <trkpt lat="46.31263" lon="6.4908">
        <ele>652.91</ele>
        <time>2018-09-15T10:40:50.000Z</time>
      </trkpt>
      <trkpt lat="46.31265" lon="6.49093">
        <ele>660.12</ele>
        <time>2018-09-15T10:42:06.000Z</time>
      </trkpt>
      <trkpt lat="46.31256" lon="6.49109">
        <ele>657.47</ele>
        <time>2018-09-15T10:42:11.000Z</time>
      </trkpt>
      <trkpt lat="46.31245" lon="6.49125">
        <ele>656.9</ele>
        <time>2018-09-15T10:42:16.000Z</time>
      </trkpt>
      <trkpt lat="46.31233" lon="6.49141">
        <ele>656.15</ele>
        <time>2018-09-15T10:42:21.000Z</time>
      </trkpt>
      <trkpt lat="46.31218" lon="6.49159">
        <ele>655.15</ele>
        <time>2018-09-15T10:42:26.000Z</time>
      </trkpt>
      <trkpt lat="46.31204" lon="6.49175">
        <ele>656.14</ele>
        <time>2018-09-15T10:42:31.000Z</time>
      </trkpt>
      <trkpt lat="46.31189" lon="6.49195">
        <ele>656.15</ele>
        <time>2018-09-15T10:42:36.000Z</time>
      </trkpt>
      <trkpt lat="46.31174" lon="6.49215">
        <ele>657.14</ele>
        <time>2018-09-15T10:42:41.000Z</time>
      </trkpt>
      <trkpt lat="46.3116" lon="6.49234">
        <ele>657.15</ele>
        <time>2018-09-15T10:42:46.000Z</time>
      </trkpt>
      <trkpt lat="46.31145" lon="6.49253">
        <ele>658.08</ele>
        <time>2018-09-15T10:42:51.000Z</time>
      </trkpt>
      <trkpt lat="46.31128" lon="6.4927">
        <ele>659.14</ele>
        <time>2018-09-15T10:42:56.000Z</time>
      </trkpt>
      <trkpt lat="46.31112" lon="6.49288">
        <ele>660.14</ele>
        <time>2018-09-15T10:43:01.000Z</time>
      </trkpt>
      <trkpt lat="46.31097" lon="6.49306">
        <ele>660.91</ele>
        <time>2018-09-15T10:43:06.000Z</time>
      </trkpt>
      <trkpt lat="46.31084" lon="6.49323">
        <ele>662.13</ele>
        <time>2018-09-15T10:43:11.000Z</time>
      </trkpt>
      <trkpt lat="46.31072" lon="6.49338">
        <ele>663.1</ele>
        <time>2018-09-15T10:43:16.000Z</time>
      </trkpt>
      <trkpt lat="46.31062" lon="6.49354">
        <ele>663.9</ele>
        <time>2018-09-15T10:43:21.000Z</time>
      </trkpt>
      <trkpt lat="46.31056" lon="6.49373">
        <ele>664.15</ele>
        <time>2018-09-15T10:43:26.000Z</time>
      </trkpt>
      <trkpt lat="46.31053" lon="6.49392">
        <ele>665.13</ele>
        <time>2018-09-15T10:43:31.000Z</time>
      </trkpt>
      <trkpt lat="46.31055" lon="6.49411">
        <ele>666.08</ele>
        <time>2018-09-15T10:43:36.000Z</time>
      </trkpt>
      <trkpt lat="46.31062" lon="6.49429">
        <ele>667.19</ele>
        <time>2018-09-15T10:43:41.000Z</time>
      </trkpt>
      <trkpt lat="46.31071" lon="6.49447">
        <ele>667.15</ele>
        <time>2018-09-15T10:43:46.000Z</time>
      </trkpt>
      <trkpt lat="46.31077" lon="6.49464">
        <ele>668.15</ele>
        <time>2018-09-15T10:43:51.000Z</time>
      </trkpt>
      <trkpt lat="46.31085" lon="6.49481">
        <ele>668.14</ele>
        <time>2018-09-15T10:43:56.000Z</time>
      </trkpt>
      <trkpt lat="46.31092" lon="6.49498">
        <ele>669.89</ele>
        <time>2018-09-15T10:44:01.000Z</time>
      </trkpt>
      <trkpt lat="46.31096" lon="6.49514">
        <ele>671.08</ele>
        <time>2018-09-15T10:44:06.000Z</time>
      </trkpt>
      <trkpt lat="46.31101" lon="6.49529">
        <ele>671.9</ele>
        <time>2018-09-15T10:44:11.000Z</time>
      </trkpt>
      <trkpt lat="46.31107" lon="6.49542">
        <ele>672.13</ele>
        <time>2018-09-15T10:44:16.000Z</time>
      </trkpt>
      <trkpt lat="46.31115" lon="6.49556">
        <ele>673.08</ele>
        <time>2018-09-15T10:44:21.000Z</time>
      </trkpt>
      <trkpt lat="46.31124" lon="6.4957">
        <ele>673.14</ele>
        <time>2018-09-15T10:44:26.000Z</time>
      </trkpt>
      <trkpt lat="46.31133" lon="6.49581">
        <ele>673.94</ele>
        <time>2018-09-15T10:44:31.000Z</time>
      </trkpt>
      <trkpt lat="46.31144" lon="6.49591">
        <ele>676.08</ele>
        <time>2018-09-15T10:44:36.000Z</time>
      </trkpt>
      <trkpt lat="46.31153" lon="6.49601">
        <ele>677.88</ele>
        <time>2018-09-15T10:44:41.000Z</time>
      </trkpt>
      <trkpt lat="46.31163" lon="6.49614">
        <ele>678.15</ele>
        <time>2018-09-15T10:44:46.000Z</time>
      </trkpt>
      <trkpt lat="46.31175" lon="6.49624">
        <ele>679.33</ele>
        <time>2018-09-15T10:44:51.000Z</time>
      </trkpt>
      <trkpt lat="46.31183" lon="6.49634">
        <ele>680.9</ele>
        <time>2018-09-15T10:44:56.000Z</time>
      </trkpt>
      <trkpt lat="46.31192" lon="6.49645">
        <ele>682.14</ele>
        <time>2018-09-15T10:45:01.000Z</time>
      </trkpt>
      <trkpt lat="46.31202" lon="6.49656">
        <ele>683.08</ele>
        <time>2018-09-15T10:45:06.000Z</time>
      </trkpt>
      <trkpt lat="46.31217" lon="6.49664">
        <ele>683.09</ele>
        <time>2018-09-15T10:45:11.000Z</time>
      </trkpt>
      <trkpt lat="46.31226" lon="6.49668">
        <ele>686.08</ele>
        <time>2018-09-15T10:45:17.000Z</time>
      </trkpt>
      <trkpt lat="46.31238" lon="6.49674">
        <ele>686.85</ele>
        <time>2018-09-15T10:45:22.000Z</time>
      </trkpt>
      <trkpt lat="46.3125" lon="6.49677">
        <ele>687.4</ele>
        <time>2018-09-15T10:45:27.000Z</time>
      </trkpt>
      <trkpt lat="46.31259" lon="6.49683">
        <ele>688.33</ele>
        <time>2018-09-15T10:45:32.000Z</time>
      </trkpt>
      <trkpt lat="46.31269" lon="6.49693">
        <ele>688.16</ele>
        <time>2018-09-15T10:45:37.000Z</time>
      </trkpt>
      <trkpt lat="46.3128" lon="6.49704">
        <ele>689.13</ele>
        <time>2018-09-15T10:45:42.000Z</time>
      </trkpt>
      <trkpt lat="46.31287" lon="6.49718">
        <ele>688.15</ele>
        <time>2018-09-15T10:45:47.000Z</time>
      </trkpt>
      <trkpt lat="46.31294" lon="6.4973">
        <ele>688.88</ele>
        <time>2018-09-15T10:45:52.000Z</time>
      </trkpt>
      <trkpt lat="46.31301" lon="6.49744">
        <ele>690.32</ele>
        <time>2018-09-15T10:45:57.000Z</time>
      </trkpt>
      <trkpt lat="46.31308" lon="6.49758">
        <ele>692.13</ele>
        <time>2018-09-15T10:46:02.000Z</time>
      </trkpt>
      <trkpt lat="46.31318" lon="6.4977">
        <ele>693.13</ele>
        <time>2018-09-15T10:46:07.000Z</time>
      </trkpt>
      <trkpt lat="46.31326" lon="6.49781">
        <ele>694.84</ele>
        <time>2018-09-15T10:46:12.000Z</time>
      </trkpt>
      <trkpt lat="46.31336" lon="6.49789">
        <ele>695.9</ele>
        <time>2018-09-15T10:46:17.000Z</time>
      </trkpt>
      <trkpt lat="46.31348" lon="6.49801">
        <ele>695.21</ele>
        <time>2018-09-15T10:46:22.000Z</time>
      </trkpt>
      <trkpt lat="46.31357" lon="6.4981">
        <ele>695.9</ele>
        <time>2018-09-15T10:46:27.000Z</time>
      </trkpt>
      <trkpt lat="46.31366" lon="6.49818">
        <ele>699.13</ele>
        <time>2018-09-15T10:46:32.000Z</time>
      </trkpt>
      <trkpt lat="46.31376" lon="6.49827">
        <ele>699.9</ele>
        <time>2018-09-15T10:46:37.000Z</time>
      </trkpt>
      <trkpt lat="46.31389" lon="6.49836">
        <ele>702.37</ele>
        <time>2018-09-15T10:46:42.000Z</time>
      </trkpt>
      <trkpt lat="46.31398" lon="6.49845">
        <ele>705.13</ele>
        <time>2018-09-15T10:46:47.000Z</time>
      </trkpt>
      <trkpt lat="46.31406" lon="6.49855">
        <ele>705.96</ele>
        <time>2018-09-15T10:46:52.000Z</time>
      </trkpt>
      <trkpt lat="46.31417" lon="6.49865">
        <ele>705.96</ele>
        <time>2018-09-15T10:46:57.000Z</time>
      </trkpt>
      <trkpt lat="46.31427" lon="6.49873">
        <ele>707.08</ele>
        <time>2018-09-15T10:47:02.000Z</time>
      </trkpt>
      <trkpt lat="46.31438" lon="6.49883">
        <ele>707.15</ele>
        <time>2018-09-15T10:47:07.000Z</time>
      </trkpt>
      <trkpt lat="46.31448" lon="6.49891">
        <ele>706.38</ele>
        <time>2018-09-15T10:47:12.000Z</time>
      </trkpt>
      <trkpt lat="46.31457" lon="6.49901">
        <ele>707.15</ele>
        <time>2018-09-15T10:47:17.000Z</time>
      </trkpt>
      <trkpt lat="46.31468" lon="6.4991">
        <ele>708.08</ele>
        <time>2018-09-15T10:47:22.000Z</time>
      </trkpt>
      <trkpt lat="46.31479" lon="6.49916">
        <ele>707.9</ele>
        <time>2018-09-15T10:47:27.000Z</time>
      </trkpt>
      <trkpt lat="46.3149" lon="6.49924">
        <ele>708.15</ele>
        <time>2018-09-15T10:47:32.000Z</time>
      </trkpt>
      <trkpt lat="46.31499" lon="6.49936">
        <ele>708.08</ele>
        <time>2018-09-15T10:47:37.000Z</time>
      </trkpt>
      <trkpt lat="46.31507" lon="6.49949">
        <ele>710.14</ele>
        <time>2018-09-15T10:47:42.000Z</time>
      </trkpt>
      <trkpt lat="46.31516" lon="6.49963">
        <ele>710.9</ele>
        <time>2018-09-15T10:47:47.000Z</time>
      </trkpt>
      <trkpt lat="46.31524" lon="6.49978">
        <ele>712.13</ele>
        <time>2018-09-15T10:47:52.000Z</time>
      </trkpt>
      <trkpt lat="46.31531" lon="6.49993">
        <ele>712.13</ele>
        <time>2018-09-15T10:47:57.000Z</time>
      </trkpt>
      <trkpt lat="46.31539" lon="6.50008">
        <ele>713.08</ele>
        <time>2018-09-15T10:48:02.000Z</time>
      </trkpt>
      <trkpt lat="46.31548" lon="6.50022">
        <ele>714.88</ele>
        <time>2018-09-15T10:48:07.000Z</time>
      </trkpt>
      <trkpt lat="46.31558" lon="6.50036">
        <ele>715.15</ele>
        <time>2018-09-15T10:48:12.000Z</time>
      </trkpt>
      <trkpt lat="46.31569" lon="6.5005">
        <ele>715.9</ele>
        <time>2018-09-15T10:48:17.000Z</time>
      </trkpt>
      <trkpt lat="46.31577" lon="6.50065">
        <ele>716.15</ele>
        <time>2018-09-15T10:48:22.000Z</time>
      </trkpt>
      <trkpt lat="46.31587" lon="6.5008">
        <ele>719.08</ele>
        <time>2018-09-15T10:48:27.000Z</time>
      </trkpt>
      <trkpt lat="46.31596" lon="6.50095">
        <ele>721.89</ele>
        <time>2018-09-15T10:48:32.000Z</time>
      </trkpt>
      <trkpt lat="46.31603" lon="6.50111">
        <ele>722.89</ele>
        <time>2018-09-15T10:48:37.000Z</time>
      </trkpt>
      <trkpt lat="46.3161" lon="6.50125">
        <ele>723.89</ele>
        <time>2018-09-15T10:48:42.000Z</time>
      </trkpt>
      <trkpt lat="46.31616" lon="6.50141">
        <ele>725.13</ele>
        <time>2018-09-15T10:48:47.000Z</time>
      </trkpt>
      <trkpt lat="46.31622" lon="6.50158">
        <ele>726.14</ele>
        <time>2018-09-15T10:48:52.000Z</time>
      </trkpt>
      <trkpt lat="46.31627" lon="6.50174">
        <ele>726.9</ele>
        <time>2018-09-15T10:48:57.000Z</time>
      </trkpt>
      <trkpt lat="46.31631" lon="6.50192">
        <ele>727.14</ele>
        <time>2018-09-15T10:49:02.000Z</time>
      </trkpt>
      <trkpt lat="46.31636" lon="6.50209">
        <ele>728.14</ele>
        <time>2018-09-15T10:49:07.000Z</time>
      </trkpt>
      <trkpt lat="46.31639" lon="6.50226">
        <ele>729.13</ele>
        <time>2018-09-15T10:49:12.000Z</time>
      </trkpt>
      <trkpt lat="46.3164" lon="6.50244">
        <ele>730.89</ele>
        <time>2018-09-15T10:49:17.000Z</time>
      </trkpt>
      <trkpt lat="46.31642" lon="6.5026">
        <ele>731.14</ele>
        <time>2018-09-15T10:49:22.000Z</time>
      </trkpt>
      <trkpt lat="46.31648" lon="6.50276">
        <ele>732.08</ele>
        <time>2018-09-15T10:49:27.000Z</time>
      </trkpt>
      <trkpt lat="46.31651" lon="6.50294">
        <ele>732.89</ele>
        <time>2018-09-15T10:49:32.000Z</time>
      </trkpt>
      <trkpt lat="46.31653" lon="6.50311">
        <ele>732.2</ele>
        <time>2018-09-15T10:49:37.000Z</time>
      </trkpt>
      <trkpt lat="46.31657" lon="6.50328">
        <ele>733.09</ele>
        <time>2018-09-15T10:49:42.000Z</time>
      </trkpt>
      <trkpt lat="46.3166" lon="6.50345">
        <ele>733.94</ele>
        <time>2018-09-15T10:49:47.000Z</time>
      </trkpt>
      <trkpt lat="46.31662" lon="6.50363">
        <ele>735.13</ele>
        <time>2018-09-15T10:49:52.000Z</time>
      </trkpt>
      <trkpt lat="46.31665" lon="6.50381">
        <ele>735.33</ele>
        <time>2018-09-15T10:49:57.000Z</time>
      </trkpt>
      <trkpt lat="46.31663" lon="6.504">
        <ele>735.14</ele>
        <time>2018-09-15T10:50:02.000Z</time>
      </trkpt>
      <trkpt lat="46.31663" lon="6.50416">
        <ele>736.14</ele>
        <time>2018-09-15T10:50:07.000Z</time>
      </trkpt>
      <trkpt lat="46.31662" lon="6.50433">
        <ele>737.14</ele>
        <time>2018-09-15T10:50:12.000Z</time>
      </trkpt>
      <trkpt lat="46.31659" lon="6.50449">
        <ele>739.08</ele>
        <time>2018-09-15T10:50:17.000Z</time>
      </trkpt>
      <trkpt lat="46.31659" lon="6.50464">
        <ele>741.08</ele>
        <time>2018-09-15T10:50:22.000Z</time>
      </trkpt>
      <trkpt lat="46.31655" lon="6.5048">
        <ele>742.14</ele>
        <time>2018-09-15T10:50:27.000Z</time>
      </trkpt>
      <trkpt lat="46.31655" lon="6.50495">
        <ele>744.89</ele>
        <time>2018-09-15T10:50:32.000Z</time>
      </trkpt>
      <trkpt lat="46.31652" lon="6.50509">
        <ele>746.88</ele>
        <time>2018-09-15T10:50:38.000Z</time>
      </trkpt>
      <trkpt lat="46.31647" lon="6.50523">
        <ele>746.15</ele>
        <time>2018-09-15T10:50:43.000Z</time>
      </trkpt>
      <trkpt lat="46.31641" lon="6.50535">
        <ele>747.14</ele>
        <time>2018-09-15T10:50:48.000Z</time>
      </trkpt>
      <trkpt lat="46.31635" lon="6.50546">
        <ele>748.08</ele>
        <time>2018-09-15T10:50:53.000Z</time>
      </trkpt>
      <trkpt lat="46.31628" lon="6.50556">
        <ele>748.9</ele>
        <time>2018-09-15T10:50:58.000Z</time>
      </trkpt>
      <trkpt lat="46.31622" lon="6.50568">
        <ele>749.14</ele>
        <time>2018-09-15T10:51:03.000Z</time>
      </trkpt>
      <trkpt lat="46.31614" lon="6.50577">
        <ele>749.9</ele>
        <time>2018-09-15T10:51:08.000Z</time>
      </trkpt>
      <trkpt lat="46.31607" lon="6.50585">
        <ele>751.14</ele>
        <time>2018-09-15T10:51:13.000Z</time>
      </trkpt>
      <trkpt lat="46.31597" lon="6.5059">
        <ele>752.08</ele>
        <time>2018-09-15T10:51:18.000Z</time>
      </trkpt>
      <trkpt lat="46.31585" lon="6.50591">
        <ele>753.88</ele>
        <time>2018-09-15T10:51:23.000Z</time>
      </trkpt>
      <trkpt lat="46.31574" lon="6.50589">
        <ele>756.07</ele>
        <time>2018-09-15T10:51:28.000Z</time>
      </trkpt>
      <trkpt lat="46.31563" lon="6.50584">
        <ele>756.1</ele>
        <time>2018-09-15T10:51:33.000Z</time>
      </trkpt>
      <trkpt lat="46.31553" lon="6.50579">
        <ele>758.89</ele>
        <time>2018-09-15T10:51:38.000Z</time>
      </trkpt>
      <trkpt lat="46.31545" lon="6.50572">
        <ele>759.9</ele>
        <time>2018-09-15T10:51:43.000Z</time>
      </trkpt>
      <trkpt lat="46.31536" lon="6.50565">
        <ele>760.9</ele>
        <time>2018-09-15T10:51:48.000Z</time>
      </trkpt>
      <trkpt lat="46.31526" lon="6.50559">
        <ele>761.15</ele>
        <time>2018-09-15T10:51:53.000Z</time>
      </trkpt>
      <trkpt lat="46.31519" lon="6.50551">
        <ele>761.33</ele>
        <time>2018-09-15T10:51:59.000Z</time>
      </trkpt>
      <trkpt lat="46.3151" lon="6.50545">
        <ele>762.13</ele>
        <time>2018-09-15T10:52:04.000Z</time>
      </trkpt>
      <trkpt lat="46.31501" lon="6.50537">
        <ele>762.15</ele>
        <time>2018-09-15T10:52:10.000Z</time>
      </trkpt>
      <trkpt lat="46.31491" lon="6.5053">
        <ele>763.14</ele>
        <time>2018-09-15T10:52:15.000Z</time>
      </trkpt>
      <trkpt lat="46.31482" lon="6.50522">
        <ele>765.13</ele>
        <time>2018-09-15T10:52:22.000Z</time>
      </trkpt>
      <trkpt lat="46.31474" lon="6.50517">
        <ele>767.08</ele>
        <time>2018-09-15T10:52:27.000Z</time>
      </trkpt>
      <trkpt lat="46.31464" lon="6.50513">
        <ele>765.13</ele>
        <time>2018-09-15T10:52:33.000Z</time>
      </trkpt>
      <trkpt lat="46.31454" lon="6.50509">
        <ele>768.89</ele>
        <time>2018-09-15T10:52:39.000Z</time>
      </trkpt>
      <trkpt lat="46.31446" lon="6.50505">
        <ele>769.9</ele>
        <time>2018-09-15T10:52:44.000Z</time>
      </trkpt>
      <trkpt lat="46.31437" lon="6.50498">
        <ele>772.07</ele>
        <time>2018-09-15T10:52:49.000Z</time>
      </trkpt>
      <trkpt lat="46.31428" lon="6.50494">
        <ele>773.08</ele>
        <time>2018-09-15T10:52:54.000Z</time>
      </trkpt>
      <trkpt lat="46.31418" lon="6.50488">
        <ele>774.14</ele>
        <time>2018-09-15T10:53:00.000Z</time>
      </trkpt>
      <trkpt lat="46.3141" lon="6.50483">
        <ele>774.15</ele>
        <time>2018-09-15T10:53:05.000Z</time>
      </trkpt>
      <trkpt lat="46.31401" lon="6.50477">
        <ele>775.13</ele>
        <time>2018-09-15T10:53:10.000Z</time>
      </trkpt>
      <trkpt lat="46.31392" lon="6.50469">
        <ele>776.9</ele>
        <time>2018-09-15T10:53:15.000Z</time>
      </trkpt>
      <trkpt lat="46.31382" lon="6.50461">
        <ele>778.08</ele>
        <time>2018-09-15T10:53:20.000Z</time>
      </trkpt>
      <trkpt lat="46.31374" lon="6.50451">
        <ele>781.11</ele>
        <time>2018-09-15T10:53:25.000Z</time>
      </trkpt>
      <trkpt lat="46.31368" lon="6.50439">
        <ele>781.15</ele>
        <time>2018-09-15T10:53:31.000Z</time>
      </trkpt>
      <trkpt lat="46.31361" lon="6.50431">
        <ele>782.14</ele>
        <time>2018-09-15T10:53:36.000Z</time>
      </trkpt>
      <trkpt lat="46.31354" lon="6.50421">
        <ele>784.08</ele>
        <time>2018-09-15T10:53:41.000Z</time>
      </trkpt>
      <trkpt lat="46.31345" lon="6.50413">
        <ele>785.83</ele>
        <time>2018-09-15T10:53:46.000Z</time>
      </trkpt>
      <trkpt lat="46.31337" lon="6.50406">
        <ele>786.15</ele>
        <time>2018-09-15T10:53:51.000Z</time>
      </trkpt>
      <trkpt lat="46.31328" lon="6.50399">
        <ele>787.08</ele>
        <time>2018-09-15T10:53:56.000Z</time>
      </trkpt>
      <trkpt lat="46.3132" lon="6.5039">
        <ele>788.9</ele>
        <time>2018-09-15T10:54:02.000Z</time>
      </trkpt>
      <trkpt lat="46.3131" lon="6.50385">
        <ele>791.88</ele>
        <time>2018-09-15T10:54:07.000Z</time>
      </trkpt>
      <trkpt lat="46.313" lon="6.50381">
        <ele>793.83</ele>
        <time>2018-09-15T10:54:12.000Z</time>
      </trkpt>
      <trkpt lat="46.3129" lon="6.50376">
        <ele>794.15</ele>
        <time>2018-09-15T10:54:17.000Z</time>
      </trkpt>
      <trkpt lat="46.31279" lon="6.50372">
        <ele>794.9</ele>
        <time>2018-09-15T10:54:22.000Z</time>
      </trkpt>
      <trkpt lat="46.31268" lon="6.50367">
        <ele>795.15</ele>
        <time>2018-09-15T10:54:27.000Z</time>
      </trkpt>
      <trkpt lat="46.31259" lon="6.50361">
        <ele>796.15</ele>
        <time>2018-09-15T10:54:32.000Z</time>
      </trkpt>
      <trkpt lat="46.31251" lon="6.50354">
        <ele>799.77</ele>
        <time>2018-09-15T10:54:38.000Z</time>
      </trkpt>
      <trkpt lat="46.31241" lon="6.5035">
        <ele>801.13</ele>
        <time>2018-09-15T10:54:43.000Z</time>
      </trkpt>
      <trkpt lat="46.31229" lon="6.50347">
        <ele>801.14</ele>
        <time>2018-09-15T10:54:48.000Z</time>
      </trkpt>
      <trkpt lat="46.31217" lon="6.50343">
        <ele>802.14</ele>
        <time>2018-09-15T10:54:53.000Z</time>
      </trkpt>
      <trkpt lat="46.31205" lon="6.50339">
        <ele>804.08</ele>
        <time>2018-09-15T10:54:58.000Z</time>
      </trkpt>
      <trkpt lat="46.31195" lon="6.50335">
        <ele>805.89</ele>
        <time>2018-09-15T10:55:03.000Z</time>
      </trkpt>
      <trkpt lat="46.31184" lon="6.50332">
        <ele>807.13</ele>
        <time>2018-09-15T10:55:08.000Z</time>
      </trkpt>
      <trkpt lat="46.31174" lon="6.50328">
        <ele>808.15</ele>
        <time>2018-09-15T10:55:13.000Z</time>
      </trkpt>
      <trkpt lat="46.31163" lon="6.50322">
        <ele>809.14</ele>
        <time>2018-09-15T10:55:18.000Z</time>
      </trkpt>
      <trkpt lat="46.31151" lon="6.50314">
        <ele>810.09</ele>
        <time>2018-09-15T10:55:23.000Z</time>
      </trkpt>
      <trkpt lat="46.31141" lon="6.50303">
        <ele>811.9</ele>
        <time>2018-09-15T10:55:28.000Z</time>
      </trkpt>
      <trkpt lat="46.31131" lon="6.50292">
        <ele>813.09</ele>
        <time>2018-09-15T10:55:33.000Z</time>
      </trkpt>
      <trkpt lat="46.31121" lon="6.50279">
        <ele>813.9</ele>
        <time>2018-09-15T10:55:38.000Z</time>
      </trkpt>
      <trkpt lat="46.31112" lon="6.50267">
        <ele>814.15</ele>
        <time>2018-09-15T10:55:43.000Z</time>
      </trkpt>
      <trkpt lat="46.31102" lon="6.50252">
        <ele>815.16</ele>
        <time>2018-09-15T10:55:48.000Z</time>
      </trkpt>
      <trkpt lat="46.31094" lon="6.50238">
        <ele>816.89</ele>
        <time>2018-09-15T10:55:53.000Z</time>
      </trkpt>
      <trkpt lat="46.31086" lon="6.50224">
        <ele>817.15</ele>
        <time>2018-09-15T10:55:58.000Z</time>
      </trkpt>
      <trkpt lat="46.31079" lon="6.50211">
        <ele>818.09</ele>
        <time>2018-09-15T10:56:03.000Z</time>
      </trkpt>
      <trkpt lat="46.31071" lon="6.50198">
        <ele>820.13</ele>
        <time>2018-09-15T10:56:08.000Z</time>
      </trkpt>
      <trkpt lat="46.31064" lon="6.50186">
        <ele>819.16</ele>
        <time>2018-09-15T10:56:13.000Z</time>
      </trkpt>
      <trkpt lat="46.31056" lon="6.50173">
        <ele>819.15</ele>
        <time>2018-09-15T10:56:18.000Z</time>
      </trkpt>
      <trkpt lat="46.31048" lon="6.50161">
        <ele>820.84</ele>
        <time>2018-09-15T10:56:23.000Z</time>
      </trkpt>
      <trkpt lat="46.31039" lon="6.50151">
        <ele>823.07</ele>
        <time>2018-09-15T10:56:28.000Z</time>
      </trkpt>
      <trkpt lat="46.31026" lon="6.50146">
        <ele>823.15</ele>
        <time>2018-09-15T10:56:33.000Z</time>
      </trkpt>
      <trkpt lat="46.31017" lon="6.50143">
        <ele>824.13</ele>
        <time>2018-09-15T10:56:38.000Z</time>
      </trkpt>
      <trkpt lat="46.31003" lon="6.50141">
        <ele>824.4</ele>
        <time>2018-09-15T10:56:43.000Z</time>
      </trkpt>
      <trkpt lat="46.30992" lon="6.50141">
        <ele>825.9</ele>
        <time>2018-09-15T10:56:48.000Z</time>
      </trkpt>
      <trkpt lat="46.30982" lon="6.50144">
        <ele>826.15</ele>
        <time>2018-09-15T10:56:53.000Z</time>
      </trkpt>
      <trkpt lat="46.3097" lon="6.50147">
        <ele>827.08</ele>
        <time>2018-09-15T10:56:58.000Z</time>
      </trkpt>
      <trkpt lat="46.30957" lon="6.50149">
        <ele>829.13</ele>
        <time>2018-09-15T10:57:03.000Z</time>
      </trkpt>
      <trkpt lat="46.30946" lon="6.5015">
        <ele>830.13</ele>
        <time>2018-09-15T10:57:08.000Z</time>
      </trkpt>
      <trkpt lat="46.30937" lon="6.50151">
        <ele>828.42</ele>
        <time>2018-09-15T10:57:13.000Z</time>
      </trkpt>
      <trkpt lat="46.30925" lon="6.5015">
        <ele>829.15</ele>
        <time>2018-09-15T10:57:18.000Z</time>
      </trkpt>
      <trkpt lat="46.30914" lon="6.5015">
        <ele>830.15</ele>
        <time>2018-09-15T10:57:23.000Z</time>
      </trkpt>
      <trkpt lat="46.30904" lon="6.50157">
        <ele>831.15</ele>
        <time>2018-09-15T10:57:28.000Z</time>
      </trkpt>
      <trkpt lat="46.30897" lon="6.5017">
        <ele>831.9</ele>
        <time>2018-09-15T10:57:33.000Z</time>
      </trkpt>
      <trkpt lat="46.30889" lon="6.50182">
        <ele>832.15</ele>
        <time>2018-09-15T10:57:38.000Z</time>
      </trkpt>
      <trkpt lat="46.3088" lon="6.50188">
        <ele>832.86</ele>
        <time>2018-09-15T10:57:43.000Z</time>
      </trkpt>
      <trkpt lat="46.30869" lon="6.50186">
        <ele>835.09</ele>
        <time>2018-09-15T10:57:48.000Z</time>
      </trkpt>
      <trkpt lat="46.30859" lon="6.50177">
        <ele>837.13</ele>
        <time>2018-09-15T10:57:53.000Z</time>
      </trkpt>
      <trkpt lat="46.30852" lon="6.50165">
        <ele>837.15</ele>
        <time>2018-09-15T10:57:58.000Z</time>
      </trkpt>
      <trkpt lat="46.30848" lon="6.5015">
        <ele>838.38</ele>
        <time>2018-09-15T10:58:03.000Z</time>
      </trkpt>
      <trkpt lat="46.30844" lon="6.50136">
        <ele>840.84</ele>
        <time>2018-09-15T10:58:08.000Z</time>
      </trkpt>
      <trkpt lat="46.30842" lon="6.50121">
        <ele>840.96</ele>
        <time>2018-09-15T10:58:13.000Z</time>
      </trkpt>
      <trkpt lat="46.3084" lon="6.50106">
        <ele>843.08</ele>
        <time>2018-09-15T10:58:18.000Z</time>
      </trkpt>
      <trkpt lat="46.30838" lon="6.50091">
        <ele>843.9</ele>
        <time>2018-09-15T10:58:23.000Z</time>
      </trkpt>
      <trkpt lat="46.30833" lon="6.50075">
        <ele>842.09</ele>
        <time>2018-09-15T10:58:28.000Z</time>
      </trkpt>
      <trkpt lat="46.30823" lon="6.50066">
        <ele>844.09</ele>
        <time>2018-09-15T10:58:33.000Z</time>
      </trkpt>
      <trkpt lat="46.30811" lon="6.50067">
        <ele>845.15</ele>
        <time>2018-09-15T10:58:38.000Z</time>
      </trkpt>
      <trkpt lat="46.30801" lon="6.50077">
        <ele>846.09</ele>
        <time>2018-09-15T10:58:43.000Z</time>
      </trkpt>
      <trkpt lat="46.30796" lon="6.50093">
        <ele>847.15</ele>
        <time>2018-09-15T10:58:48.000Z</time>
      </trkpt>
      <trkpt lat="46.30789" lon="6.50105">
        <ele>850.07</ele>
        <time>2018-09-15T10:58:53.000Z</time>
      </trkpt>
      <trkpt lat="46.30781" lon="6.50116">
        <ele>849.03</ele>
        <time>2018-09-15T10:58:58.000Z</time>
      </trkpt>
      <trkpt lat="46.30774" lon="6.50129">
        <ele>851.13</ele>
        <time>2018-09-15T10:59:03.000Z</time>
      </trkpt>
      <trkpt lat="46.30771" lon="6.50144">
        <ele>852.15</ele>
        <time>2018-09-15T10:59:08.000Z</time>
      </trkpt>
      <trkpt lat="46.30768" lon="6.50158">
        <ele>854.13</ele>
        <time>2018-09-15T10:59:13.000Z</time>
      </trkpt>
      <trkpt lat="46.30763" lon="6.50173">
        <ele>854.15</ele>
        <time>2018-09-15T10:59:18.000Z</time>
      </trkpt>
      <trkpt lat="46.30757" lon="6.50185">
        <ele>854.9</ele>
        <time>2018-09-15T10:59:23.000Z</time>
      </trkpt>
      <trkpt lat="46.30747" lon="6.50193">
        <ele>855.15</ele>
        <time>2018-09-15T10:59:28.000Z</time>
      </trkpt>
      <trkpt lat="46.30737" lon="6.50191">
        <ele>856.15</ele>
        <time>2018-09-15T10:59:33.000Z</time>
      </trkpt>
      <trkpt lat="46.30731" lon="6.5018">
        <ele>856.15</ele>
        <time>2018-09-15T10:59:38.000Z</time>
      </trkpt>
      <trkpt lat="46.3073" lon="6.50166">
        <ele>858.08</ele>
        <time>2018-09-15T10:59:43.000Z</time>
      </trkpt>
      <trkpt lat="46.30729" lon="6.50151">
        <ele>859.14</ele>
        <time>2018-09-15T10:59:48.000Z</time>
      </trkpt>
      <trkpt lat="46.30728" lon="6.50136">
        <ele>859.92</ele>
        <time>2018-09-15T10:59:53.000Z</time>
      </trkpt>
      <trkpt lat="46.30723" lon="6.50123">
        <ele>860.9</ele>
        <time>2018-09-15T10:59:58.000Z</time>
      </trkpt>
      <trkpt lat="46.30713" lon="6.50116">
        <ele>861.15</ele>
        <time>2018-09-15T11:00:03.000Z</time>
      </trkpt>
      <trkpt lat="46.30701" lon="6.50114">
        <ele>862.09</ele>
        <time>2018-09-15T11:00:08.000Z</time>
      </trkpt>
      <trkpt lat="46.3069" lon="6.50114">
        <ele>862.14</ele>
        <time>2018-09-15T11:00:13.000Z</time>
      </trkpt>
      <trkpt lat="46.30679" lon="6.50114">
        <ele>862.9</ele>
        <time>2018-09-15T11:00:18.000Z</time>
      </trkpt>
      <trkpt lat="46.30668" lon="6.50111">
        <ele>864.14</ele>
        <time>2018-09-15T11:00:23.000Z</time>
      </trkpt>
      <trkpt lat="46.30657" lon="6.50103">
        <ele>865.9</ele>
        <time>2018-09-15T11:00:28.000Z</time>
      </trkpt>
      <trkpt lat="46.30646" lon="6.50094">
        <ele>867.14</ele>
        <time>2018-09-15T11:00:33.000Z</time>
      </trkpt>
      <trkpt lat="46.30637" lon="6.50085">
        <ele>867.9</ele>
        <time>2018-09-15T11:00:38.000Z</time>
      </trkpt>
      <trkpt lat="46.30629" lon="6.50074">
        <ele>868.15</ele>
        <time>2018-09-15T11:00:43.000Z</time>
      </trkpt>
      <trkpt lat="46.30622" lon="6.50061">
        <ele>869.9</ele>
        <time>2018-09-15T11:00:48.000Z</time>
      </trkpt>
      <trkpt lat="46.30615" lon="6.50049">
        <ele>870.15</ele>
        <time>2018-09-15T11:00:53.000Z</time>
      </trkpt>
      <trkpt lat="46.30608" lon="6.50037">
        <ele>871.9</ele>
        <time>2018-09-15T11:00:58.000Z</time>
      </trkpt>
      <trkpt lat="46.30599" lon="6.50028">
        <ele>871.17</ele>
        <time>2018-09-15T11:01:03.000Z</time>
      </trkpt>
      <trkpt lat="46.30591" lon="6.50019">
        <ele>872.9</ele>
        <time>2018-09-15T11:01:08.000Z</time>
      </trkpt>
      <trkpt lat="46.30581" lon="6.5001">
        <ele>874.14</ele>
        <time>2018-09-15T11:01:13.000Z</time>
      </trkpt>
      <trkpt lat="46.30572" lon="6.50002">
        <ele>875.15</ele>
        <time>2018-09-15T11:01:18.000Z</time>
      </trkpt>
      <trkpt lat="46.30562" lon="6.49994">
        <ele>876.9</ele>
        <time>2018-09-15T11:01:23.000Z</time>
      </trkpt>
      <trkpt lat="46.30552" lon="6.49987">
        <ele>878.09</ele>
        <time>2018-09-15T11:01:28.000Z</time>
      </trkpt>
      <trkpt lat="46.30544" lon="6.49979">
        <ele>879.15</ele>
        <time>2018-09-15T11:01:33.000Z</time>
      </trkpt>
      <trkpt lat="46.30539" lon="6.49966">
        <ele>878.21</ele>
        <time>2018-09-15T11:01:38.000Z</time>
      </trkpt>
      <trkpt lat="46.30534" lon="6.49952">
        <ele>879.14</ele>
        <time>2018-09-15T11:01:43.000Z</time>
      </trkpt>
      <trkpt lat="46.3053" lon="6.49938">
        <ele>880.15</ele>
        <time>2018-09-15T11:01:48.000Z</time>
      </trkpt>
      <trkpt lat="46.30522" lon="6.49928">
        <ele>882.09</ele>
        <time>2018-09-15T11:01:53.000Z</time>
      </trkpt>
      <trkpt lat="46.30514" lon="6.49918">
        <ele>883.14</ele>
        <time>2018-09-15T11:01:58.000Z</time>
      </trkpt>
      <trkpt lat="46.30505" lon="6.49908">
        <ele>884.15</ele>
        <time>2018-09-15T11:02:03.000Z</time>
      </trkpt>
      <trkpt lat="46.30497" lon="6.49897">
        <ele>885.15</ele>
        <time>2018-09-15T11:02:08.000Z</time>
      </trkpt>
      <trkpt lat="46.30489" lon="6.49885">
        <ele>886.15</ele>
        <time>2018-09-15T11:02:13.000Z</time>
      </trkpt>
      <trkpt lat="46.30483" lon="6.49874">
        <ele>886.15</ele>
        <time>2018-09-15T11:02:18.000Z</time>
      </trkpt>
      <trkpt lat="46.30477" lon="6.49861">
        <ele>888.14</ele>
        <time>2018-09-15T11:02:23.000Z</time>
      </trkpt>
      <trkpt lat="46.30471" lon="6.49848">
        <ele>889.15</ele>
        <time>2018-09-15T11:02:28.000Z</time>
      </trkpt>
      <trkpt lat="46.30464" lon="6.49835">
        <ele>890.15</ele>
        <time>2018-09-15T11:02:33.000Z</time>
      </trkpt>
      <trkpt lat="46.30458" lon="6.49822">
        <ele>891.09</ele>
        <time>2018-09-15T11:02:38.000Z</time>
      </trkpt>
      <trkpt lat="46.30452" lon="6.49811">
        <ele>891.15</ele>
        <time>2018-09-15T11:02:43.000Z</time>
      </trkpt>
      <trkpt lat="46.30445" lon="6.49798">
        <ele>892.15</ele>
        <time>2018-09-15T11:02:48.000Z</time>
      </trkpt>
      <trkpt lat="46.30438" lon="6.49787">
        <ele>893.15</ele>
        <time>2018-09-15T11:02:53.000Z</time>
      </trkpt>
      <trkpt lat="46.30429" lon="6.49779">
        <ele>894.9</ele>
        <time>2018-09-15T11:02:58.000Z</time>
      </trkpt>
      <trkpt lat="46.30418" lon="6.49773">
        <ele>896.14</ele>
        <time>2018-09-15T11:03:03.000Z</time>
      </trkpt>
      <trkpt lat="46.30407" lon="6.49768">
        <ele>897.15</ele>
        <time>2018-09-15T11:03:08.000Z</time>
      </trkpt>
      <trkpt lat="46.30397" lon="6.49764">
        <ele>898.15</ele>
        <time>2018-09-15T11:03:13.000Z</time>
      </trkpt>
      <trkpt lat="46.30386" lon="6.49761">
        <ele>899.14</ele>
        <time>2018-09-15T11:03:18.000Z</time>
      </trkpt>
      <trkpt lat="46.30376" lon="6.4976">
        <ele>900.9</ele>
        <time>2018-09-15T11:03:23.000Z</time>
      </trkpt>
      <trkpt lat="46.30366" lon="6.4976">
        <ele>901.15</ele>
        <time>2018-09-15T11:03:28.000Z</time>
      </trkpt>
      <trkpt lat="46.30355" lon="6.49759">
        <ele>902.14</ele>
        <time>2018-09-15T11:03:33.000Z</time>
      </trkpt>
      <trkpt lat="46.30345" lon="6.49759">
        <ele>902.4</ele>
        <time>2018-09-15T11:03:38.000Z</time>
      </trkpt>
      <trkpt lat="46.30334" lon="6.49758">
        <ele>902.9</ele>
        <time>2018-09-15T11:03:44.000Z</time>
      </trkpt>
      <trkpt lat="46.30324" lon="6.49755">
        <ele>903.15</ele>
        <time>2018-09-15T11:03:49.000Z</time>
      </trkpt>
      <trkpt lat="46.30315" lon="6.49754">
        <ele>904.89</ele>
        <time>2018-09-15T11:03:54.000Z</time>
      </trkpt>
      <trkpt lat="46.30304" lon="6.49754">
        <ele>905.15</ele>
        <time>2018-09-15T11:03:59.000Z</time>
      </trkpt>
      <trkpt lat="46.30295" lon="6.49754">
        <ele>906.14</ele>
        <time>2018-09-15T11:04:04.000Z</time>
      </trkpt>
      <trkpt lat="46.30284" lon="6.49759">
        <ele>907.14</ele>
        <time>2018-09-15T11:04:09.000Z</time>
      </trkpt>
      <trkpt lat="46.30277" lon="6.49771">
        <ele>908.34</ele>
        <time>2018-09-15T11:04:14.000Z</time>
      </trkpt>
      <trkpt lat="46.30274" lon="6.49787">
        <ele>908.17</ele>
        <time>2018-09-15T11:04:19.000Z</time>
      </trkpt>
      <trkpt lat="46.30276" lon="6.49802">
        <ele>910.09</ele>
        <time>2018-09-15T11:04:24.000Z</time>
      </trkpt>
      <trkpt lat="46.3028" lon="6.49816">
        <ele>911.14</ele>
        <time>2018-09-15T11:04:29.000Z</time>
      </trkpt>
      <trkpt lat="46.30282" lon="6.49833">
        <ele>911.9</ele>
        <time>2018-09-15T11:04:34.000Z</time>
      </trkpt>
      <trkpt lat="46.30283" lon="6.49849">
        <ele>913.09</ele>
        <time>2018-09-15T11:04:39.000Z</time>
      </trkpt>
      <trkpt lat="46.30282" lon="6.49865">
        <ele>916.07</ele>
        <time>2018-09-15T11:04:44.000Z</time>
      </trkpt>
      <trkpt lat="46.30283" lon="6.49881">
        <ele>916.15</ele>
        <time>2018-09-15T11:04:49.000Z</time>
      </trkpt>
      <trkpt lat="46.30283" lon="6.49897">
        <ele>916.15</ele>
        <time>2018-09-15T11:04:54.000Z</time>
      </trkpt>
      <trkpt lat="46.30284" lon="6.49914">
        <ele>918.09</ele>
        <time>2018-09-15T11:04:59.000Z</time>
      </trkpt>
      <trkpt lat="46.30284" lon="6.4993">
        <ele>919.14</ele>
        <time>2018-09-15T11:05:04.000Z</time>
      </trkpt>
      <trkpt lat="46.30281" lon="6.49945">
        <ele>920.15</ele>
        <time>2018-09-15T11:05:09.000Z</time>
      </trkpt>
      <trkpt lat="46.30276" lon="6.49958">
        <ele>921.15</ele>
        <time>2018-09-15T11:05:14.000Z</time>
      </trkpt>
      <trkpt lat="46.30268" lon="6.49969">
        <ele>922.14</ele>
        <time>2018-09-15T11:05:19.000Z</time>
      </trkpt>
      <trkpt lat="46.3026" lon="6.49979">
        <ele>922.15</ele>
        <time>2018-09-15T11:05:24.000Z</time>
      </trkpt>
      <trkpt lat="46.30252" lon="6.49988">
        <ele>923.09</ele>
        <time>2018-09-15T11:05:29.000Z</time>
      </trkpt>
      <trkpt lat="46.30243" lon="6.49993">
        <ele>924.14</ele>
        <time>2018-09-15T11:05:34.000Z</time>
      </trkpt>
      <trkpt lat="46.30234" lon="6.49999">
        <ele>925.09</ele>
        <time>2018-09-15T11:05:39.000Z</time>
      </trkpt>
      <trkpt lat="46.30227" lon="6.50012">
        <ele>926.9</ele>
        <time>2018-09-15T11:05:44.000Z</time>
      </trkpt>
      <trkpt lat="46.30222" lon="6.50026">
        <ele>928.9</ele>
        <time>2018-09-15T11:05:49.000Z</time>
      </trkpt>
      <trkpt lat="46.30221" lon="6.50041">
        <ele>930.15</ele>
        <time>2018-09-15T11:05:54.000Z</time>
      </trkpt>
      <trkpt lat="46.3022" lon="6.50056">
        <ele>931.15</ele>
        <time>2018-09-15T11:05:59.000Z</time>
      </trkpt>
      <trkpt lat="46.30219" lon="6.50072">
        <ele>931.15</ele>
        <time>2018-09-15T11:06:04.000Z</time>
      </trkpt>
      <trkpt lat="46.30219" lon="6.50089">
        <ele>931.15</ele>
        <time>2018-09-15T11:06:09.000Z</time>
      </trkpt>
      <trkpt lat="46.30218" lon="6.50106">
        <ele>931.9</ele>
        <time>2018-09-15T11:06:14.000Z</time>
      </trkpt>
      <trkpt lat="46.30218" lon="6.5012">
        <ele>932.59</ele>
        <time>2018-09-15T11:06:19.000Z</time>
      </trkpt>
      <trkpt lat="46.30218" lon="6.50135">
        <ele>932.16</ele>
        <time>2018-09-15T11:06:24.000Z</time>
      </trkpt>
      <trkpt lat="46.30218" lon="6.50151">
        <ele>933.09</ele>
        <time>2018-09-15T11:06:29.000Z</time>
      </trkpt>
      <trkpt lat="46.30218" lon="6.50167">
        <ele>933.11</ele>
        <time>2018-09-15T11:06:34.000Z</time>
      </trkpt>
      <trkpt lat="46.30216" lon="6.50185">
        <ele>934.07</ele>
        <time>2018-09-15T11:06:39.000Z</time>
      </trkpt>
      <trkpt lat="46.30214" lon="6.50199">
        <ele>935.15</ele>
        <time>2018-09-15T11:06:44.000Z</time>
      </trkpt>
      <trkpt lat="46.3021" lon="6.50213">
        <ele>937.14</ele>
        <time>2018-09-15T11:06:49.000Z</time>
      </trkpt>
      <trkpt lat="46.30204" lon="6.50225">
        <ele>938.95</ele>
        <time>2018-09-15T11:06:54.000Z</time>
      </trkpt>
      <trkpt lat="46.30198" lon="6.50237">
        <ele>939.15</ele>
        <time>2018-09-15T11:06:59.000Z</time>
      </trkpt>
      <trkpt lat="46.30191" lon="6.5025">
        <ele>939.39</ele>
        <time>2018-09-15T11:07:04.000Z</time>
      </trkpt>
      <trkpt lat="46.30184" lon="6.50263">
        <ele>940.15</ele>
        <time>2018-09-15T11:07:09.000Z</time>
      </trkpt>
      <trkpt lat="46.30178" lon="6.50275">
        <ele>941.15</ele>
        <time>2018-09-15T11:07:14.000Z</time>
      </trkpt>
      <trkpt lat="46.30172" lon="6.50288">
        <ele>943.14</ele>
        <time>2018-09-15T11:07:19.000Z</time>
      </trkpt>
      <trkpt lat="46.30169" lon="6.50303">
        <ele>944.14</ele>
        <time>2018-09-15T11:07:24.000Z</time>
      </trkpt>
      <trkpt lat="46.30167" lon="6.50319">
        <ele>945.14</ele>
        <time>2018-09-15T11:07:29.000Z</time>
      </trkpt>
      <trkpt lat="46.30161" lon="6.50332">
        <ele>947.84</ele>
        <time>2018-09-15T11:07:34.000Z</time>
      </trkpt>
      <trkpt lat="46.30152" lon="6.50338">
        <ele>946.41</ele>
        <time>2018-09-15T11:07:39.000Z</time>
      </trkpt>
      <trkpt lat="46.30143" lon="6.50327">
        <ele>948.15</ele>
        <time>2018-09-15T11:07:44.000Z</time>
      </trkpt>
      <trkpt lat="46.30136" lon="6.50315">
        <ele>948.16</ele>
        <time>2018-09-15T11:07:49.000Z</time>
      </trkpt>
      <trkpt lat="46.30129" lon="6.50304">
        <ele>949.14</ele>
        <time>2018-09-15T11:07:54.000Z</time>
      </trkpt>
      <trkpt lat="46.3012" lon="6.50294">
        <ele>950.14</ele>
        <time>2018-09-15T11:07:59.000Z</time>
      </trkpt>
      <trkpt lat="46.30111" lon="6.50286">
        <ele>951.14</ele>
        <time>2018-09-15T11:08:04.000Z</time>
      </trkpt>
      <trkpt lat="46.30101" lon="6.5028">
        <ele>952.15</ele>
        <time>2018-09-15T11:08:09.000Z</time>
      </trkpt>
      <trkpt lat="46.30092" lon="6.50275">
        <ele>953.14</ele>
        <time>2018-09-15T11:08:14.000Z</time>
      </trkpt>
      <trkpt lat="46.3008" lon="6.50272">
        <ele>955.09</ele>
        <time>2018-09-15T11:08:19.000Z</time>
      </trkpt>
      <trkpt lat="46.3007" lon="6.50269">
        <ele>956.09</ele>
        <time>2018-09-15T11:08:24.000Z</time>
      </trkpt>
      <trkpt lat="46.30059" lon="6.50266">
        <ele>956.91</ele>
        <time>2018-09-15T11:08:29.000Z</time>
      </trkpt>
      <trkpt lat="46.3005" lon="6.50257">
        <ele>957.15</ele>
        <time>2018-09-15T11:08:34.000Z</time>
      </trkpt>
      <trkpt lat="46.30043" lon="6.50245">
        <ele>957.16</ele>
        <time>2018-09-15T11:08:39.000Z</time>
      </trkpt>
      <trkpt lat="46.30038" lon="6.50231">
        <ele>958.15</ele>
        <time>2018-09-15T11:08:44.000Z</time>
      </trkpt>
      <trkpt lat="46.30032" lon="6.50219">
        <ele>958.16</ele>
        <time>2018-09-15T11:08:49.000Z</time>
      </trkpt>
      <trkpt lat="46.30023" lon="6.50209">
        <ele>960.09</ele>
        <time>2018-09-15T11:08:54.000Z</time>
      </trkpt>
      <trkpt lat="46.30013" lon="6.50204">
        <ele>961.9</ele>
        <time>2018-09-15T11:08:59.000Z</time>
      </trkpt>
      <trkpt lat="46.30002" lon="6.50204">
        <ele>963.09</ele>
        <time>2018-09-15T11:09:04.000Z</time>
      </trkpt>
      <trkpt lat="46.29991" lon="6.50202">
        <ele>964.09</ele>
        <time>2018-09-15T11:09:09.000Z</time>
      </trkpt>
      <trkpt lat="46.29984" lon="6.5019">
        <ele>965.09</ele>
        <time>2018-09-15T11:09:14.000Z</time>
      </trkpt>
      <trkpt lat="46.29978" lon="6.50178">
        <ele>965.89</ele>
        <time>2018-09-15T11:09:19.000Z</time>
      </trkpt>
      <trkpt lat="46.29972" lon="6.50165">
        <ele>967.9</ele>
        <time>2018-09-15T11:09:24.000Z</time>
      </trkpt>
      <trkpt lat="46.29964" lon="6.50159">
        <ele>969.9</ele>
        <time>2018-09-15T11:09:29.000Z</time>
      </trkpt>
      <trkpt lat="46.29954" lon="6.50165">
        <ele>971.9</ele>
        <time>2018-09-15T11:09:34.000Z</time>
      </trkpt>
      <trkpt lat="46.29949" lon="6.50178">
        <ele>973.15</ele>
        <time>2018-09-15T11:09:39.000Z</time>
      </trkpt>
      <trkpt lat="46.29944" lon="6.50192">
        <ele>973.36</ele>
        <time>2018-09-15T11:09:44.000Z</time>
      </trkpt>
      <trkpt lat="46.29938" lon="6.50206">
        <ele>974.91</ele>
        <time>2018-09-15T11:09:49.000Z</time>
      </trkpt>
      <trkpt lat="46.29934" lon="6.50219">
        <ele>975.91</ele>
        <time>2018-09-15T11:09:54.000Z</time>
      </trkpt>
      <trkpt lat="46.29928" lon="6.50232">
        <ele>976.91</ele>
        <time>2018-09-15T11:09:59.000Z</time>
      </trkpt>
      <trkpt lat="46.29924" lon="6.50246">
        <ele>978.14</ele>
        <time>2018-09-15T11:10:04.000Z</time>
      </trkpt>
      <trkpt lat="46.29922" lon="6.50261">
        <ele>979.1</ele>
        <time>2018-09-15T11:10:09.000Z</time>
      </trkpt>
      <trkpt lat="46.29921" lon="6.50277">
        <ele>980.9</ele>
        <time>2018-09-15T11:10:14.000Z</time>
      </trkpt>
      <trkpt lat="46.2992" lon="6.50291">
        <ele>981.16</ele>
        <time>2018-09-15T11:10:19.000Z</time>
      </trkpt>
      <trkpt lat="46.29922" lon="6.50308">
        <ele>982.14</ele>
        <time>2018-09-15T11:10:24.000Z</time>
      </trkpt>
      <trkpt lat="46.29926" lon="6.50322">
        <ele>983.91</ele>
        <time>2018-09-15T11:10:29.000Z</time>
      </trkpt>
      <trkpt lat="46.29932" lon="6.50335">
        <ele>985.19</ele>
        <time>2018-09-15T11:10:34.000Z</time>
      </trkpt>
      <trkpt lat="46.29935" lon="6.50349">
        <ele>983.83</ele>
        <time>2018-09-15T11:10:39.000Z</time>
      </trkpt>
      <trkpt lat="46.29937" lon="6.50364">
        <ele>985.9</ele>
        <time>2018-09-15T11:10:44.000Z</time>
      </trkpt>
      <trkpt lat="46.29937" lon="6.50379">
        <ele>987.09</ele>
        <time>2018-09-15T11:10:49.000Z</time>
      </trkpt>
      <trkpt lat="46.29936" lon="6.50394">
        <ele>988.15</ele>
        <time>2018-09-15T11:10:54.000Z</time>
      </trkpt>
      <trkpt lat="46.29931" lon="6.50409">
        <ele>989.14</ele>
        <time>2018-09-15T11:10:59.000Z</time>
      </trkpt>
      <trkpt lat="46.29927" lon="6.50426">
        <ele>990.09</ele>
        <time>2018-09-15T11:11:04.000Z</time>
      </trkpt>
      <trkpt lat="46.29929" lon="6.50444">
        <ele>990.2</ele>
        <time>2018-09-15T11:11:09.000Z</time>
      </trkpt>
      <trkpt lat="46.29933" lon="6.50459">
        <ele>992.84</ele>
        <time>2018-09-15T11:11:14.000Z</time>
      </trkpt>
      <trkpt lat="46.29941" lon="6.5047">
        <ele>994.14</ele>
        <time>2018-09-15T11:11:19.000Z</time>
      </trkpt>
      <trkpt lat="46.29948" lon="6.50482">
        <ele>993.22</ele>
        <time>2018-09-15T11:11:24.000Z</time>
      </trkpt>
      <trkpt lat="46.29953" lon="6.50495">
        <ele>993.91</ele>
        <time>2018-09-15T11:11:29.000Z</time>
      </trkpt>
      <trkpt lat="46.29957" lon="6.50509">
        <ele>994.16</ele>
        <time>2018-09-15T11:11:34.000Z</time>
      </trkpt>
      <trkpt lat="46.29962" lon="6.50523">
        <ele>995.11</ele>
        <time>2018-09-15T11:11:39.000Z</time>
      </trkpt>
      <trkpt lat="46.29968" lon="6.50536">
        <ele>997.09</ele>
        <time>2018-09-15T11:11:44.000Z</time>
      </trkpt>
      <trkpt lat="46.29978" lon="6.50545">
        <ele>997.16</ele>
        <time>2018-09-15T11:11:49.000Z</time>
      </trkpt>
      <trkpt lat="46.29988" lon="6.5055">
        <ele>998.09</ele>
        <time>2018-09-15T11:11:54.000Z</time>
      </trkpt>
      <trkpt lat="46.29999" lon="6.50551">
        <ele>999.14</ele>
        <time>2018-09-15T11:11:59.000Z</time>
      </trkpt>
      <trkpt lat="46.3001" lon="6.50553">
        <ele>999.16</ele>
        <time>2018-09-15T11:12:04.000Z</time>
      </trkpt>
      <trkpt lat="46.30017" lon="6.50562">
        <ele>1000.09</ele>
        <time>2018-09-15T11:12:09.000Z</time>
      </trkpt>
      <trkpt lat="46.30016" lon="6.50576">
        <ele>1000.16</ele>
        <time>2018-09-15T11:12:15.000Z</time>
      </trkpt>
      <trkpt lat="46.30007" lon="6.5058">
        <ele>1000.21</ele>
        <time>2018-09-15T11:12:21.000Z</time>
      </trkpt>
      <trkpt lat="46.29997" lon="6.50577">
        <ele>1001.14</ele>
        <time>2018-09-15T11:12:26.000Z</time>
      </trkpt>
      <trkpt lat="46.29987" lon="6.50574">
        <ele>1001.16</ele>
        <time>2018-09-15T11:12:31.000Z</time>
      </trkpt>
      <trkpt lat="46.29977" lon="6.50575">
        <ele>1002.9</ele>
        <time>2018-09-15T11:12:36.000Z</time>
      </trkpt>
      <trkpt lat="46.29966" lon="6.50578">
        <ele>1003.16</ele>
        <time>2018-09-15T11:12:41.000Z</time>
      </trkpt>
      <trkpt lat="46.29956" lon="6.50579">
        <ele>1004.9</ele>
        <time>2018-09-15T11:12:46.000Z</time>
      </trkpt>
      <trkpt lat="46.29946" lon="6.50581">
        <ele>1006.15</ele>
        <time>2018-09-15T11:12:51.000Z</time>
      </trkpt>
      <trkpt lat="46.29935" lon="6.50581">
        <ele>1007.15</ele>
        <time>2018-09-15T11:12:56.000Z</time>
      </trkpt>
      <trkpt lat="46.29926" lon="6.50584">
        <ele>1008.09</ele>
        <time>2018-09-15T11:13:01.000Z</time>
      </trkpt>
      <trkpt lat="46.29916" lon="6.50587">
        <ele>1009.09</ele>
        <time>2018-09-15T11:13:06.000Z</time>
      </trkpt>
      <trkpt lat="46.29904" lon="6.50586">
        <ele>1010.09</ele>
        <time>2018-09-15T11:13:11.000Z</time>
      </trkpt>
      <trkpt lat="46.29893" lon="6.50585">
        <ele>1011.9</ele>
        <time>2018-09-15T11:13:16.000Z</time>
      </trkpt>
      <trkpt lat="46.29883" lon="6.50584">
        <ele>1012.91</ele>
        <time>2018-09-15T11:13:21.000Z</time>
      </trkpt>
      <trkpt lat="46.29872" lon="6.50585">
        <ele>1013.91</ele>
        <time>2018-09-15T11:13:26.000Z</time>
      </trkpt>
      <trkpt lat="46.29864" lon="6.50595">
        <ele>1014.91</ele>
        <time>2018-09-15T11:13:32.000Z</time>
      </trkpt>
      <trkpt lat="46.29865" lon="6.50611">
        <ele>1015.91</ele>
        <time>2018-09-15T11:13:37.000Z</time>
      </trkpt>
      <trkpt lat="46.29873" lon="6.50623">
        <ele>1019.07</ele>
        <time>2018-09-15T11:13:42.000Z</time>
      </trkpt>
      <trkpt lat="46.29883" lon="6.50626">
        <ele>1018.92</ele>
        <time>2018-09-15T11:13:47.000Z</time>
      </trkpt>
      <trkpt lat="46.29894" lon="6.50628">
        <ele>1020.9</ele>
        <time>2018-09-15T11:13:52.000Z</time>
      </trkpt>
      <trkpt lat="46.29906" lon="6.5063">
        <ele>1021.11</ele>
        <time>2018-09-15T11:13:57.000Z</time>
      </trkpt>
      <trkpt lat="46.29917" lon="6.50632">
        <ele>1021.36</ele>
        <time>2018-09-15T11:14:02.000Z</time>
      </trkpt>
      <trkpt lat="46.29927" lon="6.50635">
        <ele>1021.91</ele>
        <time>2018-09-15T11:14:07.000Z</time>
      </trkpt>
      <trkpt lat="46.29938" lon="6.50638">
        <ele>1023.15</ele>
        <time>2018-09-15T11:14:12.000Z</time>
      </trkpt>
      <trkpt lat="46.29947" lon="6.5064">
        <ele>1024.16</ele>
        <time>2018-09-15T11:14:17.000Z</time>
      </trkpt>
      <trkpt lat="46.29958" lon="6.50643">
        <ele>1025.9</ele>
        <time>2018-09-15T11:14:22.000Z</time>
      </trkpt>
      <trkpt lat="46.29968" lon="6.50644">
        <ele>1028.14</ele>
        <time>2018-09-15T11:14:27.000Z</time>
      </trkpt>
      <trkpt lat="46.29979" lon="6.50645">
        <ele>1028.2</ele>
        <time>2018-09-15T11:14:32.000Z</time>
      </trkpt>
      <trkpt lat="46.29991" lon="6.50647">
        <ele>1028.16</ele>
        <time>2018-09-15T11:14:37.000Z</time>
      </trkpt>
      <trkpt lat="46.30002" lon="6.50651">
        <ele>1027.41</ele>
        <time>2018-09-15T11:14:42.000Z</time>
      </trkpt>
      <trkpt lat="46.30014" lon="6.50654">
        <ele>1027.16</ele>
        <time>2018-09-15T11:14:47.000Z</time>
      </trkpt>
      <trkpt lat="46.30024" lon="6.50659">
        <ele>1027.1</ele>
        <time>2018-09-15T11:14:52.000Z</time>
      </trkpt>
      <trkpt lat="46.30035" lon="6.50666">
        <ele>1026.16</ele>
        <time>2018-09-15T11:14:57.000Z</time>
      </trkpt>
      <trkpt lat="46.30047" lon="6.50668">
        <ele>1026.17</ele>
        <time>2018-09-15T11:15:02.000Z</time>
      </trkpt>
      <trkpt lat="46.30057" lon="6.50673">
        <ele>1026.91</ele>
        <time>2018-09-15T11:15:07.000Z</time>
      </trkpt>
      <trkpt lat="46.30067" lon="6.50676">
        <ele>1028.15</ele>
        <time>2018-09-15T11:15:12.000Z</time>
      </trkpt>
      <trkpt lat="46.30077" lon="6.5068">
        <ele>1028.91</ele>
        <time>2018-09-15T11:15:17.000Z</time>
      </trkpt>
      <trkpt lat="46.30086" lon="6.50686">
        <ele>1029.2</ele>
        <time>2018-09-15T11:15:22.000Z</time>
      </trkpt>
      <trkpt lat="46.30095" lon="6.50694">
        <ele>1030.15</ele>
        <time>2018-09-15T11:15:27.000Z</time>
      </trkpt>
      <trkpt lat="46.30104" lon="6.50704">
        <ele>1030.39</ele>
        <time>2018-09-15T11:15:32.000Z</time>
      </trkpt>
      <trkpt lat="46.30113" lon="6.50709">
        <ele>1032.09</ele>
        <time>2018-09-15T11:15:37.000Z</time>
      </trkpt>
      <trkpt lat="46.30123" lon="6.50713">
        <ele>1033.09</ele>
        <time>2018-09-15T11:15:42.000Z</time>
      </trkpt>
      <trkpt lat="46.30133" lon="6.50716">
        <ele>1035.9</ele>
        <time>2018-09-15T11:15:48.000Z</time>
      </trkpt>
      <trkpt lat="46.30143" lon="6.50721">
        <ele>1038.09</ele>
        <time>2018-09-15T11:15:53.000Z</time>
      </trkpt>
      <trkpt lat="46.30153" lon="6.5073">
        <ele>1034.22</ele>
        <time>2018-09-15T11:15:58.000Z</time>
      </trkpt>
      <trkpt lat="46.30163" lon="6.50738">
        <ele>1035.89</ele>
        <time>2018-09-15T11:16:03.000Z</time>
      </trkpt>
      <trkpt lat="46.30172" lon="6.50744">
        <ele>1037.84</ele>
        <time>2018-09-15T11:16:08.000Z</time>
      </trkpt>
      <trkpt lat="46.3018" lon="6.50753">
        <ele>1038.9</ele>
        <time>2018-09-15T11:16:13.000Z</time>
      </trkpt>
      <trkpt lat="46.30191" lon="6.50757">
        <ele>1041.14</ele>
        <time>2018-09-15T11:16:18.000Z</time>
      </trkpt>
      <trkpt lat="46.302" lon="6.50761">
        <ele>1042.9</ele>
        <time>2018-09-15T11:16:23.000Z</time>
      </trkpt>
      <trkpt lat="46.30209" lon="6.50765">
        <ele>1045.32</ele>
        <time>2018-09-15T11:16:28.000Z</time>
      </trkpt>
      <trkpt lat="46.30215" lon="6.50779">
        <ele>1047.15</ele>
        <time>2018-09-15T11:16:33.000Z</time>
      </trkpt>
      <trkpt lat="46.30209" lon="6.5079">
        <ele>1045.22</ele>
        <time>2018-09-15T11:16:39.000Z</time>
      </trkpt>
      <trkpt lat="46.30199" lon="6.50784">
        <ele>1045.15</ele>
        <time>2018-09-15T11:16:44.000Z</time>
      </trkpt>
      <trkpt lat="46.30189" lon="6.50775">
        <ele>1047.89</ele>
        <time>2018-09-15T11:16:49.000Z</time>
      </trkpt>
      <trkpt lat="46.30179" lon="6.50767">
        <ele>1048.15</ele>
        <time>2018-09-15T11:16:54.000Z</time>
      </trkpt>
      <trkpt lat="46.30167" lon="6.50759">
        <ele>1050.14</ele>
        <time>2018-09-15T11:16:59.000Z</time>
      </trkpt>
      <trkpt lat="46.30156" lon="6.50757">
        <ele>1050.17</ele>
        <time>2018-09-15T11:17:05.000Z</time>
      </trkpt>
      <trkpt lat="46.30147" lon="6.50753">
        <ele>1052.08</ele>
        <time>2018-09-15T11:17:10.000Z</time>
      </trkpt>
      <trkpt lat="46.30136" lon="6.50751">
        <ele>1014.39</ele>
        <time>2018-09-15T11:17:15.000Z</time>
      </trkpt>
      <trkpt lat="46.30126" lon="6.5075">
        <ele>1042.61</ele>
        <time>2018-09-15T11:17:20.000Z</time>
      </trkpt>
      <trkpt lat="46.30116" lon="6.5075">
        <ele>1021.13</ele>
        <time>2018-09-15T11:17:25.000Z</time>
      </trkpt>
      <trkpt lat="46.30106" lon="6.50749">
        <ele>1040.52</ele>
        <time>2018-09-15T11:17:30.000Z</time>
      </trkpt>
      <trkpt lat="46.30095" lon="6.50746">
        <ele>1052.55</ele>
        <time>2018-09-15T11:17:35.000Z</time>
      </trkpt>
      <trkpt lat="46.30084" lon="6.50744">
        <ele>1057.07</ele>
        <time>2018-09-15T11:17:40.000Z</time>
      </trkpt>
      <trkpt lat="46.30075" lon="6.50741">
        <ele>1059.14</ele>
        <time>2018-09-15T11:17:45.000Z</time>
      </trkpt>
      <trkpt lat="46.30064" lon="6.50736">
        <ele>1060.09</ele>
        <time>2018-09-15T11:17:50.000Z</time>
      </trkpt>
      <trkpt lat="46.30053" lon="6.50736">
        <ele>1060.22</ele>
        <time>2018-09-15T11:17:55.000Z</time>
      </trkpt>
      <trkpt lat="46.30043" lon="6.50734">
        <ele>1060.84</ele>
        <time>2018-09-15T11:18:00.000Z</time>
      </trkpt>
      <trkpt lat="46.30031" lon="6.50736">
        <ele>1062.89</ele>
        <time>2018-09-15T11:18:05.000Z</time>
      </trkpt>
      <trkpt lat="46.3002" lon="6.50739">
        <ele>1065.03</ele>
        <time>2018-09-15T11:18:10.000Z</time>
      </trkpt>
      <trkpt lat="46.3001" lon="6.50743">
        <ele>1065.16</ele>
        <time>2018-09-15T11:18:15.000Z</time>
      </trkpt>
      <trkpt lat="46.29999" lon="6.50747">
        <ele>1067.09</ele>
        <time>2018-09-15T11:18:20.000Z</time>
      </trkpt>
      <trkpt lat="46.29987" lon="6.50752">
        <ele>1068.14</ele>
        <time>2018-09-15T11:18:25.000Z</time>
      </trkpt>
      <trkpt lat="46.29978" lon="6.50759">
        <ele>1070.09</ele>
        <time>2018-09-15T11:18:30.000Z</time>
      </trkpt>
      <trkpt lat="46.29969" lon="6.50767">
        <ele>1071.84</ele>
        <time>2018-09-15T11:18:35.000Z</time>
      </trkpt>
      <trkpt lat="46.2996" lon="6.50775">
        <ele>1072.16</ele>
        <time>2018-09-15T11:18:40.000Z</time>
      </trkpt>
      <trkpt lat="46.2995" lon="6.50783">
        <ele>1073.15</ele>
        <time>2018-09-15T11:18:45.000Z</time>
      </trkpt>
      <trkpt lat="46.29941" lon="6.50791">
        <ele>1075.09</ele>
        <time>2018-09-15T11:18:50.000Z</time>
      </trkpt>
      <trkpt lat="46.29932" lon="6.508">
        <ele>1076.09</ele>
        <time>2018-09-15T11:18:55.000Z</time>
      </trkpt>
      <trkpt lat="46.29922" lon="6.50809">
        <ele>1077.14</ele>
        <time>2018-09-15T11:19:00.000Z</time>
      </trkpt>
      <trkpt lat="46.29914" lon="6.50818">
        <ele>1077.39</ele>
        <time>2018-09-15T11:19:05.000Z</time>
      </trkpt>
      <trkpt lat="46.29906" lon="6.50826">
        <ele>1077.15</ele>
        <time>2018-09-15T11:19:10.000Z</time>
      </trkpt>
      <trkpt lat="46.29897" lon="6.50834">
        <ele>1079.09</ele>
        <time>2018-09-15T11:19:15.000Z</time>
      </trkpt>
      <trkpt lat="46.29888" lon="6.50841">
        <ele>1078.91</ele>
        <time>2018-09-15T11:19:20.000Z</time>
      </trkpt>
      <trkpt lat="46.29879" lon="6.5085">
        <ele>1079.91</ele>
        <time>2018-09-15T11:19:25.000Z</time>
      </trkpt>
      <trkpt lat="46.2987" lon="6.5086">
        <ele>1081.09</ele>
        <time>2018-09-15T11:19:30.000Z</time>
      </trkpt>
      <trkpt lat="46.29861" lon="6.50871">
        <ele>1082.84</ele>
        <time>2018-09-15T11:19:35.000Z</time>
      </trkpt>
      <trkpt lat="46.29853" lon="6.50881">
        <ele>1025.31</ele>
        <time>2018-09-15T11:19:40.000Z</time>
      </trkpt>
      <trkpt lat="46.29845" lon="6.50891">
        <ele>1072.95</ele>
        <time>2018-09-15T11:19:45.000Z</time>
      </trkpt>
      <trkpt lat="46.29836" lon="6.509">
        <ele>1081.8</ele>
        <time>2018-09-15T11:19:50.000Z</time>
      </trkpt>
      <trkpt lat="46.29826" lon="6.50909">
        <ele>1083.1</ele>
        <time>2018-09-15T11:19:55.000Z</time>
      </trkpt>
      <trkpt lat="46.29816" lon="6.50914">
        <ele>1086.87</ele>
        <time>2018-09-15T11:20:00.000Z</time>
      </trkpt>
      <trkpt lat="46.29805" lon="6.50919">
        <ele>1088.9</ele>
        <time>2018-09-15T11:20:05.000Z</time>
      </trkpt>
      <trkpt lat="46.29796" lon="6.50924">
        <ele>1089.91</ele>
        <time>2018-09-15T11:20:10.000Z</time>
      </trkpt>
      <trkpt lat="46.29785" lon="6.50929">
        <ele>1089.92</ele>
        <time>2018-09-15T11:20:15.000Z</time>
      </trkpt>
      <trkpt lat="46.29775" lon="6.50935">
        <ele>1091.14</ele>
        <time>2018-09-15T11:20:20.000Z</time>
      </trkpt>
      <trkpt lat="46.29766" lon="6.50944">
        <ele>1093.09</ele>
        <time>2018-09-15T11:20:25.000Z</time>
      </trkpt>
      <trkpt lat="46.29756" lon="6.50951">
        <ele>1095.09</ele>
        <time>2018-09-15T11:20:30.000Z</time>
      </trkpt>
      <trkpt lat="46.29745" lon="6.50955">
        <ele>1096.14</ele>
        <time>2018-09-15T11:20:35.000Z</time>
      </trkpt>
      <trkpt lat="46.29734" lon="6.50958">
        <ele>1065.28</ele>
        <time>2018-09-15T11:20:40.000Z</time>
      </trkpt>
      <trkpt lat="46.29725" lon="6.50959">
        <ele>1089.69</ele>
        <time>2018-09-15T11:20:45.000Z</time>
      </trkpt>
      <trkpt lat="46.29714" lon="6.50961">
        <ele>1094.89</ele>
        <time>2018-09-15T11:20:50.000Z</time>
      </trkpt>
      <trkpt lat="46.29703" lon="6.50964">
        <ele>1097.84</ele>
        <time>2018-09-15T11:20:55.000Z</time>
      </trkpt>
      <trkpt lat="46.29693" lon="6.50965">
        <ele>1099.89</ele>
        <time>2018-09-15T11:21:00.000Z</time>
      </trkpt>
      <trkpt lat="46.29681" lon="6.50967">
        <ele>1101.94</ele>
        <time>2018-09-15T11:21:05.000Z</time>
      </trkpt>
      <trkpt lat="46.29671" lon="6.50967">
        <ele>1103.15</ele>
        <time>2018-09-15T11:21:10.000Z</time>
      </trkpt>
      <trkpt lat="46.29661" lon="6.50967">
        <ele>1105.14</ele>
        <time>2018-09-15T11:21:15.000Z</time>
      </trkpt>
      <trkpt lat="46.29649" lon="6.50969">
        <ele>1107.14</ele>
        <time>2018-09-15T11:21:20.000Z</time>
      </trkpt>
      <trkpt lat="46.29638" lon="6.50968">
        <ele>1107.16</ele>
        <time>2018-09-15T11:21:25.000Z</time>
      </trkpt>
      <trkpt lat="46.29626" lon="6.5097">
        <ele>1108.15</ele>
        <time>2018-09-15T11:21:30.000Z</time>
      </trkpt>
      <trkpt lat="46.29616" lon="6.5097">
        <ele>1108.2</ele>
        <time>2018-09-15T11:21:35.000Z</time>
      </trkpt>
      <trkpt lat="46.29606" lon="6.50971">
        <ele>1109.9</ele>
        <time>2018-09-15T11:21:40.000Z</time>
      </trkpt>
      <trkpt lat="46.29594" lon="6.50971">
        <ele>1110.91</ele>
        <time>2018-09-15T11:21:45.000Z</time>
      </trkpt>
      <trkpt lat="46.29583" lon="6.50973">
        <ele>1111.16</ele>
        <time>2018-09-15T11:21:50.000Z</time>
      </trkpt>
      <trkpt lat="46.29572" lon="6.50972">
        <ele>1111.91</ele>
        <time>2018-09-15T11:21:55.000Z</time>
      </trkpt>
      <trkpt lat="46.29561" lon="6.50972">
        <ele>1112.91</ele>
        <time>2018-09-15T11:22:00.000Z</time>
      </trkpt>
      <trkpt lat="46.2955" lon="6.50971">
        <ele>1114.14</ele>
        <time>2018-09-15T11:22:05.000Z</time>
      </trkpt>
      <trkpt lat="46.29539" lon="6.50969">
        <ele>1115.15</ele>
        <time>2018-09-15T11:22:10.000Z</time>
      </trkpt>
      <trkpt lat="46.29528" lon="6.50966">
        <ele>1115.16</ele>
        <time>2018-09-15T11:22:15.000Z</time>
      </trkpt>
      <trkpt lat="46.29517" lon="6.50963">
        <ele>1115.16</ele>
        <time>2018-09-15T11:22:20.000Z</time>
      </trkpt>
      <trkpt lat="46.29505" lon="6.50959">
        <ele>1116.15</ele>
        <time>2018-09-15T11:22:25.000Z</time>
      </trkpt>
      <trkpt lat="46.29494" lon="6.50955">
        <ele>1116.96</ele>
        <time>2018-09-15T11:22:30.000Z</time>
      </trkpt>
      <trkpt lat="46.29484" lon="6.50949">
        <ele>1118.16</ele>
        <time>2018-09-15T11:22:35.000Z</time>
      </trkpt>
      <trkpt lat="46.29472" lon="6.50944">
        <ele>1118.91</ele>
        <time>2018-09-15T11:22:40.000Z</time>
      </trkpt>
      <trkpt lat="46.29461" lon="6.50939">
        <ele>1120.11</ele>
        <time>2018-09-15T11:22:45.000Z</time>
      </trkpt>
      <trkpt lat="46.29451" lon="6.50929">
        <ele>1120.16</ele>
        <time>2018-09-15T11:22:50.000Z</time>
      </trkpt>
      <trkpt lat="46.29442" lon="6.5092">
        <ele>1119.24</ele>
        <time>2018-09-15T11:22:55.000Z</time>
      </trkpt>
      <trkpt lat="46.29434" lon="6.50911">
        <ele>1119.91</ele>
        <time>2018-09-15T11:23:00.000Z</time>
      </trkpt>
      <trkpt lat="46.2943" lon="6.50899">
        <ele>1121.16</ele>
        <time>2018-09-15T11:23:05.000Z</time>
      </trkpt>
      <trkpt lat="46.29425" lon="6.50885">
        <ele>1120.16</ele>
        <time>2018-09-15T11:23:10.000Z</time>
      </trkpt>
      <trkpt lat="46.29428" lon="6.50867">
        <ele>1120.16</ele>
        <time>2018-09-15T11:23:15.000Z</time>
      </trkpt>
      <trkpt lat="46.29455" lon="6.50844">
        <ele>1094.03</ele>
        <time>2018-09-15T11:25:18.650Z</time>
      </trkpt>
      <trkpt lat="46.29425" lon="6.50865">
        <ele>1119.47</ele>
        <time>2018-09-15T11:25:23.000Z</time>
      </trkpt>
      <trkpt lat="46.2942" lon="6.50877">
        <ele>1123.17</ele>
        <time>2018-09-15T11:31:12.000Z</time>
      </trkpt>
      <trkpt lat="46.29411" lon="6.50864">
        <ele>1123.91</ele>
        <time>2018-09-15T11:31:17.000Z</time>
      </trkpt>
      <trkpt lat="46.29401" lon="6.5085">
        <ele>1124.91</ele>
        <time>2018-09-15T11:31:22.000Z</time>
      </trkpt>
      <trkpt lat="46.29391" lon="6.50839">
        <ele>1125.21</ele>
        <time>2018-09-15T11:31:27.000Z</time>
      </trkpt>
      <trkpt lat="46.29378" lon="6.50832">
        <ele>1126.91</ele>
        <time>2018-09-15T11:31:32.000Z</time>
      </trkpt>
      <trkpt lat="46.29365" lon="6.50827">
        <ele>1127.16</ele>
        <time>2018-09-15T11:31:37.000Z</time>
      </trkpt>
      <trkpt lat="46.29353" lon="6.50825">
        <ele>1127.16</ele>
        <time>2018-09-15T11:31:42.000Z</time>
      </trkpt>
      <trkpt lat="46.29342" lon="6.50824">
        <ele>1128.96</ele>
        <time>2018-09-15T11:31:47.000Z</time>
      </trkpt>
      <trkpt lat="46.2933" lon="6.50825">
        <ele>1128.21</ele>
        <time>2018-09-15T11:31:52.000Z</time>
      </trkpt>
      <trkpt lat="46.2932" lon="6.50828">
        <ele>1129.16</ele>
        <time>2018-09-15T11:31:57.000Z</time>
      </trkpt>
      <trkpt lat="46.29309" lon="6.50828">
        <ele>1130.16</ele>
        <time>2018-09-15T11:32:02.000Z</time>
      </trkpt>
      <trkpt lat="46.29299" lon="6.50819">
        <ele>1131.89</ele>
        <time>2018-09-15T11:32:07.000Z</time>
      </trkpt>
      <trkpt lat="46.29295" lon="6.50805">
        <ele>1133.1</ele>
        <time>2018-09-15T11:32:12.000Z</time>
      </trkpt>
      <trkpt lat="46.2929" lon="6.5079">
        <ele>1133.16</ele>
        <time>2018-09-15T11:32:17.000Z</time>
      </trkpt>
      <trkpt lat="46.29287" lon="6.50775">
        <ele>1135.1</ele>
        <time>2018-09-15T11:32:22.000Z</time>
      </trkpt>
      <trkpt lat="46.29282" lon="6.5076">
        <ele>1136.91</ele>
        <time>2018-09-15T11:32:27.000Z</time>
      </trkpt>
      <trkpt lat="46.29274" lon="6.50744">
        <ele>1138.1</ele>
        <time>2018-09-15T11:32:32.000Z</time>
      </trkpt>
      <trkpt lat="46.29264" lon="6.5073">
        <ele>1139.89</ele>
        <time>2018-09-15T11:32:37.000Z</time>
      </trkpt>
      <trkpt lat="46.29252" lon="6.50716">
        <ele>1140.22</ele>
        <time>2018-09-15T11:32:42.000Z</time>
      </trkpt>
      <trkpt lat="46.2924" lon="6.50704">
        <ele>1141.16</ele>
        <time>2018-09-15T11:32:47.000Z</time>
      </trkpt>
      <trkpt lat="46.2923" lon="6.5069">
        <ele>1143.2</ele>
        <time>2018-09-15T11:32:52.000Z</time>
      </trkpt>
      <trkpt lat="46.29221" lon="6.50675">
        <ele>1143.16</ele>
        <time>2018-09-15T11:32:57.000Z</time>
      </trkpt>
      <trkpt lat="46.29213" lon="6.50659">
        <ele>1145.1</ele>
        <time>2018-09-15T11:33:02.000Z</time>
      </trkpt>
      <trkpt lat="46.29201" lon="6.50643">
        <ele>1145.16</ele>
        <time>2018-09-15T11:33:07.000Z</time>
      </trkpt>
      <trkpt lat="46.29186" lon="6.50629">
        <ele>1145.91</ele>
        <time>2018-09-15T11:33:12.000Z</time>
      </trkpt>
      <trkpt lat="46.29172" lon="6.50615">
        <ele>1147.1</ele>
        <time>2018-09-15T11:33:17.000Z</time>
      </trkpt>
      <trkpt lat="46.29157" lon="6.50602">
        <ele>1147.16</ele>
        <time>2018-09-15T11:33:22.000Z</time>
      </trkpt>
      <trkpt lat="46.29143" lon="6.50591">
        <ele>1148.91</ele>
        <time>2018-09-15T11:33:27.000Z</time>
      </trkpt>
      <trkpt lat="46.29127" lon="6.50577">
        <ele>1149.16</ele>
        <time>2018-09-15T11:33:32.000Z</time>
      </trkpt>
      <trkpt lat="46.29109" lon="6.50561">
        <ele>1148.12</ele>
        <time>2018-09-15T11:33:37.000Z</time>
      </trkpt>
      <trkpt lat="46.29093" lon="6.50544">
        <ele>1150.14</ele>
        <time>2018-09-15T11:33:42.000Z</time>
      </trkpt>
      <trkpt lat="46.29079" lon="6.50529">
        <ele>1151.1</ele>
        <time>2018-09-15T11:33:47.000Z</time>
      </trkpt>
      <trkpt lat="46.29068" lon="6.50517">
        <ele>1152.91</ele>
        <time>2018-09-15T11:33:52.000Z</time>
      </trkpt>
      <trkpt lat="46.29056" lon="6.50508">
        <ele>1153.16</ele>
        <time>2018-09-15T11:33:57.000Z</time>
      </trkpt>
      <trkpt lat="46.29045" lon="6.50502">
        <ele>1153.91</ele>
        <time>2018-09-15T11:34:02.000Z</time>
      </trkpt>
      <trkpt lat="46.29032" lon="6.50497">
        <ele>1155.15</ele>
        <time>2018-09-15T11:34:07.000Z</time>
      </trkpt>
      <trkpt lat="46.29022" lon="6.5049">
        <ele>1155.91</ele>
        <time>2018-09-15T11:34:12.000Z</time>
      </trkpt>
      <trkpt lat="46.29012" lon="6.50481">
        <ele>1156.4</ele>
        <time>2018-09-15T11:34:17.000Z</time>
      </trkpt>
      <trkpt lat="46.29002" lon="6.50474">
        <ele>1157.16</ele>
        <time>2018-09-15T11:34:22.000Z</time>
      </trkpt>
      <trkpt lat="46.28992" lon="6.50467">
        <ele>1157.97</ele>
        <time>2018-09-15T11:34:27.000Z</time>
      </trkpt>
      <trkpt lat="46.28982" lon="6.50461">
        <ele>1158.16</ele>
        <time>2018-09-15T11:34:32.000Z</time>
      </trkpt>
      <trkpt lat="46.28971" lon="6.50454">
        <ele>1159.1</ele>
        <time>2018-09-15T11:34:38.000Z</time>
      </trkpt>
      <trkpt lat="46.28962" lon="6.50448">
        <ele>1159.35</ele>
        <time>2018-09-15T11:34:44.000Z</time>
      </trkpt>
      <trkpt lat="46.28951" lon="6.50444">
        <ele>1160.1</ele>
        <time>2018-09-15T11:34:49.000Z</time>
      </trkpt>
      <trkpt lat="46.28941" lon="6.5044">
        <ele>1161.16</ele>
        <time>2018-09-15T11:34:54.000Z</time>
      </trkpt>
      <trkpt lat="46.28931" lon="6.50437">
        <ele>1161.1</ele>
        <time>2018-09-15T11:34:59.000Z</time>
      </trkpt>
      <trkpt lat="46.28919" lon="6.50432">
        <ele>1155.6</ele>
        <time>2018-09-15T11:35:04.000Z</time>
      </trkpt>
      <trkpt lat="46.28907" lon="6.50427">
        <ele>1163.07</ele>
        <time>2018-09-15T11:35:09.000Z</time>
      </trkpt>
      <trkpt lat="46.28896" lon="6.50422">
        <ele>1165.1</ele>
        <time>2018-09-15T11:35:14.000Z</time>
      </trkpt>
      <trkpt lat="46.28886" lon="6.5042">
        <ele>1167.91</ele>
        <time>2018-09-15T11:35:19.000Z</time>
      </trkpt>
      <trkpt lat="46.28873" lon="6.50421">
        <ele>1168.15</ele>
        <time>2018-09-15T11:35:24.000Z</time>
      </trkpt>
      <trkpt lat="46.28862" lon="6.50423">
        <ele>1169.91</ele>
        <time>2018-09-15T11:35:29.000Z</time>
      </trkpt>
      <trkpt lat="46.2885" lon="6.50425">
        <ele>1170.16</ele>
        <time>2018-09-15T11:35:34.000Z</time>
      </trkpt>
      <trkpt lat="46.28839" lon="6.50423">
        <ele>1171.16</ele>
        <time>2018-09-15T11:35:39.000Z</time>
      </trkpt>
      <trkpt lat="46.28827" lon="6.50416">
        <ele>1173.1</ele>
        <time>2018-09-15T11:35:44.000Z</time>
      </trkpt>
      <trkpt lat="46.2882" lon="6.50403">
        <ele>1173.4</ele>
        <time>2018-09-15T11:35:49.000Z</time>
      </trkpt>
      <trkpt lat="46.28808" lon="6.50376">
        <ele>1172.41</ele>
        <time>2018-09-15T11:35:54.000Z</time>
      </trkpt>
      <trkpt lat="46.28776" lon="6.5036">
        <ele>1170.49</ele>
        <time>2018-09-15T11:35:59.000Z</time>
      </trkpt>
      <trkpt lat="46.28729" lon="6.50372">
        <ele>1165.25</ele>
        <time>2018-09-15T11:36:04.000Z</time>
      </trkpt>
      <trkpt lat="46.28687" lon="6.5039">
        <ele>1162</ele>
        <time>2018-09-15T11:36:09.000Z</time>
      </trkpt>
      <trkpt lat="46.28668" lon="6.5038">
        <ele>1156.56</ele>
        <time>2018-09-15T11:36:14.000Z</time>
      </trkpt>
      <trkpt lat="46.28647" lon="6.5033">
        <ele>1152.48</ele>
        <time>2018-09-15T11:36:19.000Z</time>
      </trkpt>
      <trkpt lat="46.28599" lon="6.50286">
        <ele>1145.56</ele>
        <time>2018-09-15T11:36:24.000Z</time>
      </trkpt>
      <trkpt lat="46.28541" lon="6.50248">
        <ele>1142.38</ele>
        <time>2018-09-15T11:36:29.000Z</time>
      </trkpt>
      <trkpt lat="46.28477" lon="6.50203">
        <ele>1141.64</ele>
        <time>2018-09-15T11:36:34.000Z</time>
      </trkpt>
      <trkpt lat="46.28423" lon="6.5018">
        <ele>1132.02</ele>
        <time>2018-09-15T11:36:39.000Z</time>
      </trkpt>
      <trkpt lat="46.28388" lon="6.50179">
        <ele>1125.55</ele>
        <time>2018-09-15T11:36:44.000Z</time>
      </trkpt>
      <trkpt lat="46.28379" lon="6.50222">
        <ele>1119.56</ele>
        <time>2018-09-15T11:36:49.000Z</time>
      </trkpt>
      <trkpt lat="46.28408" lon="6.5026">
        <ele>1115.5</ele>
        <time>2018-09-15T11:36:54.000Z</time>
      </trkpt>
      <trkpt lat="46.28442" lon="6.50304">
        <ele>1108.27</ele>
        <time>2018-09-15T11:36:59.000Z</time>
      </trkpt>
      <trkpt lat="46.28445" lon="6.50328">
        <ele>1103.5</ele>
        <time>2018-09-15T11:37:04.000Z</time>
      </trkpt>
      <trkpt lat="46.2841" lon="6.50332">
        <ele>1100.23</ele>
        <time>2018-09-15T11:37:09.000Z</time>
      </trkpt>
      <trkpt lat="46.28369" lon="6.50343">
        <ele>1096.43</ele>
        <time>2018-09-15T11:37:14.000Z</time>
      </trkpt>
      <trkpt lat="46.28325" lon="6.50321">
        <ele>1089.55</ele>
        <time>2018-09-15T11:37:19.000Z</time>
      </trkpt>
      <trkpt lat="46.28276" lon="6.50309">
        <ele>1083.56</ele>
        <time>2018-09-15T11:37:24.000Z</time>
      </trkpt>
      <trkpt lat="46.28228" lon="6.50298">
        <ele>1075.51</ele>
        <time>2018-09-15T11:37:29.000Z</time>
      </trkpt>
      <trkpt lat="46.282" lon="6.50297">
        <ele>1072.24</ele>
        <time>2018-09-15T11:37:34.000Z</time>
      </trkpt>
      <trkpt lat="46.28203" lon="6.50353">
        <ele>1069.25</ele>
        <time>2018-09-15T11:37:39.000Z</time>
      </trkpt>
      <trkpt lat="46.28207" lon="6.50419">
        <ele>1063.69</ele>
        <time>2018-09-15T11:37:44.000Z</time>
      </trkpt>
      <trkpt lat="46.28209" lon="6.50476">
        <ele>1058.5</ele>
        <time>2018-09-15T11:37:49.000Z</time>
      </trkpt>
      <trkpt lat="46.28214" lon="6.50507">
        <ele>1055.48</ele>
        <time>2018-09-15T11:37:54.000Z</time>
      </trkpt>
      <trkpt lat="46.28187" lon="6.50482">
        <ele>1051.44</ele>
        <time>2018-09-15T11:37:59.000Z</time>
      </trkpt>
      <trkpt lat="46.28145" lon="6.50446">
        <ele>1046.3</ele>
        <time>2018-09-15T11:38:04.000Z</time>
      </trkpt>
      <trkpt lat="46.28091" lon="6.50434">
        <ele>1039.56</ele>
        <time>2018-09-15T11:38:09.000Z</time>
      </trkpt>
      <trkpt lat="46.28046" lon="6.50406">
        <ele>1034.19</ele>
        <time>2018-09-15T11:38:14.000Z</time>
      </trkpt>
      <trkpt lat="46.27996" lon="6.50364">
        <ele>1030.48</ele>
        <time>2018-09-15T11:38:19.000Z</time>
      </trkpt>
      <trkpt lat="46.2794" lon="6.50336">
        <ele>1026.49</ele>
        <time>2018-09-15T11:38:24.000Z</time>
      </trkpt>
      <trkpt lat="46.2789" lon="6.5032">
        <ele>1025.19</ele>
        <time>2018-09-15T11:38:29.000Z</time>
      </trkpt>
      <trkpt lat="46.2786" lon="6.5035">
        <ele>1023.23</ele>
        <time>2018-09-15T11:38:34.000Z</time>
      </trkpt>
      <trkpt lat="46.27835" lon="6.50395">
        <ele>1021.44</ele>
        <time>2018-09-15T11:38:39.000Z</time>
      </trkpt>
      <trkpt lat="46.27799" lon="6.50431">
        <ele>1019</ele>
        <time>2018-09-15T11:38:44.000Z</time>
      </trkpt>
      <trkpt lat="46.27758" lon="6.50459">
        <ele>1018.23</ele>
        <time>2018-09-15T11:38:49.000Z</time>
      </trkpt>
      <trkpt lat="46.27712" lon="6.50474">
        <ele>1017.17</ele>
        <time>2018-09-15T11:38:54.000Z</time>
      </trkpt>
      <trkpt lat="46.27666" lon="6.50476">
        <ele>1015.23</ele>
        <time>2018-09-15T11:38:59.000Z</time>
      </trkpt>
      <trkpt lat="46.27623" lon="6.50457">
        <ele>1013.19</ele>
        <time>2018-09-15T11:39:04.000Z</time>
      </trkpt>
      <trkpt lat="46.27593" lon="6.50417">
        <ele>1012.18</ele>
        <time>2018-09-15T11:39:09.000Z</time>
      </trkpt>
      <trkpt lat="46.27576" lon="6.50379">
        <ele>1011.42</ele>
        <time>2018-09-15T11:39:14.000Z</time>
      </trkpt>
      <trkpt lat="46.27575" lon="6.50355">
        <ele>1011.17</ele>
        <time>2018-09-15T11:39:19.000Z</time>
      </trkpt>
      <trkpt lat="46.27577" lon="6.5034">
        <ele>1012.92</ele>
        <time>2018-09-15T11:39:24.000Z</time>
      </trkpt>
      <trkpt lat="46.27576" lon="6.50324">
        <ele>1013.17</ele>
        <time>2018-09-15T11:39:29.000Z</time>
      </trkpt>
      <trkpt lat="46.27569" lon="6.5031">
        <ele>1014.91</ele>
        <time>2018-09-15T11:39:34.000Z</time>
      </trkpt>
      <trkpt lat="46.27564" lon="6.50294">
        <ele>1016.17</ele>
        <time>2018-09-15T11:39:39.000Z</time>
      </trkpt>
      <trkpt lat="46.27561" lon="6.50281">
        <ele>1017.92</ele>
        <time>2018-09-15T11:39:44.000Z</time>
      </trkpt>
      <trkpt lat="46.27557" lon="6.50267">
        <ele>1017.17</ele>
        <time>2018-09-15T11:39:49.000Z</time>
      </trkpt>
      <trkpt lat="46.27552" lon="6.50255">
        <ele>1018.16</ele>
        <time>2018-09-15T11:39:54.000Z</time>
      </trkpt>
      <trkpt lat="46.27547" lon="6.50241">
        <ele>1021.1</ele>
        <time>2018-09-15T11:39:59.000Z</time>
      </trkpt>
      <trkpt lat="46.27542" lon="6.50227">
        <ele>1022.17</ele>
        <time>2018-09-15T11:40:04.000Z</time>
      </trkpt>
      <trkpt lat="46.27538" lon="6.50214">
        <ele>1021.42</ele>
        <time>2018-09-15T11:40:09.000Z</time>
      </trkpt>
      <trkpt lat="46.27532" lon="6.50202">
        <ele>1023.16</ele>
        <time>2018-09-15T11:40:15.000Z</time>
      </trkpt>
      <trkpt lat="46.27524" lon="6.50193">
        <ele>1024.92</ele>
        <time>2018-09-15T11:40:20.000Z</time>
      </trkpt>
      <trkpt lat="46.27517" lon="6.50185">
        <ele>1025.92</ele>
        <time>2018-09-15T11:40:25.000Z</time>
      </trkpt>
      <trkpt lat="46.27507" lon="6.50179">
        <ele>1027.11</ele>
        <time>2018-09-15T11:40:30.000Z</time>
      </trkpt>
      <trkpt lat="46.27496" lon="6.50174">
        <ele>1027.17</ele>
        <time>2018-09-15T11:40:35.000Z</time>
      </trkpt>
      <trkpt lat="46.27487" lon="6.50171">
        <ele>1030.09</ele>
        <time>2018-09-15T11:40:40.000Z</time>
      </trkpt>
      <trkpt lat="46.27477" lon="6.50169">
        <ele>1031.11</ele>
        <time>2018-09-15T11:40:45.000Z</time>
      </trkpt>
      <trkpt lat="46.27467" lon="6.50164">
        <ele>1031.17</ele>
        <time>2018-09-15T11:40:50.000Z</time>
      </trkpt>
      <trkpt lat="46.27457" lon="6.50159">
        <ele>1032.92</ele>
        <time>2018-09-15T11:40:55.000Z</time>
      </trkpt>
      <trkpt lat="46.27447" lon="6.50154">
        <ele>1033.17</ele>
        <time>2018-09-15T11:41:00.000Z</time>
      </trkpt>
      <trkpt lat="46.27436" lon="6.50149">
        <ele>1033.92</ele>
        <time>2018-09-15T11:41:05.000Z</time>
      </trkpt>
      <trkpt lat="46.27427" lon="6.50142">
        <ele>1034.97</ele>
        <time>2018-09-15T11:41:10.000Z</time>
      </trkpt>
      <trkpt lat="46.27417" lon="6.50139">
        <ele>1036.92</ele>
        <time>2018-09-15T11:41:15.000Z</time>
      </trkpt>
      <trkpt lat="46.27407" lon="6.50136">
        <ele>1037.17</ele>
        <time>2018-09-15T11:41:20.000Z</time>
      </trkpt>
      <trkpt lat="46.27397" lon="6.50133">
        <ele>1038.17</ele>
        <time>2018-09-15T11:41:25.000Z</time>
      </trkpt>
      <trkpt lat="46.27386" lon="6.50131">
        <ele>1039.17</ele>
        <time>2018-09-15T11:41:30.000Z</time>
      </trkpt>
      <trkpt lat="46.27375" lon="6.50129">
        <ele>1040.16</ele>
        <time>2018-09-15T11:41:35.000Z</time>
      </trkpt>
      <trkpt lat="46.27364" lon="6.50128">
        <ele>1040.92</ele>
        <time>2018-09-15T11:41:40.000Z</time>
      </trkpt>
      <trkpt lat="46.27354" lon="6.50128">
        <ele>1041.11</ele>
        <time>2018-09-15T11:41:45.000Z</time>
      </trkpt>
      <trkpt lat="46.27344" lon="6.50128">
        <ele>1042.11</ele>
        <time>2018-09-15T11:41:50.000Z</time>
      </trkpt>
      <trkpt lat="46.27334" lon="6.50126">
        <ele>1042.16</ele>
        <time>2018-09-15T11:41:55.000Z</time>
      </trkpt>
      <trkpt lat="46.27325" lon="6.5012">
        <ele>1043.17</ele>
        <time>2018-09-15T11:42:00.000Z</time>
      </trkpt>
      <trkpt lat="46.27315" lon="6.50114">
        <ele>1044.17</ele>
        <time>2018-09-15T11:42:05.000Z</time>
      </trkpt>
      <trkpt lat="46.27306" lon="6.50108">
        <ele>1046.11</ele>
        <time>2018-09-15T11:42:10.000Z</time>
      </trkpt>
      <trkpt lat="46.27296" lon="6.50104">
        <ele>1047.17</ele>
        <time>2018-09-15T11:42:16.000Z</time>
      </trkpt>
      <trkpt lat="46.27285" lon="6.50106">
        <ele>1048.11</ele>
        <time>2018-09-15T11:42:21.000Z</time>
      </trkpt>
      <trkpt lat="46.27276" lon="6.50113">
        <ele>1049.11</ele>
        <time>2018-09-15T11:42:26.000Z</time>
      </trkpt>
      <trkpt lat="46.27268" lon="6.50121">
        <ele>1050.16</ele>
        <time>2018-09-15T11:42:31.000Z</time>
      </trkpt>
      <trkpt lat="46.2726" lon="6.50128">
        <ele>1052.11</ele>
        <time>2018-09-15T11:42:36.000Z</time>
      </trkpt>
      <trkpt lat="46.27253" lon="6.50137">
        <ele>1054.11</ele>
        <time>2018-09-15T11:42:41.000Z</time>
      </trkpt>
      <trkpt lat="46.27243" lon="6.50145">
        <ele>1055.97</ele>
        <time>2018-09-15T11:42:46.000Z</time>
      </trkpt>
      <trkpt lat="46.27233" lon="6.50149">
        <ele>1057.16</ele>
        <time>2018-09-15T11:42:51.000Z</time>
      </trkpt>
      <trkpt lat="46.27223" lon="6.50152">
        <ele>1058.11</ele>
        <time>2018-09-15T11:42:56.000Z</time>
      </trkpt>
      <trkpt lat="46.27214" lon="6.50151">
        <ele>1058.97</ele>
        <time>2018-09-15T11:43:01.000Z</time>
      </trkpt>
      <trkpt lat="46.27204" lon="6.50146">
        <ele>1059.92</ele>
        <time>2018-09-15T11:43:06.000Z</time>
      </trkpt>
      <trkpt lat="46.27196" lon="6.5014">
        <ele>1060.19</ele>
        <time>2018-09-15T11:43:11.000Z</time>
      </trkpt>
      <trkpt lat="46.27187" lon="6.50133">
        <ele>1061.17</ele>
        <time>2018-09-15T11:43:16.000Z</time>
      </trkpt>
      <trkpt lat="46.2718" lon="6.50123">
        <ele>1061.17</ele>
        <time>2018-09-15T11:43:21.000Z</time>
      </trkpt>
      <trkpt lat="46.27174" lon="6.50112">
        <ele>1062.17</ele>
        <time>2018-09-15T11:43:26.000Z</time>
      </trkpt>
      <trkpt lat="46.27169" lon="6.50099">
        <ele>1062.18</ele>
        <time>2018-09-15T11:43:31.000Z</time>
      </trkpt>
      <trkpt lat="46.27167" lon="6.50086">
        <ele>1063.22</ele>
        <time>2018-09-15T11:43:36.000Z</time>
      </trkpt>
      <trkpt lat="46.27166" lon="6.50072">
        <ele>1064.92</ele>
        <time>2018-09-15T11:43:41.000Z</time>
      </trkpt>
      <trkpt lat="46.27163" lon="6.50059">
        <ele>1066.36</ele>
        <time>2018-09-15T11:43:46.000Z</time>
      </trkpt>
      <trkpt lat="46.2716" lon="6.50046">
        <ele>1067.98</ele>
        <time>2018-09-15T11:43:51.000Z</time>
      </trkpt>
      <trkpt lat="46.27154" lon="6.50035">
        <ele>1067.43</ele>
        <time>2018-09-15T11:43:56.000Z</time>
      </trkpt>
      <trkpt lat="46.27148" lon="6.50025">
        <ele>1067.18</ele>
        <time>2018-09-15T11:44:01.000Z</time>
      </trkpt>
      <trkpt lat="46.27142" lon="6.50013">
        <ele>1067.12</ele>
        <time>2018-09-15T11:44:06.000Z</time>
      </trkpt>
      <trkpt lat="46.27138" lon="6.50001">
        <ele>1068.1</ele>
        <time>2018-09-15T11:44:11.000Z</time>
      </trkpt>
      <trkpt lat="46.27133" lon="6.4999">
        <ele>1070.16</ele>
        <time>2018-09-15T11:44:16.000Z</time>
      </trkpt>
      <trkpt lat="46.2713" lon="6.49977">
        <ele>1073.1</ele>
        <time>2018-09-15T11:44:22.000Z</time>
      </trkpt>
      <trkpt lat="46.27128" lon="6.49965">
        <ele>1074.17</ele>
        <time>2018-09-15T11:44:27.000Z</time>
      </trkpt>
      <trkpt lat="46.27126" lon="6.49951">
        <ele>1076.16</ele>
        <time>2018-09-15T11:44:32.000Z</time>
      </trkpt>
      <trkpt lat="46.27124" lon="6.49938">
        <ele>1078.16</ele>
        <time>2018-09-15T11:44:37.000Z</time>
      </trkpt>
      <trkpt lat="46.27122" lon="6.49925">
        <ele>1079.1</ele>
        <time>2018-09-15T11:44:42.000Z</time>
      </trkpt>
      <trkpt lat="46.27119" lon="6.49911">
        <ele>1081.11</ele>
        <time>2018-09-15T11:44:47.000Z</time>
      </trkpt>
      <trkpt lat="46.27119" lon="6.49897">
        <ele>1084.86</ele>
        <time>2018-09-15T11:44:53.000Z</time>
      </trkpt>
      <trkpt lat="46.27119" lon="6.49883">
        <ele>1084.24</ele>
        <time>2018-09-15T11:44:58.000Z</time>
      </trkpt>
      <trkpt lat="46.27124" lon="6.49872">
        <ele>1085.16</ele>
        <time>2018-09-15T11:45:03.000Z</time>
      </trkpt>
      <trkpt lat="46.27134" lon="6.49865">
        <ele>1085.18</ele>
        <time>2018-09-15T11:45:09.000Z</time>
      </trkpt>
      <trkpt lat="46.27143" lon="6.49864">
        <ele>1085.36</ele>
        <time>2018-09-15T11:45:14.000Z</time>
      </trkpt>
      <trkpt lat="46.27153" lon="6.49864">
        <ele>1084.43</ele>
        <time>2018-09-15T11:45:20.000Z</time>
      </trkpt>
      <trkpt lat="46.27164" lon="6.49867">
        <ele>1084.18</ele>
        <time>2018-09-15T11:45:25.000Z</time>
      </trkpt>
      <trkpt lat="46.27175" lon="6.49871">
        <ele>1084.17</ele>
        <time>2018-09-15T11:45:30.000Z</time>
      </trkpt>
      <trkpt lat="46.27186" lon="6.49876">
        <ele>1085.86</ele>
        <time>2018-09-15T11:45:35.000Z</time>
      </trkpt>
      <trkpt lat="46.27196" lon="6.49877">
        <ele>1086.17</ele>
        <time>2018-09-15T11:45:40.000Z</time>
      </trkpt>
      <trkpt lat="46.27207" lon="6.49873">
        <ele>1086.17</ele>
        <time>2018-09-15T11:45:45.000Z</time>
      </trkpt>
      <trkpt lat="46.27216" lon="6.49864">
        <ele>1087.16</ele>
        <time>2018-09-15T11:45:50.000Z</time>
      </trkpt>
      <trkpt lat="46.27225" lon="6.49855">
        <ele>1089.86</ele>
        <time>2018-09-15T11:45:55.000Z</time>
      </trkpt>
      <trkpt lat="46.27236" lon="6.49849">
        <ele>1090.17</ele>
        <time>2018-09-15T11:46:00.000Z</time>
      </trkpt>
      <trkpt lat="46.27246" lon="6.4985">
        <ele>1091.16</ele>
        <time>2018-09-15T11:46:05.000Z</time>
      </trkpt>
      <trkpt lat="46.27257" lon="6.49851">
        <ele>1091.17</ele>
        <time>2018-09-15T11:46:10.000Z</time>
      </trkpt>
      <trkpt lat="46.27268" lon="6.49854">
        <ele>1090.42</ele>
        <time>2018-09-15T11:46:15.000Z</time>
      </trkpt>
      <trkpt lat="46.27278" lon="6.49857">
        <ele>1090.17</ele>
        <time>2018-09-15T11:46:20.000Z</time>
      </trkpt>
      <trkpt lat="46.27288" lon="6.49858">
        <ele>1091.17</ele>
        <time>2018-09-15T11:46:25.000Z</time>
      </trkpt>
      <trkpt lat="46.27298" lon="6.49855">
        <ele>1093.91</ele>
        <time>2018-09-15T11:46:30.000Z</time>
      </trkpt>
      <trkpt lat="46.27306" lon="6.49846">
        <ele>1094.24</ele>
        <time>2018-09-15T11:46:35.000Z</time>
      </trkpt>
      <trkpt lat="46.27312" lon="6.49833">
        <ele>1095.17</ele>
        <time>2018-09-15T11:46:40.000Z</time>
      </trkpt>
      <trkpt lat="46.27316" lon="6.49819">
        <ele>1095.17</ele>
        <time>2018-09-15T11:46:45.000Z</time>
      </trkpt>
      <trkpt lat="46.27316" lon="6.49805">
        <ele>1096.17</ele>
        <time>2018-09-15T11:46:50.000Z</time>
      </trkpt>
      <trkpt lat="46.27312" lon="6.49792">
        <ele>1097.11</ele>
        <time>2018-09-15T11:46:56.000Z</time>
      </trkpt>
      <trkpt lat="46.27305" lon="6.49782">
        <ele>1097.92</ele>
        <time>2018-09-15T11:47:01.000Z</time>
      </trkpt>
      <trkpt lat="46.27298" lon="6.49773">
        <ele>1099.11</ele>
        <time>2018-09-15T11:47:06.000Z</time>
      </trkpt>
      <trkpt lat="46.27288" lon="6.49769">
        <ele>1099.92</ele>
        <time>2018-09-15T11:47:11.000Z</time>
      </trkpt>
      <trkpt lat="46.27279" lon="6.49763">
        <ele>1100.17</ele>
        <time>2018-09-15T11:47:16.000Z</time>
      </trkpt>
      <trkpt lat="46.2727" lon="6.49757">
        <ele>1101.17</ele>
        <time>2018-09-15T11:47:21.000Z</time>
      </trkpt>
      <trkpt lat="46.27262" lon="6.4975">
        <ele>1101.92</ele>
        <time>2018-09-15T11:47:26.000Z</time>
      </trkpt>
      <trkpt lat="46.27254" lon="6.49743">
        <ele>1103.17</ele>
        <time>2018-09-15T11:47:31.000Z</time>
      </trkpt>
      <trkpt lat="46.27246" lon="6.49734">
        <ele>1103.92</ele>
        <time>2018-09-15T11:47:36.000Z</time>
      </trkpt>
      <trkpt lat="46.27236" lon="6.49726">
        <ele>1104.92</ele>
        <time>2018-09-15T11:47:42.000Z</time>
      </trkpt>
      <trkpt lat="46.27227" lon="6.49723">
        <ele>1105.92</ele>
        <time>2018-09-15T11:47:47.000Z</time>
      </trkpt>
      <trkpt lat="46.27217" lon="6.49722">
        <ele>1106.17</ele>
        <time>2018-09-15T11:47:52.000Z</time>
      </trkpt>
      <trkpt lat="46.27208" lon="6.49722">
        <ele>1107.17</ele>
        <time>2018-09-15T11:47:57.000Z</time>
      </trkpt>
      <trkpt lat="46.27199" lon="6.49723">
        <ele>1109.11</ele>
        <time>2018-09-15T11:48:02.000Z</time>
      </trkpt>
      <trkpt lat="46.27189" lon="6.49722">
        <ele>1109.92</ele>
        <time>2018-09-15T11:48:07.000Z</time>
      </trkpt>
      <trkpt lat="46.2718" lon="6.49719">
        <ele>1111.16</ele>
        <time>2018-09-15T11:48:12.000Z</time>
      </trkpt>
      <trkpt lat="46.2717" lon="6.49715">
        <ele>1111.17</ele>
        <time>2018-09-15T11:48:17.000Z</time>
      </trkpt>
      <trkpt lat="46.27162" lon="6.49709">
        <ele>1112.91</ele>
        <time>2018-09-15T11:48:22.000Z</time>
      </trkpt>
      <trkpt lat="46.27153" lon="6.49704">
        <ele>1112.19</ele>
        <time>2018-09-15T11:48:27.000Z</time>
      </trkpt>
      <trkpt lat="46.27145" lon="6.49698">
        <ele>1113.17</ele>
        <time>2018-09-15T11:48:32.000Z</time>
      </trkpt>
      <trkpt lat="46.27135" lon="6.49691">
        <ele>1114.91</ele>
        <time>2018-09-15T11:48:37.000Z</time>
      </trkpt>
      <trkpt lat="46.27127" lon="6.49682">
        <ele>1116.92</ele>
        <time>2018-09-15T11:48:43.000Z</time>
      </trkpt>
      <trkpt lat="46.27122" lon="6.4967">
        <ele>1118.17</ele>
        <time>2018-09-15T11:48:48.000Z</time>
      </trkpt>
      <trkpt lat="46.27119" lon="6.49656">
        <ele>1119.16</ele>
        <time>2018-09-15T11:48:54.000Z</time>
      </trkpt>
      <trkpt lat="46.2712" lon="6.4964">
        <ele>1121.92</ele>
        <time>2018-09-15T11:49:00.000Z</time>
      </trkpt>
      <trkpt lat="46.27119" lon="6.49624">
        <ele>1122.36</ele>
        <time>2018-09-15T11:49:06.000Z</time>
      </trkpt>
      <trkpt lat="46.27118" lon="6.49609">
        <ele>1124.16</ele>
        <time>2018-09-15T11:49:12.000Z</time>
      </trkpt>
      <trkpt lat="46.27117" lon="6.49596">
        <ele>1125.16</ele>
        <time>2018-09-15T11:49:17.000Z</time>
      </trkpt>
      <trkpt lat="46.27116" lon="6.49582">
        <ele>1125.17</ele>
        <time>2018-09-15T11:49:22.000Z</time>
      </trkpt>
      <trkpt lat="46.27112" lon="6.49569">
        <ele>1125.12</ele>
        <time>2018-09-15T11:49:27.000Z</time>
      </trkpt>
      <trkpt lat="46.27108" lon="6.49557">
        <ele>1126.17</ele>
        <time>2018-09-15T11:49:32.000Z</time>
      </trkpt>
      <trkpt lat="46.27103" lon="6.49546">
        <ele>1127.17</ele>
        <time>2018-09-15T11:49:37.000Z</time>
      </trkpt>
      <trkpt lat="46.27096" lon="6.49536">
        <ele>1127.19</ele>
        <time>2018-09-15T11:49:42.000Z</time>
      </trkpt>
      <trkpt lat="46.27091" lon="6.49526">
        <ele>1128.91</ele>
        <time>2018-09-15T11:49:47.000Z</time>
      </trkpt>
      <trkpt lat="46.27085" lon="6.49515">
        <ele>1130.11</ele>
        <time>2018-09-15T11:49:52.000Z</time>
      </trkpt>
      <trkpt lat="46.27078" lon="6.49505">
        <ele>1130.17</ele>
        <time>2018-09-15T11:49:57.000Z</time>
      </trkpt>
      <trkpt lat="46.27073" lon="6.49495">
        <ele>1132.11</ele>
        <time>2018-09-15T11:50:02.000Z</time>
      </trkpt>
      <trkpt lat="46.27067" lon="6.49485">
        <ele>1133.17</ele>
        <time>2018-09-15T11:50:07.000Z</time>
      </trkpt>
      <trkpt lat="46.27061" lon="6.49474">
        <ele>1133.36</ele>
        <time>2018-09-15T11:50:12.000Z</time>
      </trkpt>
      <trkpt lat="46.27054" lon="6.49462">
        <ele>1134.11</ele>
        <time>2018-09-15T11:50:18.000Z</time>
      </trkpt>
      <trkpt lat="46.27049" lon="6.49452">
        <ele>1135.92</ele>
        <time>2018-09-15T11:50:23.000Z</time>
      </trkpt>
      <trkpt lat="46.27044" lon="6.4944">
        <ele>1136.17</ele>
        <time>2018-09-15T11:50:28.000Z</time>
      </trkpt>
      <trkpt lat="46.27038" lon="6.49427">
        <ele>1137.17</ele>
        <time>2018-09-15T11:50:34.000Z</time>
      </trkpt>
      <trkpt lat="46.27035" lon="6.49414">
        <ele>1138.17</ele>
        <time>2018-09-15T11:50:39.000Z</time>
      </trkpt>
      <trkpt lat="46.27031" lon="6.494">
        <ele>1139.17</ele>
        <time>2018-09-15T11:50:45.000Z</time>
      </trkpt>
      <trkpt lat="46.27026" lon="6.49388">
        <ele>1139.17</ele>
        <time>2018-09-15T11:50:50.000Z</time>
      </trkpt>
      <trkpt lat="46.2702" lon="6.49376">
        <ele>1140.17</ele>
        <time>2018-09-15T11:50:55.000Z</time>
      </trkpt>
      <trkpt lat="46.27014" lon="6.49363">
        <ele>1141.36</ele>
        <time>2018-09-15T11:51:01.000Z</time>
      </trkpt>
      <trkpt lat="46.27007" lon="6.49353">
        <ele>1142.17</ele>
        <time>2018-09-15T11:51:06.000Z</time>
      </trkpt>
      <trkpt lat="46.27" lon="6.49343">
        <ele>1143.36</ele>
        <time>2018-09-15T11:51:11.000Z</time>
      </trkpt>
      <trkpt lat="46.26993" lon="6.49335">
        <ele>1144.17</ele>
        <time>2018-09-15T11:51:16.000Z</time>
      </trkpt>
      <trkpt lat="46.26984" lon="6.49326">
        <ele>1145.92</ele>
        <time>2018-09-15T11:51:22.000Z</time>
      </trkpt>
      <trkpt lat="46.26976" lon="6.49319">
        <ele>1146.92</ele>
        <time>2018-09-15T11:51:27.000Z</time>
      </trkpt>
      <trkpt lat="46.26967" lon="6.4931">
        <ele>1147.13</ele>
        <time>2018-09-15T11:51:33.000Z</time>
      </trkpt>
      <trkpt lat="46.26958" lon="6.49305">
        <ele>1149.1</ele>
        <time>2018-09-15T11:51:38.000Z</time>
      </trkpt>
      <trkpt lat="46.26948" lon="6.493">
        <ele>1149.18</ele>
        <time>2018-09-15T11:51:43.000Z</time>
      </trkpt>
      <trkpt lat="46.26937" lon="6.49288">
        <ele>1151.11</ele>
        <time>2018-09-15T11:51:48.000Z</time>
      </trkpt>
      <trkpt lat="46.26927" lon="6.49281">
        <ele>1153.91</ele>
        <time>2018-09-15T11:51:53.000Z</time>
      </trkpt>
      <trkpt lat="46.26918" lon="6.49273">
        <ele>1154.23</ele>
        <time>2018-09-15T11:51:58.000Z</time>
      </trkpt>
      <trkpt lat="46.26909" lon="6.49264">
        <ele>1156.92</ele>
        <time>2018-09-15T11:52:03.000Z</time>
      </trkpt>
      <trkpt lat="46.269" lon="6.49253">
        <ele>1158.11</ele>
        <time>2018-09-15T11:52:08.000Z</time>
      </trkpt>
      <trkpt lat="46.26891" lon="6.49245">
        <ele>1159.11</ele>
        <time>2018-09-15T11:52:13.000Z</time>
      </trkpt>
      <trkpt lat="46.26882" lon="6.49237">
        <ele>1160.92</ele>
        <time>2018-09-15T11:52:18.000Z</time>
      </trkpt>
      <trkpt lat="46.26872" lon="6.49229">
        <ele>1162.11</ele>
        <time>2018-09-15T11:52:23.000Z</time>
      </trkpt>
      <trkpt lat="46.26862" lon="6.4922">
        <ele>1163.17</ele>
        <time>2018-09-15T11:52:28.000Z</time>
      </trkpt>
      <trkpt lat="46.26854" lon="6.49214">
        <ele>1164.11</ele>
        <time>2018-09-15T11:52:33.000Z</time>
      </trkpt>
      <trkpt lat="46.26845" lon="6.49209">
        <ele>1163.43</ele>
        <time>2018-09-15T11:52:38.000Z</time>
      </trkpt>
      <trkpt lat="46.26836" lon="6.49202">
        <ele>1163.19</ele>
        <time>2018-09-15T11:52:44.000Z</time>
      </trkpt>
      <trkpt lat="46.26826" lon="6.49195">
        <ele>1162.43</ele>
        <time>2018-09-15T11:52:49.000Z</time>
      </trkpt>
      <trkpt lat="46.26807" lon="6.49185">
        <ele>1160.12</ele>
        <time>2018-09-15T11:52:54.000Z</time>
      </trkpt>
      <trkpt lat="46.26781" lon="6.49168">
        <ele>1157.49</ele>
        <time>2018-09-15T11:52:59.000Z</time>
      </trkpt>
      <trkpt lat="46.26747" lon="6.49147">
        <ele>1154.26</ele>
        <time>2018-09-15T11:53:04.000Z</time>
      </trkpt>
      <trkpt lat="46.26705" lon="6.49135">
        <ele>1150.26</ele>
        <time>2018-09-15T11:53:09.000Z</time>
      </trkpt>
      <trkpt lat="46.26664" lon="6.49133">
        <ele>1143.75</ele>
        <time>2018-09-15T11:53:14.000Z</time>
      </trkpt>
      <trkpt lat="46.26651" lon="6.49104">
        <ele>1138.51</ele>
        <time>2018-09-15T11:53:19.000Z</time>
      </trkpt>
      <trkpt lat="46.26664" lon="6.49046">
        <ele>1133.51</ele>
        <time>2018-09-15T11:53:24.000Z</time>
      </trkpt>
      <trkpt lat="46.26646" lon="6.48966">
        <ele>1126.82</ele>
        <time>2018-09-15T11:53:29.000Z</time>
      </trkpt>
      <trkpt lat="46.2661" lon="6.48882">
        <ele>1117.09</ele>
        <time>2018-09-15T11:53:34.000Z</time>
      </trkpt>
      <trkpt lat="46.26565" lon="6.48802">
        <ele>1107.77</ele>
        <time>2018-09-15T11:53:39.000Z</time>
      </trkpt>
      <trkpt lat="46.26529" lon="6.48742">
        <ele>1102.45</ele>
        <time>2018-09-15T11:53:44.000Z</time>
      </trkpt>
      <trkpt lat="46.26494" lon="6.48698">
        <ele>1096.7</ele>
        <time>2018-09-15T11:53:49.000Z</time>
      </trkpt>
      <trkpt lat="46.26462" lon="6.48633">
        <ele>1091.51</ele>
        <time>2018-09-15T11:53:54.000Z</time>
      </trkpt>
      <trkpt lat="46.26426" lon="6.48563">
        <ele>1085.51</ele>
        <time>2018-09-15T11:53:59.000Z</time>
      </trkpt>
      <trkpt lat="46.26383" lon="6.48491">
        <ele>1080.45</ele>
        <time>2018-09-15T11:54:04.000Z</time>
      </trkpt>
      <trkpt lat="46.26343" lon="6.48433">
        <ele>1076.5</ele>
        <time>2018-09-15T11:54:09.000Z</time>
      </trkpt>
      <trkpt lat="46.26305" lon="6.48375">
        <ele>1070.75</ele>
        <time>2018-09-15T11:54:14.000Z</time>
      </trkpt>
      <trkpt lat="46.26268" lon="6.48308">
        <ele>1065.51</ele>
        <time>2018-09-15T11:54:19.000Z</time>
      </trkpt>
      <trkpt lat="46.26226" lon="6.48246">
        <ele>1060.26</ele>
        <time>2018-09-15T11:54:24.000Z</time>
      </trkpt>
      <trkpt lat="46.2617" lon="6.48214">
        <ele>1059.23</ele>
        <time>2018-09-15T11:54:29.000Z</time>
      </trkpt>
      <trkpt lat="46.26128" lon="6.48175">
        <ele>1057.27</ele>
        <time>2018-09-15T11:54:34.000Z</time>
      </trkpt>
      <trkpt lat="46.26095" lon="6.48139">
        <ele>1052.53</ele>
        <time>2018-09-15T11:54:39.000Z</time>
      </trkpt>
      <trkpt lat="46.26069" lon="6.48072">
        <ele>1044.52</ele>
        <time>2018-09-15T11:54:44.000Z</time>
      </trkpt>
      <trkpt lat="46.26035" lon="6.48004">
        <ele>1037.53</ele>
        <time>2018-09-15T11:54:49.000Z</time>
      </trkpt>
      <trkpt lat="46.25985" lon="6.47965">
        <ele>1031.58</ele>
        <time>2018-09-15T11:54:54.000Z</time>
      </trkpt>
      <trkpt lat="46.2596" lon="6.47931">
        <ele>1026.5</ele>
        <time>2018-09-15T11:54:59.000Z</time>
      </trkpt>
      <trkpt lat="46.25944" lon="6.47878">
        <ele>1021.76</ele>
        <time>2018-09-15T11:55:04.000Z</time>
      </trkpt>
      <trkpt lat="46.25943" lon="6.47816">
        <ele>1018.5</ele>
        <time>2018-09-15T11:55:09.000Z</time>
      </trkpt>
      <trkpt lat="46.25922" lon="6.47773">
        <ele>1016.2</ele>
        <time>2018-09-15T11:55:14.000Z</time>
      </trkpt>
      <trkpt lat="46.25894" lon="6.47743">
        <ele>1014.25</ele>
        <time>2018-09-15T11:55:19.000Z</time>
      </trkpt>
      <trkpt lat="46.25894" lon="6.47697">
        <ele>1026.58</ele>
        <time>2018-09-15T11:55:24.000Z</time>
      </trkpt>
      <trkpt lat="46.25905" lon="6.47637">
        <ele>1009.86</ele>
        <time>2018-09-15T11:55:29.000Z</time>
      </trkpt>
      <trkpt lat="46.25912" lon="6.4759">
        <ele>1005.26</ele>
        <time>2018-09-15T11:55:34.000Z</time>
      </trkpt>
      <trkpt lat="46.25918" lon="6.47564">
        <ele>1004.13</ele>
        <time>2018-09-15T11:55:39.000Z</time>
      </trkpt>
      <trkpt lat="46.25908" lon="6.47527">
        <ele>1001.26</ele>
        <time>2018-09-15T11:55:44.000Z</time>
      </trkpt>
      <trkpt lat="46.25902" lon="6.47483">
        <ele>1000.24</ele>
        <time>2018-09-15T11:55:49.000Z</time>
      </trkpt>
      <trkpt lat="46.25893" lon="6.47432">
        <ele>998.49</ele>
        <time>2018-09-15T11:55:54.000Z</time>
      </trkpt>
      <trkpt lat="46.25879" lon="6.47379">
        <ele>996.45</ele>
        <time>2018-09-15T11:55:59.000Z</time>
      </trkpt>
      <trkpt lat="46.25858" lon="6.47325">
        <ele>994.26</ele>
        <time>2018-09-15T11:56:04.000Z</time>
      </trkpt>
      <trkpt lat="46.25837" lon="6.47273">
        <ele>991.51</ele>
        <time>2018-09-15T11:56:09.000Z</time>
      </trkpt>
      <trkpt lat="46.25822" lon="6.47257">
        <ele>990.95</ele>
        <time>2018-09-15T11:56:14.000Z</time>
      </trkpt>
      <trkpt lat="46.25812" lon="6.47277">
        <ele>990.18</ele>
        <time>2018-09-15T11:56:19.000Z</time>
      </trkpt>
      <trkpt lat="46.258" lon="6.47299">
        <ele>991.12</ele>
        <time>2018-09-15T11:56:24.000Z</time>
      </trkpt>
      <trkpt lat="46.25788" lon="6.47325">
        <ele>992.18</ele>
        <time>2018-09-15T11:56:29.000Z</time>
      </trkpt>
      <trkpt lat="46.25775" lon="6.47346">
        <ele>992.13</ele>
        <time>2018-09-15T11:56:34.000Z</time>
      </trkpt>
      <trkpt lat="46.25761" lon="6.4736">
        <ele>994.16</ele>
        <time>2018-09-15T11:56:39.000Z</time>
      </trkpt>
      <trkpt lat="46.25762" lon="6.47374">
        <ele>995.26</ele>
        <time>2018-09-15T11:56:55.000Z</time>
      </trkpt>
      <trkpt lat="46.25769" lon="6.47382">
        <ele>996.37</ele>
        <time>2018-09-15T11:57:17.000Z</time>
      </trkpt>
      <trkpt lat="46.25773" lon="6.47395">
        <ele>999.39</ele>
        <time>2018-09-15T11:57:30.000Z</time>
      </trkpt>
      <trkpt lat="46.25764" lon="6.47392">
        <ele>1003.22</ele>
        <time>2018-09-15T11:58:26.000Z</time>
      </trkpt>
      <trkpt lat="46.25762" lon="6.47377">
        <ele>1001.18</ele>
        <time>2018-09-15T11:58:41.000Z</time>
      </trkpt>
      <trkpt lat="46.25762" lon="6.47363">
        <ele>998.2</ele>
        <time>2018-09-15T11:59:00.000Z</time>
      </trkpt>
      <trkpt lat="46.2577" lon="6.47354">
        <ele>996.18</ele>
        <time>2018-09-15T11:59:05.000Z</time>
      </trkpt>
      <trkpt lat="46.25782" lon="6.47334">
        <ele>994.51</ele>
        <time>2018-09-15T11:59:10.000Z</time>
      </trkpt>
      <trkpt lat="46.25796" lon="6.47313">
        <ele>990.64</ele>
        <time>2018-09-15T11:59:15.000Z</time>
      </trkpt>
      <trkpt lat="46.25809" lon="6.4729">
        <ele>988.95</ele>
        <time>2018-09-15T11:59:20.000Z</time>
      </trkpt>
      <trkpt lat="46.25821" lon="6.47267">
        <ele>988.94</ele>
        <time>2018-09-15T11:59:25.000Z</time>
      </trkpt>
      <trkpt lat="46.25827" lon="6.47257">
        <ele>988.93</ele>
        <time>2018-09-15T11:59:31.000Z</time>
      </trkpt>
      <trkpt lat="46.25825" lon="6.47238">
        <ele>988.43</ele>
        <time>2018-09-15T11:59:36.000Z</time>
      </trkpt>
      <trkpt lat="46.25811" lon="6.47209">
        <ele>985.5</ele>
        <time>2018-09-15T11:59:41.000Z</time>
      </trkpt>
      <trkpt lat="46.25787" lon="6.47176">
        <ele>983.2</ele>
        <time>2018-09-15T11:59:46.000Z</time>
      </trkpt>
      <trkpt lat="46.25755" lon="6.47149">
        <ele>981.43</ele>
        <time>2018-09-15T11:59:51.000Z</time>
      </trkpt>
      <trkpt lat="46.25714" lon="6.47138">
        <ele>979.51</ele>
        <time>2018-09-15T11:59:56.000Z</time>
      </trkpt>
      <trkpt lat="46.25668" lon="6.47143">
        <ele>976.49</ele>
        <time>2018-09-15T12:00:01.000Z</time>
      </trkpt>
      <trkpt lat="46.25619" lon="6.4715">
        <ele>975.18</ele>
        <time>2018-09-15T12:00:06.000Z</time>
      </trkpt>
      <trkpt lat="46.25573" lon="6.47157">
        <ele>975.18</ele>
        <time>2018-09-15T12:00:11.000Z</time>
      </trkpt>
      <trkpt lat="46.25528" lon="6.47163">
        <ele>975.18</ele>
        <time>2018-09-15T12:00:16.000Z</time>
      </trkpt>
      <trkpt lat="46.25484" lon="6.4717">
        <ele>975.93</ele>
        <time>2018-09-15T12:00:21.000Z</time>
      </trkpt>
      <trkpt lat="46.25443" lon="6.47178">
        <ele>976.18</ele>
        <time>2018-09-15T12:00:26.000Z</time>
      </trkpt>
      <trkpt lat="46.25399" lon="6.47186">
        <ele>974.25</ele>
        <time>2018-09-15T12:00:31.000Z</time>
      </trkpt>
      <trkpt lat="46.25352" lon="6.47198">
        <ele>971.45</ele>
        <time>2018-09-15T12:00:36.000Z</time>
      </trkpt>
      <trkpt lat="46.25305" lon="6.47208">
        <ele>970.2</ele>
        <time>2018-09-15T12:00:41.000Z</time>
      </trkpt>
      <trkpt lat="46.25259" lon="6.47219">
        <ele>969.43</ele>
        <time>2018-09-15T12:00:46.000Z</time>
      </trkpt>
      <trkpt lat="46.25209" lon="6.47229">
        <ele>967.5</ele>
        <time>2018-09-15T12:00:51.000Z</time>
      </trkpt>
      <trkpt lat="46.25159" lon="6.47239">
        <ele>965.44</ele>
        <time>2018-09-15T12:00:56.000Z</time>
      </trkpt>
      <trkpt lat="46.25109" lon="6.4725">
        <ele>964.19</ele>
        <time>2018-09-15T12:01:01.000Z</time>
      </trkpt>
      <trkpt lat="46.25065" lon="6.47256">
        <ele>965.17</ele>
        <time>2018-09-15T12:01:06.000Z</time>
      </trkpt>
      <trkpt lat="46.25024" lon="6.47252">
        <ele>964.25</ele>
        <time>2018-09-15T12:01:11.000Z</time>
      </trkpt>
      <trkpt lat="46.24978" lon="6.47254">
        <ele>962.51</ele>
        <time>2018-09-15T12:01:16.000Z</time>
      </trkpt>
      <trkpt lat="46.24932" lon="6.47285">
        <ele>960.44</ele>
        <time>2018-09-15T12:01:21.000Z</time>
      </trkpt>
      <trkpt lat="46.24888" lon="6.47317">
        <ele>958.45</ele>
        <time>2018-09-15T12:01:26.000Z</time>
      </trkpt>
      <trkpt lat="46.24848" lon="6.47331">
        <ele>957.39</ele>
        <time>2018-09-15T12:01:31.000Z</time>
      </trkpt>
      <trkpt lat="46.24806" lon="6.47312">
        <ele>953.58</ele>
        <time>2018-09-15T12:01:36.000Z</time>
      </trkpt>
      <trkpt lat="46.24759" lon="6.47291">
        <ele>949.5</ele>
        <time>2018-09-15T12:01:41.000Z</time>
      </trkpt>
      <trkpt lat="46.24707" lon="6.47278">
        <ele>947.26</ele>
        <time>2018-09-15T12:01:46.000Z</time>
      </trkpt>
      <trkpt lat="46.24653" lon="6.47299">
        <ele>944.25</ele>
        <time>2018-09-15T12:01:51.000Z</time>
      </trkpt>
      <trkpt lat="46.24603" lon="6.47261">
        <ele>938.52</ele>
        <time>2018-09-15T12:01:56.000Z</time>
      </trkpt>
      <trkpt lat="46.24593" lon="6.47178">
        <ele>935.26</ele>
        <time>2018-09-15T12:02:01.000Z</time>
      </trkpt>
      <trkpt lat="46.24608" lon="6.47096">
        <ele>931.52</ele>
        <time>2018-09-15T12:02:06.000Z</time>
      </trkpt>
      <trkpt lat="46.24622" lon="6.47015">
        <ele>929.25</ele>
        <time>2018-09-15T12:02:11.000Z</time>
      </trkpt>
      <trkpt lat="46.24622" lon="6.46936">
        <ele>928.43</ele>
        <time>2018-09-15T12:02:16.000Z</time>
      </trkpt>
      <trkpt lat="46.24586" lon="6.46865">
        <ele>924.52</ele>
        <time>2018-09-15T12:02:21.000Z</time>
      </trkpt>
      <trkpt lat="46.24547" lon="6.46798">
        <ele>920.45</ele>
        <time>2018-09-15T12:02:26.000Z</time>
      </trkpt>
      <trkpt lat="46.24512" lon="6.46727">
        <ele>915.47</ele>
        <time>2018-09-15T12:02:31.000Z</time>
      </trkpt>
      <trkpt lat="46.24479" lon="6.46656">
        <ele>911.76</ele>
        <time>2018-09-15T12:02:36.000Z</time>
      </trkpt>
      <trkpt lat="46.24435" lon="6.46601">
        <ele>908.45</ele>
        <time>2018-09-15T12:02:41.000Z</time>
      </trkpt>
      <trkpt lat="46.24389" lon="6.46556">
        <ele>907.43</ele>
        <time>2018-09-15T12:02:46.000Z</time>
      </trkpt>
      <trkpt lat="46.24343" lon="6.46513">
        <ele>905.26</ele>
        <time>2018-09-15T12:02:51.000Z</time>
      </trkpt>
      <trkpt lat="46.24297" lon="6.46471">
        <ele>902.5</ele>
        <time>2018-09-15T12:02:56.000Z</time>
      </trkpt>
      <trkpt lat="46.24249" lon="6.4643">
        <ele>900.2</ele>
        <time>2018-09-15T12:03:01.000Z</time>
      </trkpt>
      <trkpt lat="46.242" lon="6.46394">
        <ele>898.44</ele>
        <time>2018-09-15T12:03:06.000Z</time>
      </trkpt>
      <trkpt lat="46.2415" lon="6.46366">
        <ele>897.18</ele>
        <time>2018-09-15T12:03:11.000Z</time>
      </trkpt>
      <trkpt lat="46.24099" lon="6.46348">
        <ele>892.52</ele>
        <time>2018-09-15T12:03:16.000Z</time>
      </trkpt>
      <trkpt lat="46.24047" lon="6.46327">
        <ele>893.95</ele>
        <time>2018-09-15T12:03:21.000Z</time>
      </trkpt>
      <trkpt lat="46.24005" lon="6.46277">
        <ele>890.26</ele>
        <time>2018-09-15T12:03:26.000Z</time>
      </trkpt>
      <trkpt lat="46.23977" lon="6.46214">
        <ele>889.2</ele>
        <time>2018-09-15T12:03:31.000Z</time>
      </trkpt>
      <trkpt lat="46.23947" lon="6.46155">
        <ele>888.24</ele>
        <time>2018-09-15T12:03:36.000Z</time>
      </trkpt>
      <trkpt lat="46.23909" lon="6.46107">
        <ele>887.18</ele>
        <time>2018-09-15T12:03:41.000Z</time>
      </trkpt>
      <trkpt lat="46.23863" lon="6.46063">
        <ele>883.45</ele>
        <time>2018-09-15T12:03:46.000Z</time>
      </trkpt>
      <trkpt lat="46.23818" lon="6.46017">
        <ele>879.5</ele>
        <time>2018-09-15T12:03:51.000Z</time>
      </trkpt>
      <trkpt lat="46.23779" lon="6.45967">
        <ele>879.2</ele>
        <time>2018-09-15T12:03:56.000Z</time>
      </trkpt>
      <trkpt lat="46.23742" lon="6.4592">
        <ele>878.24</ele>
        <time>2018-09-15T12:04:01.000Z</time>
      </trkpt>
      <trkpt lat="46.23702" lon="6.45878">
        <ele>875.45</ele>
        <time>2018-09-15T12:04:06.000Z</time>
      </trkpt>
      <trkpt lat="46.23656" lon="6.45843">
        <ele>872.5</ele>
        <time>2018-09-15T12:04:11.000Z</time>
      </trkpt>
      <trkpt lat="46.23609" lon="6.45802">
        <ele>870.2</ele>
        <time>2018-09-15T12:04:16.000Z</time>
      </trkpt>
      <trkpt lat="46.23573" lon="6.4574">
        <ele>867.31</ele>
        <time>2018-09-15T12:04:21.000Z</time>
      </trkpt>
      <trkpt lat="46.23532" lon="6.45677">
        <ele>864.44</ele>
        <time>2018-09-15T12:04:26.000Z</time>
      </trkpt>
      <trkpt lat="46.23494" lon="6.45614">
        <ele>860.26</ele>
        <time>2018-09-15T12:04:31.000Z</time>
      </trkpt>
      <trkpt lat="46.23455" lon="6.45552">
        <ele>855.71</ele>
        <time>2018-09-15T12:04:36.000Z</time>
      </trkpt>
      <trkpt lat="46.23412" lon="6.45489">
        <ele>850.51</ele>
        <time>2018-09-15T12:04:41.000Z</time>
      </trkpt>
      <trkpt lat="46.23369" lon="6.45427">
        <ele>845.51</ele>
        <time>2018-09-15T12:04:46.000Z</time>
      </trkpt>
      <trkpt lat="46.23327" lon="6.4536">
        <ele>840.75</ele>
        <time>2018-09-15T12:04:51.000Z</time>
      </trkpt>
      <trkpt lat="46.23284" lon="6.45289">
        <ele>837.45</ele>
        <time>2018-09-15T12:04:56.000Z</time>
      </trkpt>
      <trkpt lat="46.23244" lon="6.45218">
        <ele>832.51</ele>
        <time>2018-09-15T12:05:01.000Z</time>
      </trkpt>
      <trkpt lat="46.23201" lon="6.45154">
        <ele>829.26</ele>
        <time>2018-09-15T12:05:06.000Z</time>
      </trkpt>
      <trkpt lat="46.23159" lon="6.451">
        <ele>827.2</ele>
        <time>2018-09-15T12:05:11.000Z</time>
      </trkpt>
      <trkpt lat="46.23118" lon="6.45053">
        <ele>826.2</ele>
        <time>2018-09-15T12:05:16.000Z</time>
      </trkpt>
      <trkpt lat="46.23077" lon="6.45008">
        <ele>825.43</ele>
        <time>2018-09-15T12:05:21.000Z</time>
      </trkpt>
      <trkpt lat="46.23037" lon="6.44963">
        <ele>823.2</ele>
        <time>2018-09-15T12:05:26.000Z</time>
      </trkpt>
      <trkpt lat="46.22997" lon="6.44921">
        <ele>823.13</ele>
        <time>2018-09-15T12:05:31.000Z</time>
      </trkpt>
      <trkpt lat="46.2296" lon="6.44886">
        <ele>822.18</ele>
        <time>2018-09-15T12:05:36.000Z</time>
      </trkpt>
      <trkpt lat="46.22921" lon="6.44869">
        <ele>822.41</ele>
        <time>2018-09-15T12:05:41.000Z</time>
      </trkpt>
      <trkpt lat="46.22881" lon="6.44859">
        <ele>821.18</ele>
        <time>2018-09-15T12:05:46.000Z</time>
      </trkpt>
      <trkpt lat="46.22843" lon="6.44848">
        <ele>821.93</ele>
        <time>2018-09-15T12:05:51.000Z</time>
      </trkpt>
      <trkpt lat="46.22811" lon="6.4483">
        <ele>823.16</ele>
        <time>2018-09-15T12:05:56.000Z</time>
      </trkpt>
      <trkpt lat="46.22785" lon="6.44807">
        <ele>824.36</ele>
        <time>2018-09-15T12:06:01.000Z</time>
      </trkpt>
      <trkpt lat="46.2276" lon="6.44786">
        <ele>826.12</ele>
        <time>2018-09-15T12:06:06.000Z</time>
      </trkpt>
      <trkpt lat="46.22734" lon="6.4476">
        <ele>826.18</ele>
        <time>2018-09-15T12:06:11.000Z</time>
      </trkpt>
      <trkpt lat="46.22707" lon="6.44735">
        <ele>826.18</ele>
        <time>2018-09-15T12:06:16.000Z</time>
      </trkpt>
      <trkpt lat="46.22676" lon="6.44705">
        <ele>824.26</ele>
        <time>2018-09-15T12:06:21.000Z</time>
      </trkpt>
      <trkpt lat="46.22644" lon="6.44666">
        <ele>821.26</ele>
        <time>2018-09-15T12:06:26.000Z</time>
      </trkpt>
      <trkpt lat="46.22612" lon="6.44623">
        <ele>821.24</ele>
        <time>2018-09-15T12:06:31.000Z</time>
      </trkpt>
      <trkpt lat="46.22578" lon="6.44583">
        <ele>820.51</ele>
        <time>2018-09-15T12:06:36.000Z</time>
      </trkpt>
      <trkpt lat="46.22542" lon="6.44546">
        <ele>818.38</ele>
        <time>2018-09-15T12:06:41.000Z</time>
      </trkpt>
      <trkpt lat="46.22506" lon="6.44507">
        <ele>817.18</ele>
        <time>2018-09-15T12:06:46.000Z</time>
      </trkpt>
      <trkpt lat="46.22467" lon="6.44474">
        <ele>816.18</ele>
        <time>2018-09-15T12:06:51.000Z</time>
      </trkpt>
      <trkpt lat="46.22426" lon="6.44443">
        <ele>815.24</ele>
        <time>2018-09-15T12:06:56.000Z</time>
      </trkpt>
      <trkpt lat="46.2238" lon="6.44413">
        <ele>813.25</ele>
        <time>2018-09-15T12:07:01.000Z</time>
      </trkpt>
      <trkpt lat="46.22331" lon="6.44383">
        <ele>810.45</ele>
        <time>2018-09-15T12:07:06.000Z</time>
      </trkpt>
      <trkpt lat="46.22279" lon="6.44352">
        <ele>807.25</ele>
        <time>2018-09-15T12:07:11.000Z</time>
      </trkpt>
      <trkpt lat="46.22229" lon="6.4432">
        <ele>804.43</ele>
        <time>2018-09-15T12:07:16.000Z</time>
      </trkpt>
      <trkpt lat="46.2218" lon="6.44292">
        <ele>803.18</ele>
        <time>2018-09-15T12:07:21.000Z</time>
      </trkpt>
      <trkpt lat="46.22136" lon="6.44263">
        <ele>803.93</ele>
        <time>2018-09-15T12:07:26.000Z</time>
      </trkpt>
      <trkpt lat="46.22095" lon="6.4423">
        <ele>804.24</ele>
        <time>2018-09-15T12:07:31.000Z</time>
      </trkpt>
      <trkpt lat="46.22053" lon="6.44201">
        <ele>804.37</ele>
        <time>2018-09-15T12:07:36.000Z</time>
      </trkpt>
      <trkpt lat="46.22016" lon="6.44183">
        <ele>805.18</ele>
        <time>2018-09-15T12:07:41.000Z</time>
      </trkpt>
      <trkpt lat="46.21981" lon="6.44176">
        <ele>805.19</ele>
        <time>2018-09-15T12:07:46.000Z</time>
      </trkpt>
      <trkpt lat="46.21949" lon="6.44164">
        <ele>804.23</ele>
        <time>2018-09-15T12:07:51.000Z</time>
      </trkpt>
      <trkpt lat="46.21923" lon="6.44141">
        <ele>804.18</ele>
        <time>2018-09-15T12:07:56.000Z</time>
      </trkpt>
      <trkpt lat="46.21902" lon="6.44112">
        <ele>805.93</ele>
        <time>2018-09-15T12:08:01.000Z</time>
      </trkpt>
      <trkpt lat="46.21883" lon="6.44082">
        <ele>807.13</ele>
        <time>2018-09-15T12:08:06.000Z</time>
      </trkpt>
      <trkpt lat="46.21863" lon="6.44053">
        <ele>807.18</ele>
        <time>2018-09-15T12:08:11.000Z</time>
      </trkpt>
      <trkpt lat="46.21844" lon="6.44023">
        <ele>807.18</ele>
        <time>2018-09-15T12:08:16.000Z</time>
      </trkpt>
      <trkpt lat="46.2182" lon="6.43989">
        <ele>807.18</ele>
        <time>2018-09-15T12:08:21.000Z</time>
      </trkpt>
      <trkpt lat="46.21795" lon="6.43964">
        <ele>806.24</ele>
        <time>2018-09-15T12:08:26.000Z</time>
      </trkpt>
      <trkpt lat="46.21764" lon="6.43948">
        <ele>806.18</ele>
        <time>2018-09-15T12:08:31.000Z</time>
      </trkpt>
      <trkpt lat="46.21728" lon="6.43931">
        <ele>804.45</ele>
        <time>2018-09-15T12:08:36.000Z</time>
      </trkpt>
      <trkpt lat="46.21691" lon="6.43914">
        <ele>803.43</ele>
        <time>2018-09-15T12:08:41.000Z</time>
      </trkpt>
      <trkpt lat="46.21653" lon="6.43894">
        <ele>802.24</ele>
        <time>2018-09-15T12:08:46.000Z</time>
      </trkpt>
      <trkpt lat="46.21613" lon="6.43873">
        <ele>797.28</ele>
        <time>2018-09-15T12:08:51.000Z</time>
      </trkpt>
      <trkpt lat="46.21582" lon="6.43857">
        <ele>796.23</ele>
        <time>2018-09-15T12:08:56.000Z</time>
      </trkpt>
      <trkpt lat="46.21564" lon="6.43832">
        <ele>795.18</ele>
        <time>2018-09-15T12:09:01.000Z</time>
      </trkpt>
      <trkpt lat="46.21546" lon="6.43801">
        <ele>793.42</ele>
        <time>2018-09-15T12:09:06.000Z</time>
      </trkpt>
      <trkpt lat="46.21539" lon="6.43785">
        <ele>793.17</ele>
        <time>2018-09-15T12:09:11.000Z</time>
      </trkpt>
      <trkpt lat="46.21529" lon="6.43788">
        <ele>793.18</ele>
        <time>2018-09-15T12:10:32.000Z</time>
      </trkpt>
      <trkpt lat="46.2152" lon="6.43781">
        <ele>793.18</ele>
        <time>2018-09-15T12:10:41.000Z</time>
      </trkpt>
      <trkpt lat="46.2152" lon="6.43753">
        <ele>791.25</ele>
        <time>2018-09-15T12:10:46.000Z</time>
      </trkpt>
      <trkpt lat="46.21515" lon="6.43714">
        <ele>791.18</ele>
        <time>2018-09-15T12:10:51.000Z</time>
      </trkpt>
      <trkpt lat="46.21503" lon="6.43664">
        <ele>788.45</ele>
        <time>2018-09-15T12:10:56.000Z</time>
      </trkpt>
      <trkpt lat="46.21482" lon="6.43609">
        <ele>784.5</ele>
        <time>2018-09-15T12:11:01.000Z</time>
      </trkpt>
      <trkpt lat="46.21457" lon="6.43555">
        <ele>783.95</ele>
        <time>2018-09-15T12:11:06.000Z</time>
      </trkpt>
      <trkpt lat="46.21434" lon="6.43501">
        <ele>782.2</ele>
        <time>2018-09-15T12:11:11.000Z</time>
      </trkpt>
      <trkpt lat="46.21411" lon="6.43451">
        <ele>782.12</ele>
        <time>2018-09-15T12:11:16.000Z</time>
      </trkpt>
      <trkpt lat="46.21389" lon="6.43406">
        <ele>782.18</ele>
        <time>2018-09-15T12:11:21.000Z</time>
      </trkpt>
      <trkpt lat="46.21363" lon="6.43368">
        <ele>782.18</ele>
        <time>2018-09-15T12:11:26.000Z</time>
      </trkpt>
      <trkpt lat="46.21334" lon="6.43335">
        <ele>783.16</ele>
        <time>2018-09-15T12:11:31.000Z</time>
      </trkpt>
      <trkpt lat="46.21309" lon="6.43295">
        <ele>782.18</ele>
        <time>2018-09-15T12:11:36.000Z</time>
      </trkpt>
      <trkpt lat="46.21289" lon="6.43246">
        <ele>782.18</ele>
        <time>2018-09-15T12:11:41.000Z</time>
      </trkpt>
      <trkpt lat="46.21269" lon="6.43193">
        <ele>780.49</ele>
        <time>2018-09-15T12:11:46.000Z</time>
      </trkpt>
      <trkpt lat="46.21249" lon="6.43138">
        <ele>779.18</ele>
        <time>2018-09-15T12:11:51.000Z</time>
      </trkpt>
      <trkpt lat="46.21237" lon="6.43081">
        <ele>778.43</ele>
        <time>2018-09-15T12:11:56.000Z</time>
      </trkpt>
      <trkpt lat="46.21226" lon="6.43033">
        <ele>780.11</ele>
        <time>2018-09-15T12:12:01.000Z</time>
      </trkpt>
      <trkpt lat="46.21209" lon="6.42992">
        <ele>779.17</ele>
        <time>2018-09-15T12:12:06.000Z</time>
      </trkpt>
      <trkpt lat="46.21185" lon="6.4296">
        <ele>779.19</ele>
        <time>2018-09-15T12:12:11.000Z</time>
      </trkpt>
      <trkpt lat="46.21158" lon="6.42934">
        <ele>780.17</ele>
        <time>2018-09-15T12:12:16.000Z</time>
      </trkpt>
      <trkpt lat="46.21132" lon="6.42905">
        <ele>780.24</ele>
        <time>2018-09-15T12:12:21.000Z</time>
      </trkpt>
      <trkpt lat="46.21112" lon="6.42868">
        <ele>780.18</ele>
        <time>2018-09-15T12:12:26.000Z</time>
      </trkpt>
      <trkpt lat="46.21099" lon="6.42826">
        <ele>781.12</ele>
        <time>2018-09-15T12:12:31.000Z</time>
      </trkpt>
      <trkpt lat="46.21085" lon="6.42786">
        <ele>781.18</ele>
        <time>2018-09-15T12:12:36.000Z</time>
      </trkpt>
      <trkpt lat="46.21074" lon="6.42741">
        <ele>780.19</ele>
        <time>2018-09-15T12:12:41.000Z</time>
      </trkpt>
      <trkpt lat="46.21072" lon="6.42697">
        <ele>780.95</ele>
        <time>2018-09-15T12:12:46.000Z</time>
      </trkpt>
      <trkpt lat="46.21079" lon="6.42654">
        <ele>781.93</ele>
        <time>2018-09-15T12:12:51.000Z</time>
      </trkpt>
      <trkpt lat="46.2109" lon="6.42612">
        <ele>783.12</ele>
        <time>2018-09-15T12:12:56.000Z</time>
      </trkpt>
      <trkpt lat="46.21089" lon="6.42563">
        <ele>782.2</ele>
        <time>2018-09-15T12:13:01.000Z</time>
      </trkpt>
      <trkpt lat="46.21076" lon="6.42514">
        <ele>782.37</ele>
        <time>2018-09-15T12:13:06.000Z</time>
      </trkpt>
      <trkpt lat="46.21059" lon="6.42465">
        <ele>781.43</ele>
        <time>2018-09-15T12:13:11.000Z</time>
      </trkpt>
      <trkpt lat="46.2104" lon="6.42414">
        <ele>781.18</ele>
        <time>2018-09-15T12:13:16.000Z</time>
      </trkpt>
      <trkpt lat="46.21021" lon="6.42363">
        <ele>779.44</ele>
        <time>2018-09-15T12:13:21.000Z</time>
      </trkpt>
      <trkpt lat="46.21003" lon="6.4231">
        <ele>779.18</ele>
        <time>2018-09-15T12:13:26.000Z</time>
      </trkpt>
      <trkpt lat="46.20984" lon="6.42259">
        <ele>779.18</ele>
        <time>2018-09-15T12:13:31.000Z</time>
      </trkpt>
      <trkpt lat="46.20974" lon="6.42202">
        <ele>779.18</ele>
        <time>2018-09-15T12:13:36.000Z</time>
      </trkpt>
      <trkpt lat="46.20973" lon="6.42143">
        <ele>779.18</ele>
        <time>2018-09-15T12:13:41.000Z</time>
      </trkpt>
      <trkpt lat="46.20977" lon="6.42082">
        <ele>779.18</ele>
        <time>2018-09-15T12:13:46.000Z</time>
      </trkpt>
      <trkpt lat="46.20981" lon="6.42021">
        <ele>780.92</ele>
        <time>2018-09-15T12:13:51.000Z</time>
      </trkpt>
      <trkpt lat="46.20984" lon="6.41966">
        <ele>783.1</ele>
        <time>2018-09-15T12:13:56.000Z</time>
      </trkpt>
      <trkpt lat="46.20989" lon="6.41905">
        <ele>781.25</ele>
        <time>2018-09-15T12:14:01.000Z</time>
      </trkpt>
      <trkpt lat="46.20995" lon="6.41841">
        <ele>779.44</ele>
        <time>2018-09-15T12:14:06.000Z</time>
      </trkpt>
      <trkpt lat="46.21" lon="6.41768">
        <ele>776.5</ele>
        <time>2018-09-15T12:14:11.000Z</time>
      </trkpt>
      <trkpt lat="46.21002" lon="6.41691">
        <ele>774.44</ele>
        <time>2018-09-15T12:14:16.000Z</time>
      </trkpt>
      <trkpt lat="46.20988" lon="6.41608">
        <ele>769.76</ele>
        <time>2018-09-15T12:14:21.000Z</time>
      </trkpt>
      <trkpt lat="46.20969" lon="6.4152">
        <ele>766.44</ele>
        <time>2018-09-15T12:14:26.000Z</time>
      </trkpt>
      <trkpt lat="46.20951" lon="6.41432">
        <ele>762.28</ele>
        <time>2018-09-15T12:14:31.000Z</time>
      </trkpt>
      <trkpt lat="46.20933" lon="6.41344">
        <ele>758.5</ele>
        <time>2018-09-15T12:14:36.000Z</time>
      </trkpt>
      <trkpt lat="46.20901" lon="6.41266">
        <ele>754.5</ele>
        <time>2018-09-15T12:14:41.000Z</time>
      </trkpt>
      <trkpt lat="46.20867" lon="6.41196">
        <ele>751.5</ele>
        <time>2018-09-15T12:14:46.000Z</time>
      </trkpt>
      <trkpt lat="46.20833" lon="6.41131">
        <ele>747.45</ele>
        <time>2018-09-15T12:14:51.000Z</time>
      </trkpt>
      <trkpt lat="46.20803" lon="6.41067">
        <ele>743.5</ele>
        <time>2018-09-15T12:14:56.000Z</time>
      </trkpt>
      <trkpt lat="46.20773" lon="6.41004">
        <ele>740.5</ele>
        <time>2018-09-15T12:15:01.000Z</time>
      </trkpt>
      <trkpt lat="46.20743" lon="6.40946">
        <ele>737.5</ele>
        <time>2018-09-15T12:15:06.000Z</time>
      </trkpt>
      <trkpt lat="46.20715" lon="6.40891">
        <ele>734.25</ele>
        <time>2018-09-15T12:15:11.000Z</time>
      </trkpt>
      <trkpt lat="46.20687" lon="6.40845">
        <ele>734.18</ele>
        <time>2018-09-15T12:15:16.000Z</time>
      </trkpt>
      <trkpt lat="46.20682" lon="6.40803">
        <ele>734.93</ele>
        <time>2018-09-15T12:15:21.000Z</time>
      </trkpt>
      <trkpt lat="46.20661" lon="6.40776">
        <ele>733.2</ele>
        <time>2018-09-15T12:15:26.000Z</time>
      </trkpt>
      <trkpt lat="46.20634" lon="6.40748">
        <ele>733.19</ele>
        <time>2018-09-15T12:15:31.000Z</time>
      </trkpt>
      <trkpt lat="46.20603" lon="6.40724">
        <ele>733.95</ele>
        <time>2018-09-15T12:15:36.000Z</time>
      </trkpt>
      <trkpt lat="46.20572" lon="6.40705">
        <ele>734.2</ele>
        <time>2018-09-15T12:15:41.000Z</time>
      </trkpt>
      <trkpt lat="46.20543" lon="6.40691">
        <ele>735.87</ele>
        <time>2018-09-15T12:15:46.000Z</time>
      </trkpt>
      <trkpt lat="46.20521" lon="6.40676">
        <ele>738.12</ele>
        <time>2018-09-15T12:15:51.000Z</time>
      </trkpt>
      <trkpt lat="46.20501" lon="6.40662">
        <ele>741.11</ele>
        <time>2018-09-15T12:15:56.000Z</time>
      </trkpt>
      <trkpt lat="46.20483" lon="6.40655">
        <ele>742.18</ele>
        <time>2018-09-15T12:16:01.000Z</time>
      </trkpt>
      <trkpt lat="46.20462" lon="6.4065">
        <ele>742.18</ele>
        <time>2018-09-15T12:16:06.000Z</time>
      </trkpt>
      <trkpt lat="46.20442" lon="6.40641">
        <ele>742.93</ele>
        <time>2018-09-15T12:16:11.000Z</time>
      </trkpt>
      <trkpt lat="46.20418" lon="6.40624">
        <ele>743.2</ele>
        <time>2018-09-15T12:16:16.000Z</time>
      </trkpt>
      <trkpt lat="46.20392" lon="6.40602">
        <ele>742.25</ele>
        <time>2018-09-15T12:16:21.000Z</time>
      </trkpt>
      <trkpt lat="46.20365" lon="6.40583">
        <ele>740.44</ele>
        <time>2018-09-15T12:16:26.000Z</time>
      </trkpt>
      <trkpt lat="46.20334" lon="6.40567">
        <ele>740.18</ele>
        <time>2018-09-15T12:16:31.000Z</time>
      </trkpt>
      <trkpt lat="46.20302" lon="6.40551">
        <ele>741.12</ele>
        <time>2018-09-15T12:16:36.000Z</time>
      </trkpt>
      <trkpt lat="46.20267" lon="6.40534">
        <ele>740.19</ele>
        <time>2018-09-15T12:16:41.000Z</time>
      </trkpt>
      <trkpt lat="46.20233" lon="6.4052">
        <ele>739.95</ele>
        <time>2018-09-15T12:16:46.000Z</time>
      </trkpt>
      <trkpt lat="46.20201" lon="6.40503">
        <ele>740.18</ele>
        <time>2018-09-15T12:16:51.000Z</time>
      </trkpt>
      <trkpt lat="46.20171" lon="6.40482">
        <ele>740.2</ele>
        <time>2018-09-15T12:16:56.000Z</time>
      </trkpt>
      <trkpt lat="46.2014" lon="6.40464">
        <ele>739.19</ele>
        <time>2018-09-15T12:17:01.000Z</time>
      </trkpt>
      <trkpt lat="46.20106" lon="6.40446">
        <ele>737.44</ele>
        <time>2018-09-15T12:17:06.000Z</time>
      </trkpt>
      <trkpt lat="46.20072" lon="6.4043">
        <ele>737.42</ele>
        <time>2018-09-15T12:17:11.000Z</time>
      </trkpt>
      <trkpt lat="46.20041" lon="6.40408">
        <ele>739.12</ele>
        <time>2018-09-15T12:17:16.000Z</time>
      </trkpt>
      <trkpt lat="46.20012" lon="6.4038">
        <ele>739.94</ele>
        <time>2018-09-15T12:17:21.000Z</time>
      </trkpt>
      <trkpt lat="46.19981" lon="6.40357">
        <ele>740.18</ele>
        <time>2018-09-15T12:17:26.000Z</time>
      </trkpt>
      <trkpt lat="46.19953" lon="6.40339">
        <ele>740.19</ele>
        <time>2018-09-15T12:17:31.000Z</time>
      </trkpt>
      <trkpt lat="46.19925" lon="6.40332">
        <ele>740.19</ele>
        <time>2018-09-15T12:17:36.000Z</time>
      </trkpt>
      <trkpt lat="46.19898" lon="6.40337">
        <ele>742.12</ele>
        <time>2018-09-15T12:17:41.000Z</time>
      </trkpt>
      <trkpt lat="46.1987" lon="6.40337">
        <ele>742.94</ele>
        <time>2018-09-15T12:17:46.000Z</time>
      </trkpt>
      <trkpt lat="46.19845" lon="6.40325">
        <ele>744.36</ele>
        <time>2018-09-15T12:17:51.000Z</time>
      </trkpt>
      <trkpt lat="46.1982" lon="6.40309">
        <ele>746.17</ele>
        <time>2018-09-15T12:17:56.000Z</time>
      </trkpt>
      <trkpt lat="46.19793" lon="6.40292">
        <ele>745.99</ele>
        <time>2018-09-15T12:18:01.000Z</time>
      </trkpt>
      <trkpt lat="46.19763" lon="6.40277">
        <ele>745.94</ele>
        <time>2018-09-15T12:18:06.000Z</time>
      </trkpt>
      <trkpt lat="46.19733" lon="6.40259">
        <ele>744.25</ele>
        <time>2018-09-15T12:18:11.000Z</time>
      </trkpt>
      <trkpt lat="46.19701" lon="6.40244">
        <ele>744.19</ele>
        <time>2018-09-15T12:18:16.000Z</time>
      </trkpt>
      <trkpt lat="46.19671" lon="6.40226">
        <ele>744.19</ele>
        <time>2018-09-15T12:18:21.000Z</time>
      </trkpt>
      <trkpt lat="46.19643" lon="6.40202">
        <ele>745.42</ele>
        <time>2018-09-15T12:18:26.000Z</time>
      </trkpt>
      <trkpt lat="46.19615" lon="6.40178">
        <ele>743.45</ele>
        <time>2018-09-15T12:18:31.000Z</time>
      </trkpt>
      <trkpt lat="46.19582" lon="6.40158">
        <ele>743.19</ele>
        <time>2018-09-15T12:18:36.000Z</time>
      </trkpt>
      <trkpt lat="46.19545" lon="6.4014">
        <ele>742.94</ele>
        <time>2018-09-15T12:18:41.000Z</time>
      </trkpt>
      <trkpt lat="46.19509" lon="6.40128">
        <ele>743.19</ele>
        <time>2018-09-15T12:18:46.000Z</time>
      </trkpt>
      <trkpt lat="46.19475" lon="6.40117">
        <ele>743.88</ele>
        <time>2018-09-15T12:18:51.000Z</time>
      </trkpt>
      <trkpt lat="46.19445" lon="6.40106">
        <ele>744.88</ele>
        <time>2018-09-15T12:18:56.000Z</time>
      </trkpt>
      <trkpt lat="46.19419" lon="6.40099">
        <ele>745.19</ele>
        <time>2018-09-15T12:19:01.000Z</time>
      </trkpt>
      <trkpt lat="46.19395" lon="6.40089">
        <ele>747.17</ele>
        <time>2018-09-15T12:19:06.000Z</time>
      </trkpt>
      <trkpt lat="46.19367" lon="6.40069">
        <ele>745.21</ele>
        <time>2018-09-15T12:19:11.000Z</time>
      </trkpt>
      <trkpt lat="46.19338" lon="6.40049">
        <ele>747.17</ele>
        <time>2018-09-15T12:19:16.000Z</time>
      </trkpt>
      <trkpt lat="46.19307" lon="6.40035">
        <ele>748.14</ele>
        <time>2018-09-15T12:19:21.000Z</time>
      </trkpt>
      <trkpt lat="46.19278" lon="6.40021">
        <ele>749.19</ele>
        <time>2018-09-15T12:19:26.000Z</time>
      </trkpt>
      <trkpt lat="46.19251" lon="6.40005">
        <ele>750.17</ele>
        <time>2018-09-15T12:19:31.000Z</time>
      </trkpt>
      <trkpt lat="46.19225" lon="6.39986">
        <ele>749.44</ele>
        <time>2018-09-15T12:19:36.000Z</time>
      </trkpt>
      <trkpt lat="46.19204" lon="6.39983">
        <ele>748.19</ele>
        <time>2018-09-15T12:19:41.000Z</time>
      </trkpt>
      <trkpt lat="46.19192" lon="6.39968">
        <ele>750.93</ele>
        <time>2018-09-15T12:19:46.000Z</time>
      </trkpt>
      <trkpt lat="46.19179" lon="6.39957">
        <ele>751.94</ele>
        <time>2018-09-15T12:19:51.000Z</time>
      </trkpt>
      <trkpt lat="46.19165" lon="6.39947">
        <ele>752.93</ele>
        <time>2018-09-15T12:19:56.000Z</time>
      </trkpt>
      <trkpt lat="46.19148" lon="6.39938">
        <ele>754.18</ele>
        <time>2018-09-15T12:20:01.000Z</time>
      </trkpt>
      <trkpt lat="46.19129" lon="6.39928">
        <ele>755.17</ele>
        <time>2018-09-15T12:20:06.000Z</time>
      </trkpt>
      <trkpt lat="46.19108" lon="6.39917">
        <ele>755.2</ele>
        <time>2018-09-15T12:20:11.000Z</time>
      </trkpt>
      <trkpt lat="46.19085" lon="6.39904">
        <ele>756.13</ele>
        <time>2018-09-15T12:20:16.000Z</time>
      </trkpt>
      <trkpt lat="46.19063" lon="6.39897">
        <ele>757.18</ele>
        <time>2018-09-15T12:20:21.000Z</time>
      </trkpt>
      <trkpt lat="46.19041" lon="6.39894">
        <ele>758.17</ele>
        <time>2018-09-15T12:20:26.000Z</time>
      </trkpt>
      <trkpt lat="46.19021" lon="6.39895">
        <ele>759.13</ele>
        <time>2018-09-15T12:20:31.000Z</time>
      </trkpt>
      <trkpt lat="46.19002" lon="6.399">
        <ele>759</ele>
        <time>2018-09-15T12:20:36.000Z</time>
      </trkpt>
      <trkpt lat="46.18982" lon="6.39908">
        <ele>760.17</ele>
        <time>2018-09-15T12:20:41.000Z</time>
      </trkpt>
      <trkpt lat="46.18962" lon="6.39917">
        <ele>761.18</ele>
        <time>2018-09-15T12:20:46.000Z</time>
      </trkpt>
      <trkpt lat="46.1894" lon="6.39925">
        <ele>761.18</ele>
        <time>2018-09-15T12:20:51.000Z</time>
      </trkpt>
      <trkpt lat="46.18917" lon="6.39924">
        <ele>761.19</ele>
        <time>2018-09-15T12:20:56.000Z</time>
      </trkpt>
      <trkpt lat="46.18893" lon="6.39921">
        <ele>761.19</ele>
        <time>2018-09-15T12:21:01.000Z</time>
      </trkpt>
      <trkpt lat="46.18872" lon="6.39918">
        <ele>763.17</ele>
        <time>2018-09-15T12:21:06.000Z</time>
      </trkpt>
      <trkpt lat="46.18855" lon="6.39915">
        <ele>765.92</ele>
        <time>2018-09-15T12:21:11.000Z</time>
      </trkpt>
      <trkpt lat="46.1884" lon="6.3991">
        <ele>767.18</ele>
        <time>2018-09-15T12:21:16.000Z</time>
      </trkpt>
      <trkpt lat="46.18828" lon="6.39904">
        <ele>769.12</ele>
        <time>2018-09-15T12:21:21.000Z</time>
      </trkpt>
      <trkpt lat="46.18817" lon="6.39896">
        <ele>770.92</ele>
        <time>2018-09-15T12:21:26.000Z</time>
      </trkpt>
      <trkpt lat="46.18806" lon="6.39887">
        <ele>772.13</ele>
        <time>2018-09-15T12:21:31.000Z</time>
      </trkpt>
      <trkpt lat="46.18796" lon="6.39883">
        <ele>772.19</ele>
        <time>2018-09-15T12:21:36.000Z</time>
      </trkpt>
      <trkpt lat="46.18785" lon="6.3988">
        <ele>773.19</ele>
        <time>2018-09-15T12:21:41.000Z</time>
      </trkpt>
      <trkpt lat="46.18775" lon="6.39879">
        <ele>774.19</ele>
        <time>2018-09-15T12:21:46.000Z</time>
      </trkpt>
      <trkpt lat="46.18764" lon="6.39879">
        <ele>775.18</ele>
        <time>2018-09-15T12:21:51.000Z</time>
      </trkpt>
      <trkpt lat="46.18753" lon="6.39878">
        <ele>776.92</ele>
        <time>2018-09-15T12:21:56.000Z</time>
      </trkpt>
      <trkpt lat="46.18742" lon="6.39879">
        <ele>777.94</ele>
        <time>2018-09-15T12:22:01.000Z</time>
      </trkpt>
      <trkpt lat="46.18732" lon="6.39878">
        <ele>778.19</ele>
        <time>2018-09-15T12:22:06.000Z</time>
      </trkpt>
      <trkpt lat="46.18721" lon="6.39878">
        <ele>780.13</ele>
        <time>2018-09-15T12:22:11.000Z</time>
      </trkpt>
      <trkpt lat="46.18711" lon="6.39878">
        <ele>781.13</ele>
        <time>2018-09-15T12:22:16.000Z</time>
      </trkpt>
      <trkpt lat="46.18701" lon="6.39881">
        <ele>782</ele>
        <time>2018-09-15T12:22:21.000Z</time>
      </trkpt>
      <trkpt lat="46.18693" lon="6.39889">
        <ele>781.94</ele>
        <time>2018-09-15T12:22:26.000Z</time>
      </trkpt>
      <trkpt lat="46.18687" lon="6.39901">
        <ele>784.17</ele>
        <time>2018-09-15T12:22:31.000Z</time>
      </trkpt>
      <trkpt lat="46.18679" lon="6.3991">
        <ele>785.19</ele>
        <time>2018-09-15T12:22:36.000Z</time>
      </trkpt>
      <trkpt lat="46.18669" lon="6.39916">
        <ele>786.19</ele>
        <time>2018-09-15T12:22:41.000Z</time>
      </trkpt>
      <trkpt lat="46.1866" lon="6.3992">
        <ele>787.92</ele>
        <time>2018-09-15T12:22:46.000Z</time>
      </trkpt>
      <trkpt lat="46.1865" lon="6.39924">
        <ele>788.19</ele>
        <time>2018-09-15T12:22:51.000Z</time>
      </trkpt>
      <trkpt lat="46.18639" lon="6.39926">
        <ele>789.17</ele>
        <time>2018-09-15T12:22:56.000Z</time>
      </trkpt>
      <trkpt lat="46.18628" lon="6.39929">
        <ele>790.13</ele>
        <time>2018-09-15T12:23:01.000Z</time>
      </trkpt>
      <trkpt lat="46.18616" lon="6.3993">
        <ele>791.19</ele>
        <time>2018-09-15T12:23:06.000Z</time>
      </trkpt>
      <trkpt lat="46.18605" lon="6.39932">
        <ele>792.19</ele>
        <time>2018-09-15T12:23:11.000Z</time>
      </trkpt>
      <trkpt lat="46.18593" lon="6.39932">
        <ele>793.17</ele>
        <time>2018-09-15T12:23:16.000Z</time>
      </trkpt>
      <trkpt lat="46.18581" lon="6.39932">
        <ele>794.19</ele>
        <time>2018-09-15T12:23:21.000Z</time>
      </trkpt>
      <trkpt lat="46.1857" lon="6.39936">
        <ele>794.38</ele>
        <time>2018-09-15T12:23:26.000Z</time>
      </trkpt>
      <trkpt lat="46.18566" lon="6.39949">
        <ele>796.13</ele>
        <time>2018-09-15T12:23:31.000Z</time>
      </trkpt>
      <trkpt lat="46.18567" lon="6.39966">
        <ele>797.19</ele>
        <time>2018-09-15T12:23:36.000Z</time>
      </trkpt>
      <trkpt lat="46.18576" lon="6.39975">
        <ele>798.17</ele>
        <time>2018-09-15T12:23:41.000Z</time>
      </trkpt>
      <trkpt lat="46.18588" lon="6.39977">
        <ele>798.94</ele>
        <time>2018-09-15T12:23:46.000Z</time>
      </trkpt>
      <trkpt lat="46.18599" lon="6.39981">
        <ele>799.19</ele>
        <time>2018-09-15T12:23:51.000Z</time>
      </trkpt>
      <trkpt lat="46.18608" lon="6.39991">
        <ele>800.94</ele>
        <time>2018-09-15T12:23:56.000Z</time>
      </trkpt>
      <trkpt lat="46.18617" lon="6.40003">
        <ele>801.38</ele>
        <time>2018-09-15T12:24:01.000Z</time>
      </trkpt>
      <trkpt lat="46.18625" lon="6.40015">
        <ele>802.94</ele>
        <time>2018-09-15T12:24:06.000Z</time>
      </trkpt>
      <trkpt lat="46.18632" lon="6.40028">
        <ele>804.13</ele>
        <time>2018-09-15T12:24:11.000Z</time>
      </trkpt>
      <trkpt lat="46.1864" lon="6.4004">
        <ele>805.19</ele>
        <time>2018-09-15T12:24:16.000Z</time>
      </trkpt>
      <trkpt lat="46.18647" lon="6.40054">
        <ele>807.17</ele>
        <time>2018-09-15T12:24:21.000Z</time>
      </trkpt>
      <trkpt lat="46.18655" lon="6.40066">
        <ele>807.19</ele>
        <time>2018-09-15T12:24:26.000Z</time>
      </trkpt>
      <trkpt lat="46.18663" lon="6.40077">
        <ele>808.19</ele>
        <time>2018-09-15T12:24:31.000Z</time>
      </trkpt>
      <trkpt lat="46.18671" lon="6.40089">
        <ele>809.19</ele>
        <time>2018-09-15T12:24:36.000Z</time>
      </trkpt>
      <trkpt lat="46.18679" lon="6.40101">
        <ele>811.17</ele>
        <time>2018-09-15T12:24:41.000Z</time>
      </trkpt>
      <trkpt lat="46.18689" lon="6.40112">
        <ele>811.19</ele>
        <time>2018-09-15T12:24:46.000Z</time>
      </trkpt>
      <trkpt lat="46.18692" lon="6.40131">
        <ele>811.25</ele>
        <time>2018-09-15T12:24:51.000Z</time>
      </trkpt>
      <trkpt lat="46.18684" lon="6.40142">
        <ele>812.18</ele>
        <time>2018-09-15T12:24:56.000Z</time>
      </trkpt>
      <trkpt lat="46.18673" lon="6.40137">
        <ele>812.19</ele>
        <time>2018-09-15T12:25:01.000Z</time>
      </trkpt>
      <trkpt lat="46.18664" lon="6.40125">
        <ele>813.38</ele>
        <time>2018-09-15T12:25:06.000Z</time>
      </trkpt>
      <trkpt lat="46.18654" lon="6.40117">
        <ele>814.19</ele>
        <time>2018-09-15T12:25:11.000Z</time>
      </trkpt>
      <trkpt lat="46.18641" lon="6.40115">
        <ele>814.19</ele>
        <time>2018-09-15T12:25:16.000Z</time>
      </trkpt>
      <trkpt lat="46.18629" lon="6.40118">
        <ele>815.19</ele>
        <time>2018-09-15T12:25:21.000Z</time>
      </trkpt>
      <trkpt lat="46.18618" lon="6.4012">
        <ele>815.94</ele>
        <time>2018-09-15T12:25:26.000Z</time>
      </trkpt>
      <trkpt lat="46.18608" lon="6.40121">
        <ele>817.17</ele>
        <time>2018-09-15T12:25:31.000Z</time>
      </trkpt>
      <trkpt lat="46.18597" lon="6.40123">
        <ele>818.17</ele>
        <time>2018-09-15T12:25:36.000Z</time>
      </trkpt>
      <trkpt lat="46.18587" lon="6.40124">
        <ele>819.19</ele>
        <time>2018-09-15T12:25:41.000Z</time>
      </trkpt>
      <trkpt lat="46.18576" lon="6.40127">
        <ele>819.19</ele>
        <time>2018-09-15T12:25:46.000Z</time>
      </trkpt>
      <trkpt lat="46.18565" lon="6.40131">
        <ele>820.19</ele>
        <time>2018-09-15T12:25:51.000Z</time>
      </trkpt>
      <trkpt lat="46.18555" lon="6.40137">
        <ele>820.19</ele>
        <time>2018-09-15T12:25:56.000Z</time>
      </trkpt>
      <trkpt lat="46.18544" lon="6.4014">
        <ele>822.12</ele>
        <time>2018-09-15T12:26:01.000Z</time>
      </trkpt>
      <trkpt lat="46.18534" lon="6.40147">
        <ele>822.19</ele>
        <time>2018-09-15T12:26:06.000Z</time>
      </trkpt>
      <trkpt lat="46.18524" lon="6.40152">
        <ele>825.12</ele>
        <time>2018-09-15T12:26:11.000Z</time>
      </trkpt>
      <trkpt lat="46.18514" lon="6.40159">
        <ele>825.19</ele>
        <time>2018-09-15T12:26:16.000Z</time>
      </trkpt>
      <trkpt lat="46.18504" lon="6.40164">
        <ele>826.13</ele>
        <time>2018-09-15T12:26:21.000Z</time>
      </trkpt>
      <trkpt lat="46.18494" lon="6.40171">
        <ele>827.19</ele>
        <time>2018-09-15T12:26:26.000Z</time>
      </trkpt>
      <trkpt lat="46.18485" lon="6.40177">
        <ele>828.92</ele>
        <time>2018-09-15T12:26:31.000Z</time>
      </trkpt>
      <trkpt lat="46.18475" lon="6.40182">
        <ele>829.19</ele>
        <time>2018-09-15T12:26:36.000Z</time>
      </trkpt>
      <trkpt lat="46.18464" lon="6.40187">
        <ele>830.19</ele>
        <time>2018-09-15T12:26:41.000Z</time>
      </trkpt>
      <trkpt lat="46.18453" lon="6.40189">
        <ele>831.18</ele>
        <time>2018-09-15T12:26:46.000Z</time>
      </trkpt>
      <trkpt lat="46.18442" lon="6.40191">
        <ele>831.19</ele>
        <time>2018-09-15T12:26:51.000Z</time>
      </trkpt>
      <trkpt lat="46.1843" lon="6.40191">
        <ele>832.13</ele>
        <time>2018-09-15T12:26:56.000Z</time>
      </trkpt>
      <trkpt lat="46.18418" lon="6.4019">
        <ele>834.12</ele>
        <time>2018-09-15T12:27:01.000Z</time>
      </trkpt>
      <trkpt lat="46.18407" lon="6.40188">
        <ele>835.19</ele>
        <time>2018-09-15T12:27:06.000Z</time>
      </trkpt>
      <trkpt lat="46.18396" lon="6.40189">
        <ele>836.19</ele>
        <time>2018-09-15T12:27:11.000Z</time>
      </trkpt>
      <trkpt lat="46.18386" lon="6.40186">
        <ele>838.18</ele>
        <time>2018-09-15T12:27:16.000Z</time>
      </trkpt>
      <trkpt lat="46.18376" lon="6.40181">
        <ele>840.12</ele>
        <time>2018-09-15T12:27:21.000Z</time>
      </trkpt>
      <trkpt lat="46.18367" lon="6.40176">
        <ele>844.86</ele>
        <time>2018-09-15T12:27:27.000Z</time>
      </trkpt>
      <trkpt lat="46.18356" lon="6.40176">
        <ele>847.17</ele>
        <time>2018-09-15T12:27:32.000Z</time>
      </trkpt>
      <trkpt lat="46.18345" lon="6.40178">
        <ele>848.42</ele>
        <time>2018-09-15T12:27:37.000Z</time>
      </trkpt>
      <trkpt lat="46.18342" lon="6.40194">
        <ele>851.12</ele>
        <time>2018-09-15T12:27:43.000Z</time>
      </trkpt>
      <trkpt lat="46.18346" lon="6.40211">
        <ele>848.16</ele>
        <time>2018-09-15T12:27:48.000Z</time>
      </trkpt>
      <trkpt lat="46.18357" lon="6.40216">
        <ele>849.62</ele>
        <time>2018-09-15T12:27:54.000Z</time>
      </trkpt>
      <trkpt lat="46.18365" lon="6.40222">
        <ele>848.25</ele>
        <time>2018-09-15T12:27:59.000Z</time>
      </trkpt>
      <trkpt lat="46.18372" lon="6.4023">
        <ele>847.25</ele>
        <time>2018-09-15T12:28:04.000Z</time>
      </trkpt>
      <trkpt lat="46.18383" lon="6.40241">
        <ele>850.91</ele>
        <time>2018-09-15T12:28:09.000Z</time>
      </trkpt>
      <trkpt lat="46.18391" lon="6.40251">
        <ele>851.12</ele>
        <time>2018-09-15T12:28:14.000Z</time>
      </trkpt>
      <trkpt lat="46.184" lon="6.40261">
        <ele>851.2</ele>
        <time>2018-09-15T12:28:19.000Z</time>
      </trkpt>
      <trkpt lat="46.1841" lon="6.40268">
        <ele>853.17</ele>
        <time>2018-09-15T12:28:24.000Z</time>
      </trkpt>
      <trkpt lat="46.18422" lon="6.40274">
        <ele>852.44</ele>
        <time>2018-09-15T12:28:29.000Z</time>
      </trkpt>
      <trkpt lat="46.18429" lon="6.40285">
        <ele>853.12</ele>
        <time>2018-09-15T12:28:34.000Z</time>
      </trkpt>
      <trkpt lat="46.18431" lon="6.40302">
        <ele>855.17</ele>
        <time>2018-09-15T12:28:39.000Z</time>
      </trkpt>
      <trkpt lat="46.18423" lon="6.40311">
        <ele>856.19</ele>
        <time>2018-09-15T12:28:44.000Z</time>
      </trkpt>
      <trkpt lat="46.18414" lon="6.40306">
        <ele>856.13</ele>
        <time>2018-09-15T12:28:49.000Z</time>
      </trkpt>
      <trkpt lat="46.18405" lon="6.403">
        <ele>857.19</ele>
        <time>2018-09-15T12:28:55.000Z</time>
      </trkpt>
      <trkpt lat="46.18396" lon="6.40293">
        <ele>858.2</ele>
        <time>2018-09-15T12:29:01.000Z</time>
      </trkpt>
      <trkpt lat="46.18385" lon="6.40287">
        <ele>859.38</ele>
        <time>2018-09-15T12:29:06.000Z</time>
      </trkpt>
      <trkpt lat="46.18375" lon="6.40282">
        <ele>861.17</ele>
        <time>2018-09-15T12:29:11.000Z</time>
      </trkpt>
      <trkpt lat="46.18364" lon="6.4028">
        <ele>863.19</ele>
        <time>2018-09-15T12:29:17.000Z</time>
      </trkpt>
      <trkpt lat="46.18355" lon="6.40276">
        <ele>865.12</ele>
        <time>2018-09-15T12:29:22.000Z</time>
      </trkpt>
      <trkpt lat="46.18345" lon="6.40267">
        <ele>867.92</ele>
        <time>2018-09-15T12:29:27.000Z</time>
      </trkpt>
      <trkpt lat="46.18335" lon="6.40263">
        <ele>868.19</ele>
        <time>2018-09-15T12:29:32.000Z</time>
      </trkpt>
      <trkpt lat="46.18324" lon="6.40258">
        <ele>870.12</ele>
        <time>2018-09-15T12:29:37.000Z</time>
      </trkpt>
      <trkpt lat="46.18312" lon="6.40253">
        <ele>869.2</ele>
        <time>2018-09-15T12:29:42.000Z</time>
      </trkpt>
      <trkpt lat="46.18302" lon="6.40247">
        <ele>870.42</ele>
        <time>2018-09-15T12:29:47.000Z</time>
      </trkpt>
      <trkpt lat="46.18292" lon="6.40241">
        <ele>871.13</ele>
        <time>2018-09-15T12:29:52.000Z</time>
      </trkpt>
      <trkpt lat="46.18282" lon="6.40236">
        <ele>871.19</ele>
        <time>2018-09-15T12:29:57.000Z</time>
      </trkpt>
      <trkpt lat="46.18273" lon="6.40229">
        <ele>871.19</ele>
        <time>2018-09-15T12:30:03.000Z</time>
      </trkpt>
      <trkpt lat="46.18261" lon="6.40221">
        <ele>870.21</ele>
        <time>2018-09-15T12:30:08.000Z</time>
      </trkpt>
      <trkpt lat="46.1825" lon="6.40213">
        <ele>870.38</ele>
        <time>2018-09-15T12:30:13.000Z</time>
      </trkpt>
      <trkpt lat="46.18238" lon="6.40204">
        <ele>872.12</ele>
        <time>2018-09-15T12:30:18.000Z</time>
      </trkpt>
      <trkpt lat="46.18227" lon="6.40195">
        <ele>872.19</ele>
        <time>2018-09-15T12:30:23.000Z</time>
      </trkpt>
      <trkpt lat="46.18217" lon="6.40187">
        <ele>873.17</ele>
        <time>2018-09-15T12:30:28.000Z</time>
      </trkpt>
      <trkpt lat="46.18206" lon="6.40179">
        <ele>874.94</ele>
        <time>2018-09-15T12:30:33.000Z</time>
      </trkpt>
      <trkpt lat="46.18196" lon="6.40172">
        <ele>876.13</ele>
        <time>2018-09-15T12:30:38.000Z</time>
      </trkpt>
      <trkpt lat="46.18185" lon="6.40164">
        <ele>877.19</ele>
        <time>2018-09-15T12:30:43.000Z</time>
      </trkpt>
      <trkpt lat="46.18174" lon="6.40157">
        <ele>878.19</ele>
        <time>2018-09-15T12:30:48.000Z</time>
      </trkpt>
      <trkpt lat="46.18163" lon="6.4015">
        <ele>879.19</ele>
        <time>2018-09-15T12:30:53.000Z</time>
      </trkpt>
      <trkpt lat="46.18151" lon="6.40144">
        <ele>880.19</ele>
        <time>2018-09-15T12:30:58.000Z</time>
      </trkpt>
      <trkpt lat="46.18139" lon="6.40139">
        <ele>880.19</ele>
        <time>2018-09-15T12:31:03.000Z</time>
      </trkpt>
      <trkpt lat="46.18127" lon="6.40133">
        <ele>881.19</ele>
        <time>2018-09-15T12:31:08.000Z</time>
      </trkpt>
      <trkpt lat="46.18116" lon="6.40128">
        <ele>881.19</ele>
        <time>2018-09-15T12:31:13.000Z</time>
      </trkpt>
      <trkpt lat="46.18105" lon="6.40122">
        <ele>882.13</ele>
        <time>2018-09-15T12:31:18.000Z</time>
      </trkpt>
      <trkpt lat="46.18093" lon="6.40116">
        <ele>883.19</ele>
        <time>2018-09-15T12:31:23.000Z</time>
      </trkpt>
      <trkpt lat="46.18082" lon="6.4011">
        <ele>884.17</ele>
        <time>2018-09-15T12:31:28.000Z</time>
      </trkpt>
      <trkpt lat="46.18072" lon="6.40104">
        <ele>885.38</ele>
        <time>2018-09-15T12:31:33.000Z</time>
      </trkpt>
      <trkpt lat="46.18061" lon="6.40098">
        <ele>885.19</ele>
        <time>2018-09-15T12:31:38.000Z</time>
      </trkpt>
      <trkpt lat="46.1805" lon="6.40093">
        <ele>887.12</ele>
        <time>2018-09-15T12:31:43.000Z</time>
      </trkpt>
      <trkpt lat="46.1804" lon="6.40086">
        <ele>887.19</ele>
        <time>2018-09-15T12:31:48.000Z</time>
      </trkpt>
      <trkpt lat="46.18031" lon="6.40077">
        <ele>888.19</ele>
        <time>2018-09-15T12:31:53.000Z</time>
      </trkpt>
      <trkpt lat="46.18021" lon="6.40066">
        <ele>889.13</ele>
        <time>2018-09-15T12:31:58.000Z</time>
      </trkpt>
      <trkpt lat="46.18014" lon="6.40054">
        <ele>890.13</ele>
        <time>2018-09-15T12:32:03.000Z</time>
      </trkpt>
      <trkpt lat="46.18006" lon="6.40041">
        <ele>891.94</ele>
        <time>2018-09-15T12:32:08.000Z</time>
      </trkpt>
      <trkpt lat="46.17998" lon="6.40029">
        <ele>892.19</ele>
        <time>2018-09-15T12:32:13.000Z</time>
      </trkpt>
      <trkpt lat="46.17991" lon="6.40016">
        <ele>893.18</ele>
        <time>2018-09-15T12:32:18.000Z</time>
      </trkpt>
      <trkpt lat="46.17984" lon="6.40004">
        <ele>894.13</ele>
        <time>2018-09-15T12:32:23.000Z</time>
      </trkpt>
      <trkpt lat="46.17977" lon="6.39992">
        <ele>895.93</ele>
        <time>2018-09-15T12:32:28.000Z</time>
      </trkpt>
      <trkpt lat="46.17969" lon="6.39979">
        <ele>896.94</ele>
        <time>2018-09-15T12:32:33.000Z</time>
      </trkpt>
      <trkpt lat="46.17962" lon="6.39966">
        <ele>898.94</ele>
        <time>2018-09-15T12:32:38.000Z</time>
      </trkpt>
      <trkpt lat="46.17956" lon="6.39956">
        <ele>900.19</ele>
        <time>2018-09-15T12:32:43.000Z</time>
      </trkpt>
      <trkpt lat="46.17949" lon="6.39943">
        <ele>901.18</ele>
        <time>2018-09-15T12:32:48.000Z</time>
      </trkpt>
      <trkpt lat="46.17941" lon="6.39931">
        <ele>901.38</ele>
        <time>2018-09-15T12:32:53.000Z</time>
      </trkpt>
      <trkpt lat="46.17934" lon="6.39917">
        <ele>902.19</ele>
        <time>2018-09-15T12:32:58.000Z</time>
      </trkpt>
      <trkpt lat="46.17927" lon="6.39905">
        <ele>903.18</ele>
        <time>2018-09-15T12:33:03.000Z</time>
      </trkpt>
      <trkpt lat="46.17919" lon="6.39891">
        <ele>903.25</ele>
        <time>2018-09-15T12:33:08.000Z</time>
      </trkpt>
      <trkpt lat="46.17911" lon="6.39879">
        <ele>904.19</ele>
        <time>2018-09-15T12:33:13.000Z</time>
      </trkpt>
      <trkpt lat="46.17903" lon="6.39866">
        <ele>904.94</ele>
        <time>2018-09-15T12:33:18.000Z</time>
      </trkpt>
      <trkpt lat="46.17895" lon="6.39854">
        <ele>906.13</ele>
        <time>2018-09-15T12:33:23.000Z</time>
      </trkpt>
      <trkpt lat="46.17887" lon="6.39841">
        <ele>907.18</ele>
        <time>2018-09-15T12:33:28.000Z</time>
      </trkpt>
      <trkpt lat="46.1788" lon="6.39828">
        <ele>907.14</ele>
        <time>2018-09-15T12:33:33.000Z</time>
      </trkpt>
      <trkpt lat="46.17872" lon="6.39817">
        <ele>907.19</ele>
        <time>2018-09-15T12:33:38.000Z</time>
      </trkpt>
      <trkpt lat="46.17865" lon="6.39804">
        <ele>907.13</ele>
        <time>2018-09-15T12:33:43.000Z</time>
      </trkpt>
      <trkpt lat="46.17857" lon="6.39791">
        <ele>908.94</ele>
        <time>2018-09-15T12:33:48.000Z</time>
      </trkpt>
      <trkpt lat="46.17846" lon="6.39784">
        <ele>909.94</ele>
        <time>2018-09-15T12:33:53.000Z</time>
      </trkpt>
      <trkpt lat="46.17835" lon="6.39778">
        <ele>911.18</ele>
        <time>2018-09-15T12:33:58.000Z</time>
      </trkpt>
      <trkpt lat="46.17824" lon="6.39779">
        <ele>912.13</ele>
        <time>2018-09-15T12:34:03.000Z</time>
      </trkpt>
      <trkpt lat="46.17814" lon="6.39787">
        <ele>912.19</ele>
        <time>2018-09-15T12:34:08.000Z</time>
      </trkpt>
      <trkpt lat="46.17805" lon="6.39797">
        <ele>913.13</ele>
        <time>2018-09-15T12:34:13.000Z</time>
      </trkpt>
      <trkpt lat="46.17798" lon="6.39809">
        <ele>913.19</ele>
        <time>2018-09-15T12:34:18.000Z</time>
      </trkpt>
      <trkpt lat="46.17792" lon="6.3982">
        <ele>915.17</ele>
        <time>2018-09-15T12:34:23.000Z</time>
      </trkpt>
      <trkpt lat="46.17786" lon="6.39835">
        <ele>916.13</ele>
        <time>2018-09-15T12:34:28.000Z</time>
      </trkpt>
      <trkpt lat="46.1778" lon="6.39848">
        <ele>917.19</ele>
        <time>2018-09-15T12:34:33.000Z</time>
      </trkpt>
      <trkpt lat="46.17774" lon="6.39861">
        <ele>918.38</ele>
        <time>2018-09-15T12:34:38.000Z</time>
      </trkpt>
      <trkpt lat="46.17769" lon="6.39875">
        <ele>919.19</ele>
        <time>2018-09-15T12:34:43.000Z</time>
      </trkpt>
      <trkpt lat="46.17767" lon="6.39892">
        <ele>920.14</ele>
        <time>2018-09-15T12:34:48.000Z</time>
      </trkpt>
      <trkpt lat="46.17769" lon="6.39908">
        <ele>921.13</ele>
        <time>2018-09-15T12:34:53.000Z</time>
      </trkpt>
      <trkpt lat="46.17772" lon="6.39925">
        <ele>923.12</ele>
        <time>2018-09-15T12:34:58.000Z</time>
      </trkpt>
      <trkpt lat="46.17776" lon="6.3994">
        <ele>923.19</ele>
        <time>2018-09-15T12:35:03.000Z</time>
      </trkpt>
      <trkpt lat="46.17778" lon="6.39955">
        <ele>924.94</ele>
        <time>2018-09-15T12:35:08.000Z</time>
      </trkpt>
      <trkpt lat="46.17772" lon="6.39969">
        <ele>926.18</ele>
        <time>2018-09-15T12:35:13.000Z</time>
      </trkpt>
      <trkpt lat="46.17761" lon="6.39969">
        <ele>926.19</ele>
        <time>2018-09-15T12:35:18.000Z</time>
      </trkpt>
      <trkpt lat="46.17753" lon="6.39956">
        <ele>927.19</ele>
        <time>2018-09-15T12:35:23.000Z</time>
      </trkpt>
      <trkpt lat="46.17748" lon="6.39939">
        <ele>927.19</ele>
        <time>2018-09-15T12:35:28.000Z</time>
      </trkpt>
      <trkpt lat="46.17741" lon="6.39927">
        <ele>928.19</ele>
        <time>2018-09-15T12:35:33.000Z</time>
      </trkpt>
      <trkpt lat="46.1773" lon="6.39916">
        <ele>928.94</ele>
        <time>2018-09-15T12:35:38.000Z</time>
      </trkpt>
      <trkpt lat="46.17721" lon="6.39906">
        <ele>930.93</ele>
        <time>2018-09-15T12:35:43.000Z</time>
      </trkpt>
      <trkpt lat="46.17711" lon="6.39896">
        <ele>931.94</ele>
        <time>2018-09-15T12:35:48.000Z</time>
      </trkpt>
      <trkpt lat="46.17701" lon="6.39887">
        <ele>933.13</ele>
        <time>2018-09-15T12:35:53.000Z</time>
      </trkpt>
      <trkpt lat="46.17691" lon="6.39876">
        <ele>933.19</ele>
        <time>2018-09-15T12:35:58.000Z</time>
      </trkpt>
      <trkpt lat="46.1768" lon="6.39871">
        <ele>934.19</ele>
        <time>2018-09-15T12:36:03.000Z</time>
      </trkpt>
      <trkpt lat="46.17668" lon="6.39875">
        <ele>935.19</ele>
        <time>2018-09-15T12:36:08.000Z</time>
      </trkpt>
      <trkpt lat="46.17657" lon="6.39881">
        <ele>934.2</ele>
        <time>2018-09-15T12:36:13.000Z</time>
      </trkpt>
      <trkpt lat="46.17645" lon="6.39889">
        <ele>933.2</ele>
        <time>2018-09-15T12:36:18.000Z</time>
      </trkpt>
      <trkpt lat="46.17634" lon="6.39897">
        <ele>933.13</ele>
        <time>2018-09-15T12:36:23.000Z</time>
      </trkpt>
      <trkpt lat="46.17621" lon="6.39901">
        <ele>935.19</ele>
        <time>2018-09-15T12:36:28.000Z</time>
      </trkpt>
      <trkpt lat="46.17606" lon="6.39904">
        <ele>936.13</ele>
        <time>2018-09-15T12:36:33.000Z</time>
      </trkpt>
      <trkpt lat="46.17592" lon="6.39904">
        <ele>937.88</ele>
        <time>2018-09-15T12:36:38.000Z</time>
      </trkpt>
      <trkpt lat="46.17578" lon="6.39902">
        <ele>939</ele>
        <time>2018-09-15T12:36:43.000Z</time>
      </trkpt>
      <trkpt lat="46.17563" lon="6.39898">
        <ele>938.2</ele>
        <time>2018-09-15T12:36:48.000Z</time>
      </trkpt>
      <trkpt lat="46.17546" lon="6.39894">
        <ele>939.35</ele>
        <time>2018-09-15T12:36:53.000Z</time>
      </trkpt>
      <trkpt lat="46.17529" lon="6.39888">
        <ele>940.93</ele>
        <time>2018-09-15T12:36:58.000Z</time>
      </trkpt>
      <trkpt lat="46.17502" lon="6.39882">
        <ele>939.16</ele>
        <time>2018-09-15T12:37:03.000Z</time>
      </trkpt>
      <trkpt lat="46.17469" lon="6.39877">
        <ele>939</ele>
        <time>2018-09-15T12:37:08.000Z</time>
      </trkpt>
      <trkpt lat="46.17443" lon="6.39873">
        <ele>937.26</ele>
        <time>2018-09-15T12:37:13.000Z</time>
      </trkpt>
      <trkpt lat="46.17421" lon="6.39871">
        <ele>939.08</ele>
        <time>2018-09-15T12:37:18.000Z</time>
      </trkpt>
      <trkpt lat="46.17435" lon="6.39898">
        <ele>935.46</ele>
        <time>2018-09-15T12:37:23.000Z</time>
      </trkpt>
      <trkpt lat="46.17436" lon="6.39947">
        <ele>930.28</ele>
        <time>2018-09-15T12:37:28.000Z</time>
      </trkpt>
      <trkpt lat="46.17423" lon="6.3999">
        <ele>926.46</ele>
        <time>2018-09-15T12:37:33.000Z</time>
      </trkpt>
      <trkpt lat="46.17396" lon="6.39964">
        <ele>923.46</ele>
        <time>2018-09-15T12:37:38.000Z</time>
      </trkpt>
      <trkpt lat="46.17362" lon="6.39934">
        <ele>919.28</ele>
        <time>2018-09-15T12:37:43.000Z</time>
      </trkpt>
      <trkpt lat="46.17321" lon="6.39919">
        <ele>915.58</ele>
        <time>2018-09-15T12:37:48.000Z</time>
      </trkpt>
      <trkpt lat="46.17272" lon="6.3992">
        <ele>910.82</ele>
        <time>2018-09-15T12:37:53.000Z</time>
      </trkpt>
      <trkpt lat="46.17233" lon="6.39903">
        <ele>817.19</ele>
        <time>2018-09-15T12:37:58.000Z</time>
      </trkpt>
      <trkpt lat="46.172" lon="6.39857">
        <ele>882.4</ele>
        <time>2018-09-15T12:38:03.000Z</time>
      </trkpt>
      <trkpt lat="46.17159" lon="6.39806">
        <ele>889.87</ele>
        <time>2018-09-15T12:38:08.000Z</time>
      </trkpt>
      <trkpt lat="46.17111" lon="6.39762">
        <ele>892.23</ele>
        <time>2018-09-15T12:38:13.000Z</time>
      </trkpt>
      <trkpt lat="46.17063" lon="6.39724">
        <ele>891.44</ele>
        <time>2018-09-15T12:38:18.000Z</time>
      </trkpt>
      <trkpt lat="46.17022" lon="6.39689">
        <ele>887.53</ele>
        <time>2018-09-15T12:38:23.000Z</time>
      </trkpt>
      <trkpt lat="46.17015" lon="6.39645">
        <ele>884.51</ele>
        <time>2018-09-15T12:38:28.000Z</time>
      </trkpt>
      <trkpt lat="46.16998" lon="6.39592">
        <ele>882.26</ele>
        <time>2018-09-15T12:38:33.000Z</time>
      </trkpt>
      <trkpt lat="46.16977" lon="6.39544">
        <ele>879.46</ele>
        <time>2018-09-15T12:38:38.000Z</time>
      </trkpt>
      <trkpt lat="46.16962" lon="6.39487">
        <ele>877.23</ele>
        <time>2018-09-15T12:38:43.000Z</time>
      </trkpt>
      <trkpt lat="46.16928" lon="6.39446">
        <ele>874.22</ele>
        <time>2018-09-15T12:38:48.000Z</time>
      </trkpt>
      <trkpt lat="46.16902" lon="6.39392">
        <ele>870.51</ele>
        <time>2018-09-15T12:38:53.000Z</time>
      </trkpt>
      <trkpt lat="46.16882" lon="6.39328">
        <ele>867.28</ele>
        <time>2018-09-15T12:38:58.000Z</time>
      </trkpt>
      <trkpt lat="46.1688" lon="6.39258">
        <ele>864.51</ele>
        <time>2018-09-15T12:39:03.000Z</time>
      </trkpt>
      <trkpt lat="46.1689" lon="6.39178">
        <ele>860.53</ele>
        <time>2018-09-15T12:39:08.000Z</time>
      </trkpt>
      <trkpt lat="46.16901" lon="6.39102">
        <ele>858.45</ele>
        <time>2018-09-15T12:39:13.000Z</time>
      </trkpt>
      <trkpt lat="46.16902" lon="6.3904">
        <ele>855.53</ele>
        <time>2018-09-15T12:39:18.000Z</time>
      </trkpt>
      <trkpt lat="46.16905" lon="6.38979">
        <ele>852.28</ele>
        <time>2018-09-15T12:39:23.000Z</time>
      </trkpt>
      <trkpt lat="46.1688" lon="6.38948">
        <ele>848.47</ele>
        <time>2018-09-15T12:39:28.000Z</time>
      </trkpt>
      <trkpt lat="46.16838" lon="6.38965">
        <ele>844.3</ele>
        <time>2018-09-15T12:39:33.000Z</time>
      </trkpt>
      <trkpt lat="46.16789" lon="6.38983">
        <ele>840.47</ele>
        <time>2018-09-15T12:39:38.000Z</time>
      </trkpt>
      <trkpt lat="46.16737" lon="6.38987">
        <ele>835.4</ele>
        <time>2018-09-15T12:39:43.000Z</time>
      </trkpt>
      <trkpt lat="46.16682" lon="6.38983">
        <ele>830.49</ele>
        <time>2018-09-15T12:39:48.000Z</time>
      </trkpt>
      <trkpt lat="46.16626" lon="6.38985">
        <ele>826.28</ele>
        <time>2018-09-15T12:39:53.000Z</time>
      </trkpt>
      <trkpt lat="46.1657" lon="6.38995">
        <ele>825.21</ele>
        <time>2018-09-15T12:39:58.000Z</time>
      </trkpt>
      <trkpt lat="46.16514" lon="6.39006">
        <ele>823.21</ele>
        <time>2018-09-15T12:40:03.000Z</time>
      </trkpt>
      <trkpt lat="46.16456" lon="6.39013">
        <ele>819.53</ele>
        <time>2018-09-15T12:40:08.000Z</time>
      </trkpt>
      <trkpt lat="46.16397" lon="6.3901">
        <ele>817.29</ele>
        <time>2018-09-15T12:40:13.000Z</time>
      </trkpt>
      <trkpt lat="46.16342" lon="6.39004">
        <ele>813.47</ele>
        <time>2018-09-15T12:40:18.000Z</time>
      </trkpt>
      <trkpt lat="46.16288" lon="6.38983">
        <ele>809.24</ele>
        <time>2018-09-15T12:40:23.000Z</time>
      </trkpt>
      <trkpt lat="46.16231" lon="6.38966">
        <ele>805.7</ele>
        <time>2018-09-15T12:40:28.000Z</time>
      </trkpt>
      <trkpt lat="46.16183" lon="6.38949">
        <ele>805.95</ele>
        <time>2018-09-15T12:40:33.000Z</time>
      </trkpt>
      <trkpt lat="46.16127" lon="6.38937">
        <ele>803.47</ele>
        <time>2018-09-15T12:40:38.000Z</time>
      </trkpt>
      <trkpt lat="46.16076" lon="6.38919">
        <ele>798.27</ele>
        <time>2018-09-15T12:40:43.000Z</time>
      </trkpt>
      <trkpt lat="46.16024" lon="6.38892">
        <ele>794.53</ele>
        <time>2018-09-15T12:40:48.000Z</time>
      </trkpt>
      <trkpt lat="46.15975" lon="6.3885">
        <ele>788.55</ele>
        <time>2018-09-15T12:40:53.000Z</time>
      </trkpt>
      <trkpt lat="46.15935" lon="6.38811">
        <ele>781.74</ele>
        <time>2018-09-15T12:40:58.000Z</time>
      </trkpt>
      <trkpt lat="46.1589" lon="6.38803">
        <ele>777.53</ele>
        <time>2018-09-15T12:41:03.000Z</time>
      </trkpt>
      <trkpt lat="46.15854" lon="6.38826">
        <ele>772.53</ele>
        <time>2018-09-15T12:41:08.000Z</time>
      </trkpt>
      <trkpt lat="46.15855" lon="6.38875">
        <ele>770.03</ele>
        <time>2018-09-15T12:41:13.000Z</time>
      </trkpt>
      <trkpt lat="46.15878" lon="6.38928">
        <ele>766.53</ele>
        <time>2018-09-15T12:41:18.000Z</time>
      </trkpt>
      <trkpt lat="46.15907" lon="6.38982">
        <ele>762.53</ele>
        <time>2018-09-15T12:41:23.000Z</time>
      </trkpt>
      <trkpt lat="46.1594" lon="6.39034">
        <ele>760.27</ele>
        <time>2018-09-15T12:41:28.000Z</time>
      </trkpt>
      <trkpt lat="46.15976" lon="6.39072">
        <ele>757.22</ele>
        <time>2018-09-15T12:41:33.000Z</time>
      </trkpt>
      <trkpt lat="46.15976" lon="6.3911">
        <ele>755.47</ele>
        <time>2018-09-15T12:41:38.000Z</time>
      </trkpt>
      <trkpt lat="46.15938" lon="6.39099">
        <ele>752.27</ele>
        <time>2018-09-15T12:41:43.000Z</time>
      </trkpt>
      <trkpt lat="46.15894" lon="6.39076">
        <ele>745.79</ele>
        <time>2018-09-15T12:41:48.000Z</time>
      </trkpt>
      <trkpt lat="46.15848" lon="6.39064">
        <ele>745</ele>
        <time>2018-09-15T12:41:53.000Z</time>
      </trkpt>
      <trkpt lat="46.15816" lon="6.39071">
        <ele>742.47</ele>
        <time>2018-09-15T12:41:58.000Z</time>
      </trkpt>
      <trkpt lat="46.15796" lon="6.39063">
        <ele>740.5</ele>
        <time>2018-09-15T12:42:03.000Z</time>
      </trkpt>
      <trkpt lat="46.15777" lon="6.39038">
        <ele>740.19</ele>
        <time>2018-09-15T12:42:08.000Z</time>
      </trkpt>
      <trkpt lat="46.15758" lon="6.39011">
        <ele>741.3</ele>
        <time>2018-09-15T12:42:13.000Z</time>
      </trkpt>
      <trkpt lat="46.15736" lon="6.38983">
        <ele>741.22</ele>
        <time>2018-09-15T12:42:18.000Z</time>
      </trkpt>
      <trkpt lat="46.15702" lon="6.38977">
        <ele>740.2</ele>
        <time>2018-09-15T12:42:23.000Z</time>
      </trkpt>
      <trkpt lat="46.15659" lon="6.38961">
        <ele>735.53</ele>
        <time>2018-09-15T12:42:28.000Z</time>
      </trkpt>
      <trkpt lat="46.1562" lon="6.38925">
        <ele>733.21</ele>
        <time>2018-09-15T12:42:33.000Z</time>
      </trkpt>
      <trkpt lat="46.15577" lon="6.38894">
        <ele>730.28</ele>
        <time>2018-09-15T12:42:38.000Z</time>
      </trkpt>
      <trkpt lat="46.15533" lon="6.38855">
        <ele>727.45</ele>
        <time>2018-09-15T12:42:43.000Z</time>
      </trkpt>
      <trkpt lat="46.15483" lon="6.38816">
        <ele>722.58</ele>
        <time>2018-09-15T12:42:48.000Z</time>
      </trkpt>
      <trkpt lat="46.15443" lon="6.3876">
        <ele>719.82</ele>
        <time>2018-09-15T12:42:53.000Z</time>
      </trkpt>
      <trkpt lat="46.15419" lon="6.38685">
        <ele>712.6</ele>
        <time>2018-09-15T12:42:58.000Z</time>
      </trkpt>
      <trkpt lat="46.15397" lon="6.38598">
        <ele>707.78</ele>
        <time>2018-09-15T12:43:03.000Z</time>
      </trkpt>
      <trkpt lat="46.15377" lon="6.38507">
        <ele>701.73</ele>
        <time>2018-09-15T12:43:08.000Z</time>
      </trkpt>
      <trkpt lat="46.15357" lon="6.38411">
        <ele>695.55</ele>
        <time>2018-09-15T12:43:13.000Z</time>
      </trkpt>
      <trkpt lat="46.15324" lon="6.38341">
        <ele>690.54</ele>
        <time>2018-09-15T12:43:18.000Z</time>
      </trkpt>
      <trkpt lat="46.15315" lon="6.38271">
        <ele>684.79</ele>
        <time>2018-09-15T12:43:23.000Z</time>
      </trkpt>
      <trkpt lat="46.1531" lon="6.38197">
        <ele>681.27</ele>
        <time>2018-09-15T12:43:28.000Z</time>
      </trkpt>
      <trkpt lat="46.15329" lon="6.38125">
        <ele>677.24</ele>
        <time>2018-09-15T12:43:33.000Z</time>
      </trkpt>
      <trkpt lat="46.15362" lon="6.38058">
        <ele>673.23</ele>
        <time>2018-09-15T12:43:38.000Z</time>
      </trkpt>
      <trkpt lat="46.15392" lon="6.3799">
        <ele>671.76</ele>
        <time>2018-09-15T12:43:43.000Z</time>
      </trkpt>
      <trkpt lat="46.15407" lon="6.37946">
        <ele>668.45</ele>
        <time>2018-09-15T12:43:48.000Z</time>
      </trkpt>
      <trkpt lat="46.15418" lon="6.37912">
        <ele>664.73</ele>
        <time>2018-09-15T12:43:53.000Z</time>
      </trkpt>
      <trkpt lat="46.15435" lon="6.37872">
        <ele>660.54</ele>
        <time>2018-09-15T12:43:58.000Z</time>
      </trkpt>
      <trkpt lat="46.15459" lon="6.37829">
        <ele>656.72</ele>
        <time>2018-09-15T12:44:03.000Z</time>
      </trkpt>
      <trkpt lat="46.15488" lon="6.37791">
        <ele>655.27</ele>
        <time>2018-09-15T12:44:08.000Z</time>
      </trkpt>
      <trkpt lat="46.15523" lon="6.3775">
        <ele>652.34</ele>
        <time>2018-09-15T12:44:13.000Z</time>
      </trkpt>
      <trkpt lat="46.1556" lon="6.377">
        <ele>650.22</ele>
        <time>2018-09-15T12:44:18.000Z</time>
      </trkpt>
      <trkpt lat="46.156" lon="6.37642">
        <ele>643.81</ele>
        <time>2018-09-15T12:44:23.000Z</time>
      </trkpt>
      <trkpt lat="46.15647" lon="6.37596">
        <ele>640.46</ele>
        <time>2018-09-15T12:44:28.000Z</time>
      </trkpt>
      <trkpt lat="46.15698" lon="6.37561">
        <ele>638.22</ele>
        <time>2018-09-15T12:44:33.000Z</time>
      </trkpt>
      <trkpt lat="46.15742" lon="6.37521">
        <ele>636.22</ele>
        <time>2018-09-15T12:44:38.000Z</time>
      </trkpt>
      <trkpt lat="46.15777" lon="6.37469">
        <ele>635.22</ele>
        <time>2018-09-15T12:44:43.000Z</time>
      </trkpt>
      <trkpt lat="46.15808" lon="6.37411">
        <ele>632.52</ele>
        <time>2018-09-15T12:44:48.000Z</time>
      </trkpt>
      <trkpt lat="46.15843" lon="6.37362">
        <ele>629.29</ele>
        <time>2018-09-15T12:44:53.000Z</time>
      </trkpt>
      <trkpt lat="46.15891" lon="6.37331">
        <ele>625.54</ele>
        <time>2018-09-15T12:44:58.000Z</time>
      </trkpt>
      <trkpt lat="46.1594" lon="6.37301">
        <ele>621.58</ele>
        <time>2018-09-15T12:45:03.000Z</time>
      </trkpt>
      <trkpt lat="46.15989" lon="6.37269">
        <ele>618.48</ele>
        <time>2018-09-15T12:45:08.000Z</time>
      </trkpt>
      <trkpt lat="46.16039" lon="6.37246">
        <ele>615.29</ele>
        <time>2018-09-15T12:45:13.000Z</time>
      </trkpt>
      <trkpt lat="46.16092" lon="6.37241">
        <ele>610.54</ele>
        <time>2018-09-15T12:45:18.000Z</time>
      </trkpt>
      <trkpt lat="46.16143" lon="6.37253">
        <ele>608.52</ele>
        <time>2018-09-15T12:45:23.000Z</time>
      </trkpt>
      <trkpt lat="46.16187" lon="6.37271">
        <ele>607.27</ele>
        <time>2018-09-15T12:45:28.000Z</time>
      </trkpt>
      <trkpt lat="46.1622" lon="6.37242">
        <ele>606.66</ele>
        <time>2018-09-15T12:45:33.000Z</time>
      </trkpt>
      <trkpt lat="46.16205" lon="6.37192">
        <ele>603.53</ele>
        <time>2018-09-15T12:45:38.000Z</time>
      </trkpt>
      <trkpt lat="46.16165" lon="6.37159">
        <ele>601.71</ele>
        <time>2018-09-15T12:45:43.000Z</time>
      </trkpt>
      <trkpt lat="46.16139" lon="6.37094">
        <ele>598.27</ele>
        <time>2018-09-15T12:45:48.000Z</time>
      </trkpt>
      <trkpt lat="46.16114" lon="6.37033">
        <ele>598.21</ele>
        <time>2018-09-15T12:45:53.000Z</time>
      </trkpt>
      <trkpt lat="46.16091" lon="6.36975">
        <ele>597.27</ele>
        <time>2018-09-15T12:45:58.000Z</time>
      </trkpt>
      <trkpt lat="46.16087" lon="6.36907">
        <ele>596.21</ele>
        <time>2018-09-15T12:46:03.000Z</time>
      </trkpt>
      <trkpt lat="46.16094" lon="6.36836">
        <ele>594.24</ele>
        <time>2018-09-15T12:46:08.000Z</time>
      </trkpt>
      <trkpt lat="46.1611" lon="6.36769">
        <ele>591.29</ele>
        <time>2018-09-15T12:46:13.000Z</time>
      </trkpt>
      <trkpt lat="46.16112" lon="6.36697">
        <ele>590.21</ele>
        <time>2018-09-15T12:46:18.000Z</time>
      </trkpt>
      <trkpt lat="46.16099" lon="6.36631">
        <ele>588.28</ele>
        <time>2018-09-15T12:46:23.000Z</time>
      </trkpt>
      <trkpt lat="46.16083" lon="6.36567">
        <ele>586.23</ele>
        <time>2018-09-15T12:46:28.000Z</time>
      </trkpt>
      <trkpt lat="46.16069" lon="6.36497">
        <ele>583.54</ele>
        <time>2018-09-15T12:46:33.000Z</time>
      </trkpt>
      <trkpt lat="46.16064" lon="6.36422">
        <ele>580.48</ele>
        <time>2018-09-15T12:46:38.000Z</time>
      </trkpt>
      <trkpt lat="46.16068" lon="6.3634">
        <ele>577.29</ele>
        <time>2018-09-15T12:46:43.000Z</time>
      </trkpt>
      <trkpt lat="46.16074" lon="6.36256">
        <ele>574.48</ele>
        <time>2018-09-15T12:46:48.000Z</time>
      </trkpt>
      <trkpt lat="46.16054" lon="6.36173">
        <ele>569.79</ele>
        <time>2018-09-15T12:46:53.000Z</time>
      </trkpt>
      <trkpt lat="46.1602" lon="6.36099">
        <ele>660.23</ele>
        <time>2018-09-15T12:46:58.000Z</time>
      </trkpt>
      <trkpt lat="46.15987" lon="6.36022">
        <ele>581.48</ele>
        <time>2018-09-15T12:47:03.000Z</time>
      </trkpt>
      <trkpt lat="46.15957" lon="6.35947">
        <ele>569.08</ele>
        <time>2018-09-15T12:47:08.000Z</time>
      </trkpt>
      <trkpt lat="46.15927" lon="6.35871">
        <ele>562.06</ele>
        <time>2018-09-15T12:47:13.000Z</time>
      </trkpt>
      <trkpt lat="46.15909" lon="6.35826">
        <ele>554.62</ele>
        <time>2018-09-15T12:47:18.000Z</time>
      </trkpt>
      <trkpt lat="46.15906" lon="6.35783">
        <ele>551.44</ele>
        <time>2018-09-15T12:47:23.000Z</time>
      </trkpt>
      <trkpt lat="46.15908" lon="6.35736">
        <ele>549.97</ele>
        <time>2018-09-15T12:47:28.000Z</time>
      </trkpt>
      <trkpt lat="46.15913" lon="6.35688">
        <ele>549.28</ele>
        <time>2018-09-15T12:47:33.000Z</time>
      </trkpt>
      <trkpt lat="46.15928" lon="6.35643">
        <ele>549.96</ele>
        <time>2018-09-15T12:47:38.000Z</time>
      </trkpt>
      <trkpt lat="46.15952" lon="6.35605">
        <ele>550.23</ele>
        <time>2018-09-15T12:47:43.000Z</time>
      </trkpt>
      <trkpt lat="46.15984" lon="6.35575">
        <ele>548.3</ele>
        <time>2018-09-15T12:47:48.000Z</time>
      </trkpt>
      <trkpt lat="46.16014" lon="6.35546">
        <ele>547.26</ele>
        <time>2018-09-15T12:47:53.000Z</time>
      </trkpt>
      <trkpt lat="46.16045" lon="6.35517">
        <ele>547.46</ele>
        <time>2018-09-15T12:47:58.000Z</time>
      </trkpt>
      <trkpt lat="46.16073" lon="6.3549">
        <ele>546.98</ele>
        <time>2018-09-15T12:48:03.000Z</time>
      </trkpt>
      <trkpt lat="46.16098" lon="6.35456">
        <ele>547.21</ele>
        <time>2018-09-15T12:48:08.000Z</time>
      </trkpt>
      <trkpt lat="46.16123" lon="6.35414">
        <ele>545.23</ele>
        <time>2018-09-15T12:48:13.000Z</time>
      </trkpt>
      <trkpt lat="46.16145" lon="6.35368">
        <ele>543.29</ele>
        <time>2018-09-15T12:48:18.000Z</time>
      </trkpt>
      <trkpt lat="46.16171" lon="6.35329">
        <ele>544.15</ele>
        <time>2018-09-15T12:48:23.000Z</time>
      </trkpt>
      <trkpt lat="46.16203" lon="6.35312">
        <ele>544.21</ele>
        <time>2018-09-15T12:48:28.000Z</time>
      </trkpt>
      <trkpt lat="46.16234" lon="6.35312">
        <ele>543.97</ele>
        <time>2018-09-15T12:48:33.000Z</time>
      </trkpt>
      <trkpt lat="46.16266" lon="6.35314">
        <ele>542.53</ele>
        <time>2018-09-15T12:48:38.000Z</time>
      </trkpt>
      <trkpt lat="46.16283" lon="6.35315">
        <ele>541.23</ele>
        <time>2018-09-15T12:48:43.000Z</time>
      </trkpt>
      <trkpt lat="46.163" lon="6.35334">
        <ele>541.45</ele>
        <time>2018-09-15T12:48:48.000Z</time>
      </trkpt>
      <trkpt lat="46.1631" lon="6.3537">
        <ele>540.23</ele>
        <time>2018-09-15T12:48:53.000Z</time>
      </trkpt>
      <trkpt lat="46.16318" lon="6.35408">
        <ele>541.21</ele>
        <time>2018-09-15T12:48:58.000Z</time>
      </trkpt>
      <trkpt lat="46.16325" lon="6.35443">
        <ele>543.2</ele>
        <time>2018-09-15T12:49:03.000Z</time>
      </trkpt>
      <trkpt lat="46.1633" lon="6.35476">
        <ele>544.2</ele>
        <time>2018-09-15T12:49:08.000Z</time>
      </trkpt>
      <trkpt lat="46.16335" lon="6.35508">
        <ele>545.15</ele>
        <time>2018-09-15T12:49:13.000Z</time>
      </trkpt>
      <trkpt lat="46.16341" lon="6.35536">
        <ele>545.21</ele>
        <time>2018-09-15T12:49:18.000Z</time>
      </trkpt>
      <trkpt lat="46.16348" lon="6.35561">
        <ele>545.96</ele>
        <time>2018-09-15T12:49:23.000Z</time>
      </trkpt>
      <trkpt lat="46.16355" lon="6.35584">
        <ele>546.21</ele>
        <time>2018-09-15T12:49:28.000Z</time>
      </trkpt>
      <trkpt lat="46.16363" lon="6.35607">
        <ele>545.96</ele>
        <time>2018-09-15T12:49:33.000Z</time>
      </trkpt>
      <trkpt lat="46.16371" lon="6.35629">
        <ele>546.4</ele>
        <time>2018-09-15T12:49:38.000Z</time>
      </trkpt>
      <trkpt lat="46.16378" lon="6.35649">
        <ele>548.15</ele>
        <time>2018-09-15T12:49:43.000Z</time>
      </trkpt>
      <trkpt lat="46.16385" lon="6.35671">
        <ele>550.16</ele>
        <time>2018-09-15T12:49:48.000Z</time>
      </trkpt>
      <trkpt lat="46.16389" lon="6.35695">
        <ele>550.21</ele>
        <time>2018-09-15T12:49:53.000Z</time>
      </trkpt>
      <trkpt lat="46.16391" lon="6.35719">
        <ele>551.01</ele>
        <time>2018-09-15T12:49:58.000Z</time>
      </trkpt>
      <trkpt lat="46.16392" lon="6.35743">
        <ele>551.21</ele>
        <time>2018-09-15T12:50:03.000Z</time>
      </trkpt>
      <trkpt lat="46.16391" lon="6.35767">
        <ele>552.15</ele>
        <time>2018-09-15T12:50:08.000Z</time>
      </trkpt>
      <trkpt lat="46.1639" lon="6.35791">
        <ele>552.21</ele>
        <time>2018-09-15T12:50:13.000Z</time>
      </trkpt>
      <trkpt lat="46.1639" lon="6.35815">
        <ele>554.15</ele>
        <time>2018-09-15T12:50:18.000Z</time>
      </trkpt>
      <trkpt lat="46.16389" lon="6.35838">
        <ele>555.15</ele>
        <time>2018-09-15T12:50:23.000Z</time>
      </trkpt>
      <trkpt lat="46.16389" lon="6.35861">
        <ele>555.21</ele>
        <time>2018-09-15T12:50:28.000Z</time>
      </trkpt>
      <trkpt lat="46.16389" lon="6.35883">
        <ele>556.21</ele>
        <time>2018-09-15T12:50:33.000Z</time>
      </trkpt>
      <trkpt lat="46.16389" lon="6.35906">
        <ele>557.15</ele>
        <time>2018-09-15T12:50:38.000Z</time>
      </trkpt>
      <trkpt lat="46.16389" lon="6.3593">
        <ele>557.21</ele>
        <time>2018-09-15T12:50:43.000Z</time>
      </trkpt>
      <trkpt lat="46.16391" lon="6.35952">
        <ele>558.21</ele>
        <time>2018-09-15T12:50:48.000Z</time>
      </trkpt>
      <trkpt lat="46.16393" lon="6.35975">
        <ele>559.15</ele>
        <time>2018-09-15T12:50:53.000Z</time>
      </trkpt>
      <trkpt lat="46.16395" lon="6.35998">
        <ele>561.14</ele>
        <time>2018-09-15T12:50:58.000Z</time>
      </trkpt>
      <trkpt lat="46.16396" lon="6.36021">
        <ele>561.21</ele>
        <time>2018-09-15T12:51:03.000Z</time>
      </trkpt>
      <trkpt lat="46.16398" lon="6.36044">
        <ele>562.21</ele>
        <time>2018-09-15T12:51:08.000Z</time>
      </trkpt>
      <trkpt lat="46.16401" lon="6.36067">
        <ele>563.21</ele>
        <time>2018-09-15T12:51:13.000Z</time>
      </trkpt>
      <trkpt lat="46.16403" lon="6.36091">
        <ele>564.21</ele>
        <time>2018-09-15T12:51:18.000Z</time>
      </trkpt>
      <trkpt lat="46.16404" lon="6.36114">
        <ele>565.15</ele>
        <time>2018-09-15T12:51:23.000Z</time>
      </trkpt>
      <trkpt lat="46.16406" lon="6.36138">
        <ele>565.96</ele>
        <time>2018-09-15T12:51:28.000Z</time>
      </trkpt>
      <trkpt lat="46.16408" lon="6.36161">
        <ele>567.15</ele>
        <time>2018-09-15T12:51:33.000Z</time>
      </trkpt>
      <trkpt lat="46.16409" lon="6.36183">
        <ele>568.94</ele>
        <time>2018-09-15T12:51:38.000Z</time>
      </trkpt>
      <trkpt lat="46.16407" lon="6.36206">
        <ele>569.96</ele>
        <time>2018-09-15T12:51:43.000Z</time>
      </trkpt>
      <trkpt lat="46.16404" lon="6.36227">
        <ele>571.15</ele>
        <time>2018-09-15T12:51:48.000Z</time>
      </trkpt>
      <trkpt lat="46.164" lon="6.36248">
        <ele>572.19</ele>
        <time>2018-09-15T12:51:53.000Z</time>
      </trkpt>
      <trkpt lat="46.16394" lon="6.36269">
        <ele>572.96</ele>
        <time>2018-09-15T12:51:58.000Z</time>
      </trkpt>
      <trkpt lat="46.16389" lon="6.36289">
        <ele>573.96</ele>
        <time>2018-09-15T12:52:03.000Z</time>
      </trkpt>
      <trkpt lat="46.16384" lon="6.36313">
        <ele>574.96</ele>
        <time>2018-09-15T12:52:08.000Z</time>
      </trkpt>
      <trkpt lat="46.16383" lon="6.36336">
        <ele>577.13</ele>
        <time>2018-09-15T12:52:13.000Z</time>
      </trkpt>
      <trkpt lat="46.16383" lon="6.36358">
        <ele>578.4</ele>
        <time>2018-09-15T12:52:18.000Z</time>
      </trkpt>
      <trkpt lat="46.16385" lon="6.36381">
        <ele>578.21</ele>
        <time>2018-09-15T12:52:23.000Z</time>
      </trkpt>
      <trkpt lat="46.16386" lon="6.36403">
        <ele>579.21</ele>
        <time>2018-09-15T12:52:28.000Z</time>
      </trkpt>
      <trkpt lat="46.16389" lon="6.36426">
        <ele>581.19</ele>
        <time>2018-09-15T12:52:33.000Z</time>
      </trkpt>
      <trkpt lat="46.16396" lon="6.36449">
        <ele>581.21</ele>
        <time>2018-09-15T12:52:38.000Z</time>
      </trkpt>
      <trkpt lat="46.16408" lon="6.36457">
        <ele>581.21</ele>
        <time>2018-09-15T12:52:43.000Z</time>
      </trkpt>
      <trkpt lat="46.16418" lon="6.3644">
        <ele>582.21</ele>
        <time>2018-09-15T12:52:48.000Z</time>
      </trkpt>
      <trkpt lat="46.16419" lon="6.36415">
        <ele>582.97</ele>
        <time>2018-09-15T12:52:53.000Z</time>
      </trkpt>
      <trkpt lat="46.16414" lon="6.36391">
        <ele>583.96</ele>
        <time>2018-09-15T12:52:58.000Z</time>
      </trkpt>
      <trkpt lat="46.16412" lon="6.36364">
        <ele>585.19</ele>
        <time>2018-09-15T12:53:03.000Z</time>
      </trkpt>
      <trkpt lat="46.16413" lon="6.36336">
        <ele>585.96</ele>
        <time>2018-09-15T12:53:08.000Z</time>
      </trkpt>
      <trkpt lat="46.16419" lon="6.36308">
        <ele>586.21</ele>
        <time>2018-09-15T12:53:13.000Z</time>
      </trkpt>
      <trkpt lat="46.16428" lon="6.3628">
        <ele>585.22</ele>
        <time>2018-09-15T12:53:18.000Z</time>
      </trkpt>
      <trkpt lat="46.16439" lon="6.36252">
        <ele>585.02</ele>
        <time>2018-09-15T12:53:23.000Z</time>
      </trkpt>
      <trkpt lat="46.16446" lon="6.36223">
        <ele>587.19</ele>
        <time>2018-09-15T12:53:28.000Z</time>
      </trkpt>
      <trkpt lat="46.1645" lon="6.36188">
        <ele>586.21</ele>
        <time>2018-09-15T12:53:33.000Z</time>
      </trkpt>
      <trkpt lat="46.16453" lon="6.36153">
        <ele>586.21</ele>
        <time>2018-09-15T12:53:38.000Z</time>
      </trkpt>
      <trkpt lat="46.16455" lon="6.36119">
        <ele>588.15</ele>
        <time>2018-09-15T12:53:43.000Z</time>
      </trkpt>
      <trkpt lat="46.1646" lon="6.36083">
        <ele>588.21</ele>
        <time>2018-09-15T12:53:48.000Z</time>
      </trkpt>
      <trkpt lat="46.1647" lon="6.36051">
        <ele>588.02</ele>
        <time>2018-09-15T12:53:53.000Z</time>
      </trkpt>
      <trkpt lat="46.16485" lon="6.36023">
        <ele>587.21</ele>
        <time>2018-09-15T12:53:58.000Z</time>
      </trkpt>
      <trkpt lat="46.16502" lon="6.35996">
        <ele>587.27</ele>
        <time>2018-09-15T12:54:03.000Z</time>
      </trkpt>
      <trkpt lat="46.16518" lon="6.35973">
        <ele>587.21</ele>
        <time>2018-09-15T12:54:08.000Z</time>
      </trkpt>
      <trkpt lat="46.1653" lon="6.35953">
        <ele>588.21</ele>
        <time>2018-09-15T12:54:13.000Z</time>
      </trkpt>
      <trkpt lat="46.16541" lon="6.35937">
        <ele>589.15</ele>
        <time>2018-09-15T12:54:18.000Z</time>
      </trkpt>
      <trkpt lat="46.16551" lon="6.35922">
        <ele>590.19</ele>
        <time>2018-09-15T12:54:23.000Z</time>
      </trkpt>
      <trkpt lat="46.16559" lon="6.35907">
        <ele>592.2</ele>
        <time>2018-09-15T12:54:28.000Z</time>
      </trkpt>
      <trkpt lat="46.16568" lon="6.35892">
        <ele>594.94</ele>
        <time>2018-09-15T12:54:33.000Z</time>
      </trkpt>
      <trkpt lat="46.16574" lon="6.35876">
        <ele>596.15</ele>
        <time>2018-09-15T12:54:38.000Z</time>
      </trkpt>
      <trkpt lat="46.16579" lon="6.35859">
        <ele>596.44</ele>
        <time>2018-09-15T12:54:43.000Z</time>
      </trkpt>
      <trkpt lat="46.16583" lon="6.35842">
        <ele>597.02</ele>
        <time>2018-09-15T12:54:48.000Z</time>
      </trkpt>
      <trkpt lat="46.16587" lon="6.35826">
        <ele>598.21</ele>
        <time>2018-09-15T12:54:53.000Z</time>
      </trkpt>
      <trkpt lat="46.16591" lon="6.35811">
        <ele>600.15</ele>
        <time>2018-09-15T12:54:58.000Z</time>
      </trkpt>
      <trkpt lat="46.16596" lon="6.35795">
        <ele>601.15</ele>
        <time>2018-09-15T12:55:03.000Z</time>
      </trkpt>
      <trkpt lat="46.16602" lon="6.3578">
        <ele>602.21</ele>
        <time>2018-09-15T12:55:08.000Z</time>
      </trkpt>
      <trkpt lat="46.16608" lon="6.35765">
        <ele>603.15</ele>
        <time>2018-09-15T12:55:13.000Z</time>
      </trkpt>
      <trkpt lat="46.16613" lon="6.35749">
        <ele>605.94</ele>
        <time>2018-09-15T12:55:18.000Z</time>
      </trkpt>
      <trkpt lat="46.16618" lon="6.35734">
        <ele>607.15</ele>
        <time>2018-09-15T12:55:23.000Z</time>
      </trkpt>
      <trkpt lat="46.16623" lon="6.3572">
        <ele>607.21</ele>
        <time>2018-09-15T12:55:28.000Z</time>
      </trkpt>
      <trkpt lat="46.16628" lon="6.35705">
        <ele>607.97</ele>
        <time>2018-09-15T12:55:33.000Z</time>
      </trkpt>
      <trkpt lat="46.16634" lon="6.35691">
        <ele>609.19</ele>
        <time>2018-09-15T12:55:38.000Z</time>
      </trkpt>
      <trkpt lat="46.16638" lon="6.35677">
        <ele>609.21</ele>
        <time>2018-09-15T12:55:43.000Z</time>
      </trkpt>
      <trkpt lat="46.16644" lon="6.35663">
        <ele>610.21</ele>
        <time>2018-09-15T12:55:48.000Z</time>
      </trkpt>
      <trkpt lat="46.16651" lon="6.35651">
        <ele>611.21</ele>
        <time>2018-09-15T12:55:53.000Z</time>
      </trkpt>
      <trkpt lat="46.1666" lon="6.35638">
        <ele>611.96</ele>
        <time>2018-09-15T12:55:58.000Z</time>
      </trkpt>
      <trkpt lat="46.16668" lon="6.35629">
        <ele>613.96</ele>
        <time>2018-09-15T12:56:03.000Z</time>
      </trkpt>
      <trkpt lat="46.16676" lon="6.3562">
        <ele>614.21</ele>
        <time>2018-09-15T12:56:08.000Z</time>
      </trkpt>
      <trkpt lat="46.16684" lon="6.35612">
        <ele>615.21</ele>
        <time>2018-09-15T12:56:13.000Z</time>
      </trkpt>
      <trkpt lat="46.16693" lon="6.35602">
        <ele>617.2</ele>
        <time>2018-09-15T12:56:18.000Z</time>
      </trkpt>
      <trkpt lat="46.167" lon="6.35591">
        <ele>618.19</ele>
        <time>2018-09-15T12:56:23.000Z</time>
      </trkpt>
      <trkpt lat="46.16707" lon="6.35578">
        <ele>618.22</ele>
        <time>2018-09-15T12:56:28.000Z</time>
      </trkpt>
      <trkpt lat="46.16712" lon="6.35565">
        <ele>618.21</ele>
        <time>2018-09-15T12:56:33.000Z</time>
      </trkpt>
      <trkpt lat="46.16717" lon="6.35551">
        <ele>620.14</ele>
        <time>2018-09-15T12:56:38.000Z</time>
      </trkpt>
      <trkpt lat="46.16722" lon="6.35538">
        <ele>622.15</ele>
        <time>2018-09-15T12:56:43.000Z</time>
      </trkpt>
      <trkpt lat="46.16727" lon="6.35524">
        <ele>622.21</ele>
        <time>2018-09-15T12:56:48.000Z</time>
      </trkpt>
      <trkpt lat="46.16733" lon="6.3551">
        <ele>623.21</ele>
        <time>2018-09-15T12:56:53.000Z</time>
      </trkpt>
      <trkpt lat="46.16738" lon="6.35496">
        <ele>625.14</ele>
        <time>2018-09-15T12:56:58.000Z</time>
      </trkpt>
      <trkpt lat="46.16743" lon="6.35484">
        <ele>625.96</ele>
        <time>2018-09-15T12:57:03.000Z</time>
      </trkpt>
      <trkpt lat="46.16749" lon="6.35471">
        <ele>627.21</ele>
        <time>2018-09-15T12:57:08.000Z</time>
      </trkpt>
      <trkpt lat="46.16754" lon="6.35457">
        <ele>628.16</ele>
        <time>2018-09-15T12:57:13.000Z</time>
      </trkpt>
      <trkpt lat="46.16759" lon="6.35442">
        <ele>629.15</ele>
        <time>2018-09-15T12:57:18.000Z</time>
      </trkpt>
      <trkpt lat="46.16764" lon="6.35429">
        <ele>631.19</ele>
        <time>2018-09-15T12:57:23.000Z</time>
      </trkpt>
      <trkpt lat="46.16768" lon="6.35415">
        <ele>631.21</ele>
        <time>2018-09-15T12:57:28.000Z</time>
      </trkpt>
      <trkpt lat="46.16771" lon="6.35401">
        <ele>632.21</ele>
        <time>2018-09-15T12:57:33.000Z</time>
      </trkpt>
      <trkpt lat="46.16774" lon="6.35387">
        <ele>632.21</ele>
        <time>2018-09-15T12:57:38.000Z</time>
      </trkpt>
      <trkpt lat="46.16776" lon="6.35373">
        <ele>633.96</ele>
        <time>2018-09-15T12:57:43.000Z</time>
      </trkpt>
      <trkpt lat="46.16779" lon="6.35359">
        <ele>634.2</ele>
        <time>2018-09-15T12:57:48.000Z</time>
      </trkpt>
      <trkpt lat="46.16783" lon="6.35345">
        <ele>635.21</ele>
        <time>2018-09-15T12:57:53.000Z</time>
      </trkpt>
      <trkpt lat="46.16789" lon="6.35332">
        <ele>635.96</ele>
        <time>2018-09-15T12:57:58.000Z</time>
      </trkpt>
      <trkpt lat="46.16794" lon="6.35321">
        <ele>637.15</ele>
        <time>2018-09-15T12:58:03.000Z</time>
      </trkpt>
      <trkpt lat="46.16802" lon="6.3531">
        <ele>637.21</ele>
        <time>2018-09-15T12:58:08.000Z</time>
      </trkpt>
      <trkpt lat="46.1681" lon="6.35301">
        <ele>639.96</ele>
        <time>2018-09-15T12:58:13.000Z</time>
      </trkpt>
      <trkpt lat="46.16818" lon="6.3529">
        <ele>641.15</ele>
        <time>2018-09-15T12:58:18.000Z</time>
      </trkpt>
      <trkpt lat="46.16826" lon="6.35281">
        <ele>641.21</ele>
        <time>2018-09-15T12:58:23.000Z</time>
      </trkpt>
      <trkpt lat="46.16833" lon="6.35271">
        <ele>642.21</ele>
        <time>2018-09-15T12:58:28.000Z</time>
      </trkpt>
      <trkpt lat="46.1684" lon="6.35259">
        <ele>643.2</ele>
        <time>2018-09-15T12:58:33.000Z</time>
      </trkpt>
      <trkpt lat="46.16846" lon="6.35246">
        <ele>643.21</ele>
        <time>2018-09-15T12:58:38.000Z</time>
      </trkpt>
      <trkpt lat="46.1685" lon="6.35233">
        <ele>645.14</ele>
        <time>2018-09-15T12:58:43.000Z</time>
      </trkpt>
      <trkpt lat="46.16854" lon="6.3522">
        <ele>645.39</ele>
        <time>2018-09-15T12:58:48.000Z</time>
      </trkpt>
      <trkpt lat="46.16859" lon="6.35208">
        <ele>647.94</ele>
        <time>2018-09-15T12:58:53.000Z</time>
      </trkpt>
      <trkpt lat="46.16862" lon="6.35193">
        <ele>649.21</ele>
        <time>2018-09-15T12:58:58.000Z</time>
      </trkpt>
      <trkpt lat="46.16866" lon="6.35179">
        <ele>650.21</ele>
        <time>2018-09-15T12:59:03.000Z</time>
      </trkpt>
      <trkpt lat="46.16869" lon="6.35165">
        <ele>651.95</ele>
        <time>2018-09-15T12:59:08.000Z</time>
      </trkpt>
      <trkpt lat="46.16875" lon="6.35151">
        <ele>652.21</ele>
        <time>2018-09-15T12:59:13.000Z</time>
      </trkpt>
      <trkpt lat="46.1688" lon="6.35137">
        <ele>653.15</ele>
        <time>2018-09-15T12:59:18.000Z</time>
      </trkpt>
      <trkpt lat="46.16886" lon="6.35125">
        <ele>653.21</ele>
        <time>2018-09-15T12:59:23.000Z</time>
      </trkpt>
      <trkpt lat="46.16892" lon="6.35112">
        <ele>654.21</ele>
        <time>2018-09-15T12:59:28.000Z</time>
      </trkpt>
      <trkpt lat="46.16898" lon="6.35101">
        <ele>656.19</ele>
        <time>2018-09-15T12:59:33.000Z</time>
      </trkpt>
      <trkpt lat="46.16903" lon="6.35089">
        <ele>657.9</ele>
        <time>2018-09-15T12:59:38.000Z</time>
      </trkpt>
      <trkpt lat="46.16909" lon="6.35078">
        <ele>659.95</ele>
        <time>2018-09-15T12:59:43.000Z</time>
      </trkpt>
      <trkpt lat="46.16914" lon="6.35066">
        <ele>661.2</ele>
        <time>2018-09-15T12:59:48.000Z</time>
      </trkpt>
      <trkpt lat="46.16917" lon="6.35052">
        <ele>662.2</ele>
        <time>2018-09-15T12:59:53.000Z</time>
      </trkpt>
      <trkpt lat="46.16919" lon="6.35035">
        <ele>662.2</ele>
        <time>2018-09-15T12:59:58.000Z</time>
      </trkpt>
      <trkpt lat="46.16919" lon="6.3502">
        <ele>663.21</ele>
        <time>2018-09-15T13:00:03.000Z</time>
      </trkpt>
      <trkpt lat="46.1692" lon="6.35004">
        <ele>665.14</ele>
        <time>2018-09-15T13:00:08.000Z</time>
      </trkpt>
      <trkpt lat="46.1692" lon="6.34988">
        <ele>666.15</ele>
        <time>2018-09-15T13:00:13.000Z</time>
      </trkpt>
      <trkpt lat="46.16922" lon="6.34972">
        <ele>667.15</ele>
        <time>2018-09-15T13:00:18.000Z</time>
      </trkpt>
      <trkpt lat="46.16923" lon="6.34958">
        <ele>668.2</ele>
        <time>2018-09-15T13:00:23.000Z</time>
      </trkpt>
      <trkpt lat="46.16925" lon="6.34943">
        <ele>668.21</ele>
        <time>2018-09-15T13:00:28.000Z</time>
      </trkpt>
      <trkpt lat="46.16929" lon="6.34929">
        <ele>669.2</ele>
        <time>2018-09-15T13:00:33.000Z</time>
      </trkpt>
      <trkpt lat="46.16933" lon="6.34914">
        <ele>670.96</ele>
        <time>2018-09-15T13:00:38.000Z</time>
      </trkpt>
      <trkpt lat="46.16937" lon="6.34901">
        <ele>671.96</ele>
        <time>2018-09-15T13:00:43.000Z</time>
      </trkpt>
      <trkpt lat="46.16941" lon="6.34887">
        <ele>673.2</ele>
        <time>2018-09-15T13:00:48.000Z</time>
      </trkpt>
      <trkpt lat="46.16946" lon="6.34874">
        <ele>674.2</ele>
        <time>2018-09-15T13:00:53.000Z</time>
      </trkpt>
      <trkpt lat="46.16949" lon="6.34859">
        <ele>675.95</ele>
        <time>2018-09-15T13:00:58.000Z</time>
      </trkpt>
      <trkpt lat="46.16953" lon="6.34845">
        <ele>676.96</ele>
        <time>2018-09-15T13:01:03.000Z</time>
      </trkpt>
      <trkpt lat="46.16958" lon="6.3483">
        <ele>678.21</ele>
        <time>2018-09-15T13:01:08.000Z</time>
      </trkpt>
      <trkpt lat="46.16965" lon="6.34819">
        <ele>679.2</ele>
        <time>2018-09-15T13:01:13.000Z</time>
      </trkpt>
      <trkpt lat="46.16972" lon="6.34807">
        <ele>680.2</ele>
        <time>2018-09-15T13:01:18.000Z</time>
      </trkpt>
      <trkpt lat="46.16979" lon="6.34798">
        <ele>679.23</ele>
        <time>2018-09-15T13:01:23.000Z</time>
      </trkpt>
      <trkpt lat="46.16987" lon="6.3479">
        <ele>680.15</ele>
        <time>2018-09-15T13:01:28.000Z</time>
      </trkpt>
      <trkpt lat="46.16993" lon="6.34778">
        <ele>680.96</ele>
        <time>2018-09-15T13:01:33.000Z</time>
      </trkpt>
      <trkpt lat="46.17002" lon="6.34769">
        <ele>681.21</ele>
        <time>2018-09-15T13:01:38.000Z</time>
      </trkpt>
      <trkpt lat="46.17009" lon="6.34759">
        <ele>681.96</ele>
        <time>2018-09-15T13:01:43.000Z</time>
      </trkpt>
      <trkpt lat="46.17016" lon="6.34749">
        <ele>683.95</ele>
        <time>2018-09-15T13:01:48.000Z</time>
      </trkpt>
      <trkpt lat="46.17024" lon="6.3474">
        <ele>685.21</ele>
        <time>2018-09-15T13:01:53.000Z</time>
      </trkpt>
      <trkpt lat="46.17031" lon="6.34731">
        <ele>687.15</ele>
        <time>2018-09-15T13:01:58.000Z</time>
      </trkpt>
      <trkpt lat="46.17038" lon="6.34721">
        <ele>688.15</ele>
        <time>2018-09-15T13:02:03.000Z</time>
      </trkpt>
      <trkpt lat="46.17045" lon="6.34712">
        <ele>689.15</ele>
        <time>2018-09-15T13:02:08.000Z</time>
      </trkpt>
      <trkpt lat="46.17052" lon="6.34702">
        <ele>689.96</ele>
        <time>2018-09-15T13:02:13.000Z</time>
      </trkpt>
      <trkpt lat="46.17061" lon="6.34694">
        <ele>691.2</ele>
        <time>2018-09-15T13:02:19.000Z</time>
      </trkpt>
      <trkpt lat="46.17071" lon="6.34692">
        <ele>691.02</ele>
        <time>2018-09-15T13:02:24.000Z</time>
      </trkpt>
      <trkpt lat="46.17079" lon="6.34697">
        <ele>693.21</ele>
        <time>2018-09-15T13:02:30.000Z</time>
      </trkpt>
      <trkpt lat="46.17087" lon="6.34707">
        <ele>694.21</ele>
        <time>2018-09-15T13:02:36.000Z</time>
      </trkpt>
      <trkpt lat="46.17092" lon="6.34719">
        <ele>697.69</ele>
        <time>2018-09-15T13:02:41.000Z</time>
      </trkpt>
      <trkpt lat="46.17093" lon="6.34733">
        <ele>697.98</ele>
        <time>2018-09-15T13:02:47.000Z</time>
      </trkpt>
      <trkpt lat="46.17094" lon="6.34746">
        <ele>698.21</ele>
        <time>2018-09-15T13:02:52.000Z</time>
      </trkpt>
      <trkpt lat="46.17094" lon="6.3476">
        <ele>699.21</ele>
        <time>2018-09-15T13:02:57.000Z</time>
      </trkpt>
      <trkpt lat="46.17095" lon="6.34773">
        <ele>700.21</ele>
        <time>2018-09-15T13:03:02.000Z</time>
      </trkpt>
      <trkpt lat="46.17097" lon="6.34786">
        <ele>701.95</ele>
        <time>2018-09-15T13:03:07.000Z</time>
      </trkpt>
      <trkpt lat="46.17097" lon="6.34799">
        <ele>703.21</ele>
        <time>2018-09-15T13:03:12.000Z</time>
      </trkpt>
      <trkpt lat="46.17098" lon="6.34814">
        <ele>704.21</ele>
        <time>2018-09-15T13:03:18.000Z</time>
      </trkpt>
      <trkpt lat="46.17104" lon="6.34824">
        <ele>705.96</ele>
        <time>2018-09-15T13:03:23.000Z</time>
      </trkpt>
      <trkpt lat="46.17112" lon="6.3483">
        <ele>707.19</ele>
        <time>2018-09-15T13:03:28.000Z</time>
      </trkpt>
      <trkpt lat="46.17122" lon="6.34829">
        <ele>708.15</ele>
        <time>2018-09-15T13:03:33.000Z</time>
      </trkpt>
      <trkpt lat="46.17131" lon="6.34821">
        <ele>709.15</ele>
        <time>2018-09-15T13:03:38.000Z</time>
      </trkpt>
      <trkpt lat="46.17137" lon="6.34808">
        <ele>709.2</ele>
        <time>2018-09-15T13:03:43.000Z</time>
      </trkpt>
      <trkpt lat="46.17141" lon="6.34794">
        <ele>712.15</ele>
        <time>2018-09-15T13:03:49.000Z</time>
      </trkpt>
      <trkpt lat="46.17145" lon="6.3478">
        <ele>712.22</ele>
        <time>2018-09-15T13:03:55.000Z</time>
      </trkpt>
      <trkpt lat="46.17151" lon="6.34767">
        <ele>712.26</ele>
        <time>2018-09-15T13:04:01.000Z</time>
      </trkpt>
      <trkpt lat="46.17158" lon="6.34758">
        <ele>712.4</ele>
        <time>2018-09-15T13:04:06.000Z</time>
      </trkpt>
      <trkpt lat="46.17166" lon="6.3475">
        <ele>714.15</ele>
        <time>2018-09-15T13:04:12.000Z</time>
      </trkpt>
      <trkpt lat="46.17176" lon="6.34743">
        <ele>715.2</ele>
        <time>2018-09-15T13:04:18.000Z</time>
      </trkpt>
      <trkpt lat="46.17184" lon="6.34738">
        <ele>716.21</ele>
        <time>2018-09-15T13:04:23.000Z</time>
      </trkpt>
      <trkpt lat="46.17192" lon="6.34731">
        <ele>717.21</ele>
        <time>2018-09-15T13:04:28.000Z</time>
      </trkpt>
      <trkpt lat="46.17201" lon="6.34723">
        <ele>718.21</ele>
        <time>2018-09-15T13:04:33.000Z</time>
      </trkpt>
      <trkpt lat="46.17209" lon="6.34715">
        <ele>719.21</ele>
        <time>2018-09-15T13:04:38.000Z</time>
      </trkpt>
      <trkpt lat="46.17217" lon="6.34705">
        <ele>720.19</ele>
        <time>2018-09-15T13:04:43.000Z</time>
      </trkpt>
      <trkpt lat="46.17225" lon="6.34696">
        <ele>721.96</ele>
        <time>2018-09-15T13:04:48.000Z</time>
      </trkpt>
      <trkpt lat="46.17232" lon="6.34686">
        <ele>722.21</ele>
        <time>2018-09-15T13:04:53.000Z</time>
      </trkpt>
      <trkpt lat="46.17239" lon="6.34677">
        <ele>723.21</ele>
        <time>2018-09-15T13:04:58.000Z</time>
      </trkpt>
      <trkpt lat="46.17247" lon="6.34669">
        <ele>724.21</ele>
        <time>2018-09-15T13:05:03.000Z</time>
      </trkpt>
      <trkpt lat="46.17255" lon="6.3466">
        <ele>725.15</ele>
        <time>2018-09-15T13:05:08.000Z</time>
      </trkpt>
      <trkpt lat="46.17263" lon="6.34651">
        <ele>725.21</ele>
        <time>2018-09-15T13:05:13.000Z</time>
      </trkpt>
      <trkpt lat="46.17271" lon="6.34641">
        <ele>726.21</ele>
        <time>2018-09-15T13:05:18.000Z</time>
      </trkpt>
      <trkpt lat="46.17279" lon="6.34631">
        <ele>728.15</ele>
        <time>2018-09-15T13:05:24.000Z</time>
      </trkpt>
      <trkpt lat="46.17286" lon="6.34622">
        <ele>729.19</ele>
        <time>2018-09-15T13:05:29.000Z</time>
      </trkpt>
      <trkpt lat="46.17294" lon="6.34614">
        <ele>729.96</ele>
        <time>2018-09-15T13:05:34.000Z</time>
      </trkpt>
      <trkpt lat="46.17301" lon="6.34605">
        <ele>730.96</ele>
        <time>2018-09-15T13:05:40.000Z</time>
      </trkpt>
      <trkpt lat="46.17309" lon="6.34596">
        <ele>733.94</ele>
        <time>2018-09-15T13:05:46.000Z</time>
      </trkpt>
      <trkpt lat="46.17317" lon="6.34587">
        <ele>734.21</ele>
        <time>2018-09-15T13:05:52.000Z</time>
      </trkpt>
      <trkpt lat="46.17325" lon="6.34577">
        <ele>735.26</ele>
        <time>2018-09-15T13:05:58.000Z</time>
      </trkpt>
      <trkpt lat="46.17331" lon="6.34566">
        <ele>736.19</ele>
        <time>2018-09-15T13:06:03.000Z</time>
      </trkpt>
      <trkpt lat="46.17337" lon="6.34554">
        <ele>737.96</ele>
        <time>2018-09-15T13:06:09.000Z</time>
      </trkpt>
      <trkpt lat="46.17343" lon="6.34544">
        <ele>739.21</ele>
        <time>2018-09-15T13:06:14.000Z</time>
      </trkpt>
      <trkpt lat="46.17348" lon="6.34533">
        <ele>742.15</ele>
        <time>2018-09-15T13:06:20.000Z</time>
      </trkpt>
      <trkpt lat="46.17356" lon="6.34525">
        <ele>742.21</ele>
        <time>2018-09-15T13:06:25.000Z</time>
      </trkpt>
      <trkpt lat="46.17365" lon="6.34517">
        <ele>743.21</ele>
        <time>2018-09-15T13:06:31.000Z</time>
      </trkpt>
      <trkpt lat="46.17373" lon="6.3451">
        <ele>744.21</ele>
        <time>2018-09-15T13:06:36.000Z</time>
      </trkpt>
      <trkpt lat="46.17381" lon="6.34506">
        <ele>744.21</ele>
        <time>2018-09-15T13:06:41.000Z</time>
      </trkpt>
      <trkpt lat="46.17391" lon="6.34501">
        <ele>746.19</ele>
        <time>2018-09-15T13:06:46.000Z</time>
      </trkpt>
      <trkpt lat="46.17401" lon="6.34496">
        <ele>747.96</ele>
        <time>2018-09-15T13:06:52.000Z</time>
      </trkpt>
      <trkpt lat="46.17409" lon="6.3449">
        <ele>748.21</ele>
        <time>2018-09-15T13:06:57.000Z</time>
      </trkpt>
      <trkpt lat="46.17418" lon="6.34484">
        <ele>749.21</ele>
        <time>2018-09-15T13:07:02.000Z</time>
      </trkpt>
      <trkpt lat="46.17426" lon="6.34478">
        <ele>751.13</ele>
        <time>2018-09-15T13:07:07.000Z</time>
      </trkpt>
      <trkpt lat="46.17434" lon="6.3447">
        <ele>752.19</ele>
        <time>2018-09-15T13:07:13.000Z</time>
      </trkpt>
      <trkpt lat="46.17442" lon="6.34459">
        <ele>753.15</ele>
        <time>2018-09-15T13:07:19.000Z</time>
      </trkpt>
      <trkpt lat="46.17449" lon="6.3445">
        <ele>753.21</ele>
        <time>2018-09-15T13:07:24.000Z</time>
      </trkpt>
      <trkpt lat="46.17455" lon="6.34439">
        <ele>752.21</ele>
        <time>2018-09-15T13:07:29.000Z</time>
      </trkpt>
      <trkpt lat="46.17464" lon="6.34436">
        <ele>754.94</ele>
        <time>2018-09-15T13:07:35.000Z</time>
      </trkpt>
      <trkpt lat="46.17474" lon="6.34441">
        <ele>756.21</ele>
        <time>2018-09-15T13:07:41.000Z</time>
      </trkpt>
      <trkpt lat="46.1748" lon="6.34453">
        <ele>757.27</ele>
        <time>2018-09-15T13:07:47.000Z</time>
      </trkpt>
      <trkpt lat="46.17482" lon="6.34467">
        <ele>758.21</ele>
        <time>2018-09-15T13:07:53.000Z</time>
      </trkpt>
      <trkpt lat="46.17485" lon="6.34481">
        <ele>761.14</ele>
        <time>2018-09-15T13:07:59.000Z</time>
      </trkpt>
      <trkpt lat="46.17487" lon="6.34496">
        <ele>763.15</ele>
        <time>2018-09-15T13:08:05.000Z</time>
      </trkpt>
      <trkpt lat="46.17489" lon="6.34511">
        <ele>765.15</ele>
        <time>2018-09-15T13:08:11.000Z</time>
      </trkpt>
      <trkpt lat="46.17491" lon="6.34523">
        <ele>765.21</ele>
        <time>2018-09-15T13:08:16.000Z</time>
      </trkpt>
      <trkpt lat="46.17491" lon="6.34537">
        <ele>766.2</ele>
        <time>2018-09-15T13:08:22.000Z</time>
      </trkpt>
      <trkpt lat="46.17491" lon="6.34552">
        <ele>767.96</ele>
        <time>2018-09-15T13:08:28.000Z</time>
      </trkpt>
      <trkpt lat="46.17488" lon="6.34566">
        <ele>768.21</ele>
        <time>2018-09-15T13:08:34.000Z</time>
      </trkpt>
      <trkpt lat="46.17485" lon="6.34579">
        <ele>769.15</ele>
        <time>2018-09-15T13:08:40.000Z</time>
      </trkpt>
      <trkpt lat="46.17481" lon="6.34594">
        <ele>769.21</ele>
        <time>2018-09-15T13:08:46.000Z</time>
      </trkpt>
      <trkpt lat="46.17476" lon="6.34607">
        <ele>770.96</ele>
        <time>2018-09-15T13:08:52.000Z</time>
      </trkpt>
      <trkpt lat="46.17472" lon="6.34618">
        <ele>771.21</ele>
        <time>2018-09-15T13:08:57.000Z</time>
      </trkpt>
      <trkpt lat="46.17468" lon="6.34632">
        <ele>772.21</ele>
        <time>2018-09-15T13:09:03.000Z</time>
      </trkpt>
      <trkpt lat="46.17465" lon="6.34645">
        <ele>774.14</ele>
        <time>2018-09-15T13:09:08.000Z</time>
      </trkpt>
      <trkpt lat="46.1746" lon="6.34659">
        <ele>774.96</ele>
        <time>2018-09-15T13:09:14.000Z</time>
      </trkpt>
      <trkpt lat="46.17456" lon="6.34671">
        <ele>776.15</ele>
        <time>2018-09-15T13:09:19.000Z</time>
      </trkpt>
      <trkpt lat="46.17452" lon="6.34685">
        <ele>777.21</ele>
        <time>2018-09-15T13:09:25.000Z</time>
      </trkpt>
      <trkpt lat="46.17449" lon="6.34698">
        <ele>777.21</ele>
        <time>2018-09-15T13:09:30.000Z</time>
      </trkpt>
      <trkpt lat="46.17445" lon="6.34711">
        <ele>778.21</ele>
        <time>2018-09-15T13:09:35.000Z</time>
      </trkpt>
      <trkpt lat="46.1744" lon="6.34722">
        <ele>780.19</ele>
        <time>2018-09-15T13:09:40.000Z</time>
      </trkpt>
      <trkpt lat="46.17437" lon="6.34735">
        <ele>781.96</ele>
        <time>2018-09-15T13:09:45.000Z</time>
      </trkpt>
      <trkpt lat="46.17433" lon="6.34749">
        <ele>783.14</ele>
        <time>2018-09-15T13:09:51.000Z</time>
      </trkpt>
      <trkpt lat="46.17432" lon="6.34762">
        <ele>784.96</ele>
        <time>2018-09-15T13:09:57.000Z</time>
      </trkpt>
      <trkpt lat="46.17436" lon="6.34776">
        <ele>786.21</ele>
        <time>2018-09-15T13:10:03.000Z</time>
      </trkpt>
      <trkpt lat="46.17441" lon="6.34789">
        <ele>787.21</ele>
        <time>2018-09-15T13:10:09.000Z</time>
      </trkpt>
      <trkpt lat="46.17445" lon="6.34802">
        <ele>788.19</ele>
        <time>2018-09-15T13:10:15.000Z</time>
      </trkpt>
      <trkpt lat="46.17448" lon="6.34814">
        <ele>788.96</ele>
        <time>2018-09-15T13:10:20.000Z</time>
      </trkpt>
      <trkpt lat="46.17447" lon="6.34829">
        <ele>790.95</ele>
        <time>2018-09-15T13:10:25.000Z</time>
      </trkpt>
      <trkpt lat="46.17445" lon="6.34843">
        <ele>792.19</ele>
        <time>2018-09-15T13:10:32.000Z</time>
      </trkpt>
      <trkpt lat="46.17441" lon="6.34856">
        <ele>792.21</ele>
        <time>2018-09-15T13:10:37.000Z</time>
      </trkpt>
      <trkpt lat="46.17437" lon="6.34869">
        <ele>793.96</ele>
        <time>2018-09-15T13:10:43.000Z</time>
      </trkpt>
      <trkpt lat="46.17434" lon="6.34882">
        <ele>796.14</ele>
        <time>2018-09-15T13:10:49.000Z</time>
      </trkpt>
      <trkpt lat="46.17433" lon="6.34897">
        <ele>798.14</ele>
        <time>2018-09-15T13:10:55.000Z</time>
      </trkpt>
      <trkpt lat="46.17441" lon="6.34905">
        <ele>798.21</ele>
        <time>2018-09-15T13:11:01.000Z</time>
      </trkpt>
      <trkpt lat="46.1745" lon="6.34906">
        <ele>799.15</ele>
        <time>2018-09-15T13:11:06.000Z</time>
      </trkpt>
      <trkpt lat="46.17459" lon="6.34901">
        <ele>800.15</ele>
        <time>2018-09-15T13:11:11.000Z</time>
      </trkpt>
      <trkpt lat="46.17468" lon="6.34896">
        <ele>801.15</ele>
        <time>2018-09-15T13:11:16.000Z</time>
      </trkpt>
      <trkpt lat="46.17477" lon="6.3489">
        <ele>801.21</ele>
        <time>2018-09-15T13:11:21.000Z</time>
      </trkpt>
      <trkpt lat="46.17486" lon="6.34882">
        <ele>802.15</ele>
        <time>2018-09-15T13:11:26.000Z</time>
      </trkpt>
      <trkpt lat="46.17495" lon="6.34876">
        <ele>802.96</ele>
        <time>2018-09-15T13:11:31.000Z</time>
      </trkpt>
      <trkpt lat="46.17503" lon="6.34867">
        <ele>804.94</ele>
        <time>2018-09-15T13:11:36.000Z</time>
      </trkpt>
      <trkpt lat="46.17511" lon="6.3486">
        <ele>805.19</ele>
        <time>2018-09-15T13:11:41.000Z</time>
      </trkpt>
      <trkpt lat="46.17519" lon="6.34851">
        <ele>806.19</ele>
        <time>2018-09-15T13:11:46.000Z</time>
      </trkpt>
      <trkpt lat="46.17527" lon="6.34843">
        <ele>807.19</ele>
        <time>2018-09-15T13:11:51.000Z</time>
      </trkpt>
      <trkpt lat="46.17535" lon="6.34833">
        <ele>807.21</ele>
        <time>2018-09-15T13:11:57.000Z</time>
      </trkpt>
      <trkpt lat="46.17542" lon="6.34823">
        <ele>809.2</ele>
        <time>2018-09-15T13:12:02.000Z</time>
      </trkpt>
      <trkpt lat="46.17549" lon="6.34814">
        <ele>809.96</ele>
        <time>2018-09-15T13:12:07.000Z</time>
      </trkpt>
      <trkpt lat="46.17556" lon="6.34802">
        <ele>811.19</ele>
        <time>2018-09-15T13:12:13.000Z</time>
      </trkpt>
      <trkpt lat="46.17562" lon="6.3479">
        <ele>812.96</ele>
        <time>2018-09-15T13:12:19.000Z</time>
      </trkpt>
      <trkpt lat="46.17568" lon="6.34777">
        <ele>817.14</ele>
        <time>2018-09-15T13:12:25.000Z</time>
      </trkpt>
      <trkpt lat="46.17573" lon="6.34766">
        <ele>817.21</ele>
        <time>2018-09-15T13:12:30.000Z</time>
      </trkpt>
      <trkpt lat="46.1758" lon="6.34755">
        <ele>818.21</ele>
        <time>2018-09-15T13:12:36.000Z</time>
      </trkpt>
      <trkpt lat="46.17587" lon="6.34744">
        <ele>819.95</ele>
        <time>2018-09-15T13:12:42.000Z</time>
      </trkpt>
      <trkpt lat="46.17594" lon="6.34732">
        <ele>821.19</ele>
        <time>2018-09-15T13:12:48.000Z</time>
      </trkpt>
      <trkpt lat="46.176" lon="6.34722">
        <ele>822.15</ele>
        <time>2018-09-15T13:12:53.000Z</time>
      </trkpt>
      <trkpt lat="46.17606" lon="6.3471">
        <ele>823.95</ele>
        <time>2018-09-15T13:12:59.000Z</time>
      </trkpt>
      <trkpt lat="46.17613" lon="6.347">
        <ele>827.13</ele>
        <time>2018-09-15T13:13:05.000Z</time>
      </trkpt>
      <trkpt lat="46.17621" lon="6.34689">
        <ele>825.46</ele>
        <time>2018-09-15T13:13:11.000Z</time>
      </trkpt>
      <trkpt lat="46.17629" lon="6.34679">
        <ele>826.15</ele>
        <time>2018-09-15T13:13:18.000Z</time>
      </trkpt>
      <trkpt lat="46.17636" lon="6.3467">
        <ele>827.21</ele>
        <time>2018-09-15T13:13:24.000Z</time>
      </trkpt>
      <trkpt lat="46.17646" lon="6.34663">
        <ele>827.96</ele>
        <time>2018-09-15T13:13:31.000Z</time>
      </trkpt>
      <trkpt lat="46.17654" lon="6.34658">
        <ele>827.21</ele>
        <time>2018-09-15T13:13:36.000Z</time>
      </trkpt>
      <trkpt lat="46.17663" lon="6.34653">
        <ele>827.96</ele>
        <time>2018-09-15T13:13:42.000Z</time>
      </trkpt>
      <trkpt lat="46.1767" lon="6.34643">
        <ele>829.94</ele>
        <time>2018-09-15T13:13:48.000Z</time>
      </trkpt>
      <trkpt lat="46.17679" lon="6.34635">
        <ele>830.22</ele>
        <time>2018-09-15T13:13:54.000Z</time>
      </trkpt>
      <trkpt lat="46.17688" lon="6.34632">
        <ele>831.2</ele>
        <time>2018-09-15T13:14:00.000Z</time>
      </trkpt>
      <trkpt lat="46.17695" lon="6.3464">
        <ele>832.96</ele>
        <time>2018-09-15T13:14:06.000Z</time>
      </trkpt>
      <trkpt lat="46.17697" lon="6.34655">
        <ele>834.4</ele>
        <time>2018-09-15T13:14:13.000Z</time>
      </trkpt>
      <trkpt lat="46.17693" lon="6.34668">
        <ele>835.21</ele>
        <time>2018-09-15T13:14:19.000Z</time>
      </trkpt>
      <trkpt lat="46.17703" lon="6.34674">
        <ele>835.22</ele>
        <time>2018-09-15T13:14:28.000Z</time>
      </trkpt>
      <trkpt lat="46.1771" lon="6.34665">
        <ele>841.19</ele>
        <time>2018-09-15T13:16:34.000Z</time>
      </trkpt>
      <trkpt lat="46.17719" lon="6.34657">
        <ele>841.43</ele>
        <time>2018-09-15T13:16:39.000Z</time>
      </trkpt>
      <trkpt lat="46.17728" lon="6.34644">
        <ele>842.15</ele>
        <time>2018-09-15T13:16:44.000Z</time>
      </trkpt>
      <trkpt lat="46.17739" lon="6.34633">
        <ele>842.95</ele>
        <time>2018-09-15T13:16:49.000Z</time>
      </trkpt>
      <trkpt lat="46.17752" lon="6.34626">
        <ele>842.44</ele>
        <time>2018-09-15T13:16:54.000Z</time>
      </trkpt>
      <trkpt lat="46.17766" lon="6.34618">
        <ele>843.97</ele>
        <time>2018-09-15T13:16:59.000Z</time>
      </trkpt>
      <trkpt lat="46.17779" lon="6.34604">
        <ele>844.71</ele>
        <time>2018-09-15T13:17:04.000Z</time>
      </trkpt>
      <trkpt lat="46.17786" lon="6.34588">
        <ele>845.96</ele>
        <time>2018-09-15T13:17:09.000Z</time>
      </trkpt>
      <trkpt lat="46.1779" lon="6.34569">
        <ele>847.19</ele>
        <time>2018-09-15T13:17:14.000Z</time>
      </trkpt>
      <trkpt lat="46.17796" lon="6.34548">
        <ele>845.21</ele>
        <time>2018-09-15T13:17:19.000Z</time>
      </trkpt>
      <trkpt lat="46.17803" lon="6.34531">
        <ele>845.4</ele>
        <time>2018-09-15T13:17:24.000Z</time>
      </trkpt>
      <trkpt lat="46.17812" lon="6.34515">
        <ele>846.2</ele>
        <time>2018-09-15T13:17:29.000Z</time>
      </trkpt>
      <trkpt lat="46.17825" lon="6.34496">
        <ele>845.97</ele>
        <time>2018-09-15T13:17:34.000Z</time>
      </trkpt>
      <trkpt lat="46.17846" lon="6.34474">
        <ele>846.02</ele>
        <time>2018-09-15T13:17:39.000Z</time>
      </trkpt>
      <trkpt lat="46.17874" lon="6.34456">
        <ele>845.22</ele>
        <time>2018-09-15T13:17:44.000Z</time>
      </trkpt>
      <trkpt lat="46.17896" lon="6.34429">
        <ele>844.21</ele>
        <time>2018-09-15T13:17:49.000Z</time>
      </trkpt>
      <trkpt lat="46.17918" lon="6.34422">
        <ele>845.21</ele>
        <time>2018-09-15T13:17:54.000Z</time>
      </trkpt>
      <trkpt lat="46.17932" lon="6.34423">
        <ele>845.2</ele>
        <time>2018-09-15T13:17:59.000Z</time>
      </trkpt>
      <trkpt lat="46.17942" lon="6.34422">
        <ele>846.96</ele>
        <time>2018-09-15T13:18:04.000Z</time>
      </trkpt>
      <trkpt lat="46.17953" lon="6.34419">
        <ele>847.21</ele>
        <time>2018-09-15T13:18:09.000Z</time>
      </trkpt>
      <trkpt lat="46.17964" lon="6.34413">
        <ele>849.95</ele>
        <time>2018-09-15T13:18:14.000Z</time>
      </trkpt>
      <trkpt lat="46.17976" lon="6.34408">
        <ele>850.96</ele>
        <time>2018-09-15T13:18:19.000Z</time>
      </trkpt>
      <trkpt lat="46.17989" lon="6.34405">
        <ele>851.96</ele>
        <time>2018-09-15T13:18:24.000Z</time>
      </trkpt>
      <trkpt lat="46.18002" lon="6.34405">
        <ele>853.19</ele>
        <time>2018-09-15T13:18:29.000Z</time>
      </trkpt>
      <trkpt lat="46.18014" lon="6.34407">
        <ele>853.21</ele>
        <time>2018-09-15T13:18:34.000Z</time>
      </trkpt>
      <trkpt lat="46.18026" lon="6.3441">
        <ele>854.94</ele>
        <time>2018-09-15T13:18:39.000Z</time>
      </trkpt>
      <trkpt lat="46.18039" lon="6.34407">
        <ele>855.19</ele>
        <time>2018-09-15T13:18:44.000Z</time>
      </trkpt>
      <trkpt lat="46.1805" lon="6.34402">
        <ele>856.19</ele>
        <time>2018-09-15T13:18:49.000Z</time>
      </trkpt>
      <trkpt lat="46.1806" lon="6.34396">
        <ele>857.19</ele>
        <time>2018-09-15T13:18:54.000Z</time>
      </trkpt>
      <trkpt lat="46.18069" lon="6.34387">
        <ele>858.2</ele>
        <time>2018-09-15T13:18:59.000Z</time>
      </trkpt>
      <trkpt lat="46.18077" lon="6.34378">
        <ele>860.19</ele>
        <time>2018-09-15T13:19:04.000Z</time>
      </trkpt>
      <trkpt lat="46.18089" lon="6.34369">
        <ele>861.89</ele>
        <time>2018-09-15T13:19:09.000Z</time>
      </trkpt>
      <trkpt lat="46.18101" lon="6.34363">
        <ele>864.83</ele>
        <time>2018-09-15T13:19:14.000Z</time>
      </trkpt>
      <trkpt lat="46.18112" lon="6.34359">
        <ele>868.94</ele>
        <time>2018-09-15T13:19:19.000Z</time>
      </trkpt>
      <trkpt lat="46.18123" lon="6.34352">
        <ele>869.18</ele>
        <time>2018-09-15T13:19:24.000Z</time>
      </trkpt>
      <trkpt lat="46.18134" lon="6.34346">
        <ele>866.78</ele>
        <time>2018-09-15T13:19:29.000Z</time>
      </trkpt>
      <trkpt lat="46.18146" lon="6.34337">
        <ele>865.16</ele>
        <time>2018-09-15T13:19:34.000Z</time>
      </trkpt>
      <trkpt lat="46.18152" lon="6.34324">
        <ele>867.19</ele>
        <time>2018-09-15T13:19:39.000Z</time>
      </trkpt>
      <trkpt lat="46.18156" lon="6.34307">
        <ele>872</ele>
        <time>2018-09-15T13:19:44.000Z</time>
      </trkpt>
      <trkpt lat="46.18161" lon="6.34291">
        <ele>874.2</ele>
        <time>2018-09-15T13:19:49.000Z</time>
      </trkpt>
      <trkpt lat="46.18165" lon="6.34274">
        <ele>875.2</ele>
        <time>2018-09-15T13:19:54.000Z</time>
      </trkpt>
      <trkpt lat="46.18168" lon="6.34255">
        <ele>875.21</ele>
        <time>2018-09-15T13:19:59.000Z</time>
      </trkpt>
      <trkpt lat="46.18172" lon="6.34239">
        <ele>874.69</ele>
        <time>2018-09-15T13:20:04.000Z</time>
      </trkpt>
      <trkpt lat="46.18176" lon="6.34222">
        <ele>874.02</ele>
        <time>2018-09-15T13:20:09.000Z</time>
      </trkpt>
      <trkpt lat="46.18181" lon="6.34208">
        <ele>874.21</ele>
        <time>2018-09-15T13:20:14.000Z</time>
      </trkpt>
      <trkpt lat="46.18189" lon="6.34194">
        <ele>875.14</ele>
        <time>2018-09-15T13:20:19.000Z</time>
      </trkpt>
      <trkpt lat="46.18196" lon="6.34179">
        <ele>876.2</ele>
        <time>2018-09-15T13:20:24.000Z</time>
      </trkpt>
      <trkpt lat="46.18204" lon="6.34164">
        <ele>875.27</ele>
        <time>2018-09-15T13:20:29.000Z</time>
      </trkpt>
      <trkpt lat="46.18214" lon="6.34149">
        <ele>876.21</ele>
        <time>2018-09-15T13:20:34.000Z</time>
      </trkpt>
      <trkpt lat="46.18225" lon="6.34136">
        <ele>875.27</ele>
        <time>2018-09-15T13:20:39.000Z</time>
      </trkpt>
      <trkpt lat="46.18234" lon="6.34121">
        <ele>875.21</ele>
        <time>2018-09-15T13:20:44.000Z</time>
      </trkpt>
      <trkpt lat="46.18243" lon="6.34108">
        <ele>876.19</ele>
        <time>2018-09-15T13:20:49.000Z</time>
      </trkpt>
      <trkpt lat="46.18251" lon="6.34095">
        <ele>877.14</ele>
        <time>2018-09-15T13:20:54.000Z</time>
      </trkpt>
      <trkpt lat="46.18258" lon="6.34082">
        <ele>878.2</ele>
        <time>2018-09-15T13:20:59.000Z</time>
      </trkpt>
      <trkpt lat="46.18265" lon="6.34067">
        <ele>878.25</ele>
        <time>2018-09-15T13:21:04.000Z</time>
      </trkpt>
      <trkpt lat="46.1827" lon="6.34052">
        <ele>879.2</ele>
        <time>2018-09-15T13:21:09.000Z</time>
      </trkpt>
      <trkpt lat="46.18273" lon="6.34037">
        <ele>881.9</ele>
        <time>2018-09-15T13:21:14.000Z</time>
      </trkpt>
      <trkpt lat="46.18276" lon="6.3402">
        <ele>882.96</ele>
        <time>2018-09-15T13:21:19.000Z</time>
      </trkpt>
      <trkpt lat="46.18279" lon="6.34004">
        <ele>883.19</ele>
        <time>2018-09-15T13:21:24.000Z</time>
      </trkpt>
      <trkpt lat="46.18281" lon="6.33988">
        <ele>884.21</ele>
        <time>2018-09-15T13:21:29.000Z</time>
      </trkpt>
      <trkpt lat="46.18284" lon="6.33969">
        <ele>884.22</ele>
        <time>2018-09-15T13:21:34.000Z</time>
      </trkpt>
      <trkpt lat="46.18286" lon="6.33949">
        <ele>884.02</ele>
        <time>2018-09-15T13:21:39.000Z</time>
      </trkpt>
      <trkpt lat="46.18285" lon="6.3393">
        <ele>884.21</ele>
        <time>2018-09-15T13:21:44.000Z</time>
      </trkpt>
      <trkpt lat="46.18277" lon="6.33912">
        <ele>883.21</ele>
        <time>2018-09-15T13:21:49.000Z</time>
      </trkpt>
      <trkpt lat="46.18276" lon="6.33885">
        <ele>881.28</ele>
        <time>2018-09-15T13:21:54.000Z</time>
      </trkpt>
      <trkpt lat="46.1829" lon="6.33854">
        <ele>880.23</ele>
        <time>2018-09-15T13:21:59.000Z</time>
      </trkpt>
      <trkpt lat="46.18303" lon="6.3382">
        <ele>877.35</ele>
        <time>2018-09-15T13:22:04.000Z</time>
      </trkpt>
      <trkpt lat="46.18319" lon="6.33779">
        <ele>874.29</ele>
        <time>2018-09-15T13:22:09.000Z</time>
      </trkpt>
      <trkpt lat="46.1831" lon="6.33728">
        <ele>868.73</ele>
        <time>2018-09-15T13:22:14.000Z</time>
      </trkpt>
      <trkpt lat="46.18278" lon="6.33686">
        <ele>861.79</ele>
        <time>2018-09-15T13:22:19.000Z</time>
      </trkpt>
      <trkpt lat="46.18264" lon="6.33622">
        <ele>850.7</ele>
        <time>2018-09-15T13:22:24.000Z</time>
      </trkpt>
      <trkpt lat="46.18276" lon="6.3355">
        <ele>844.48</ele>
        <time>2018-09-15T13:22:29.000Z</time>
      </trkpt>
      <trkpt lat="46.18288" lon="6.3348">
        <ele>840.53</ele>
        <time>2018-09-15T13:22:34.000Z</time>
      </trkpt>
      <trkpt lat="46.183" lon="6.33418">
        <ele>834.56</ele>
        <time>2018-09-15T13:22:39.000Z</time>
      </trkpt>
      <trkpt lat="46.18299" lon="6.3336">
        <ele>826.53</ele>
        <time>2018-09-15T13:22:44.000Z</time>
      </trkpt>
      <trkpt lat="46.18244" lon="6.3333">
        <ele>815.7</ele>
        <time>2018-09-15T13:22:49.000Z</time>
      </trkpt>
      <trkpt lat="46.18177" lon="6.33299">
        <ele>806.81</ele>
        <time>2018-09-15T13:22:54.000Z</time>
      </trkpt>
      <trkpt lat="46.18131" lon="6.33279">
        <ele>799.37</ele>
        <time>2018-09-15T13:22:59.000Z</time>
      </trkpt>
      <trkpt lat="46.18095" lon="6.33274">
        <ele>794.37</ele>
        <time>2018-09-15T13:23:04.000Z</time>
      </trkpt>
      <trkpt lat="46.1806" lon="6.33309">
        <ele>790.54</ele>
        <time>2018-09-15T13:23:09.000Z</time>
      </trkpt>
      <trkpt lat="46.1802" lon="6.3335">
        <ele>783.81</ele>
        <time>2018-09-15T13:23:14.000Z</time>
      </trkpt>
      <trkpt lat="46.17991" lon="6.33377">
        <ele>780.23</ele>
        <time>2018-09-15T13:23:19.000Z</time>
      </trkpt>
      <trkpt lat="46.17977" lon="6.33388">
        <ele>776.48</ele>
        <time>2018-09-15T13:23:24.000Z</time>
      </trkpt>
      <trkpt lat="46.17982" lon="6.33357">
        <ele>774.48</ele>
        <time>2018-09-15T13:23:29.000Z</time>
      </trkpt>
      <trkpt lat="46.17988" lon="6.33317">
        <ele>771.53</ele>
        <time>2018-09-15T13:23:34.000Z</time>
      </trkpt>
      <trkpt lat="46.18" lon="6.33274">
        <ele>769.28</ele>
        <time>2018-09-15T13:23:39.000Z</time>
      </trkpt>
      <trkpt lat="46.18014" lon="6.33225">
        <ele>769.39</ele>
        <time>2018-09-15T13:23:44.000Z</time>
      </trkpt>
      <trkpt lat="46.18031" lon="6.33166">
        <ele>768.46</ele>
        <time>2018-09-15T13:23:49.000Z</time>
      </trkpt>
      <trkpt lat="46.18051" lon="6.33112">
        <ele>764.54</ele>
        <time>2018-09-15T13:23:54.000Z</time>
      </trkpt>
      <trkpt lat="46.18072" lon="6.33056">
        <ele>761.29</ele>
        <time>2018-09-15T13:23:59.000Z</time>
      </trkpt>
      <trkpt lat="46.18094" lon="6.33002">
        <ele>760.02</ele>
        <time>2018-09-15T13:24:04.000Z</time>
      </trkpt>
      <trkpt lat="46.18113" lon="6.32954">
        <ele>757.04</ele>
        <time>2018-09-15T13:24:09.000Z</time>
      </trkpt>
      <trkpt lat="46.18142" lon="6.32925">
        <ele>755.26</ele>
        <time>2018-09-15T13:24:14.000Z</time>
      </trkpt>
      <trkpt lat="46.18175" lon="6.32901">
        <ele>752.46</ele>
        <time>2018-09-15T13:24:19.000Z</time>
      </trkpt>
      <trkpt lat="46.18206" lon="6.32876">
        <ele>750.28</ele>
        <time>2018-09-15T13:24:24.000Z</time>
      </trkpt>
      <trkpt lat="46.18237" lon="6.32854">
        <ele>753.35</ele>
        <time>2018-09-15T13:24:29.000Z</time>
      </trkpt>
      <trkpt lat="46.1827" lon="6.32832">
        <ele>749.28</ele>
        <time>2018-09-15T13:24:34.000Z</time>
      </trkpt>
      <trkpt lat="46.18306" lon="6.32818">
        <ele>748.23</ele>
        <time>2018-09-15T13:24:39.000Z</time>
      </trkpt>
      <trkpt lat="46.18335" lon="6.32805">
        <ele>747.27</ele>
        <time>2018-09-15T13:24:44.000Z</time>
      </trkpt>
      <trkpt lat="46.18365" lon="6.32789">
        <ele>747.27</ele>
        <time>2018-09-15T13:24:49.000Z</time>
      </trkpt>
      <trkpt lat="46.18404" lon="6.3275">
        <ele>743.52</ele>
        <time>2018-09-15T13:24:54.000Z</time>
      </trkpt>
      <trkpt lat="46.18432" lon="6.32722">
        <ele>744.88</ele>
        <time>2018-09-15T13:24:59.000Z</time>
      </trkpt>
      <trkpt lat="46.18455" lon="6.32699">
        <ele>740.54</ele>
        <time>2018-09-15T13:25:04.000Z</time>
      </trkpt>
      <trkpt lat="46.18487" lon="6.32681">
        <ele>739.03</ele>
        <time>2018-09-15T13:25:09.000Z</time>
      </trkpt>
      <trkpt lat="46.18514" lon="6.32663">
        <ele>738.97</ele>
        <time>2018-09-15T13:25:14.000Z</time>
      </trkpt>
      <trkpt lat="46.1854" lon="6.32633">
        <ele>736.04</ele>
        <time>2018-09-15T13:25:19.000Z</time>
      </trkpt>
      <trkpt lat="46.18576" lon="6.32602">
        <ele>735.21</ele>
        <time>2018-09-15T13:25:24.000Z</time>
      </trkpt>
      <trkpt lat="46.18616" lon="6.32578">
        <ele>734.21</ele>
        <time>2018-09-15T13:25:29.000Z</time>
      </trkpt>
      <trkpt lat="46.18648" lon="6.32562">
        <ele>733.21</ele>
        <time>2018-09-15T13:25:34.000Z</time>
      </trkpt>
      <trkpt lat="46.18681" lon="6.32548">
        <ele>732.27</ele>
        <time>2018-09-15T13:25:39.000Z</time>
      </trkpt>
      <trkpt lat="46.18709" lon="6.32536">
        <ele>733.88</ele>
        <time>2018-09-15T13:25:44.000Z</time>
      </trkpt>
      <trkpt lat="46.18734" lon="6.32518">
        <ele>734.02</ele>
        <time>2018-09-15T13:25:49.000Z</time>
      </trkpt>
      <trkpt lat="46.18756" lon="6.32492">
        <ele>735.14</ele>
        <time>2018-09-15T13:25:54.000Z</time>
      </trkpt>
      <trkpt lat="46.1877" lon="6.32455">
        <ele>734.27</ele>
        <time>2018-09-15T13:25:59.000Z</time>
      </trkpt>
      <trkpt lat="46.18783" lon="6.32408">
        <ele>732.33</ele>
        <time>2018-09-15T13:26:04.000Z</time>
      </trkpt>
      <trkpt lat="46.18799" lon="6.32363">
        <ele>731.29</ele>
        <time>2018-09-15T13:26:09.000Z</time>
      </trkpt>
      <trkpt lat="46.18824" lon="6.32331">
        <ele>731.2</ele>
        <time>2018-09-15T13:26:14.000Z</time>
      </trkpt>
      <trkpt lat="46.18846" lon="6.32304">
        <ele>732.94</ele>
        <time>2018-09-15T13:26:19.000Z</time>
      </trkpt>
      <trkpt lat="46.18863" lon="6.32286">
        <ele>734.14</ele>
        <time>2018-09-15T13:26:24.000Z</time>
      </trkpt>
      <trkpt lat="46.18878" lon="6.32272">
        <ele>735.14</ele>
        <time>2018-09-15T13:26:29.000Z</time>
      </trkpt>
      <trkpt lat="46.18896" lon="6.32255">
        <ele>737.13</ele>
        <time>2018-09-15T13:26:34.000Z</time>
      </trkpt>
      <trkpt lat="46.18912" lon="6.32236">
        <ele>737.21</ele>
        <time>2018-09-15T13:26:39.000Z</time>
      </trkpt>
      <trkpt lat="46.1893" lon="6.32215">
        <ele>737.21</ele>
        <time>2018-09-15T13:26:44.000Z</time>
      </trkpt>
      <trkpt lat="46.18948" lon="6.32197">
        <ele>681.75</ele>
        <time>2018-09-15T13:26:49.000Z</time>
      </trkpt>
      <trkpt lat="46.18964" lon="6.32188">
        <ele>728.03</ele>
        <time>2018-09-15T13:26:54.000Z</time>
      </trkpt>
      <trkpt lat="46.18977" lon="6.32189">
        <ele>738.54</ele>
        <time>2018-09-15T13:26:59.000Z</time>
      </trkpt>
      <trkpt lat="46.18994" lon="6.32183">
        <ele>739.21</ele>
        <time>2018-09-15T13:27:04.000Z</time>
      </trkpt>
      <trkpt lat="46.19015" lon="6.32165">
        <ele>739.21</ele>
        <time>2018-09-15T13:27:09.000Z</time>
      </trkpt>
      <trkpt lat="46.1904" lon="6.32141">
        <ele>738.22</ele>
        <time>2018-09-15T13:27:14.000Z</time>
      </trkpt>
      <trkpt lat="46.19065" lon="6.32114">
        <ele>738.21</ele>
        <time>2018-09-15T13:27:19.000Z</time>
      </trkpt>
      <trkpt lat="46.19086" lon="6.32079">
        <ele>735.52</ele>
        <time>2018-09-15T13:27:24.000Z</time>
      </trkpt>
      <trkpt lat="46.19109" lon="6.32043">
        <ele>733.23</ele>
        <time>2018-09-15T13:27:29.000Z</time>
      </trkpt>
      <trkpt lat="46.19135" lon="6.3201">
        <ele>732.22</ele>
        <time>2018-09-15T13:27:34.000Z</time>
      </trkpt>
      <trkpt lat="46.19162" lon="6.31972">
        <ele>729.52</ele>
        <time>2018-09-15T13:27:39.000Z</time>
      </trkpt>
      <trkpt lat="46.1918" lon="6.31907">
        <ele>726.48</ele>
        <time>2018-09-15T13:27:44.000Z</time>
      </trkpt>
      <trkpt lat="46.19188" lon="6.31856">
        <ele>721.48</ele>
        <time>2018-09-15T13:27:49.000Z</time>
      </trkpt>
      <trkpt lat="46.19204" lon="6.31841">
        <ele>722.14</ele>
        <time>2018-09-15T13:27:54.000Z</time>
      </trkpt>
      <trkpt lat="46.19229" lon="6.31834">
        <ele>724.2</ele>
        <time>2018-09-15T13:27:59.000Z</time>
      </trkpt>
      <trkpt lat="46.1925" lon="6.3181">
        <ele>725.19</ele>
        <time>2018-09-15T13:28:04.000Z</time>
      </trkpt>
      <trkpt lat="46.19271" lon="6.31773">
        <ele>723.03</ele>
        <time>2018-09-15T13:28:09.000Z</time>
      </trkpt>
      <trkpt lat="46.19292" lon="6.3174">
        <ele>723.19</ele>
        <time>2018-09-15T13:28:14.000Z</time>
      </trkpt>
      <trkpt lat="46.19296" lon="6.3169">
        <ele>721.22</ele>
        <time>2018-09-15T13:28:19.000Z</time>
      </trkpt>
      <trkpt lat="46.19318" lon="6.3165">
        <ele>720.21</ele>
        <time>2018-09-15T13:28:24.000Z</time>
      </trkpt>
      <trkpt lat="46.19343" lon="6.31617">
        <ele>718.27</ele>
        <time>2018-09-15T13:28:29.000Z</time>
      </trkpt>
      <trkpt lat="46.19367" lon="6.31587">
        <ele>719.2</ele>
        <time>2018-09-15T13:28:34.000Z</time>
      </trkpt>
      <trkpt lat="46.1939" lon="6.31555">
        <ele>720</ele>
        <time>2018-09-15T13:28:39.000Z</time>
      </trkpt>
      <trkpt lat="46.19413" lon="6.3152">
        <ele>719.39</ele>
        <time>2018-09-15T13:28:44.000Z</time>
      </trkpt>
      <trkpt lat="46.19434" lon="6.31486">
        <ele>718.27</ele>
        <time>2018-09-15T13:28:49.000Z</time>
      </trkpt>
      <trkpt lat="46.19451" lon="6.31454">
        <ele>719</ele>
        <time>2018-09-15T13:28:54.000Z</time>
      </trkpt>
      <trkpt lat="46.19469" lon="6.31426">
        <ele>720.2</ele>
        <time>2018-09-15T13:28:59.000Z</time>
      </trkpt>
      <trkpt lat="46.19485" lon="6.314">
        <ele>722.14</ele>
        <time>2018-09-15T13:29:04.000Z</time>
      </trkpt>
      <trkpt lat="46.19505" lon="6.31372">
        <ele>722.2</ele>
        <time>2018-09-15T13:29:09.000Z</time>
      </trkpt>
      <trkpt lat="46.19527" lon="6.31344">
        <ele>722.2</ele>
        <time>2018-09-15T13:29:14.000Z</time>
      </trkpt>
      <trkpt lat="46.19548" lon="6.31313">
        <ele>721.27</ele>
        <time>2018-09-15T13:29:19.000Z</time>
      </trkpt>
      <trkpt lat="46.19567" lon="6.31275">
        <ele>719.47</ele>
        <time>2018-09-15T13:29:24.000Z</time>
      </trkpt>
      <trkpt lat="46.19587" lon="6.31235">
        <ele>718.28</ele>
        <time>2018-09-15T13:29:29.000Z</time>
      </trkpt>
      <trkpt lat="46.19608" lon="6.31198">
        <ele>718.2</ele>
        <time>2018-09-15T13:29:34.000Z</time>
      </trkpt>
      <trkpt lat="46.19626" lon="6.31161">
        <ele>717.27</ele>
        <time>2018-09-15T13:29:39.000Z</time>
      </trkpt>
      <trkpt lat="46.19648" lon="6.31127">
        <ele>717.2</ele>
        <time>2018-09-15T13:29:44.000Z</time>
      </trkpt>
      <trkpt lat="46.19669" lon="6.3109">
        <ele>716.45</ele>
        <time>2018-09-15T13:29:49.000Z</time>
      </trkpt>
      <trkpt lat="46.19692" lon="6.31057">
        <ele>715.22</ele>
        <time>2018-09-15T13:29:54.000Z</time>
      </trkpt>
      <trkpt lat="46.19716" lon="6.31028">
        <ele>715.21</ele>
        <time>2018-09-15T13:29:59.000Z</time>
      </trkpt>
      <trkpt lat="46.19743" lon="6.31">
        <ele>714.45</ele>
        <time>2018-09-15T13:30:04.000Z</time>
      </trkpt>
      <trkpt lat="46.19771" lon="6.30976">
        <ele>714.21</ele>
        <time>2018-09-15T13:30:09.000Z</time>
      </trkpt>
      <trkpt lat="46.19797" lon="6.30955">
        <ele>714.2</ele>
        <time>2018-09-15T13:30:14.000Z</time>
      </trkpt>
      <trkpt lat="46.1982" lon="6.30935">
        <ele>715.2</ele>
        <time>2018-09-15T13:30:19.000Z</time>
      </trkpt>
      <trkpt lat="46.19843" lon="6.30915">
        <ele>716.25</ele>
        <time>2018-09-15T13:30:24.000Z</time>
      </trkpt>
      <trkpt lat="46.19865" lon="6.30892">
        <ele>716.2</ele>
        <time>2018-09-15T13:30:29.000Z</time>
      </trkpt>
      <trkpt lat="46.19887" lon="6.30868">
        <ele>717.2</ele>
        <time>2018-09-15T13:30:34.000Z</time>
      </trkpt>
      <trkpt lat="46.19908" lon="6.30843">
        <ele>716.26</ele>
        <time>2018-09-15T13:30:39.000Z</time>
      </trkpt>
      <trkpt lat="46.19929" lon="6.30815">
        <ele>716.45</ele>
        <time>2018-09-15T13:30:44.000Z</time>
      </trkpt>
      <trkpt lat="46.19954" lon="6.30789">
        <ele>717.01</ele>
        <time>2018-09-15T13:30:49.000Z</time>
      </trkpt>
      <trkpt lat="46.19979" lon="6.30763">
        <ele>715.45</ele>
        <time>2018-09-15T13:30:54.000Z</time>
      </trkpt>
      <trkpt lat="46.20005" lon="6.3074">
        <ele>715.14</ele>
        <time>2018-09-15T13:30:59.000Z</time>
      </trkpt>
      <trkpt lat="46.20032" lon="6.30718">
        <ele>715.2</ele>
        <time>2018-09-15T13:31:04.000Z</time>
      </trkpt>
      <trkpt lat="46.20062" lon="6.30699">
        <ele>715.45</ele>
        <time>2018-09-15T13:31:09.000Z</time>
      </trkpt>
      <trkpt lat="46.20091" lon="6.30685">
        <ele>715.21</ele>
        <time>2018-09-15T13:31:14.000Z</time>
      </trkpt>
      <trkpt lat="46.20118" lon="6.30671">
        <ele>715.15</ele>
        <time>2018-09-15T13:31:19.000Z</time>
      </trkpt>
      <trkpt lat="46.20145" lon="6.30655">
        <ele>714.22</ele>
        <time>2018-09-15T13:31:24.000Z</time>
      </trkpt>
      <trkpt lat="46.20157" lon="6.30642">
        <ele>715.19</ele>
        <time>2018-09-15T13:31:29.000Z</time>
      </trkpt>
      <trkpt lat="46.20149" lon="6.30608">
        <ele>714.2</ele>
        <time>2018-09-15T13:31:34.000Z</time>
      </trkpt>
      <trkpt lat="46.20125" lon="6.30578">
        <ele>710.46</ele>
        <time>2018-09-15T13:31:39.000Z</time>
      </trkpt>
      <trkpt lat="46.20089" lon="6.30546">
        <ele>707.27</ele>
        <time>2018-09-15T13:31:44.000Z</time>
      </trkpt>
      <trkpt lat="46.20043" lon="6.30509">
        <ele>701.68</ele>
        <time>2018-09-15T13:31:49.000Z</time>
      </trkpt>
      <trkpt lat="46.20003" lon="6.30478">
        <ele>697.47</ele>
        <time>2018-09-15T13:31:54.000Z</time>
      </trkpt>
      <trkpt lat="46.19958" lon="6.30443">
        <ele>693.53</ele>
        <time>2018-09-15T13:31:59.000Z</time>
      </trkpt>
      <trkpt lat="46.19905" lon="6.30409">
        <ele>685.79</ele>
        <time>2018-09-15T13:32:04.000Z</time>
      </trkpt>
      <trkpt lat="46.19851" lon="6.30401">
        <ele>679.55</ele>
        <time>2018-09-15T13:32:09.000Z</time>
      </trkpt>
      <trkpt lat="46.19796" lon="6.30437">
        <ele>676.47</ele>
        <time>2018-09-15T13:32:14.000Z</time>
      </trkpt>
      <trkpt lat="46.19737" lon="6.30458">
        <ele>672.47</ele>
        <time>2018-09-15T13:32:19.000Z</time>
      </trkpt>
      <trkpt lat="46.19694" lon="6.30467">
        <ele>668.54</ele>
        <time>2018-09-15T13:32:24.000Z</time>
      </trkpt>
      <trkpt lat="46.19668" lon="6.30439">
        <ele>666.46</ele>
        <time>2018-09-15T13:32:29.000Z</time>
      </trkpt>
      <trkpt lat="46.19685" lon="6.30393">
        <ele>661.55</ele>
        <time>2018-09-15T13:32:34.000Z</time>
      </trkpt>
      <trkpt lat="46.19723" lon="6.3035">
        <ele>654.54</ele>
        <time>2018-09-15T13:32:39.000Z</time>
      </trkpt>
      <trkpt lat="46.19751" lon="6.30278">
        <ele>647.79</ele>
        <time>2018-09-15T13:32:44.000Z</time>
      </trkpt>
      <trkpt lat="46.19782" lon="6.30199">
        <ele>642.48</ele>
        <time>2018-09-15T13:32:49.000Z</time>
      </trkpt>
      <trkpt lat="46.19819" lon="6.30126">
        <ele>635.83</ele>
        <time>2018-09-15T13:32:54.000Z</time>
      </trkpt>
      <trkpt lat="46.19866" lon="6.3006">
        <ele>632.22</ele>
        <time>2018-09-15T13:32:59.000Z</time>
      </trkpt>
      <trkpt lat="46.199" lon="6.30019">
        <ele>622.62</ele>
        <time>2018-09-15T13:33:04.000Z</time>
      </trkpt>
      <trkpt lat="46.19906" lon="6.29977">
        <ele>618.47</ele>
        <time>2018-09-15T13:33:09.000Z</time>
      </trkpt>
      <trkpt lat="46.19863" lon="6.29945">
        <ele>613.35</ele>
        <time>2018-09-15T13:33:14.000Z</time>
      </trkpt>
      <trkpt lat="46.19814" lon="6.29915">
        <ele>607.6</ele>
        <time>2018-09-15T13:33:19.000Z</time>
      </trkpt>
      <trkpt lat="46.1977" lon="6.29894">
        <ele>601.55</ele>
        <time>2018-09-15T13:33:24.000Z</time>
      </trkpt>
      <trkpt lat="46.1974" lon="6.29879">
        <ele>597.52</ele>
        <time>2018-09-15T13:33:29.000Z</time>
      </trkpt>
      <trkpt lat="46.1972" lon="6.29845">
        <ele>592.55</ele>
        <time>2018-09-15T13:33:34.000Z</time>
      </trkpt>
      <trkpt lat="46.19705" lon="6.29812">
        <ele>588.48</ele>
        <time>2018-09-15T13:33:39.000Z</time>
      </trkpt>
      <trkpt lat="46.19692" lon="6.29778">
        <ele>586.27</ele>
        <time>2018-09-15T13:33:44.000Z</time>
      </trkpt>
      <trkpt lat="46.19684" lon="6.29749">
        <ele>587.45</ele>
        <time>2018-09-15T13:33:49.000Z</time>
      </trkpt>
      <trkpt lat="46.1969" lon="6.29723">
        <ele>586.44</ele>
        <time>2018-09-15T13:33:54.000Z</time>
      </trkpt>
      <trkpt lat="46.19706" lon="6.29716">
        <ele>587.94</ele>
        <time>2018-09-15T13:33:59.000Z</time>
      </trkpt>
      <trkpt lat="46.19718" lon="6.29708">
        <ele>589.95</ele>
        <time>2018-09-15T13:34:04.000Z</time>
      </trkpt>
      <trkpt lat="46.19732" lon="6.29702">
        <ele>590.28</ele>
        <time>2018-09-15T13:34:09.000Z</time>
      </trkpt>
      <trkpt lat="46.19748" lon="6.29699">
        <ele>591.5</ele>
        <time>2018-09-15T13:34:14.000Z</time>
      </trkpt>
      <trkpt lat="46.19766" lon="6.29697">
        <ele>593.2</ele>
        <time>2018-09-15T13:34:19.000Z</time>
      </trkpt>
      <trkpt lat="46.1979" lon="6.29703">
        <ele>592.27</ele>
        <time>2018-09-15T13:34:24.000Z</time>
      </trkpt>
      <trkpt lat="46.19816" lon="6.29701">
        <ele>592.22</ele>
        <time>2018-09-15T13:34:29.000Z</time>
      </trkpt>
      <trkpt lat="46.19847" lon="6.29697">
        <ele>589.52</ele>
        <time>2018-09-15T13:34:34.000Z</time>
      </trkpt>
      <trkpt lat="46.19878" lon="6.29697">
        <ele>588.45</ele>
        <time>2018-09-15T13:34:39.000Z</time>
      </trkpt>
      <trkpt lat="46.19909" lon="6.29694">
        <ele>586.27</ele>
        <time>2018-09-15T13:34:44.000Z</time>
      </trkpt>
      <trkpt lat="46.19945" lon="6.2969">
        <ele>585.22</ele>
        <time>2018-09-15T13:34:49.000Z</time>
      </trkpt>
      <trkpt lat="46.19986" lon="6.29682">
        <ele>582.47</ele>
        <time>2018-09-15T13:34:54.000Z</time>
      </trkpt>
      <trkpt lat="46.20027" lon="6.29686">
        <ele>579.71</ele>
        <time>2018-09-15T13:34:59.000Z</time>
      </trkpt>
      <trkpt lat="46.20069" lon="6.29693">
        <ele>578.45</ele>
        <time>2018-09-15T13:35:04.000Z</time>
      </trkpt>
      <trkpt lat="46.2011" lon="6.29702">
        <ele>577.21</ele>
        <time>2018-09-15T13:35:09.000Z</time>
      </trkpt>
      <trkpt lat="46.20152" lon="6.29709">
        <ele>575.51</ele>
        <time>2018-09-15T13:35:14.000Z</time>
      </trkpt>
      <trkpt lat="46.20197" lon="6.29724">
        <ele>570.48</ele>
        <time>2018-09-15T13:35:19.000Z</time>
      </trkpt>
      <trkpt lat="46.20252" lon="6.2971">
        <ele>565.53</ele>
        <time>2018-09-15T13:35:24.000Z</time>
      </trkpt>
      <trkpt lat="46.20314" lon="6.29714">
        <ele>560.51</ele>
        <time>2018-09-15T13:35:29.000Z</time>
      </trkpt>
      <trkpt lat="46.20381" lon="6.29719">
        <ele>552.92</ele>
        <time>2018-09-15T13:35:34.000Z</time>
      </trkpt>
      <trkpt lat="46.20448" lon="6.29722">
        <ele>547.55</ele>
        <time>2018-09-15T13:35:39.000Z</time>
      </trkpt>
      <trkpt lat="46.20513" lon="6.29714">
        <ele>540.6</ele>
        <time>2018-09-15T13:35:44.000Z</time>
      </trkpt>
      <trkpt lat="46.20576" lon="6.29711">
        <ele>535.73</ele>
        <time>2018-09-15T13:35:49.000Z</time>
      </trkpt>
      <trkpt lat="46.20639" lon="6.29716">
        <ele>528.61</ele>
        <time>2018-09-15T13:35:54.000Z</time>
      </trkpt>
      <trkpt lat="46.20702" lon="6.29721">
        <ele>525.26</ele>
        <time>2018-09-15T13:35:59.000Z</time>
      </trkpt>
      <trkpt lat="46.20755" lon="6.29724">
        <ele>525.95</ele>
        <time>2018-09-15T13:36:04.000Z</time>
      </trkpt>
      <trkpt lat="46.20804" lon="6.29727">
        <ele>526.2</ele>
        <time>2018-09-15T13:36:09.000Z</time>
      </trkpt>
      <trkpt lat="46.20847" lon="6.29737">
        <ele>526.18</ele>
        <time>2018-09-15T13:36:14.000Z</time>
      </trkpt>
      <trkpt lat="46.20881" lon="6.2975">
        <ele>525.34</ele>
        <time>2018-09-15T13:36:19.000Z</time>
      </trkpt>
      <trkpt lat="46.20917" lon="6.29769">
        <ele>525.19</ele>
        <time>2018-09-15T13:36:24.000Z</time>
      </trkpt>
      <trkpt lat="46.20945" lon="6.298">
        <ele>526.32</ele>
        <time>2018-09-15T13:36:29.000Z</time>
      </trkpt>
      <trkpt lat="46.20973" lon="6.29825">
        <ele>523.22</ele>
        <time>2018-09-15T13:36:34.000Z</time>
      </trkpt>
      <trkpt lat="46.21002" lon="6.29851">
        <ele>521.45</ele>
        <time>2018-09-15T13:36:39.000Z</time>
      </trkpt>
      <trkpt lat="46.21029" lon="6.29885">
        <ele>522.26</ele>
        <time>2018-09-15T13:36:44.000Z</time>
      </trkpt>
      <trkpt lat="46.21056" lon="6.29917">
        <ele>523.19</ele>
        <time>2018-09-15T13:36:49.000Z</time>
      </trkpt>
      <trkpt lat="46.2108" lon="6.29947">
        <ele>522.21</ele>
        <time>2018-09-15T13:36:54.000Z</time>
      </trkpt>
      <trkpt lat="46.21106" lon="6.29973">
        <ele>521.62</ele>
        <time>2018-09-15T13:36:59.000Z</time>
      </trkpt>
      <trkpt lat="46.21131" lon="6.29999">
        <ele>522.38</ele>
        <time>2018-09-15T13:37:04.000Z</time>
      </trkpt>
      <trkpt lat="46.21158" lon="6.30021">
        <ele>522.2</ele>
        <time>2018-09-15T13:37:09.000Z</time>
      </trkpt>
      <trkpt lat="46.21185" lon="6.30031">
        <ele>524.13</ele>
        <time>2018-09-15T13:37:14.000Z</time>
      </trkpt>
      <trkpt lat="46.21204" lon="6.30017">
        <ele>525.18</ele>
        <time>2018-09-15T13:37:19.000Z</time>
      </trkpt>
      <trkpt lat="46.21205" lon="6.29982">
        <ele>526.13</ele>
        <time>2018-09-15T13:37:24.000Z</time>
      </trkpt>
      <trkpt lat="46.21215" lon="6.29956">
        <ele>527.18</ele>
        <time>2018-09-15T13:37:29.000Z</time>
      </trkpt>
      <trkpt lat="46.21227" lon="6.2994">
        <ele>529.13</ele>
        <time>2018-09-15T13:37:34.000Z</time>
      </trkpt>
      <trkpt lat="46.21241" lon="6.29925">
        <ele>531.17</ele>
        <time>2018-09-15T13:37:39.000Z</time>
      </trkpt>
      <trkpt lat="46.21254" lon="6.29912">
        <ele>533.17</ele>
        <time>2018-09-15T13:37:44.000Z</time>
      </trkpt>
      <trkpt lat="46.21267" lon="6.29901">
        <ele>535.17</ele>
        <time>2018-09-15T13:37:49.000Z</time>
      </trkpt>
      <trkpt lat="46.21281" lon="6.29887">
        <ele>535.19</ele>
        <time>2018-09-15T13:37:54.000Z</time>
      </trkpt>
      <trkpt lat="46.21297" lon="6.29871">
        <ele>535.19</ele>
        <time>2018-09-15T13:37:59.000Z</time>
      </trkpt>
      <trkpt lat="46.21318" lon="6.29851">
        <ele>535.19</ele>
        <time>2018-09-15T13:38:04.000Z</time>
      </trkpt>
      <trkpt lat="46.21346" lon="6.29833">
        <ele>534.19</ele>
        <time>2018-09-15T13:38:09.000Z</time>
      </trkpt>
      <trkpt lat="46.21337" lon="6.298">
        <ele>534.13</ele>
        <time>2018-09-15T13:38:14.000Z</time>
      </trkpt>
      <trkpt lat="46.21309" lon="6.29776">
        <ele>533.25</ele>
        <time>2018-09-15T13:38:19.000Z</time>
      </trkpt>
      <trkpt lat="46.21281" lon="6.29749">
        <ele>531.27</ele>
        <time>2018-09-15T13:38:24.000Z</time>
      </trkpt>
      <trkpt lat="46.21251" lon="6.29721">
        <ele>533.16</ele>
        <time>2018-09-15T13:38:29.000Z</time>
      </trkpt>
      <trkpt lat="46.21222" lon="6.29694">
        <ele>531.15</ele>
        <time>2018-09-15T13:38:34.000Z</time>
      </trkpt>
      <trkpt lat="46.21195" lon="6.29666">
        <ele>531.19</ele>
        <time>2018-09-15T13:38:39.000Z</time>
      </trkpt>
      <trkpt lat="46.21169" lon="6.29636">
        <ele>532.14</ele>
        <time>2018-09-15T13:38:44.000Z</time>
      </trkpt>
      <trkpt lat="46.21142" lon="6.29603">
        <ele>530.27</ele>
        <time>2018-09-15T13:38:49.000Z</time>
      </trkpt>
      <trkpt lat="46.21112" lon="6.29574">
        <ele>530.13</ele>
        <time>2018-09-15T13:38:54.000Z</time>
      </trkpt>
      <trkpt lat="46.21079" lon="6.29549">
        <ele>532.18</ele>
        <time>2018-09-15T13:38:59.000Z</time>
      </trkpt>
      <trkpt lat="46.21043" lon="6.29524">
        <ele>531.2</ele>
        <time>2018-09-15T13:39:04.000Z</time>
      </trkpt>
      <trkpt lat="46.21005" lon="6.29502">
        <ele>530.26</ele>
        <time>2018-09-15T13:39:09.000Z</time>
      </trkpt>
      <trkpt lat="46.20967" lon="6.2948">
        <ele>530.18</ele>
        <time>2018-09-15T13:39:14.000Z</time>
      </trkpt>
      <trkpt lat="46.20929" lon="6.29458">
        <ele>530.19</ele>
        <time>2018-09-15T13:39:19.000Z</time>
      </trkpt>
      <trkpt lat="46.20891" lon="6.29433">
        <ele>531.19</ele>
        <time>2018-09-15T13:39:24.000Z</time>
      </trkpt>
      <trkpt lat="46.20853" lon="6.29408">
        <ele>532.19</ele>
        <time>2018-09-15T13:39:29.000Z</time>
      </trkpt>
      <trkpt lat="46.20814" lon="6.29379">
        <ele>532.2</ele>
        <time>2018-09-15T13:39:34.000Z</time>
      </trkpt>
      <trkpt lat="46.20778" lon="6.29344">
        <ele>532.2</ele>
        <time>2018-09-15T13:39:39.000Z</time>
      </trkpt>
      <trkpt lat="46.20743" lon="6.29304">
        <ele>531.26</ele>
        <time>2018-09-15T13:39:44.000Z</time>
      </trkpt>
      <trkpt lat="46.20721" lon="6.2925">
        <ele>530.39</ele>
        <time>2018-09-15T13:39:49.000Z</time>
      </trkpt>
      <trkpt lat="46.20716" lon="6.29191">
        <ele>527.46</ele>
        <time>2018-09-15T13:39:54.000Z</time>
      </trkpt>
      <trkpt lat="46.20726" lon="6.2913">
        <ele>526.2</ele>
        <time>2018-09-15T13:39:59.000Z</time>
      </trkpt>
      <trkpt lat="46.20746" lon="6.29076">
        <ele>525.2</ele>
        <time>2018-09-15T13:40:04.000Z</time>
      </trkpt>
      <trkpt lat="46.20756" lon="6.29022">
        <ele>527.19</ele>
        <time>2018-09-15T13:40:09.000Z</time>
      </trkpt>
      <trkpt lat="46.20755" lon="6.2897">
        <ele>527.93</ele>
        <time>2018-09-15T13:40:14.000Z</time>
      </trkpt>
      <trkpt lat="46.20741" lon="6.28924">
        <ele>527.25</ele>
        <time>2018-09-15T13:40:19.000Z</time>
      </trkpt>
      <trkpt lat="46.20717" lon="6.28881">
        <ele>526.2</ele>
        <time>2018-09-15T13:40:24.000Z</time>
      </trkpt>
      <trkpt lat="46.2069" lon="6.28838">
        <ele>526.2</ele>
        <time>2018-09-15T13:40:29.000Z</time>
      </trkpt>
      <trkpt lat="46.20662" lon="6.28793">
        <ele>524.45</ele>
        <time>2018-09-15T13:40:34.000Z</time>
      </trkpt>
      <trkpt lat="46.20633" lon="6.28748">
        <ele>523.26</ele>
        <time>2018-09-15T13:40:39.000Z</time>
      </trkpt>
      <trkpt lat="46.20603" lon="6.28704">
        <ele>521.4</ele>
        <time>2018-09-15T13:40:44.000Z</time>
      </trkpt>
      <trkpt lat="46.20604" lon="6.28678">
        <ele>522.2</ele>
        <time>2018-09-15T13:40:49.000Z</time>
      </trkpt>
      <trkpt lat="46.20628" lon="6.28656">
        <ele>522.2</ele>
        <time>2018-09-15T13:40:54.000Z</time>
      </trkpt>
      <trkpt lat="46.20652" lon="6.28635">
        <ele>522.15</ele>
        <time>2018-09-15T13:40:59.000Z</time>
      </trkpt>
      <trkpt lat="46.20677" lon="6.28628">
        <ele>520.28</ele>
        <time>2018-09-15T13:41:04.000Z</time>
      </trkpt>
      <trkpt lat="46.20671" lon="6.28592">
        <ele>520.2</ele>
        <time>2018-09-15T13:41:09.000Z</time>
      </trkpt>
      <trkpt lat="46.20647" lon="6.28552">
        <ele>520.2</ele>
        <time>2018-09-15T13:41:14.000Z</time>
      </trkpt>
      <trkpt lat="46.20628" lon="6.28498">
        <ele>520.15</ele>
        <time>2018-09-15T13:41:19.000Z</time>
      </trkpt>
      <trkpt lat="46.20607" lon="6.2844">
        <ele>518.45</ele>
        <time>2018-09-15T13:41:24.000Z</time>
      </trkpt>
      <trkpt lat="46.20585" lon="6.28378">
        <ele>517.21</ele>
        <time>2018-09-15T13:41:29.000Z</time>
      </trkpt>
      <trkpt lat="46.20561" lon="6.28313">
        <ele>514.53</ele>
        <time>2018-09-15T13:41:34.000Z</time>
      </trkpt>
      <trkpt lat="46.20537" lon="6.28246">
        <ele>513.2</ele>
        <time>2018-09-15T13:41:39.000Z</time>
      </trkpt>
      <trkpt lat="46.20513" lon="6.2818">
        <ele>512.46</ele>
        <time>2018-09-15T13:41:44.000Z</time>
      </trkpt>
      <trkpt lat="46.20496" lon="6.28121">
        <ele>511.26</ele>
        <time>2018-09-15T13:41:49.000Z</time>
      </trkpt>
      <trkpt lat="46.20475" lon="6.28073">
        <ele>511.43</ele>
        <time>2018-09-15T13:41:54.000Z</time>
      </trkpt>
      <trkpt lat="46.20456" lon="6.28014">
        <ele>511.2</ele>
        <time>2018-09-15T13:41:59.000Z</time>
      </trkpt>
      <trkpt lat="46.20434" lon="6.27953">
        <ele>511.2</ele>
        <time>2018-09-15T13:42:04.000Z</time>
      </trkpt>
      <trkpt lat="46.20413" lon="6.27896">
        <ele>511.2</ele>
        <time>2018-09-15T13:42:09.000Z</time>
      </trkpt>
      <trkpt lat="46.20398" lon="6.27863">
        <ele>510.2</ele>
        <time>2018-09-15T13:42:14.000Z</time>
      </trkpt>
      <trkpt lat="46.20385" lon="6.27829">
        <ele>508.21</ele>
        <time>2018-09-15T13:42:19.000Z</time>
      </trkpt>
      <trkpt lat="46.2037" lon="6.27788">
        <ele>507.22</ele>
        <time>2018-09-15T13:42:24.000Z</time>
      </trkpt>
      <trkpt lat="46.20359" lon="6.27758">
        <ele>507.2</ele>
        <time>2018-09-15T13:42:29.000Z</time>
      </trkpt>
      <trkpt lat="46.2035" lon="6.2773">
        <ele>505.47</ele>
        <time>2018-09-15T13:42:34.000Z</time>
      </trkpt>
      <trkpt lat="46.20336" lon="6.27691">
        <ele>505.25</ele>
        <time>2018-09-15T13:42:39.000Z</time>
      </trkpt>
      <trkpt lat="46.2032" lon="6.27647">
        <ele>504.22</ele>
        <time>2018-09-15T13:42:44.000Z</time>
      </trkpt>
      <trkpt lat="46.203" lon="6.27592">
        <ele>502.45</ele>
        <time>2018-09-15T13:42:49.000Z</time>
      </trkpt>
      <trkpt lat="46.20281" lon="6.27533">
        <ele>500.27</ele>
        <time>2018-09-15T13:42:54.000Z</time>
      </trkpt>
      <trkpt lat="46.20257" lon="6.27471">
        <ele>499.21</ele>
        <time>2018-09-15T13:42:59.000Z</time>
      </trkpt>
      <trkpt lat="46.20236" lon="6.2741">
        <ele>499.2</ele>
        <time>2018-09-15T13:43:04.000Z</time>
      </trkpt>
      <trkpt lat="46.20215" lon="6.27368">
        <ele>497.28</ele>
        <time>2018-09-15T13:43:09.000Z</time>
      </trkpt>
      <trkpt lat="46.20207" lon="6.27325">
        <ele>496.45</ele>
        <time>2018-09-15T13:43:14.000Z</time>
      </trkpt>
      <trkpt lat="46.20216" lon="6.27271">
        <ele>495.21</ele>
        <time>2018-09-15T13:43:19.000Z</time>
      </trkpt>
      <trkpt lat="46.2021" lon="6.27211">
        <ele>494.27</ele>
        <time>2018-09-15T13:43:24.000Z</time>
      </trkpt>
      <trkpt lat="46.20202" lon="6.27145">
        <ele>492.22</ele>
        <time>2018-09-15T13:43:29.000Z</time>
      </trkpt>
      <trkpt lat="46.20193" lon="6.27074">
        <ele>490.27</ele>
        <time>2018-09-15T13:43:34.000Z</time>
      </trkpt>
      <trkpt lat="46.20183" lon="6.27001">
        <ele>489.21</ele>
        <time>2018-09-15T13:43:39.000Z</time>
      </trkpt>
      <trkpt lat="46.20172" lon="6.26927">
        <ele>487.22</ele>
        <time>2018-09-15T13:43:44.000Z</time>
      </trkpt>
      <trkpt lat="46.2016" lon="6.26854">
        <ele>485.47</ele>
        <time>2018-09-15T13:43:49.000Z</time>
      </trkpt>
      <trkpt lat="46.2015" lon="6.26779">
        <ele>485.21</ele>
        <time>2018-09-15T13:43:54.000Z</time>
      </trkpt>
      <trkpt lat="46.2014" lon="6.26704">
        <ele>484.21</ele>
        <time>2018-09-15T13:43:59.000Z</time>
      </trkpt>
      <trkpt lat="46.20129" lon="6.26629">
        <ele>484.21</ele>
        <time>2018-09-15T13:44:04.000Z</time>
      </trkpt>
      <trkpt lat="46.20119" lon="6.26553">
        <ele>484.21</ele>
        <time>2018-09-15T13:44:09.000Z</time>
      </trkpt>
      <trkpt lat="46.20117" lon="6.26478">
        <ele>484.19</ele>
        <time>2018-09-15T13:44:14.000Z</time>
      </trkpt>
      <trkpt lat="46.20124" lon="6.26417">
        <ele>484.21</ele>
        <time>2018-09-15T13:44:19.000Z</time>
      </trkpt>
      <trkpt lat="46.201" lon="6.26404">
        <ele>484.21</ele>
        <time>2018-09-15T13:44:24.000Z</time>
      </trkpt>
      <trkpt lat="46.20075" lon="6.26426">
        <ele>483.27</ele>
        <time>2018-09-15T13:44:29.000Z</time>
      </trkpt>
      <trkpt lat="46.20038" lon="6.26429">
        <ele>483.21</ele>
        <time>2018-09-15T13:44:34.000Z</time>
      </trkpt>
      <trkpt lat="46.19997" lon="6.26418">
        <ele>481.27</ele>
        <time>2018-09-15T13:44:39.000Z</time>
      </trkpt>
      <trkpt lat="46.19954" lon="6.26405">
        <ele>480.22</ele>
        <time>2018-09-15T13:44:44.000Z</time>
      </trkpt>
      <trkpt lat="46.1991" lon="6.26395">
        <ele>480.21</ele>
        <time>2018-09-15T13:44:49.000Z</time>
      </trkpt>
      <trkpt lat="46.19864" lon="6.26381">
        <ele>480.22</ele>
        <time>2018-09-15T13:44:54.000Z</time>
      </trkpt>
      <trkpt lat="46.19818" lon="6.2637">
        <ele>478.46</ele>
        <time>2018-09-15T13:44:59.000Z</time>
      </trkpt>
      <trkpt lat="46.19772" lon="6.26356">
        <ele>477.98</ele>
        <time>2018-09-15T13:45:04.000Z</time>
      </trkpt>
      <trkpt lat="46.19725" lon="6.26337">
        <ele>478.15</ele>
        <time>2018-09-15T13:45:09.000Z</time>
      </trkpt>
      <trkpt lat="46.19696" lon="6.26283">
        <ele>476.28</ele>
        <time>2018-09-15T13:45:14.000Z</time>
      </trkpt>
      <trkpt lat="46.19676" lon="6.26217">
        <ele>474.48</ele>
        <time>2018-09-15T13:45:19.000Z</time>
      </trkpt>
      <trkpt lat="46.19664" lon="6.26151">
        <ele>473.21</ele>
        <time>2018-09-15T13:45:24.000Z</time>
      </trkpt>
      <trkpt lat="46.19654" lon="6.26082">
        <ele>473.21</ele>
        <time>2018-09-15T13:45:29.000Z</time>
      </trkpt>
      <trkpt lat="46.19644" lon="6.2601">
        <ele>472.27</ele>
        <time>2018-09-15T13:45:34.000Z</time>
      </trkpt>
      <trkpt lat="46.19633" lon="6.25938">
        <ele>470.28</ele>
        <time>2018-09-15T13:45:39.000Z</time>
      </trkpt>
      <trkpt lat="46.19621" lon="6.25864">
        <ele>468.34</ele>
        <time>2018-09-15T13:45:44.000Z</time>
      </trkpt>
      <trkpt lat="46.19609" lon="6.25789">
        <ele>467.28</ele>
        <time>2018-09-15T13:45:49.000Z</time>
      </trkpt>
      <trkpt lat="46.19611" lon="6.25718">
        <ele>465.23</ele>
        <time>2018-09-15T13:45:54.000Z</time>
      </trkpt>
      <trkpt lat="46.19621" lon="6.25669">
        <ele>464.22</ele>
        <time>2018-09-15T13:45:59.000Z</time>
      </trkpt>
      <trkpt lat="46.19634" lon="6.25617">
        <ele>462.46</ele>
        <time>2018-09-15T13:46:04.000Z</time>
      </trkpt>
      <trkpt lat="46.19647" lon="6.25559">
        <ele>461.46</ele>
        <time>2018-09-15T13:46:09.000Z</time>
      </trkpt>
      <trkpt lat="46.19658" lon="6.25501">
        <ele>458.53</ele>
        <time>2018-09-15T13:46:14.000Z</time>
      </trkpt>
      <trkpt lat="46.19663" lon="6.25471">
        <ele>458.21</ele>
        <time>2018-09-15T13:46:19.000Z</time>
      </trkpt>
      <trkpt lat="46.19672" lon="6.25427">
        <ele>456.22</ele>
        <time>2018-09-15T13:46:24.000Z</time>
      </trkpt>
      <trkpt lat="46.19684" lon="6.25381">
        <ele>453.47</ele>
        <time>2018-09-15T13:46:29.000Z</time>
      </trkpt>
      <trkpt lat="46.19701" lon="6.25335">
        <ele>451.28</ele>
        <time>2018-09-15T13:46:34.000Z</time>
      </trkpt>
      <trkpt lat="46.19717" lon="6.25294">
        <ele>448.48</ele>
        <time>2018-09-15T13:46:39.000Z</time>
      </trkpt>
      <trkpt lat="46.19723" lon="6.25257">
        <ele>447.22</ele>
        <time>2018-09-15T13:46:44.000Z</time>
      </trkpt>
      <trkpt lat="46.19725" lon="6.25244">
        <ele>446.21</ele>
        <time>2018-09-15T13:47:21.000Z</time>
      </trkpt>
      <trkpt lat="46.19724" lon="6.25226">
        <ele>446.21</ele>
        <time>2018-09-15T13:47:26.000Z</time>
      </trkpt>
      <trkpt lat="46.19705" lon="6.25209">
        <ele>446.21</ele>
        <time>2018-09-15T13:47:31.000Z</time>
      </trkpt>
      <trkpt lat="46.19673" lon="6.25205">
        <ele>445.21</ele>
        <time>2018-09-15T13:47:36.000Z</time>
      </trkpt>
      <trkpt lat="46.19633" lon="6.25191">
        <ele>445.21</ele>
        <time>2018-09-15T13:47:41.000Z</time>
      </trkpt>
      <trkpt lat="46.19589" lon="6.25166">
        <ele>444.22</ele>
        <time>2018-09-15T13:47:46.000Z</time>
      </trkpt>
      <trkpt lat="46.19559" lon="6.25148">
        <ele>445.95</ele>
        <time>2018-09-15T13:47:51.000Z</time>
      </trkpt>
      <trkpt lat="46.19533" lon="6.25136">
        <ele>445.03</ele>
        <time>2018-09-15T13:47:56.000Z</time>
      </trkpt>
      <trkpt lat="46.19501" lon="6.25126">
        <ele>444.23</ele>
        <time>2018-09-15T13:48:01.000Z</time>
      </trkpt>
      <trkpt lat="46.19464" lon="6.25115">
        <ele>444.22</ele>
        <time>2018-09-15T13:48:06.000Z</time>
      </trkpt>
      <trkpt lat="46.19445" lon="6.25115">
        <ele>444.47</ele>
        <time>2018-09-15T13:48:11.000Z</time>
      </trkpt>
      <trkpt lat="46.19425" lon="6.25104">
        <ele>445.21</ele>
        <time>2018-09-15T13:48:16.000Z</time>
      </trkpt>
      <trkpt lat="46.19405" lon="6.25084">
        <ele>444.97</ele>
        <time>2018-09-15T13:48:21.000Z</time>
      </trkpt>
      <trkpt lat="46.19377" lon="6.25096">
        <ele>445.97</ele>
        <time>2018-09-15T13:48:26.000Z</time>
      </trkpt>
      <trkpt lat="46.19348" lon="6.25097">
        <ele>448.71</ele>
        <time>2018-09-15T13:48:31.000Z</time>
      </trkpt>
      <trkpt lat="46.19317" lon="6.25099">
        <ele>451.15</ele>
        <time>2018-09-15T13:48:36.000Z</time>
      </trkpt>
      <trkpt lat="46.19287" lon="6.251">
        <ele>451.42</ele>
        <time>2018-09-15T13:48:41.000Z</time>
      </trkpt>
      <trkpt lat="46.19274" lon="6.25102">
        <ele>452.21</ele>
        <time>2018-09-15T13:48:46.000Z</time>
      </trkpt>
      <trkpt lat="46.19277" lon="6.25088">
        <ele>454.22</ele>
        <time>2018-09-15T13:49:05.000Z</time>
      </trkpt>
      <trkpt lat="46.1928" lon="6.25071">
        <ele>454.22</ele>
        <time>2018-09-15T13:49:10.000Z</time>
      </trkpt>
      <trkpt lat="46.19283" lon="6.25046">
        <ele>453.28</ele>
        <time>2018-09-15T13:49:15.000Z</time>
      </trkpt>
      <trkpt lat="46.19286" lon="6.25019">
        <ele>450.68</ele>
        <time>2018-09-15T13:49:20.000Z</time>
      </trkpt>
    </trkseg>
  </trk>
</gpx>